<?xml version="1.0" encoding="UTF-8" standalone="no" ?><gpx xmlns="http://www.topografix.com/GPX/1/1" xmlns:gpxx="http://www.garmin.com/xmlschemas/GpxExtensions/v3" xmlns:wptx1="http://www.garmin.com/xmlschemas/WaypointExtension/v1" xmlns:gpxtpx="http://www.garmin.com/xmlschemas/TrackPointExtension/v1" creator="GuideVTT.com" version="1.1" xmlns:xsi="http://www.w3.org/2001/XMLSchema-instance" xsi:schemaLocation="http://www.topografix.com/GPX/1/1 http://www.topografix.com/GPX/1/1/gpx.xsd http://www.garmin.com/xmlschemas/GpxExtensions/v3 http://www8.garmin.com/xmlschemas/GpxExtensionsv3.xsd http://www.garmin.com/xmlschemas/WaypointExtension/v1 http://www8.garmin.com/xmlschemas/WaypointExtensionv1.xsd http://www.garmin.com/xmlschemas/TrackPointExtension/v1 http://www.garmin.com/xmlschemas/TrackPointExtensionv1.xsd">
<metadata><link href="http://www.garmin.com"><text>Garmin International</text></link><time>2013-06-22T15:13:50Z</time></metadata>
<trk><name>08092010.gpx</name><extensions><gpxx:TrackExtension><gpxx:DisplayColor>Cyan</gpxx:DisplayColor></gpxx:TrackExtension></extensions><trkseg>
<trkpt lat="46.15136747" lon="5.97421473"><ele></ele><time>2016-6-18T15:29:20Z</time></trkpt>
<trkpt lat="46.15141324" lon="5.97417902"><ele></ele><time>2016-6-18T15:29:23Z</time></trkpt>
<trkpt lat="46.15145875" lon="5.97414399"><ele></ele><time>2016-6-18T15:29:26Z</time></trkpt>
<trkpt lat="46.15150603" lon="5.97411197"><ele></ele><time>2016-6-18T15:29:29Z</time></trkpt>
<trkpt lat="46.15155565" lon="5.97408305"><ele></ele><time>2016-6-18T15:29:32Z</time></trkpt>
<trkpt lat="46.15160510" lon="5.97405656"><ele></ele><time>2016-6-18T15:29:35Z</time></trkpt>
<trkpt lat="46.15165338" lon="5.97402806"><ele></ele><time>2016-6-18T15:29:38Z</time></trkpt>
<trkpt lat="46.15170099" lon="5.97399697"><ele></ele><time>2016-6-18T15:29:41Z</time></trkpt>
<trkpt lat="46.15174826" lon="5.97396478"><ele></ele><time>2016-6-18T15:29:44Z</time></trkpt>
<trkpt lat="46.15179587" lon="5.97393016"><ele></ele><time>2016-6-18T15:29:47Z</time></trkpt>
<trkpt lat="46.15184465" lon="5.97389446"><ele></ele><time>2016-6-18T15:29:50Z</time></trkpt>
<trkpt lat="46.15189444" lon="5.97385875"><ele></ele><time>2016-6-18T15:29:53Z</time></trkpt>
<trkpt lat="46.15194440" lon="5.97382296"><ele></ele><time>2016-6-18T15:29:56Z</time></trkpt>
<trkpt lat="46.15199419" lon="5.97378608"><ele></ele><time>2016-6-18T15:29:59Z</time></trkpt>
<trkpt lat="46.15204406" lon="5.97374794"><ele></ele><time>2016-6-18T15:30:2Z</time></trkpt>
<trkpt lat="46.15209410" lon="5.97370922"><ele></ele><time>2016-6-18T15:30:5Z</time></trkpt>
<trkpt lat="46.15214515" lon="5.97367376"><ele></ele><time>2016-6-18T15:30:8Z</time></trkpt>
<trkpt lat="46.15219912" lon="5.97364317"><ele></ele><time>2016-6-18T15:30:11Z</time></trkpt>
<trkpt lat="46.15225269" lon="5.97361475"><ele></ele><time>2016-6-18T15:30:14Z</time></trkpt>
<trkpt lat="46.15230566" lon="5.97358533"><ele></ele><time>2016-6-18T15:30:17Z</time></trkpt>
<trkpt lat="46.15235696" lon="5.97355776"><ele></ele><time>2016-6-18T15:30:20Z</time></trkpt>
<trkpt lat="46.15240993" lon="5.97352616"><ele></ele><time>2016-6-18T15:30:23Z</time></trkpt>
<trkpt lat="46.15246315" lon="5.97349145"><ele></ele><time>2016-6-18T15:30:26Z</time></trkpt>
<trkpt lat="46.15251680" lon="5.97345625"><ele></ele><time>2016-6-18T15:30:29Z</time></trkpt>
<trkpt lat="46.15257053" lon="5.97342214"><ele></ele><time>2016-6-18T15:30:32Z</time></trkpt>
<trkpt lat="46.15262367" lon="5.97338928"><ele></ele><time>2016-6-18T15:30:35Z</time></trkpt>
<trkpt lat="46.15267664" lon="5.97335692"><ele></ele><time>2016-6-18T15:30:38Z</time></trkpt>
<trkpt lat="46.15272928" lon="5.97332457"><ele></ele><time>2016-6-18T15:30:41Z</time></trkpt>
<trkpt lat="46.15278167" lon="5.97329146"><ele></ele><time>2016-6-18T15:30:44Z</time></trkpt>
<trkpt lat="46.15283397" lon="5.97325793"><ele></ele><time>2016-6-18T15:30:47Z</time></trkpt>
<trkpt lat="46.15288518" lon="5.97322105"><ele></ele><time>2016-6-18T15:30:50Z</time></trkpt>
<trkpt lat="46.15293497" lon="5.97317889"><ele></ele><time>2016-6-18T15:30:53Z</time></trkpt>
<trkpt lat="46.15298459" lon="5.97313338"><ele></ele><time>2016-6-18T15:30:56Z</time></trkpt>
<trkpt lat="46.15303363" lon="5.97308652"><ele></ele><time>2016-6-18T15:30:59Z</time></trkpt>
<trkpt lat="46.15308065" lon="5.97303833"><ele></ele><time>2016-6-18T15:31:2Z</time></trkpt>
<trkpt lat="46.15312533" lon="5.97298644"><ele></ele><time>2016-6-18T15:31:5Z</time></trkpt>
<trkpt lat="46.15316715" lon="5.97293138"><ele></ele><time>2016-6-18T15:31:8Z</time></trkpt>
<trkpt lat="46.15320646" lon="5.97287103"><ele></ele><time>2016-6-18T15:31:11Z</time></trkpt>
<trkpt lat="46.15324343" lon="5.97280917"><ele></ele><time>2016-6-18T15:31:14Z</time></trkpt>
<trkpt lat="46.15328064" lon="5.97274865"><ele></ele><time>2016-6-18T15:31:17Z</time></trkpt>
<trkpt lat="46.15332054" lon="5.97268947"><ele></ele><time>2016-6-18T15:31:20Z</time></trkpt>
<trkpt lat="46.15336136" lon="5.97263147"><ele></ele><time>2016-6-18T15:31:23Z</time></trkpt>
<trkpt lat="46.15339966" lon="5.97257079"><ele></ele><time>2016-6-18T15:31:26Z</time></trkpt>
<trkpt lat="46.15343663" lon="5.97251253"><ele></ele><time>2016-6-18T15:31:29Z</time></trkpt>
<trkpt lat="46.15347737" lon="5.97246434"><ele></ele><time>2016-6-18T15:31:32Z</time></trkpt>
<trkpt lat="46.15352707" lon="5.97242913"><ele></ele><time>2016-6-18T15:31:35Z</time></trkpt>
<trkpt lat="46.15358155" lon="5.97241480"><ele></ele><time>2016-6-18T15:31:38Z</time></trkpt>
<trkpt lat="46.15362355" lon="5.97242519"><ele></ele><time>2016-6-18T15:31:41Z</time></trkpt>
<trkpt lat="46.15366663" lon="5.97244724"><ele></ele><time>2016-6-18T15:31:44Z</time></trkpt>
<trkpt lat="46.15370980" lon="5.97247548"><ele></ele><time>2016-6-18T15:31:47Z</time></trkpt>
<trkpt lat="46.15375254" lon="5.97250935"><ele></ele><time>2016-6-18T15:31:50Z</time></trkpt>
<trkpt lat="46.15379428" lon="5.97254866"><ele></ele><time>2016-6-18T15:31:53Z</time></trkpt>
<trkpt lat="46.15383427" lon="5.97258453"><ele></ele><time>2016-6-18T15:31:56Z</time></trkpt>
<trkpt lat="46.15387576" lon="5.97262267"><ele></ele><time>2016-6-18T15:31:59Z</time></trkpt>
<trkpt lat="46.15391607" lon="5.97266483"><ele></ele><time>2016-6-18T15:32:2Z</time></trkpt>
<trkpt lat="46.15395949" lon="5.97271512"><ele></ele><time>2016-6-18T15:32:5Z</time></trkpt>
<trkpt lat="46.15400425" lon="5.97276592"><ele></ele><time>2016-6-18T15:32:8Z</time></trkpt>
<trkpt lat="46.15404516" lon="5.97281026"><ele></ele><time>2016-6-18T15:32:11Z</time></trkpt>
<trkpt lat="46.15408623" lon="5.97285074"><ele></ele><time>2016-6-18T15:32:14Z</time></trkpt>
<trkpt lat="46.15412537" lon="5.97289265"><ele></ele><time>2016-6-18T15:32:17Z</time></trkpt>
<trkpt lat="46.15416493" lon="5.97293548"><ele></ele><time>2016-6-18T15:32:20Z</time></trkpt>
<trkpt lat="46.15420517" lon="5.97297655"><ele></ele><time>2016-6-18T15:32:23Z</time></trkpt>
<trkpt lat="46.15424565" lon="5.97301763"><ele></ele><time>2016-6-18T15:32:26Z</time></trkpt>
<trkpt lat="46.15428479" lon="5.97306515"><ele></ele><time>2016-6-18T15:32:29Z</time></trkpt>
<trkpt lat="46.15432570" lon="5.97310740"><ele></ele><time>2016-6-18T15:32:32Z</time></trkpt>
<trkpt lat="46.15436786" lon="5.97314679"><ele></ele><time>2016-6-18T15:32:35Z</time></trkpt>
<trkpt lat="46.15441002" lon="5.97318635"><ele></ele><time>2016-6-18T15:32:38Z</time></trkpt>
<trkpt lat="46.15445285" lon="5.97322248"><ele></ele><time>2016-6-18T15:32:41Z</time></trkpt>
<trkpt lat="46.15449526" lon="5.97325358"><ele></ele><time>2016-6-18T15:32:44Z</time></trkpt>
<trkpt lat="46.15453877" lon="5.97328115"><ele></ele><time>2016-6-18T15:32:47Z</time></trkpt>
<trkpt lat="46.15458210" lon="5.97331082"><ele></ele><time>2016-6-18T15:32:50Z</time></trkpt>
<trkpt lat="46.15462468" lon="5.97334008"><ele></ele><time>2016-6-18T15:32:53Z</time></trkpt>
<trkpt lat="46.15466718" lon="5.97336405"><ele></ele><time>2016-6-18T15:32:56Z</time></trkpt>
<trkpt lat="46.15471135" lon="5.97338987"><ele></ele><time>2016-6-18T15:32:59Z</time></trkpt>
<trkpt lat="46.15475586" lon="5.97341870"><ele></ele><time>2016-6-18T15:33:2Z</time></trkpt>
<trkpt lat="46.15480078" lon="5.97345315"><ele></ele><time>2016-6-18T15:33:5Z</time></trkpt>
<trkpt lat="46.15484554" lon="5.97349355"><ele></ele><time>2016-6-18T15:33:8Z</time></trkpt>
<trkpt lat="46.15489064" lon="5.97353060"><ele></ele><time>2016-6-18T15:33:11Z</time></trkpt>
<trkpt lat="46.15493607" lon="5.97356463"><ele></ele><time>2016-6-18T15:33:14Z</time></trkpt>
<trkpt lat="46.15498108" lon="5.97359715"><ele></ele><time>2016-6-18T15:33:17Z</time></trkpt>
<trkpt lat="46.15502534" lon="5.97363017"><ele></ele><time>2016-6-18T15:33:20Z</time></trkpt>
<trkpt lat="46.15506917" lon="5.97366429"><ele></ele><time>2016-6-18T15:33:23Z</time></trkpt>
<trkpt lat="46.15511427" lon="5.97370259"><ele></ele><time>2016-6-18T15:33:26Z</time></trkpt>
<trkpt lat="46.15515936" lon="5.97373839"><ele></ele><time>2016-6-18T15:33:29Z</time></trkpt>
<trkpt lat="46.15520672" lon="5.97376789"><ele></ele><time>2016-6-18T15:33:32Z</time></trkpt>
<trkpt lat="46.15525433" lon="5.97379697"><ele></ele><time>2016-6-18T15:33:35Z</time></trkpt>
<trkpt lat="46.15530127" lon="5.97382396"><ele></ele><time>2016-6-18T15:33:38Z</time></trkpt>
<trkpt lat="46.15534879" lon="5.97385020"><ele></ele><time>2016-6-18T15:33:41Z</time></trkpt>
<trkpt lat="46.15539758" lon="5.97387308"><ele></ele><time>2016-6-18T15:33:44Z</time></trkpt>
<trkpt lat="46.15544686" lon="5.97389773"><ele></ele><time>2016-6-18T15:33:47Z</time></trkpt>
<trkpt lat="46.15549900" lon="5.97392656"><ele></ele><time>2016-6-18T15:33:50Z</time></trkpt>
<trkpt lat="46.15554862" lon="5.97395623"><ele></ele><time>2016-6-18T15:33:53Z</time></trkpt>
<trkpt lat="46.15559698" lon="5.97398926"><ele></ele><time>2016-6-18T15:33:56Z</time></trkpt>
<trkpt lat="46.15564476" lon="5.97402454"><ele></ele><time>2016-6-18T15:33:59Z</time></trkpt>
<trkpt lat="46.15569228" lon="5.97406453"><ele></ele><time>2016-6-18T15:34:2Z</time></trkpt>
<trkpt lat="46.15573604" lon="5.97411180"><ele></ele><time>2016-6-18T15:34:5Z</time></trkpt>
<trkpt lat="46.15577736" lon="5.97416326"><ele></ele><time>2016-6-18T15:34:8Z</time></trkpt>
<trkpt lat="46.15581810" lon="5.97421557"><ele></ele><time>2016-6-18T15:34:11Z</time></trkpt>
<trkpt lat="46.15585992" lon="5.97426477"><ele></ele><time>2016-6-18T15:34:14Z</time></trkpt>
<trkpt lat="46.15590963" lon="5.97430467"><ele></ele><time>2016-6-18T15:34:17Z</time></trkpt>
<trkpt lat="46.15596218" lon="5.97433618"><ele></ele><time>2016-6-18T15:34:20Z</time></trkpt>
<trkpt lat="46.15601650" lon="5.97437373"><ele></ele><time>2016-6-18T15:34:23Z</time></trkpt>
<trkpt lat="46.15607039" lon="5.97441237"><ele></ele><time>2016-6-18T15:34:26Z</time></trkpt>
<trkpt lat="46.15612336" lon="5.97445185"><ele></ele><time>2016-6-18T15:34:29Z</time></trkpt>
<trkpt lat="46.15616729" lon="5.97448387"><ele></ele><time>2016-6-18T15:34:32Z</time></trkpt>
<trkpt lat="46.15621154" lon="5.97452058"><ele></ele><time>2016-6-18T15:34:35Z</time></trkpt>
<trkpt lat="46.15625454" lon="5.97456216"><ele></ele><time>2016-6-18T15:34:38Z</time></trkpt>
<trkpt lat="46.15629486" lon="5.97460826"><ele></ele><time>2016-6-18T15:34:41Z</time></trkpt>
<trkpt lat="46.15633006" lon="5.97464455"><ele></ele><time>2016-6-18T15:34:44Z</time></trkpt>
<trkpt lat="46.15637063" lon="5.97468286"><ele></ele><time>2016-6-18T15:34:47Z</time></trkpt>
<trkpt lat="46.15640726" lon="5.97470909"><ele></ele><time>2016-6-18T15:34:50Z</time></trkpt>
<trkpt lat="46.15644674" lon="5.97473659"><ele></ele><time>2016-6-18T15:34:53Z</time></trkpt>
<trkpt lat="46.15648613" lon="5.97476115"><ele></ele><time>2016-6-18T15:34:56Z</time></trkpt>
<trkpt lat="46.15652427" lon="5.97478822"><ele></ele><time>2016-6-18T15:34:59Z</time></trkpt>
<trkpt lat="46.15656283" lon="5.97482418"><ele></ele><time>2016-6-18T15:35:2Z</time></trkpt>
<trkpt lat="46.15659744" lon="5.97486332"><ele></ele><time>2016-6-18T15:35:5Z</time></trkpt>
<trkpt lat="46.15663097" lon="5.97490087"><ele></ele><time>2016-6-18T15:35:8Z</time></trkpt>
<trkpt lat="46.15666777" lon="5.97493323"><ele></ele><time>2016-6-18T15:35:11Z</time></trkpt>
<trkpt lat="46.15670817" lon="5.97496617"><ele></ele><time>2016-6-18T15:35:14Z</time></trkpt>
<trkpt lat="46.15674832" lon="5.97499383"><ele></ele><time>2016-6-18T15:35:17Z</time></trkpt>
<trkpt lat="46.15678629" lon="5.97502534"><ele></ele><time>2016-6-18T15:35:20Z</time></trkpt>
<trkpt lat="46.15682652" lon="5.97506206"><ele></ele><time>2016-6-18T15:35:23Z</time></trkpt>
<trkpt lat="46.15686902" lon="5.97509818"><ele></ele><time>2016-6-18T15:35:26Z</time></trkpt>
<trkpt lat="46.15691135" lon="5.97513238"><ele></ele><time>2016-6-18T15:35:29Z</time></trkpt>
<trkpt lat="46.15695334" lon="5.97516884"><ele></ele><time>2016-6-18T15:35:32Z</time></trkpt>
<trkpt lat="46.15700162" lon="5.97520212"><ele></ele><time>2016-6-18T15:35:35Z</time></trkpt>
<trkpt lat="46.15705065" lon="5.97522349"><ele></ele><time>2016-6-18T15:35:38Z</time></trkpt>
<trkpt lat="46.15709567" lon="5.97524067"><ele></ele><time>2016-6-18T15:35:41Z</time></trkpt>
<trkpt lat="46.15714202" lon="5.97526783"><ele></ele><time>2016-6-18T15:35:44Z</time></trkpt>
<trkpt lat="46.15718963" lon="5.97529532"><ele></ele><time>2016-6-18T15:35:47Z</time></trkpt>
<trkpt lat="46.15723179" lon="5.97532240"><ele></ele><time>2016-6-18T15:35:50Z</time></trkpt>
<trkpt lat="46.15727043" lon="5.97535534"><ele></ele><time>2016-6-18T15:35:53Z</time></trkpt>
<trkpt lat="46.15730588" lon="5.97539624"><ele></ele><time>2016-6-18T15:35:56Z</time></trkpt>
<trkpt lat="46.15733857" lon="5.97544595"><ele></ele><time>2016-6-18T15:35:59Z</time></trkpt>
<trkpt lat="46.15737168" lon="5.97549942"><ele></ele><time>2016-6-18T15:36:2Z</time></trkpt>
<trkpt lat="46.15740915" lon="5.97555189"><ele></ele><time>2016-6-18T15:36:5Z</time></trkpt>
<trkpt lat="46.15744930" lon="5.97559104"><ele></ele><time>2016-6-18T15:36:8Z</time></trkpt>
<trkpt lat="46.15749339" lon="5.97561493"><ele></ele><time>2016-6-18T15:36:11Z</time></trkpt>
<trkpt lat="46.15753722" lon="5.97563303"><ele></ele><time>2016-6-18T15:36:14Z</time></trkpt>
<trkpt lat="46.15758039" lon="5.97566589"><ele></ele><time>2016-6-18T15:36:17Z</time></trkpt>
<trkpt lat="46.15762029" lon="5.97571014"><ele></ele><time>2016-6-18T15:36:20Z</time></trkpt>
<trkpt lat="46.15765885" lon="5.97576287"><ele></ele><time>2016-6-18T15:36:23Z</time></trkpt>
<trkpt lat="46.15769665" lon="5.97581777"><ele></ele><time>2016-6-18T15:36:26Z</time></trkpt>
<trkpt lat="46.15773856" lon="5.97586689"><ele></ele><time>2016-6-18T15:36:29Z</time></trkpt>
<trkpt lat="46.15777988" lon="5.97590134"><ele></ele><time>2016-6-18T15:36:32Z</time></trkpt>
<trkpt lat="46.15781886" lon="5.97593830"><ele></ele><time>2016-6-18T15:36:35Z</time></trkpt>
<trkpt lat="46.15785196" lon="5.97598633"><ele></ele><time>2016-6-18T15:36:38Z</time></trkpt>
<trkpt lat="46.15788155" lon="5.97603486"><ele></ele><time>2016-6-18T15:36:41Z</time></trkpt>
<trkpt lat="46.15791382" lon="5.97608104"><ele></ele><time>2016-6-18T15:36:44Z</time></trkpt>
<trkpt lat="46.15794660" lon="5.97613167"><ele></ele><time>2016-6-18T15:36:47Z</time></trkpt>
<trkpt lat="46.15797635" lon="5.97618288"><ele></ele><time>2016-6-18T15:36:50Z</time></trkpt>
<trkpt lat="46.15800183" lon="5.97623846"><ele></ele><time>2016-6-18T15:36:53Z</time></trkpt>
<trkpt lat="46.15801868" lon="5.97629797"><ele></ele><time>2016-6-18T15:36:56Z</time></trkpt>
<trkpt lat="46.15802656" lon="5.97636360"><ele></ele><time>2016-6-18T15:36:59Z</time></trkpt>
<trkpt lat="46.15803142" lon="5.97642923"><ele></ele><time>2016-6-18T15:37:2Z</time></trkpt>
<trkpt lat="46.15804357" lon="5.97649712"><ele></ele><time>2016-6-18T15:37:5Z</time></trkpt>
<trkpt lat="46.15805824" lon="5.97656250"><ele></ele><time>2016-6-18T15:37:8Z</time></trkpt>
<trkpt lat="46.15807224" lon="5.97662796"><ele></ele><time>2016-6-18T15:37:11Z</time></trkpt>
<trkpt lat="46.15808582" lon="5.97669913"><ele></ele><time>2016-6-18T15:37:14Z</time></trkpt>
<trkpt lat="46.15809320" lon="5.97676735"><ele></ele><time>2016-6-18T15:37:17Z</time></trkpt>
<trkpt lat="46.15810619" lon="5.97684287"><ele></ele><time>2016-6-18T15:37:20Z</time></trkpt>
<trkpt lat="46.15812102" lon="5.97691622"><ele></ele><time>2016-6-18T15:37:23Z</time></trkpt>
<trkpt lat="46.15813745" lon="5.97698805"><ele></ele><time>2016-6-18T15:37:26Z</time></trkpt>
<trkpt lat="46.15815120" lon="5.97705678"><ele></ele><time>2016-6-18T15:37:29Z</time></trkpt>
<trkpt lat="46.15816318" lon="5.97712509"><ele></ele><time>2016-6-18T15:37:32Z</time></trkpt>
<trkpt lat="46.15817408" lon="5.97719483"><ele></ele><time>2016-6-18T15:37:35Z</time></trkpt>
<trkpt lat="46.15818389" lon="5.97726407"><ele></ele><time>2016-6-18T15:37:38Z</time></trkpt>
<trkpt lat="46.15819629" lon="5.97733196"><ele></ele><time>2016-6-18T15:37:41Z</time></trkpt>
<trkpt lat="46.15820794" lon="5.97739910"><ele></ele><time>2016-6-18T15:37:44Z</time></trkpt>
<trkpt lat="46.15821892" lon="5.97746976"><ele></ele><time>2016-6-18T15:37:47Z</time></trkpt>
<trkpt lat="46.15822722" lon="5.97753698"><ele></ele><time>2016-6-18T15:37:50Z</time></trkpt>
<trkpt lat="46.15823493" lon="5.97760060"><ele></ele><time>2016-6-18T15:37:53Z</time></trkpt>
<trkpt lat="46.15824306" lon="5.97766514"><ele></ele><time>2016-6-18T15:37:56Z</time></trkpt>
<trkpt lat="46.15825052" lon="5.97773127"><ele></ele><time>2016-6-18T15:37:59Z</time></trkpt>
<trkpt lat="46.15825815" lon="5.97779875"><ele></ele><time>2016-6-18T15:38:2Z</time></trkpt>
<trkpt lat="46.15826502" lon="5.97786899"><ele></ele><time>2016-6-18T15:38:5Z</time></trkpt>
<trkpt lat="46.15827005" lon="5.97794132"><ele></ele><time>2016-6-18T15:38:8Z</time></trkpt>
<trkpt lat="46.15827299" lon="5.97801349"><ele></ele><time>2016-6-18T15:38:11Z</time></trkpt>
<trkpt lat="46.15827609" lon="5.97808516"><ele></ele><time>2016-6-18T15:38:14Z</time></trkpt>
<trkpt lat="46.15828020" lon="5.97815674"><ele></ele><time>2016-6-18T15:38:17Z</time></trkpt>
<trkpt lat="46.15828346" lon="5.97822916"><ele></ele><time>2016-6-18T15:38:20Z</time></trkpt>
<trkpt lat="46.15828707" lon="5.97830208"><ele></ele><time>2016-6-18T15:38:23Z</time></trkpt>
<trkpt lat="46.15829034" lon="5.97837567"><ele></ele><time>2016-6-18T15:38:26Z</time></trkpt>
<trkpt lat="46.15829277" lon="5.97844927"><ele></ele><time>2016-6-18T15:38:29Z</time></trkpt>
<trkpt lat="46.15829545" lon="5.97852252"><ele></ele><time>2016-6-18T15:38:32Z</time></trkpt>
<trkpt lat="46.15829922" lon="5.97859427"><ele></ele><time>2016-6-18T15:38:35Z</time></trkpt>
<trkpt lat="46.15830568" lon="5.97866493"><ele></ele><time>2016-6-18T15:38:38Z</time></trkpt>
<trkpt lat="46.15831515" lon="5.97873400"><ele></ele><time>2016-6-18T15:38:41Z</time></trkpt>
<trkpt lat="46.15832588" lon="5.97880047"><ele></ele><time>2016-6-18T15:38:44Z</time></trkpt>
<trkpt lat="46.15833476" lon="5.97887029"><ele></ele><time>2016-6-18T15:38:47Z</time></trkpt>
<trkpt lat="46.15833954" lon="5.97893902"><ele></ele><time>2016-6-18T15:38:50Z</time></trkpt>
<trkpt lat="46.15834080" lon="5.97899987"><ele></ele><time>2016-6-18T15:38:53Z</time></trkpt>
<trkpt lat="46.15833485" lon="5.97905687"><ele></ele><time>2016-6-18T15:38:56Z</time></trkpt>
<trkpt lat="46.15832445" lon="5.97911035"><ele></ele><time>2016-6-18T15:38:59Z</time></trkpt>
<trkpt lat="46.15831289" lon="5.97916265"><ele></ele><time>2016-6-18T15:39:2Z</time></trkpt>
<trkpt lat="46.15830492" lon="5.97921386"><ele></ele><time>2016-6-18T15:39:5Z</time></trkpt>
<trkpt lat="46.15829562" lon="5.97925929"><ele></ele><time>2016-6-18T15:39:8Z</time></trkpt>
<trkpt lat="46.15828489" lon="5.97930330"><ele></ele><time>2016-6-18T15:39:11Z</time></trkpt>
<trkpt lat="46.15827475" lon="5.97935317"><ele></ele><time>2016-6-18T15:39:14Z</time></trkpt>
<trkpt lat="46.15825740" lon="5.97940883"><ele></ele><time>2016-6-18T15:39:17Z</time></trkpt>
<trkpt lat="46.15823803" lon="5.97946943"><ele></ele><time>2016-6-18T15:39:20Z</time></trkpt>
<trkpt lat="46.15822135" lon="5.97952927"><ele></ele><time>2016-6-18T15:39:23Z</time></trkpt>
<trkpt lat="46.15820870" lon="5.97958124"><ele></ele><time>2016-6-18T15:39:26Z</time></trkpt>
<trkpt lat="46.15819822" lon="5.97963153"><ele></ele><time>2016-6-18T15:39:29Z</time></trkpt>
<trkpt lat="46.15818246" lon="5.97967898"><ele></ele><time>2016-6-18T15:39:32Z</time></trkpt>
<trkpt lat="46.15816419" lon="5.97972767"><ele></ele><time>2016-6-18T15:39:35Z</time></trkpt>
<trkpt lat="46.15814793" lon="5.97977419"><ele></ele><time>2016-6-18T15:39:38Z</time></trkpt>
<trkpt lat="46.15813586" lon="5.97981652"><ele></ele><time>2016-6-18T15:39:41Z</time></trkpt>
<trkpt lat="46.15812882" lon="5.97985785"><ele></ele><time>2016-6-18T15:39:44Z</time></trkpt>
<trkpt lat="46.15811859" lon="5.97989816"><ele></ele><time>2016-6-18T15:39:47Z</time></trkpt>
<trkpt lat="46.15810929" lon="5.97994653"><ele></ele><time>2016-6-18T15:39:50Z</time></trkpt>
<trkpt lat="46.15809713" lon="5.97999615"><ele></ele><time>2016-6-18T15:39:53Z</time></trkpt>
<trkpt lat="46.15808909" lon="5.98004292"><ele></ele><time>2016-6-18T15:39:56Z</time></trkpt>
<trkpt lat="46.15807702" lon="5.98009606"><ele></ele><time>2016-6-18T15:39:59Z</time></trkpt>
<trkpt lat="46.15807090" lon="5.98014342"><ele></ele><time>2016-6-18T15:40:2Z</time></trkpt>
<trkpt lat="46.15806143" lon="5.98019253"><ele></ele><time>2016-6-18T15:40:5Z</time></trkpt>
<trkpt lat="46.15805397" lon="5.98024232"><ele></ele><time>2016-6-18T15:40:8Z</time></trkpt>
<trkpt lat="46.15803930" lon="5.98029253"><ele></ele><time>2016-6-18T15:40:11Z</time></trkpt>
<trkpt lat="46.15802396" lon="5.98033603"><ele></ele><time>2016-6-18T15:40:14Z</time></trkpt>
<trkpt lat="46.15800854" lon="5.98038046"><ele></ele><time>2016-6-18T15:40:17Z</time></trkpt>
<trkpt lat="46.15800058" lon="5.98042044"><ele></ele><time>2016-6-18T15:40:20Z</time></trkpt>
<trkpt lat="46.15799454" lon="5.98046847"><ele></ele><time>2016-6-18T15:40:23Z</time></trkpt>
<trkpt lat="46.15799027" lon="5.98051390"><ele></ele><time>2016-6-18T15:40:26Z</time></trkpt>
<trkpt lat="46.15799529" lon="5.98054290"><ele></ele><time>2016-6-18T15:40:29Z</time></trkpt>
<trkpt lat="46.15799177" lon="5.98057726"><ele></ele><time>2016-6-18T15:40:32Z</time></trkpt>
<trkpt lat="46.15797769" lon="5.98061766"><ele></ele><time>2016-6-18T15:40:35Z</time></trkpt>
<trkpt lat="46.15795892" lon="5.98065874"><ele></ele><time>2016-6-18T15:40:38Z</time></trkpt>
<trkpt lat="46.15793872" lon="5.98070065"><ele></ele><time>2016-6-18T15:40:41Z</time></trkpt>
<trkpt lat="46.15791743" lon="5.98074457"><ele></ele><time>2016-6-18T15:40:44Z</time></trkpt>
<trkpt lat="46.15788080" lon="5.98080735"><ele></ele><time>2016-6-18T15:40:47Z</time></trkpt>
<trkpt lat="46.15784048" lon="5.98087340"><ele></ele><time>2016-6-18T15:40:50Z</time></trkpt>
<trkpt lat="46.15780427" lon="5.98093148"><ele></ele><time>2016-6-18T15:40:53Z</time></trkpt>
<trkpt lat="46.15777234" lon="5.98097130"><ele></ele><time>2016-6-18T15:40:56Z</time></trkpt>
<trkpt lat="46.15773168" lon="5.98100206"><ele></ele><time>2016-6-18T15:40:59Z</time></trkpt>
<trkpt lat="46.15769329" lon="5.98102285"><ele></ele><time>2016-6-18T15:41:2Z</time></trkpt>
<trkpt lat="46.15765373" lon="5.98103818"><ele></ele><time>2016-6-18T15:41:5Z</time></trkpt>
<trkpt lat="46.15761492" lon="5.98105067"><ele></ele><time>2016-6-18T15:41:8Z</time></trkpt>
<trkpt lat="46.15757192" lon="5.98106283"><ele></ele><time>2016-6-18T15:41:11Z</time></trkpt>
<trkpt lat="46.15752976" lon="5.98107079"><ele></ele><time>2016-6-18T15:41:14Z</time></trkpt>
<trkpt lat="46.15748819" lon="5.98107574"><ele></ele><time>2016-6-18T15:41:17Z</time></trkpt>
<trkpt lat="46.15744695" lon="5.98107733"><ele></ele><time>2016-6-18T15:41:20Z</time></trkpt>
<trkpt lat="46.15740487" lon="5.98107465"><ele></ele><time>2016-6-18T15:41:23Z</time></trkpt>
<trkpt lat="46.15736363" lon="5.98106693"><ele></ele><time>2016-6-18T15:41:26Z</time></trkpt>
<trkpt lat="46.15732349" lon="5.98105637"><ele></ele><time>2016-6-18T15:41:29Z</time></trkpt>
<trkpt lat="46.15728568" lon="5.98104699"><ele></ele><time>2016-6-18T15:41:32Z</time></trkpt>
<trkpt lat="46.15724537" lon="5.98103508"><ele></ele><time>2016-6-18T15:41:35Z</time></trkpt>
<trkpt lat="46.15720639" lon="5.98102259"><ele></ele><time>2016-6-18T15:41:38Z</time></trkpt>
<trkpt lat="46.15716783" lon="5.98100726"><ele></ele><time>2016-6-18T15:41:41Z</time></trkpt>
<trkpt lat="46.15712777" lon="5.98098739"><ele></ele><time>2016-6-18T15:41:44Z</time></trkpt>
<trkpt lat="46.15708913" lon="5.98096786"><ele></ele><time>2016-6-18T15:41:47Z</time></trkpt>
<trkpt lat="46.15704806" lon="5.98094774"><ele></ele><time>2016-6-18T15:41:50Z</time></trkpt>
<trkpt lat="46.15700556" lon="5.98092654"><ele></ele><time>2016-6-18T15:41:53Z</time></trkpt>
<trkpt lat="46.15696214" lon="5.98090709"><ele></ele><time>2016-6-18T15:41:56Z</time></trkpt>
<trkpt lat="46.15691923" lon="5.98088647"><ele></ele><time>2016-6-18T15:41:59Z</time></trkpt>
<trkpt lat="46.15687472" lon="5.98086384"><ele></ele><time>2016-6-18T15:42:2Z</time></trkpt>
<trkpt lat="46.15682392" lon="5.98084196"><ele></ele><time>2016-6-18T15:42:5Z</time></trkpt>
<trkpt lat="46.15677036" lon="5.98082906"><ele></ele><time>2016-6-18T15:42:8Z</time></trkpt>
<trkpt lat="46.15671555" lon="5.98082914"><ele></ele><time>2016-6-18T15:42:11Z</time></trkpt>
<trkpt lat="46.15666173" lon="5.98083593"><ele></ele><time>2016-6-18T15:42:14Z</time></trkpt>
<trkpt lat="46.15660826" lon="5.98083694"><ele></ele><time>2016-6-18T15:42:17Z</time></trkpt>
<trkpt lat="46.15655780" lon="5.98081280"><ele></ele><time>2016-6-18T15:42:20Z</time></trkpt>
<trkpt lat="46.15651622" lon="5.98075949"><ele></ele><time>2016-6-18T15:42:23Z</time></trkpt>
<trkpt lat="46.15648127" lon="5.98069067"><ele></ele><time>2016-6-18T15:42:26Z</time></trkpt>
<trkpt lat="46.15644473" lon="5.98061934"><ele></ele><time>2016-6-18T15:42:29Z</time></trkpt>
<trkpt lat="46.15640374" lon="5.98055036"><ele></ele><time>2016-6-18T15:42:32Z</time></trkpt>
<trkpt lat="46.15635705" lon="5.98048666"><ele></ele><time>2016-6-18T15:42:35Z</time></trkpt>
<trkpt lat="46.15630534" lon="5.98042932"><ele></ele><time>2016-6-18T15:42:38Z</time></trkpt>
<trkpt lat="46.15624926" lon="5.98037685"><ele></ele><time>2016-6-18T15:42:41Z</time></trkpt>
<trkpt lat="46.15619042" lon="5.98032849"><ele></ele><time>2016-6-18T15:42:44Z</time></trkpt>
<trkpt lat="46.15613225" lon="5.98028054"><ele></ele><time>2016-6-18T15:42:47Z</time></trkpt>
<trkpt lat="46.15607366" lon="5.98023369"><ele></ele><time>2016-6-18T15:42:50Z</time></trkpt>
<trkpt lat="46.15601549" lon="5.98018734"><ele></ele><time>2016-6-18T15:42:53Z</time></trkpt>
<trkpt lat="46.15595799" lon="5.98014208"><ele></ele><time>2016-6-18T15:42:56Z</time></trkpt>
<trkpt lat="46.15590150" lon="5.98009866"><ele></ele><time>2016-6-18T15:42:59Z</time></trkpt>
<trkpt lat="46.15584634" lon="5.98005717"><ele></ele><time>2016-6-18T15:43:2Z</time></trkpt>
<trkpt lat="46.15579220" lon="5.98001953"><ele></ele><time>2016-6-18T15:43:5Z</time></trkpt>
<trkpt lat="46.15573696" lon="5.97998743"><ele></ele><time>2016-6-18T15:43:8Z</time></trkpt>
<trkpt lat="46.15568256" lon="5.97995952"><ele></ele><time>2016-6-18T15:43:11Z</time></trkpt>
<trkpt lat="46.15562959" lon="5.97993395"><ele></ele><time>2016-6-18T15:43:14Z</time></trkpt>
<trkpt lat="46.15557837" lon="5.97991208"><ele></ele><time>2016-6-18T15:43:17Z</time></trkpt>
<trkpt lat="46.15552733" lon="5.97990034"><ele></ele><time>2016-6-18T15:43:20Z</time></trkpt>
<trkpt lat="46.15547595" lon="5.97990093"><ele></ele><time>2016-6-18T15:43:23Z</time></trkpt>
<trkpt lat="46.15542515" lon="5.97991099"><ele></ele><time>2016-6-18T15:43:26Z</time></trkpt>
<trkpt lat="46.15537838" lon="5.97992817"><ele></ele><time>2016-6-18T15:43:29Z</time></trkpt>
<trkpt lat="46.15533714" lon="5.97994946"><ele></ele><time>2016-6-18T15:43:32Z</time></trkpt>
<trkpt lat="46.15531099" lon="5.97998173"><ele></ele><time>2016-6-18T15:43:35Z</time></trkpt>
<trkpt lat="46.15530546" lon="5.98002372"><ele></ele><time>2016-6-18T15:43:38Z</time></trkpt>
<trkpt lat="46.15531686" lon="5.98006932"><ele></ele><time>2016-6-18T15:43:41Z</time></trkpt>
<trkpt lat="46.15533706" lon="5.98011618"><ele></ele><time>2016-6-18T15:43:44Z</time></trkpt>
<trkpt lat="46.15535935" lon="5.98016663"><ele></ele><time>2016-6-18T15:43:47Z</time></trkpt>
<trkpt lat="46.15538232" lon="5.98022112"><ele></ele><time>2016-6-18T15:43:50Z</time></trkpt>
<trkpt lat="46.15540587" lon="5.98027845"><ele></ele><time>2016-6-18T15:43:53Z</time></trkpt>
<trkpt lat="46.15542959" lon="5.98033679"><ele></ele><time>2016-6-18T15:43:56Z</time></trkpt>
<trkpt lat="46.15545449" lon="5.98039513"><ele></ele><time>2016-6-18T15:43:59Z</time></trkpt>
<trkpt lat="46.15548156" lon="5.98045162"><ele></ele><time>2016-6-18T15:44:2Z</time></trkpt>
<trkpt lat="46.15550897" lon="5.98050736"><ele></ele><time>2016-6-18T15:44:5Z</time></trkpt>
<trkpt lat="46.15553462" lon="5.98056469"><ele></ele><time>2016-6-18T15:44:8Z</time></trkpt>
<trkpt lat="46.15556018" lon="5.98062202"><ele></ele><time>2016-6-18T15:44:11Z</time></trkpt>
<trkpt lat="46.15558684" lon="5.98067843"><ele></ele><time>2016-6-18T15:44:14Z</time></trkpt>
<trkpt lat="46.15561333" lon="5.98073510"><ele></ele><time>2016-6-18T15:44:17Z</time></trkpt>
<trkpt lat="46.15563973" lon="5.98079142"><ele></ele><time>2016-6-18T15:44:20Z</time></trkpt>
<trkpt lat="46.15566655" lon="5.98084733"><ele></ele><time>2016-6-18T15:44:23Z</time></trkpt>
<trkpt lat="46.15569295" lon="5.98090366"><ele></ele><time>2016-6-18T15:44:26Z</time></trkpt>
<trkpt lat="46.15571902" lon="5.98096032"><ele></ele><time>2016-6-18T15:44:29Z</time></trkpt>
<trkpt lat="46.15574484" lon="5.98101715"><ele></ele><time>2016-6-18T15:44:32Z</time></trkpt>
<trkpt lat="46.15577065" lon="5.98107372"><ele></ele><time>2016-6-18T15:44:35Z</time></trkpt>
<trkpt lat="46.15579613" lon="5.98112980"><ele></ele><time>2016-6-18T15:44:38Z</time></trkpt>
<trkpt lat="46.15582170" lon="5.98118537"><ele></ele><time>2016-6-18T15:44:41Z</time></trkpt>
<trkpt lat="46.15584735" lon="5.98124069"><ele></ele><time>2016-6-18T15:44:44Z</time></trkpt>
<trkpt lat="46.15587316" lon="5.98129576"><ele></ele><time>2016-6-18T15:44:47Z</time></trkpt>
<trkpt lat="46.15589957" lon="5.98135033"><ele></ele><time>2016-6-18T15:44:50Z</time></trkpt>
<trkpt lat="46.15592605" lon="5.98140514"><ele></ele><time>2016-6-18T15:44:53Z</time></trkpt>
<trkpt lat="46.15595162" lon="5.98146072"><ele></ele><time>2016-6-18T15:44:56Z</time></trkpt>
<trkpt lat="46.15597727" lon="5.98151654"><ele></ele><time>2016-6-18T15:44:59Z</time></trkpt>
<trkpt lat="46.15600342" lon="5.98157085"><ele></ele><time>2016-6-18T15:45:2Z</time></trkpt>
<trkpt lat="46.15602999" lon="5.98162366"><ele></ele><time>2016-6-18T15:45:5Z</time></trkpt>
<trkpt lat="46.15605623" lon="5.98167663"><ele></ele><time>2016-6-18T15:45:8Z</time></trkpt>
<trkpt lat="46.15608137" lon="5.98172969"><ele></ele><time>2016-6-18T15:45:11Z</time></trkpt>
<trkpt lat="46.15610635" lon="5.98178275"><ele></ele><time>2016-6-18T15:45:14Z</time></trkpt>
<trkpt lat="46.15613166" lon="5.98183656"><ele></ele><time>2016-6-18T15:45:17Z</time></trkpt>
<trkpt lat="46.15615664" lon="5.98189062"><ele></ele><time>2016-6-18T15:45:20Z</time></trkpt>
<trkpt lat="46.15618179" lon="5.98194502"><ele></ele><time>2016-6-18T15:45:23Z</time></trkpt>
<trkpt lat="46.15620735" lon="5.98199892"><ele></ele><time>2016-6-18T15:45:26Z</time></trkpt>
<trkpt lat="46.15623359" lon="5.98205248"><ele></ele><time>2016-6-18T15:45:29Z</time></trkpt>
<trkpt lat="46.15625890" lon="5.98210587"><ele></ele><time>2016-6-18T15:45:32Z</time></trkpt>
<trkpt lat="46.15628396" lon="5.98215926"><ele></ele><time>2016-6-18T15:45:35Z</time></trkpt>
<trkpt lat="46.15630936" lon="5.98221274"><ele></ele><time>2016-6-18T15:45:38Z</time></trkpt>
<trkpt lat="46.15633308" lon="5.98226739"><ele></ele><time>2016-6-18T15:45:41Z</time></trkpt>
<trkpt lat="46.15635437" lon="5.98232439"><ele></ele><time>2016-6-18T15:45:44Z</time></trkpt>
<trkpt lat="46.15637457" lon="5.98238315"><ele></ele><time>2016-6-18T15:45:47Z</time></trkpt>
<trkpt lat="46.15639485" lon="5.98244199"><ele></ele><time>2016-6-18T15:45:50Z</time></trkpt>
<trkpt lat="46.15641438" lon="5.98250083"><ele></ele><time>2016-6-18T15:45:53Z</time></trkpt>
<trkpt lat="46.15643014" lon="5.98256176"><ele></ele><time>2016-6-18T15:45:56Z</time></trkpt>
<trkpt lat="46.15644372" lon="5.98262454"><ele></ele><time>2016-6-18T15:45:59Z</time></trkpt>
<trkpt lat="46.15645713" lon="5.98268825"><ele></ele><time>2016-6-18T15:46:2Z</time></trkpt>
<trkpt lat="46.15647088" lon="5.98275254"><ele></ele><time>2016-6-18T15:46:5Z</time></trkpt>
<trkpt lat="46.15648412" lon="5.98281750"><ele></ele><time>2016-6-18T15:46:8Z</time></trkpt>
<trkpt lat="46.15649493" lon="5.98288380"><ele></ele><time>2016-6-18T15:46:11Z</time></trkpt>
<trkpt lat="46.15650340" lon="5.98295144"><ele></ele><time>2016-6-18T15:46:14Z</time></trkpt>
<trkpt lat="46.15650927" lon="5.98301774"><ele></ele><time>2016-6-18T15:46:17Z</time></trkpt>
<trkpt lat="46.15651228" lon="5.98308337"><ele></ele><time>2016-6-18T15:46:20Z</time></trkpt>
<trkpt lat="46.15651430" lon="5.98315026"><ele></ele><time>2016-6-18T15:46:23Z</time></trkpt>
<trkpt lat="46.15651622" lon="5.98321966"><ele></ele><time>2016-6-18T15:46:26Z</time></trkpt>
<trkpt lat="46.15651757" lon="5.98328940"><ele></ele><time>2016-6-18T15:46:29Z</time></trkpt>
<trkpt lat="46.15651782" lon="5.98335897"><ele></ele><time>2016-6-18T15:46:32Z</time></trkpt>
<trkpt lat="46.15651765" lon="5.98342812"><ele></ele><time>2016-6-18T15:46:35Z</time></trkpt>
<trkpt lat="46.15651673" lon="5.98349685"><ele></ele><time>2016-6-18T15:46:38Z</time></trkpt>
<trkpt lat="46.15651555" lon="5.98356524"><ele></ele><time>2016-6-18T15:46:41Z</time></trkpt>
<trkpt lat="46.15651354" lon="5.98363414"><ele></ele><time>2016-6-18T15:46:44Z</time></trkpt>
<trkpt lat="46.15651237" lon="5.98370204"><ele></ele><time>2016-6-18T15:46:47Z</time></trkpt>
<trkpt lat="46.15651128" lon="5.98376943"><ele></ele><time>2016-6-18T15:46:50Z</time></trkpt>
<trkpt lat="46.15651027" lon="5.98383648"><ele></ele><time>2016-6-18T15:46:53Z</time></trkpt>
<trkpt lat="46.15650893" lon="5.98390312"><ele></ele><time>2016-6-18T15:46:56Z</time></trkpt>
<trkpt lat="46.15650784" lon="5.98396959"><ele></ele><time>2016-6-18T15:46:59Z</time></trkpt>
<trkpt lat="46.15650767" lon="5.98403572"><ele></ele><time>2016-6-18T15:47:2Z</time></trkpt>
<trkpt lat="46.15650759" lon="5.98410169"><ele></ele><time>2016-6-18T15:47:5Z</time></trkpt>
<trkpt lat="46.15650742" lon="5.98416765"><ele></ele><time>2016-6-18T15:47:8Z</time></trkpt>
<trkpt lat="46.15650709" lon="5.98423387"><ele></ele><time>2016-6-18T15:47:11Z</time></trkpt>
<trkpt lat="46.15650692" lon="5.98429958"><ele></ele><time>2016-6-18T15:47:14Z</time></trkpt>
<trkpt lat="46.15650684" lon="5.98436496"><ele></ele><time>2016-6-18T15:47:17Z</time></trkpt>
<trkpt lat="46.15650709" lon="5.98443017"><ele></ele><time>2016-6-18T15:47:20Z</time></trkpt>
<trkpt lat="46.15650742" lon="5.98449547"><ele></ele><time>2016-6-18T15:47:23Z</time></trkpt>
<trkpt lat="46.15650767" lon="5.98456127"><ele></ele><time>2016-6-18T15:47:26Z</time></trkpt>
<trkpt lat="46.15650818" lon="5.98462723"><ele></ele><time>2016-6-18T15:47:29Z</time></trkpt>
<trkpt lat="46.15650893" lon="5.98469362"><ele></ele><time>2016-6-18T15:47:32Z</time></trkpt>
<trkpt lat="46.15650985" lon="5.98475983"><ele></ele><time>2016-6-18T15:47:35Z</time></trkpt>
<trkpt lat="46.15650985" lon="5.98482580"><ele></ele><time>2016-6-18T15:47:38Z</time></trkpt>
<trkpt lat="46.15650918" lon="5.98489135"><ele></ele><time>2016-6-18T15:47:41Z</time></trkpt>
<trkpt lat="46.15650927" lon="5.98495698"><ele></ele><time>2016-6-18T15:47:44Z</time></trkpt>
<trkpt lat="46.15651120" lon="5.98502277"><ele></ele><time>2016-6-18T15:47:47Z</time></trkpt>
<trkpt lat="46.15651337" lon="5.98508824"><ele></ele><time>2016-6-18T15:47:50Z</time></trkpt>
<trkpt lat="46.15651346" lon="5.98515378"><ele></ele><time>2016-6-18T15:47:53Z</time></trkpt>
<trkpt lat="46.15651296" lon="5.98521933"><ele></ele><time>2016-6-18T15:47:56Z</time></trkpt>
<trkpt lat="46.15651212" lon="5.98528504"><ele></ele><time>2016-6-18T15:47:59Z</time></trkpt>
<trkpt lat="46.15651086" lon="5.98535042"><ele></ele><time>2016-6-18T15:48:2Z</time></trkpt>
<trkpt lat="46.15651036" lon="5.98541597"><ele></ele><time>2016-6-18T15:48:5Z</time></trkpt>
<trkpt lat="46.15651052" lon="5.98548168"><ele></ele><time>2016-6-18T15:48:8Z</time></trkpt>
<trkpt lat="46.15651153" lon="5.98554748"><ele></ele><time>2016-6-18T15:48:11Z</time></trkpt>
<trkpt lat="46.15651254" lon="5.98561336"><ele></ele><time>2016-6-18T15:48:14Z</time></trkpt>
<trkpt lat="46.15651312" lon="5.98567908"><ele></ele><time>2016-6-18T15:48:17Z</time></trkpt>
<trkpt lat="46.15651413" lon="5.98574462"><ele></ele><time>2016-6-18T15:48:20Z</time></trkpt>
<trkpt lat="46.15651555" lon="5.98580992"><ele></ele><time>2016-6-18T15:48:23Z</time></trkpt>
<trkpt lat="46.15651673" lon="5.98587513"><ele></ele><time>2016-6-18T15:48:26Z</time></trkpt>
<trkpt lat="46.15651807" lon="5.98594017"><ele></ele><time>2016-6-18T15:48:29Z</time></trkpt>
<trkpt lat="46.15651874" lon="5.98600505"><ele></ele><time>2016-6-18T15:48:32Z</time></trkpt>
<trkpt lat="46.15651874" lon="5.98606967"><ele></ele><time>2016-6-18T15:48:35Z</time></trkpt>
<trkpt lat="46.15651907" lon="5.98613413"><ele></ele><time>2016-6-18T15:48:38Z</time></trkpt>
<trkpt lat="46.15652000" lon="5.98619859"><ele></ele><time>2016-6-18T15:48:41Z</time></trkpt>
<trkpt lat="46.15652075" lon="5.98626313"><ele></ele><time>2016-6-18T15:48:44Z</time></trkpt>
<trkpt lat="46.15652125" lon="5.98632809"><ele></ele><time>2016-6-18T15:48:47Z</time></trkpt>
<trkpt lat="46.15652159" lon="5.98639305"><ele></ele><time>2016-6-18T15:48:50Z</time></trkpt>
<trkpt lat="46.15652167" lon="5.98645809"><ele></ele><time>2016-6-18T15:48:53Z</time></trkpt>
<trkpt lat="46.15652209" lon="5.98652297"><ele></ele><time>2016-6-18T15:48:56Z</time></trkpt>
<trkpt lat="46.15652243" lon="5.98658768"><ele></ele><time>2016-6-18T15:48:59Z</time></trkpt>
<trkpt lat="46.15652176" lon="5.98665163"><ele></ele><time>2016-6-18T15:49:2Z</time></trkpt>
<trkpt lat="46.15652134" lon="5.98671550"><ele></ele><time>2016-6-18T15:49:5Z</time></trkpt>
<trkpt lat="46.15652167" lon="5.98677937"><ele></ele><time>2016-6-18T15:49:8Z</time></trkpt>
<trkpt lat="46.15652218" lon="5.98684425"><ele></ele><time>2016-6-18T15:49:11Z</time></trkpt>
<trkpt lat="46.15652243" lon="5.98691038"><ele></ele><time>2016-6-18T15:49:14Z</time></trkpt>
<trkpt lat="46.15652259" lon="5.98697718"><ele></ele><time>2016-6-18T15:49:17Z</time></trkpt>
<trkpt lat="46.15652259" lon="5.98704415"><ele></ele><time>2016-6-18T15:49:20Z</time></trkpt>
<trkpt lat="46.15652268" lon="5.98711154"><ele></ele><time>2016-6-18T15:49:23Z</time></trkpt>
<trkpt lat="46.15652293" lon="5.98717868"><ele></ele><time>2016-6-18T15:49:26Z</time></trkpt>
<trkpt lat="46.15652318" lon="5.98724557"><ele></ele><time>2016-6-18T15:49:29Z</time></trkpt>
<trkpt lat="46.15652293" lon="5.98731237"><ele></ele><time>2016-6-18T15:49:32Z</time></trkpt>
<trkpt lat="46.15652293" lon="5.98737918"><ele></ele><time>2016-6-18T15:49:35Z</time></trkpt>
<trkpt lat="46.15652335" lon="5.98744632"><ele></ele><time>2016-6-18T15:49:38Z</time></trkpt>
<trkpt lat="46.15652385" lon="5.98751429"><ele></ele><time>2016-6-18T15:49:41Z</time></trkpt>
<trkpt lat="46.15652435" lon="5.98758286"><ele></ele><time>2016-6-18T15:49:44Z</time></trkpt>
<trkpt lat="46.15652444" lon="5.98765134"><ele></ele><time>2016-6-18T15:49:47Z</time></trkpt>
<trkpt lat="46.15652452" lon="5.98771974"><ele></ele><time>2016-6-18T15:49:50Z</time></trkpt>
<trkpt lat="46.15652477" lon="5.98778788"><ele></ele><time>2016-6-18T15:49:53Z</time></trkpt>
<trkpt lat="46.15652544" lon="5.98785552"><ele></ele><time>2016-6-18T15:49:56Z</time></trkpt>
<trkpt lat="46.15652603" lon="5.98792266"><ele></ele><time>2016-6-18T15:49:59Z</time></trkpt>
<trkpt lat="46.15652695" lon="5.98798946"><ele></ele><time>2016-6-18T15:50:2Z</time></trkpt>
<trkpt lat="46.15652787" lon="5.98805635"><ele></ele><time>2016-6-18T15:50:5Z</time></trkpt>
<trkpt lat="46.15652838" lon="5.98812383"><ele></ele><time>2016-6-18T15:50:8Z</time></trkpt>
<trkpt lat="46.15652905" lon="5.98819164"><ele></ele><time>2016-6-18T15:50:11Z</time></trkpt>
<trkpt lat="46.15653056" lon="5.98825970"><ele></ele><time>2016-6-18T15:50:14Z</time></trkpt>
<trkpt lat="46.15653274" lon="5.98832734"><ele></ele><time>2016-6-18T15:50:17Z</time></trkpt>
<trkpt lat="46.15653458" lon="5.98839423"><ele></ele><time>2016-6-18T15:50:20Z</time></trkpt>
<trkpt lat="46.15653533" lon="5.98846145"><ele></ele><time>2016-6-18T15:50:23Z</time></trkpt>
<trkpt lat="46.15653626" lon="5.98852834"><ele></ele><time>2016-6-18T15:50:26Z</time></trkpt>
<trkpt lat="46.15653726" lon="5.98859497"><ele></ele><time>2016-6-18T15:50:29Z</time></trkpt>
<trkpt lat="46.15653835" lon="5.98866153"><ele></ele><time>2016-6-18T15:50:32Z</time></trkpt>
<trkpt lat="46.15654003" lon="5.98872783"><ele></ele><time>2016-6-18T15:50:35Z</time></trkpt>
<trkpt lat="46.15654036" lon="5.98879572"><ele></ele><time>2016-6-18T15:50:38Z</time></trkpt>
<trkpt lat="46.15654053" lon="5.98886345"><ele></ele><time>2016-6-18T15:50:41Z</time></trkpt>
<trkpt lat="46.15654087" lon="5.98893176"><ele></ele><time>2016-6-18T15:50:44Z</time></trkpt>
<trkpt lat="46.15654238" lon="5.98899923"><ele></ele><time>2016-6-18T15:50:47Z</time></trkpt>
<trkpt lat="46.15654338" lon="5.98906729"><ele></ele><time>2016-6-18T15:50:50Z</time></trkpt>
<trkpt lat="46.15654288" lon="5.98913586"><ele></ele><time>2016-6-18T15:50:53Z</time></trkpt>
<trkpt lat="46.15654355" lon="5.98920283"><ele></ele><time>2016-6-18T15:50:56Z</time></trkpt>
<trkpt lat="46.15654489" lon="5.98927005"><ele></ele><time>2016-6-18T15:50:59Z</time></trkpt>
<trkpt lat="46.15654556" lon="5.98933836"><ele></ele><time>2016-6-18T15:51:2Z</time></trkpt>
<trkpt lat="46.15654623" lon="5.98940768"><ele></ele><time>2016-6-18T15:51:5Z</time></trkpt>
<trkpt lat="46.15654699" lon="5.98947683"><ele></ele><time>2016-6-18T15:51:8Z</time></trkpt>
<trkpt lat="46.15654808" lon="5.98954607"><ele></ele><time>2016-6-18T15:51:11Z</time></trkpt>
<trkpt lat="46.15654917" lon="5.98961488"><ele></ele><time>2016-6-18T15:51:14Z</time></trkpt>
<trkpt lat="46.15654942" lon="5.98968286"><ele></ele><time>2016-6-18T15:51:17Z</time></trkpt>
<trkpt lat="46.15655017" lon="5.98975117"><ele></ele><time>2016-6-18T15:51:20Z</time></trkpt>
<trkpt lat="46.15655109" lon="5.98981915"><ele></ele><time>2016-6-18T15:51:23Z</time></trkpt>
<trkpt lat="46.15655134" lon="5.98988713"><ele></ele><time>2016-6-18T15:51:26Z</time></trkpt>
<trkpt lat="46.15655034" lon="5.98995619"><ele></ele><time>2016-6-18T15:51:29Z</time></trkpt>
<trkpt lat="46.15654682" lon="5.99002576"><ele></ele><time>2016-6-18T15:51:32Z</time></trkpt>
<trkpt lat="46.15654204" lon="5.99009508"><ele></ele><time>2016-6-18T15:51:35Z</time></trkpt>
<trkpt lat="46.15653735" lon="5.99016365"><ele></ele><time>2016-6-18T15:51:38Z</time></trkpt>
<trkpt lat="46.15653223" lon="5.99023196"><ele></ele><time>2016-6-18T15:51:41Z</time></trkpt>
<trkpt lat="46.15652586" lon="5.99029927"><ele></ele><time>2016-6-18T15:51:44Z</time></trkpt>
<trkpt lat="46.15651689" lon="5.99036557"><ele></ele><time>2016-6-18T15:51:47Z</time></trkpt>
<trkpt lat="46.15650667" lon="5.99043120"><ele></ele><time>2016-6-18T15:51:50Z</time></trkpt>
<trkpt lat="46.15649602" lon="5.99049582"><ele></ele><time>2016-6-18T15:51:53Z</time></trkpt>
<trkpt lat="46.15648588" lon="5.99056003"><ele></ele><time>2016-6-18T15:51:56Z</time></trkpt>
<trkpt lat="46.15647666" lon="5.99062440"><ele></ele><time>2016-6-18T15:51:59Z</time></trkpt>
<trkpt lat="46.15646518" lon="5.99068802"><ele></ele><time>2016-6-18T15:52:2Z</time></trkpt>
<trkpt lat="46.15645336" lon="5.99075097"><ele></ele><time>2016-6-18T15:52:5Z</time></trkpt>
<trkpt lat="46.15644095" lon="5.99081249"><ele></ele><time>2016-6-18T15:52:8Z</time></trkpt>
<trkpt lat="46.15642696" lon="5.99087225"><ele></ele><time>2016-6-18T15:52:11Z</time></trkpt>
<trkpt lat="46.15641128" lon="5.99093193"><ele></ele><time>2016-6-18T15:52:14Z</time></trkpt>
<trkpt lat="46.15639435" lon="5.99099153"><ele></ele><time>2016-6-18T15:52:17Z</time></trkpt>
<trkpt lat="46.15637675" lon="5.99105095"><ele></ele><time>2016-6-18T15:52:20Z</time></trkpt>
<trkpt lat="46.15635672" lon="5.99111005"><ele></ele><time>2016-6-18T15:52:23Z</time></trkpt>
<trkpt lat="46.15633476" lon="5.99116730"><ele></ele><time>2016-6-18T15:52:26Z</time></trkpt>
<trkpt lat="46.15631246" lon="5.99122387"><ele></ele><time>2016-6-18T15:52:29Z</time></trkpt>
<trkpt lat="46.15629016" lon="5.99127995"><ele></ele><time>2016-6-18T15:52:32Z</time></trkpt>
<trkpt lat="46.15626720" lon="5.99133552"><ele></ele><time>2016-6-18T15:52:35Z</time></trkpt>
<trkpt lat="46.15624356" lon="5.99138984"><ele></ele><time>2016-6-18T15:52:38Z</time></trkpt>
<trkpt lat="46.15622059" lon="5.99144273"><ele></ele><time>2016-6-18T15:52:41Z</time></trkpt>
<trkpt lat="46.15619637" lon="5.99149595"><ele></ele><time>2016-6-18T15:52:44Z</time></trkpt>
<trkpt lat="46.15616863" lon="5.99154616"><ele></ele><time>2016-6-18T15:52:47Z</time></trkpt>
<trkpt lat="46.15613895" lon="5.99159528"><ele></ele><time>2016-6-18T15:52:50Z</time></trkpt>
<trkpt lat="46.15610735" lon="5.99164389"><ele></ele><time>2016-6-18T15:52:53Z</time></trkpt>
<trkpt lat="46.15607676" lon="5.99169100"><ele></ele><time>2016-6-18T15:52:56Z</time></trkpt>
<trkpt lat="46.15604726" lon="5.99173894"><ele></ele><time>2016-6-18T15:52:59Z</time></trkpt>
<trkpt lat="46.15601867" lon="5.99178697"><ele></ele><time>2016-6-18T15:53:2Z</time></trkpt>
<trkpt lat="46.15598917" lon="5.99183416"><ele></ele><time>2016-6-18T15:53:5Z</time></trkpt>
<trkpt lat="46.15595765" lon="5.99188177"><ele></ele><time>2016-6-18T15:53:8Z</time></trkpt>
<trkpt lat="46.15592538" lon="5.99192997"><ele></ele><time>2016-6-18T15:53:11Z</time></trkpt>
<trkpt lat="46.15589068" lon="5.99197732"><ele></ele><time>2016-6-18T15:53:14Z</time></trkpt>
<trkpt lat="46.15585699" lon="5.99202409"><ele></ele><time>2016-6-18T15:53:17Z</time></trkpt>
<trkpt lat="46.15582287" lon="5.99206969"><ele></ele><time>2016-6-18T15:53:20Z</time></trkpt>
<trkpt lat="46.15578893" lon="5.99211629"><ele></ele><time>2016-6-18T15:53:23Z</time></trkpt>
<trkpt lat="46.15575498" lon="5.99216248"><ele></ele><time>2016-6-18T15:53:26Z</time></trkpt>
<trkpt lat="46.15572045" lon="5.99220824"><ele></ele><time>2016-6-18T15:53:29Z</time></trkpt>
<trkpt lat="46.15568725" lon="5.99225518"><ele></ele><time>2016-6-18T15:53:32Z</time></trkpt>
<trkpt lat="46.15565473" lon="5.99230212"><ele></ele><time>2016-6-18T15:53:35Z</time></trkpt>
<trkpt lat="46.15562338" lon="5.99234998"><ele></ele><time>2016-6-18T15:53:38Z</time></trkpt>
<trkpt lat="46.15559178" lon="5.99239776"><ele></ele><time>2016-6-18T15:53:41Z</time></trkpt>
<trkpt lat="46.15555977" lon="5.99244545"><ele></ele><time>2016-6-18T15:53:44Z</time></trkpt>
<trkpt lat="46.15552758" lon="5.99249264"><ele></ele><time>2016-6-18T15:53:47Z</time></trkpt>
<trkpt lat="46.15549573" lon="5.99253614"><ele></ele><time>2016-6-18T15:53:50Z</time></trkpt>
<trkpt lat="46.15546404" lon="5.99258099"><ele></ele><time>2016-6-18T15:53:53Z</time></trkpt>
<trkpt lat="46.15543068" lon="5.99262927"><ele></ele><time>2016-6-18T15:53:56Z</time></trkpt>
<trkpt lat="46.15539783" lon="5.99267688"><ele></ele><time>2016-6-18T15:53:59Z</time></trkpt>
<trkpt lat="46.15536589" lon="5.99272423"><ele></ele><time>2016-6-18T15:54:2Z</time></trkpt>
<trkpt lat="46.15533438" lon="5.99277285"><ele></ele><time>2016-6-18T15:54:5Z</time></trkpt>
<trkpt lat="46.15530252" lon="5.99282188"><ele></ele><time>2016-6-18T15:54:8Z</time></trkpt>
<trkpt lat="46.15527092" lon="5.99287117"><ele></ele><time>2016-6-18T15:54:11Z</time></trkpt>
<trkpt lat="46.15524025" lon="5.99292104"><ele></ele><time>2016-6-18T15:54:14Z</time></trkpt>
<trkpt lat="46.15521133" lon="5.99297259"><ele></ele><time>2016-6-18T15:54:17Z</time></trkpt>
<trkpt lat="46.15518392" lon="5.99302565"><ele></ele><time>2016-6-18T15:54:20Z</time></trkpt>
<trkpt lat="46.15515668" lon="5.99308038"><ele></ele><time>2016-6-18T15:54:23Z</time></trkpt>
<trkpt lat="46.15512977" lon="5.99313587"><ele></ele><time>2016-6-18T15:54:26Z</time></trkpt>
<trkpt lat="46.15510354" lon="5.99319203"><ele></ele><time>2016-6-18T15:54:29Z</time></trkpt>
<trkpt lat="46.15507873" lon="5.99324936"><ele></ele><time>2016-6-18T15:54:32Z</time></trkpt>
<trkpt lat="46.15505643" lon="5.99330694"><ele></ele><time>2016-6-18T15:54:35Z</time></trkpt>
<trkpt lat="46.15503548" lon="5.99336553"><ele></ele><time>2016-6-18T15:54:38Z</time></trkpt>
<trkpt lat="46.15501452" lon="5.99342245"><ele></ele><time>2016-6-18T15:54:41Z</time></trkpt>
<trkpt lat="46.15499357" lon="5.99348288"><ele></ele><time>2016-6-18T15:54:44Z</time></trkpt>
<trkpt lat="46.15497270" lon="5.99354826"><ele></ele><time>2016-6-18T15:54:47Z</time></trkpt>
<trkpt lat="46.15495602" lon="5.99361305"><ele></ele><time>2016-6-18T15:54:50Z</time></trkpt>
<trkpt lat="46.15494009" lon="5.99367457"><ele></ele><time>2016-6-18T15:54:53Z</time></trkpt>
<trkpt lat="46.15492375" lon="5.99373409"><ele></ele><time>2016-6-18T15:54:56Z</time></trkpt>
<trkpt lat="46.15490883" lon="5.99379284"><ele></ele><time>2016-6-18T15:54:59Z</time></trkpt>
<trkpt lat="46.15489114" lon="5.99385453"><ele></ele><time>2016-6-18T15:55:2Z</time></trkpt>
<trkpt lat="46.15487463" lon="5.99391849"><ele></ele><time>2016-6-18T15:55:5Z</time></trkpt>
<trkpt lat="46.15486147" lon="5.99398294"><ele></ele><time>2016-6-18T15:55:8Z</time></trkpt>
<trkpt lat="46.15484554" lon="5.99404774"><ele></ele><time>2016-6-18T15:55:11Z</time></trkpt>
<trkpt lat="46.15483138" lon="5.99411236"><ele></ele><time>2016-6-18T15:55:14Z</time></trkpt>
<trkpt lat="46.15481663" lon="5.99417707"><ele></ele><time>2016-6-18T15:55:17Z</time></trkpt>
<trkpt lat="46.15480212" lon="5.99423910"><ele></ele><time>2016-6-18T15:55:20Z</time></trkpt>
<trkpt lat="46.15478578" lon="5.99430204"><ele></ele><time>2016-6-18T15:55:23Z</time></trkpt>
<trkpt lat="46.15477254" lon="5.99436114"><ele></ele><time>2016-6-18T15:55:26Z</time></trkpt>
<trkpt lat="46.15476105" lon="5.99442668"><ele></ele><time>2016-6-18T15:55:29Z</time></trkpt>
<trkpt lat="46.15474823" lon="5.99449198"><ele></ele><time>2016-6-18T15:55:32Z</time></trkpt>
<trkpt lat="46.15473373" lon="5.99455426"><ele></ele><time>2016-6-18T15:55:35Z</time></trkpt>
<trkpt lat="46.15472174" lon="5.99461637"><ele></ele><time>2016-6-18T15:55:38Z</time></trkpt>
<trkpt lat="46.15471252" lon="5.99467630"><ele></ele><time>2016-6-18T15:55:41Z</time></trkpt>
<trkpt lat="46.15470146" lon="5.99474318"><ele></ele><time>2016-6-18T15:55:44Z</time></trkpt>
<trkpt lat="46.15469199" lon="5.99480756"><ele></ele><time>2016-6-18T15:55:47Z</time></trkpt>
<trkpt lat="46.15467883" lon="5.99487545"><ele></ele><time>2016-6-18T15:55:50Z</time></trkpt>
<trkpt lat="46.15466324" lon="5.99494468"><ele></ele><time>2016-6-18T15:55:53Z</time></trkpt>
<trkpt lat="46.15464698" lon="5.99500487"><ele></ele><time>2016-6-18T15:55:56Z</time></trkpt>
<trkpt lat="46.15463323" lon="5.99506848"><ele></ele><time>2016-6-18T15:55:59Z</time></trkpt>
<trkpt lat="46.15462124" lon="5.99513269"><ele></ele><time>2016-6-18T15:56:2Z</time></trkpt>
<trkpt lat="46.15460406" lon="5.99519304"><ele></ele><time>2016-6-18T15:56:5Z</time></trkpt>
<trkpt lat="46.15458746" lon="5.99525238"><ele></ele><time>2016-6-18T15:56:8Z</time></trkpt>
<trkpt lat="46.15457145" lon="5.99531449"><ele></ele><time>2016-6-18T15:56:11Z</time></trkpt>
<trkpt lat="46.15456450" lon="5.99536696"><ele></ele><time>2016-6-18T15:56:14Z</time></trkpt>
<trkpt lat="46.15455595" lon="5.99542539"><ele></ele><time>2016-6-18T15:56:17Z</time></trkpt>
<trkpt lat="46.15454539" lon="5.99548356"><ele></ele><time>2016-6-18T15:56:20Z</time></trkpt>
<trkpt lat="46.15453508" lon="5.99554273"><ele></ele><time>2016-6-18T15:56:23Z</time></trkpt>
<trkpt lat="46.15452049" lon="5.99560518"><ele></ele><time>2016-6-18T15:56:26Z</time></trkpt>
<trkpt lat="46.15450080" lon="5.99567299"><ele></ele><time>2016-6-18T15:56:29Z</time></trkpt>
<trkpt lat="46.15448604" lon="5.99574088"><ele></ele><time>2016-6-18T15:56:32Z</time></trkpt>
<trkpt lat="46.15446878" lon="5.99580643"><ele></ele><time>2016-6-18T15:56:35Z</time></trkpt>
<trkpt lat="46.15445587" lon="5.99587156"><ele></ele><time>2016-6-18T15:56:38Z</time></trkpt>
<trkpt lat="46.15444045" lon="5.99594029"><ele></ele><time>2016-6-18T15:56:41Z</time></trkpt>
<trkpt lat="46.15443223" lon="5.99600349"><ele></ele><time>2016-6-18T15:56:44Z</time></trkpt>
<trkpt lat="46.15442687" lon="5.99606719"><ele></ele><time>2016-6-18T15:56:47Z</time></trkpt>
<trkpt lat="46.15442125" lon="5.99613215"><ele></ele><time>2016-6-18T15:56:50Z</time></trkpt>
<trkpt lat="46.15442075" lon="5.99619635"><ele></ele><time>2016-6-18T15:56:53Z</time></trkpt>
<trkpt lat="46.15442025" lon="5.99626014"><ele></ele><time>2016-6-18T15:56:56Z</time></trkpt>
<trkpt lat="46.15441832" lon="5.99632644"><ele></ele><time>2016-6-18T15:56:59Z</time></trkpt>
<trkpt lat="46.15441865" lon="5.99639182"><ele></ele><time>2016-6-18T15:57:2Z</time></trkpt>
<trkpt lat="46.15441882" lon="5.99645879"><ele></ele><time>2016-6-18T15:57:5Z</time></trkpt>
<trkpt lat="46.15441429" lon="5.99653264"><ele></ele><time>2016-6-18T15:57:8Z</time></trkpt>
<trkpt lat="46.15440977" lon="5.99660899"><ele></ele><time>2016-6-18T15:57:11Z</time></trkpt>
<trkpt lat="46.15440784" lon="5.99668435"><ele></ele><time>2016-6-18T15:57:14Z</time></trkpt>
<trkpt lat="46.15440885" lon="5.99675903"><ele></ele><time>2016-6-18T15:57:17Z</time></trkpt>
<trkpt lat="46.15441253" lon="5.99683296"><ele></ele><time>2016-6-18T15:57:20Z</time></trkpt>
<trkpt lat="46.15441832" lon="5.99690613"><ele></ele><time>2016-6-18T15:57:23Z</time></trkpt>
<trkpt lat="46.15442536" lon="5.99697889"><ele></ele><time>2016-6-18T15:57:26Z</time></trkpt>
<trkpt lat="46.15443265" lon="5.99705215"><ele></ele><time>2016-6-18T15:57:29Z</time></trkpt>
<trkpt lat="46.15444195" lon="5.99712515"><ele></ele><time>2016-6-18T15:57:32Z</time></trkpt>
<trkpt lat="46.15445352" lon="5.99719824"><ele></ele><time>2016-6-18T15:57:35Z</time></trkpt>
<trkpt lat="46.15446744" lon="5.99727225"><ele></ele><time>2016-6-18T15:57:38Z</time></trkpt>
<trkpt lat="46.15448336" lon="5.99734694"><ele></ele><time>2016-6-18T15:57:41Z</time></trkpt>
<trkpt lat="46.15450189" lon="5.99742145"><ele></ele><time>2016-6-18T15:57:44Z</time></trkpt>
<trkpt lat="46.15452234" lon="5.99749555"><ele></ele><time>2016-6-18T15:57:47Z</time></trkpt>
<trkpt lat="46.15454438" lon="5.99756847"><ele></ele><time>2016-6-18T15:57:50Z</time></trkpt>
<trkpt lat="46.15456643" lon="5.99764223"><ele></ele><time>2016-6-18T15:57:53Z</time></trkpt>
<trkpt lat="46.15458864" lon="5.99771658"><ele></ele><time>2016-6-18T15:57:56Z</time></trkpt>
<trkpt lat="46.15461085" lon="5.99779109"><ele></ele><time>2016-6-18T15:57:59Z</time></trkpt>
<trkpt lat="46.15463348" lon="5.99786603"><ele></ele><time>2016-6-18T15:58:2Z</time></trkpt>
<trkpt lat="46.15465603" lon="5.99794197"><ele></ele><time>2016-6-18T15:58:5Z</time></trkpt>
<trkpt lat="46.15467866" lon="5.99801816"><ele></ele><time>2016-6-18T15:58:8Z</time></trkpt>
<trkpt lat="46.15470104" lon="5.99809502"><ele></ele><time>2016-6-18T15:58:11Z</time></trkpt>
<trkpt lat="46.15472342" lon="5.99817256"><ele></ele><time>2016-6-18T15:58:14Z</time></trkpt>
<trkpt lat="46.15474613" lon="5.99825026"><ele></ele><time>2016-6-18T15:58:17Z</time></trkpt>
<trkpt lat="46.15476918" lon="5.99832796"><ele></ele><time>2016-6-18T15:58:20Z</time></trkpt>
<trkpt lat="46.15479249" lon="5.99840557"><ele></ele><time>2016-6-18T15:58:23Z</time></trkpt>
<trkpt lat="46.15481596" lon="5.99848243"><ele></ele><time>2016-6-18T15:58:26Z</time></trkpt>
<trkpt lat="46.15483942" lon="5.99855879"><ele></ele><time>2016-6-18T15:58:29Z</time></trkpt>
<trkpt lat="46.15486247" lon="5.99863473"><ele></ele><time>2016-6-18T15:58:32Z</time></trkpt>
<trkpt lat="46.15488477" lon="5.99871067"><ele></ele><time>2016-6-18T15:58:35Z</time></trkpt>
<trkpt lat="46.15490665" lon="5.99878636"><ele></ele><time>2016-6-18T15:58:38Z</time></trkpt>
<trkpt lat="46.15492819" lon="5.99886222"><ele></ele><time>2016-6-18T15:58:41Z</time></trkpt>
<trkpt lat="46.15494965" lon="5.99893866"><ele></ele><time>2016-6-18T15:58:44Z</time></trkpt>
<trkpt lat="46.15497102" lon="5.99901544"><ele></ele><time>2016-6-18T15:58:47Z</time></trkpt>
<trkpt lat="46.15499239" lon="5.99909314"><ele></ele><time>2016-6-18T15:58:50Z</time></trkpt>
<trkpt lat="46.15501352" lon="5.99917159"><ele></ele><time>2016-6-18T15:58:53Z</time></trkpt>
<trkpt lat="46.15503439" lon="5.99925022"><ele></ele><time>2016-6-18T15:58:56Z</time></trkpt>
<trkpt lat="46.15505635" lon="5.99932875"><ele></ele><time>2016-6-18T15:58:59Z</time></trkpt>
<trkpt lat="46.15508066" lon="5.99940738"><ele></ele><time>2016-6-18T15:59:2Z</time></trkpt>
<trkpt lat="46.15510647" lon="5.99948642"><ele></ele><time>2016-6-18T15:59:5Z</time></trkpt>
<trkpt lat="46.15513279" lon="5.99956630"><ele></ele><time>2016-6-18T15:59:8Z</time></trkpt>
<trkpt lat="46.15515836" lon="5.99964609"><ele></ele><time>2016-6-18T15:59:11Z</time></trkpt>
<trkpt lat="46.15518308" lon="5.99972690"><ele></ele><time>2016-6-18T15:59:14Z</time></trkpt>
<trkpt lat="46.15520789" lon="5.99980753"><ele></ele><time>2016-6-18T15:59:17Z</time></trkpt>
<trkpt lat="46.15523346" lon="5.99988749"><ele></ele><time>2016-6-18T15:59:20Z</time></trkpt>
<trkpt lat="46.15525969" lon="5.99996695"><ele></ele><time>2016-6-18T15:59:23Z</time></trkpt>
<trkpt lat="46.15528593" lon="6.00004666"><ele></ele><time>2016-6-18T15:59:26Z</time></trkpt>
<trkpt lat="46.15531208" lon="6.00012663"><ele></ele><time>2016-6-18T15:59:29Z</time></trkpt>
<trkpt lat="46.15533806" lon="6.00020684"><ele></ele><time>2016-6-18T15:59:32Z</time></trkpt>
<trkpt lat="46.15536380" lon="6.00028697"><ele></ele><time>2016-6-18T15:59:35Z</time></trkpt>
<trkpt lat="46.15539003" lon="6.00036669"><ele></ele><time>2016-6-18T15:59:38Z</time></trkpt>
<trkpt lat="46.15541635" lon="6.00044657"><ele></ele><time>2016-6-18T15:59:41Z</time></trkpt>
<trkpt lat="46.15544267" lon="6.00052636"><ele></ele><time>2016-6-18T15:59:44Z</time></trkpt>
<trkpt lat="46.15546958" lon="6.00060507"><ele></ele><time>2016-6-18T15:59:47Z</time></trkpt>
<trkpt lat="46.15549648" lon="6.00068344"><ele></ele><time>2016-6-18T15:59:50Z</time></trkpt>
<trkpt lat="46.15552356" lon="6.00076173"><ele></ele><time>2016-6-18T15:59:53Z</time></trkpt>
<trkpt lat="46.15555088" lon="6.00084060"><ele></ele><time>2016-6-18T15:59:56Z</time></trkpt>
<trkpt lat="46.15557762" lon="6.00091972"><ele></ele><time>2016-6-18T15:59:59Z</time></trkpt>
<trkpt lat="46.15560444" lon="6.00099843"><ele></ele><time>2016-6-18T16:0:2Z</time></trkpt>
<trkpt lat="46.15563185" lon="6.00107579"><ele></ele><time>2016-6-18T16:0:5Z</time></trkpt>
<trkpt lat="46.15566010" lon="6.00115224"><ele></ele><time>2016-6-18T16:0:8Z</time></trkpt>
<trkpt lat="46.15568784" lon="6.00122876"><ele></ele><time>2016-6-18T16:0:11Z</time></trkpt>
<trkpt lat="46.15571542" lon="6.00130479"><ele></ele><time>2016-6-18T16:0:14Z</time></trkpt>
<trkpt lat="46.15574325" lon="6.00138014"><ele></ele><time>2016-6-18T16:0:17Z</time></trkpt>
<trkpt lat="46.15577023" lon="6.00145583"><ele></ele><time>2016-6-18T16:0:20Z</time></trkpt>
<trkpt lat="46.15579697" lon="6.00153152"><ele></ele><time>2016-6-18T16:0:23Z</time></trkpt>
<trkpt lat="46.15582396" lon="6.00160654"><ele></ele><time>2016-6-18T16:0:26Z</time></trkpt>
<trkpt lat="46.15585213" lon="6.00168072"><ele></ele><time>2016-6-18T16:0:29Z</time></trkpt>
<trkpt lat="46.15588079" lon="6.00175506"><ele></ele><time>2016-6-18T16:0:32Z</time></trkpt>
<trkpt lat="46.15590937" lon="6.00182975"><ele></ele><time>2016-6-18T16:0:35Z</time></trkpt>
<trkpt lat="46.15593854" lon="6.00190359"><ele></ele><time>2016-6-18T16:0:38Z</time></trkpt>
<trkpt lat="46.15596805" lon="6.00197584"><ele></ele><time>2016-6-18T16:0:41Z</time></trkpt>
<trkpt lat="46.15599579" lon="6.00204868"><ele></ele><time>2016-6-18T16:0:44Z</time></trkpt>
<trkpt lat="46.15602186" lon="6.00212135"><ele></ele><time>2016-6-18T16:0:47Z</time></trkpt>
<trkpt lat="46.15604860" lon="6.00219193"><ele></ele><time>2016-6-18T16:0:50Z</time></trkpt>
<trkpt lat="46.15607542" lon="6.00226167"><ele></ele><time>2016-6-18T16:0:53Z</time></trkpt>
<trkpt lat="46.15610216" lon="6.00233073"><ele></ele><time>2016-6-18T16:0:56Z</time></trkpt>
<trkpt lat="46.15612848" lon="6.00239553"><ele></ele><time>2016-6-18T16:0:59Z</time></trkpt>
<trkpt lat="46.15615496" lon="6.00245738"><ele></ele><time>2016-6-18T16:1:2Z</time></trkpt>
<trkpt lat="46.15617986" lon="6.00251715"><ele></ele><time>2016-6-18T16:1:5Z</time></trkpt>
<trkpt lat="46.15620333" lon="6.00257716"><ele></ele><time>2016-6-18T16:1:8Z</time></trkpt>
<trkpt lat="46.15622872" lon="6.00263919"><ele></ele><time>2016-6-18T16:1:11Z</time></trkpt>
<trkpt lat="46.15626167" lon="6.00269794"><ele></ele><time>2016-6-18T16:1:14Z</time></trkpt>
<trkpt lat="46.15629704" lon="6.00275846"><ele></ele><time>2016-6-18T16:1:17Z</time></trkpt>
<trkpt lat="46.15632612" lon="6.00282627"><ele></ele><time>2016-6-18T16:1:20Z</time></trkpt>
<trkpt lat="46.15635035" lon="6.00289978"><ele></ele><time>2016-6-18T16:1:23Z</time></trkpt>
<trkpt lat="46.15637407" lon="6.00297547"><ele></ele><time>2016-6-18T16:1:26Z</time></trkpt>
<trkpt lat="46.15640039" lon="6.00305158"><ele></ele><time>2016-6-18T16:1:29Z</time></trkpt>
<trkpt lat="46.15642922" lon="6.00312727"><ele></ele><time>2016-6-18T16:1:32Z</time></trkpt>
<trkpt lat="46.15645998" lon="6.00320195"><ele></ele><time>2016-6-18T16:1:35Z</time></trkpt>
<trkpt lat="46.15649208" lon="6.00327638"><ele></ele><time>2016-6-18T16:1:38Z</time></trkpt>
<trkpt lat="46.15652486" lon="6.00335140"><ele></ele><time>2016-6-18T16:1:41Z</time></trkpt>
<trkpt lat="46.15655704" lon="6.00342767"><ele></ele><time>2016-6-18T16:1:44Z</time></trkpt>
<trkpt lat="46.15658890" lon="6.00350428"><ele></ele><time>2016-6-18T16:1:47Z</time></trkpt>
<trkpt lat="46.15662125" lon="6.00358006"><ele></ele><time>2016-6-18T16:1:50Z</time></trkpt>
<trkpt lat="46.15665369" lon="6.00365600"><ele></ele><time>2016-6-18T16:1:53Z</time></trkpt>
<trkpt lat="46.15668638" lon="6.00373236"><ele></ele><time>2016-6-18T16:1:56Z</time></trkpt>
<trkpt lat="46.15671923" lon="6.00380913"><ele></ele><time>2016-6-18T16:1:59Z</time></trkpt>
<trkpt lat="46.15675217" lon="6.00388683"><ele></ele><time>2016-6-18T16:2:2Z</time></trkpt>
<trkpt lat="46.15678537" lon="6.00396479"><ele></ele><time>2016-6-18T16:2:5Z</time></trkpt>
<trkpt lat="46.15681856" lon="6.00404257"><ele></ele><time>2016-6-18T16:2:8Z</time></trkpt>
<trkpt lat="46.15685184" lon="6.00412044"><ele></ele><time>2016-6-18T16:2:11Z</time></trkpt>
<trkpt lat="46.15688536" lon="6.00419822"><ele></ele><time>2016-6-18T16:2:14Z</time></trkpt>
<trkpt lat="46.15691856" lon="6.00427575"><ele></ele><time>2016-6-18T16:2:17Z</time></trkpt>
<trkpt lat="46.15695217" lon="6.00435295"><ele></ele><time>2016-6-18T16:2:20Z</time></trkpt>
<trkpt lat="46.15698586" lon="6.00442948"><ele></ele><time>2016-6-18T16:2:23Z</time></trkpt>
<trkpt lat="46.15701822" lon="6.00450668"><ele></ele><time>2016-6-18T16:2:26Z</time></trkpt>
<trkpt lat="46.15705032" lon="6.00458396"><ele></ele><time>2016-6-18T16:2:29Z</time></trkpt>
<trkpt lat="46.15708309" lon="6.00466082"><ele></ele><time>2016-6-18T16:2:32Z</time></trkpt>
<trkpt lat="46.15711603" lon="6.00473844"><ele></ele><time>2016-6-18T16:2:35Z</time></trkpt>
<trkpt lat="46.15714914" lon="6.00481655"><ele></ele><time>2016-6-18T16:2:38Z</time></trkpt>
<trkpt lat="46.15718275" lon="6.00489484"><ele></ele><time>2016-6-18T16:2:41Z</time></trkpt>
<trkpt lat="46.15721687" lon="6.00497346"><ele></ele><time>2016-6-18T16:2:44Z</time></trkpt>
<trkpt lat="46.15725123" lon="6.00505234"><ele></ele><time>2016-6-18T16:2:47Z</time></trkpt>
<trkpt lat="46.15728644" lon="6.00513113"><ele></ele><time>2016-6-18T16:2:50Z</time></trkpt>
<trkpt lat="46.15732214" lon="6.00521042"><ele></ele><time>2016-6-18T16:2:53Z</time></trkpt>
<trkpt lat="46.15735718" lon="6.00529089"><ele></ele><time>2016-6-18T16:2:56Z</time></trkpt>
<trkpt lat="46.15739188" lon="6.00537253"><ele></ele><time>2016-6-18T16:2:59Z</time></trkpt>
<trkpt lat="46.15742709" lon="6.00545458"><ele></ele><time>2016-6-18T16:3:2Z</time></trkpt>
<trkpt lat="46.15746330" lon="6.00553698"><ele></ele><time>2016-6-18T16:3:5Z</time></trkpt>
<trkpt lat="46.15749875" lon="6.00562030"><ele></ele><time>2016-6-18T16:3:8Z</time></trkpt>
<trkpt lat="46.15753454" lon="6.00570378"><ele></ele><time>2016-6-18T16:3:11Z</time></trkpt>
<trkpt lat="46.15757016" lon="6.00578760"><ele></ele><time>2016-6-18T16:3:14Z</time></trkpt>
<trkpt lat="46.15760604" lon="6.00587108"><ele></ele><time>2016-6-18T16:3:17Z</time></trkpt>
<trkpt lat="46.15764225" lon="6.00595356"><ele></ele><time>2016-6-18T16:3:20Z</time></trkpt>
<trkpt lat="46.15767762" lon="6.00603629"><ele></ele><time>2016-6-18T16:3:23Z</time></trkpt>
<trkpt lat="46.15771257" lon="6.00611944"><ele></ele><time>2016-6-18T16:3:26Z</time></trkpt>
<trkpt lat="46.15774753" lon="6.00620259"><ele></ele><time>2016-6-18T16:3:29Z</time></trkpt>
<trkpt lat="46.15778265" lon="6.00628599"><ele></ele><time>2016-6-18T16:3:32Z</time></trkpt>
<trkpt lat="46.15781827" lon="6.00636972"><ele></ele><time>2016-6-18T16:3:35Z</time></trkpt>
<trkpt lat="46.15785448" lon="6.00645413"><ele></ele><time>2016-6-18T16:3:38Z</time></trkpt>
<trkpt lat="46.15789077" lon="6.00653904"><ele></ele><time>2016-6-18T16:3:41Z</time></trkpt>
<trkpt lat="46.15792698" lon="6.00662436"><ele></ele><time>2016-6-18T16:3:44Z</time></trkpt>
<trkpt lat="46.15796328" lon="6.00670977"><ele></ele><time>2016-6-18T16:3:47Z</time></trkpt>
<trkpt lat="46.15799982" lon="6.00679502"><ele></ele><time>2016-6-18T16:3:50Z</time></trkpt>
<trkpt lat="46.15803645" lon="6.00688035"><ele></ele><time>2016-6-18T16:3:53Z</time></trkpt>
<trkpt lat="46.15807308" lon="6.00696576"><ele></ele><time>2016-6-18T16:3:56Z</time></trkpt>
<trkpt lat="46.15811055" lon="6.00705167"><ele></ele><time>2016-6-18T16:3:59Z</time></trkpt>
<trkpt lat="46.15814793" lon="6.00713834"><ele></ele><time>2016-6-18T16:4:2Z</time></trkpt>
<trkpt lat="46.15818573" lon="6.00722568"><ele></ele><time>2016-6-18T16:4:5Z</time></trkpt>
<trkpt lat="46.15822404" lon="6.00731319"><ele></ele><time>2016-6-18T16:4:8Z</time></trkpt>
<trkpt lat="46.15826268" lon="6.00740086"><ele></ele><time>2016-6-18T16:4:11Z</time></trkpt>
<trkpt lat="46.15830115" lon="6.00748896"><ele></ele><time>2016-6-18T16:4:14Z</time></trkpt>
<trkpt lat="46.15833946" lon="6.00757797"><ele></ele><time>2016-6-18T16:4:17Z</time></trkpt>
<trkpt lat="46.15837776" lon="6.00766716"><ele></ele><time>2016-6-18T16:4:20Z</time></trkpt>
<trkpt lat="46.15841623" lon="6.00775667"><ele></ele><time>2016-6-18T16:4:23Z</time></trkpt>
<trkpt lat="46.15845462" lon="6.00784644"><ele></ele><time>2016-6-18T16:4:26Z</time></trkpt>
<trkpt lat="46.15849343" lon="6.00793588"><ele></ele><time>2016-6-18T16:4:29Z</time></trkpt>
<trkpt lat="46.15853257" lon="6.00802490"><ele></ele><time>2016-6-18T16:4:32Z</time></trkpt>
<trkpt lat="46.15857130" lon="6.00811383"><ele></ele><time>2016-6-18T16:4:35Z</time></trkpt>
<trkpt lat="46.15860935" lon="6.00820318"><ele></ele><time>2016-6-18T16:4:38Z</time></trkpt>
<trkpt lat="46.15864749" lon="6.00829228"><ele></ele><time>2016-6-18T16:4:41Z</time></trkpt>
<trkpt lat="46.15868605" lon="6.00838113"><ele></ele><time>2016-6-18T16:4:44Z</time></trkpt>
<trkpt lat="46.15872452" lon="6.00847006"><ele></ele><time>2016-6-18T16:4:47Z</time></trkpt>
<trkpt lat="46.15876274" lon="6.00855933"><ele></ele><time>2016-6-18T16:4:50Z</time></trkpt>
<trkpt lat="46.15880113" lon="6.00864876"><ele></ele><time>2016-6-18T16:4:53Z</time></trkpt>
<trkpt lat="46.15883935" lon="6.00873887"><ele></ele><time>2016-6-18T16:4:56Z</time></trkpt>
<trkpt lat="46.15887783" lon="6.00882872"><ele></ele><time>2016-6-18T16:4:59Z</time></trkpt>
<trkpt lat="46.15891647" lon="6.00891824"><ele></ele><time>2016-6-18T16:5:2Z</time></trkpt>
<trkpt lat="46.15895477" lon="6.00900767"><ele></ele><time>2016-6-18T16:5:5Z</time></trkpt>
<trkpt lat="46.15899274" lon="6.00909719"><ele></ele><time>2016-6-18T16:5:8Z</time></trkpt>
<trkpt lat="46.15903046" lon="6.00918705"><ele></ele><time>2016-6-18T16:5:11Z</time></trkpt>
<trkpt lat="46.15906793" lon="6.00927682"><ele></ele><time>2016-6-18T16:5:14Z</time></trkpt>
<trkpt lat="46.15910606" lon="6.00936583"><ele></ele><time>2016-6-18T16:5:17Z</time></trkpt>
<trkpt lat="46.15914429" lon="6.00945468"><ele></ele><time>2016-6-18T16:5:20Z</time></trkpt>
<trkpt lat="46.15918226" lon="6.00954353"><ele></ele><time>2016-6-18T16:5:23Z</time></trkpt>
<trkpt lat="46.15922006" lon="6.00963204"><ele></ele><time>2016-6-18T16:5:26Z</time></trkpt>
<trkpt lat="46.15925769" lon="6.00972022"><ele></ele><time>2016-6-18T16:5:29Z</time></trkpt>
<trkpt lat="46.15929499" lon="6.00980815"><ele></ele><time>2016-6-18T16:5:32Z</time></trkpt>
<trkpt lat="46.15933196" lon="6.00989574"><ele></ele><time>2016-6-18T16:5:35Z</time></trkpt>
<trkpt lat="46.15936892" lon="6.00998299"><ele></ele><time>2016-6-18T16:5:38Z</time></trkpt>
<trkpt lat="46.15940597" lon="6.01007016"><ele></ele><time>2016-6-18T16:5:41Z</time></trkpt>
<trkpt lat="46.15944344" lon="6.01015759"><ele></ele><time>2016-6-18T16:5:44Z</time></trkpt>
<trkpt lat="46.15948115" lon="6.01024526"><ele></ele><time>2016-6-18T16:5:47Z</time></trkpt>
<trkpt lat="46.15951879" lon="6.01033369"><ele></ele><time>2016-6-18T16:5:50Z</time></trkpt>
<trkpt lat="46.15955626" lon="6.01042229"><ele></ele><time>2016-6-18T16:5:53Z</time></trkpt>
<trkpt lat="46.15959364" lon="6.01051139"><ele></ele><time>2016-6-18T16:5:56Z</time></trkpt>
<trkpt lat="46.15963127" lon="6.01060065"><ele></ele><time>2016-6-18T16:5:59Z</time></trkpt>
<trkpt lat="46.15966950" lon="6.01069009"><ele></ele><time>2016-6-18T16:6:2Z</time></trkpt>
<trkpt lat="46.15970856" lon="6.01077994"><ele></ele><time>2016-6-18T16:6:5Z</time></trkpt>
<trkpt lat="46.15974745" lon="6.01087072"><ele></ele><time>2016-6-18T16:6:8Z</time></trkpt>
<trkpt lat="46.15978626" lon="6.01096200"><ele></ele><time>2016-6-18T16:6:11Z</time></trkpt>
<trkpt lat="46.15982506" lon="6.01105303"><ele></ele><time>2016-6-18T16:6:14Z</time></trkpt>
<trkpt lat="46.15986387" lon="6.01114447"><ele></ele><time>2016-6-18T16:6:17Z</time></trkpt>
<trkpt lat="46.15990276" lon="6.01123584"><ele></ele><time>2016-6-18T16:6:20Z</time></trkpt>
<trkpt lat="46.15994182" lon="6.01132745"><ele></ele><time>2016-6-18T16:6:23Z</time></trkpt>
<trkpt lat="46.15998055" lon="6.01141940"><ele></ele><time>2016-6-18T16:6:26Z</time></trkpt>
<trkpt lat="46.16001952" lon="6.01151118"><ele></ele><time>2016-6-18T16:6:29Z</time></trkpt>
<trkpt lat="46.16005909" lon="6.01160279"><ele></ele><time>2016-6-18T16:6:32Z</time></trkpt>
<trkpt lat="46.16009756" lon="6.01169516"><ele></ele><time>2016-6-18T16:6:35Z</time></trkpt>
<trkpt lat="46.16013595" lon="6.01178753"><ele></ele><time>2016-6-18T16:6:38Z</time></trkpt>
<trkpt lat="46.16017467" lon="6.01187948"><ele></ele><time>2016-6-18T16:6:41Z</time></trkpt>
<trkpt lat="46.16021298" lon="6.01197118"><ele></ele><time>2016-6-18T16:6:44Z</time></trkpt>
<trkpt lat="46.16025137" lon="6.01206187"><ele></ele><time>2016-6-18T16:6:47Z</time></trkpt>
<trkpt lat="46.16029018" lon="6.01215189"><ele></ele><time>2016-6-18T16:6:50Z</time></trkpt>
<trkpt lat="46.16032898" lon="6.01224175"><ele></ele><time>2016-6-18T16:6:53Z</time></trkpt>
<trkpt lat="46.16036729" lon="6.01233219"><ele></ele><time>2016-6-18T16:6:56Z</time></trkpt>
<trkpt lat="46.16040534" lon="6.01242246"><ele></ele><time>2016-6-18T16:6:59Z</time></trkpt>
<trkpt lat="46.16044365" lon="6.01251265"><ele></ele><time>2016-6-18T16:7:2Z</time></trkpt>
<trkpt lat="46.16048246" lon="6.01260326"><ele></ele><time>2016-6-18T16:7:5Z</time></trkpt>
<trkpt lat="46.16052118" lon="6.01269412"><ele></ele><time>2016-6-18T16:7:8Z</time></trkpt>
<trkpt lat="46.16056032" lon="6.01278515"><ele></ele><time>2016-6-18T16:7:11Z</time></trkpt>
<trkpt lat="46.16059947" lon="6.01287592"><ele></ele><time>2016-6-18T16:7:14Z</time></trkpt>
<trkpt lat="46.16063886" lon="6.01296687"><ele></ele><time>2016-6-18T16:7:17Z</time></trkpt>
<trkpt lat="46.16067792" lon="6.01305789"><ele></ele><time>2016-6-18T16:7:20Z</time></trkpt>
<trkpt lat="46.16071673" lon="6.01314909"><ele></ele><time>2016-6-18T16:7:23Z</time></trkpt>
<trkpt lat="46.16075579" lon="6.01323995"><ele></ele><time>2016-6-18T16:7:26Z</time></trkpt>
<trkpt lat="46.16079468" lon="6.01333089"><ele></ele><time>2016-6-18T16:7:29Z</time></trkpt>
<trkpt lat="46.16083332" lon="6.01342209"><ele></ele><time>2016-6-18T16:7:32Z</time></trkpt>
<trkpt lat="46.16087196" lon="6.01351295"><ele></ele><time>2016-6-18T16:7:35Z</time></trkpt>
<trkpt lat="46.16091052" lon="6.01360347"><ele></ele><time>2016-6-18T16:7:38Z</time></trkpt>
<trkpt lat="46.16094966" lon="6.01369366"><ele></ele><time>2016-6-18T16:7:41Z</time></trkpt>
<trkpt lat="46.16098839" lon="6.01378435"><ele></ele><time>2016-6-18T16:7:44Z</time></trkpt>
<trkpt lat="46.16102669" lon="6.01387546"><ele></ele><time>2016-6-18T16:7:47Z</time></trkpt>
<trkpt lat="46.16106483" lon="6.01396616"><ele></ele><time>2016-6-18T16:7:50Z</time></trkpt>
<trkpt lat="46.16110305" lon="6.01405635"><ele></ele><time>2016-6-18T16:7:53Z</time></trkpt>
<trkpt lat="46.16114127" lon="6.01414628"><ele></ele><time>2016-6-18T16:7:56Z</time></trkpt>
<trkpt lat="46.16117924" lon="6.01423639"><ele></ele><time>2016-6-18T16:7:59Z</time></trkpt>
<trkpt lat="46.16121696" lon="6.01432633"><ele></ele><time>2016-6-18T16:8:2Z</time></trkpt>
<trkpt lat="46.16125502" lon="6.01441576"><ele></ele><time>2016-6-18T16:8:5Z</time></trkpt>
<trkpt lat="46.16129307" lon="6.01450520"><ele></ele><time>2016-6-18T16:8:8Z</time></trkpt>
<trkpt lat="46.16133096" lon="6.01459505"><ele></ele><time>2016-6-18T16:8:11Z</time></trkpt>
<trkpt lat="46.16136876" lon="6.01468474"><ele></ele><time>2016-6-18T16:8:14Z</time></trkpt>
<trkpt lat="46.16140690" lon="6.01477417"><ele></ele><time>2016-6-18T16:8:17Z</time></trkpt>
<trkpt lat="46.16144495" lon="6.01486419"><ele></ele><time>2016-6-18T16:8:20Z</time></trkpt>
<trkpt lat="46.16148284" lon="6.01495447"><ele></ele><time>2016-6-18T16:8:23Z</time></trkpt>
<trkpt lat="46.16152106" lon="6.01504474"><ele></ele><time>2016-6-18T16:8:26Z</time></trkpt>
<trkpt lat="46.16155920" lon="6.01513484"><ele></ele><time>2016-6-18T16:8:29Z</time></trkpt>
<trkpt lat="46.16159708" lon="6.01522487"><ele></ele><time>2016-6-18T16:8:32Z</time></trkpt>
<trkpt lat="46.16163472" lon="6.01531447"><ele></ele><time>2016-6-18T16:8:35Z</time></trkpt>
<trkpt lat="46.16167294" lon="6.01540374"><ele></ele><time>2016-6-18T16:8:38Z</time></trkpt>
<trkpt lat="46.16171175" lon="6.01549376"><ele></ele><time>2016-6-18T16:8:41Z</time></trkpt>
<trkpt lat="46.16175039" lon="6.01558487"><ele></ele><time>2016-6-18T16:8:44Z</time></trkpt>
<trkpt lat="46.16178920" lon="6.01567623"><ele></ele><time>2016-6-18T16:8:47Z</time></trkpt>
<trkpt lat="46.16182826" lon="6.01576768"><ele></ele><time>2016-6-18T16:8:50Z</time></trkpt>
<trkpt lat="46.16186690" lon="6.01585929"><ele></ele><time>2016-6-18T16:8:53Z</time></trkpt>
<trkpt lat="46.16190545" lon="6.01595099"><ele></ele><time>2016-6-18T16:8:56Z</time></trkpt>
<trkpt lat="46.16194493" lon="6.01604160"><ele></ele><time>2016-6-18T16:8:59Z</time></trkpt>
<trkpt lat="46.16198458" lon="6.01613187"><ele></ele><time>2016-6-18T16:9:2Z</time></trkpt>
<trkpt lat="46.16202347" lon="6.01622223"><ele></ele><time>2016-6-18T16:9:5Z</time></trkpt>
<trkpt lat="46.16206236" lon="6.01631217"><ele></ele><time>2016-6-18T16:9:8Z</time></trkpt>
<trkpt lat="46.16210025" lon="6.01640269"><ele></ele><time>2016-6-18T16:9:11Z</time></trkpt>
<trkpt lat="46.16213855" lon="6.01649280"><ele></ele><time>2016-6-18T16:9:14Z</time></trkpt>
<trkpt lat="46.16217745" lon="6.01658206"><ele></ele><time>2016-6-18T16:9:17Z</time></trkpt>
<trkpt lat="46.16221533" lon="6.01667292"><ele></ele><time>2016-6-18T16:9:20Z</time></trkpt>
<trkpt lat="46.16225297" lon="6.01676462"><ele></ele><time>2016-6-18T16:9:23Z</time></trkpt>
<trkpt lat="46.16229194" lon="6.01685598"><ele></ele><time>2016-6-18T16:9:26Z</time></trkpt>
<trkpt lat="46.16233142" lon="6.01694668"><ele></ele><time>2016-6-18T16:9:29Z</time></trkpt>
<trkpt lat="46.16237023" lon="6.01703687"><ele></ele><time>2016-6-18T16:9:32Z</time></trkpt>
<trkpt lat="46.16240879" lon="6.01712605"><ele></ele><time>2016-6-18T16:9:35Z</time></trkpt>
<trkpt lat="46.16244625" lon="6.01721398"><ele></ele><time>2016-6-18T16:9:38Z</time></trkpt>
<trkpt lat="46.16248305" lon="6.01730173"><ele></ele><time>2016-6-18T16:9:41Z</time></trkpt>
<trkpt lat="46.16251909" lon="6.01738849"><ele></ele><time>2016-6-18T16:9:44Z</time></trkpt>
<trkpt lat="46.16255438" lon="6.01747273"><ele></ele><time>2016-6-18T16:9:47Z</time></trkpt>
<trkpt lat="46.16258958" lon="6.01755437"><ele></ele><time>2016-6-18T16:9:50Z</time></trkpt>
<trkpt lat="46.16262713" lon="6.01762787"><ele></ele><time>2016-6-18T16:9:53Z</time></trkpt>
<trkpt lat="46.16267089" lon="6.01768185"><ele></ele><time>2016-6-18T16:9:56Z</time></trkpt>
<trkpt lat="46.16271825" lon="6.01770985"><ele></ele><time>2016-6-18T16:9:59Z</time></trkpt>
<trkpt lat="46.16276133" lon="6.01773139"><ele></ele><time>2016-6-18T16:10:2Z</time></trkpt>
<trkpt lat="46.16279913" lon="6.01776433"><ele></ele><time>2016-6-18T16:10:5Z</time></trkpt>
<trkpt lat="46.16283149" lon="6.01780884"><ele></ele><time>2016-6-18T16:10:8Z</time></trkpt>
<trkpt lat="46.16284783" lon="6.01785896"><ele></ele><time>2016-6-18T16:10:11Z</time></trkpt>
<trkpt lat="46.16285328" lon="6.01792409"><ele></ele><time>2016-6-18T16:10:14Z</time></trkpt>
<trkpt lat="46.16284079" lon="6.01797673"><ele></ele><time>2016-6-18T16:10:17Z</time></trkpt>
<trkpt lat="46.16283769" lon="6.01804974"><ele></ele><time>2016-6-18T16:10:20Z</time></trkpt>
<trkpt lat="46.16285169" lon="6.01812660"><ele></ele><time>2016-6-18T16:10:23Z</time></trkpt>
<trkpt lat="46.16287884" lon="6.01819935"><ele></ele><time>2016-6-18T16:10:26Z</time></trkpt>
<trkpt lat="46.16291262" lon="6.01827026"><ele></ele><time>2016-6-18T16:10:29Z</time></trkpt>
<trkpt lat="46.16294925" lon="6.01834344"><ele></ele><time>2016-6-18T16:10:32Z</time></trkpt>
<trkpt lat="46.16298395" lon="6.01842139"><ele></ele><time>2016-6-18T16:10:35Z</time></trkpt>
<trkpt lat="46.16302008" lon="6.01850429"><ele></ele><time>2016-6-18T16:10:38Z</time></trkpt>
<trkpt lat="46.16305637" lon="6.01858869"><ele></ele><time>2016-6-18T16:10:41Z</time></trkpt>
<trkpt lat="46.16309258" lon="6.01867385"><ele></ele><time>2016-6-18T16:10:44Z</time></trkpt>
<trkpt lat="46.16312988" lon="6.01875910"><ele></ele><time>2016-6-18T16:10:47Z</time></trkpt>
<trkpt lat="46.16316894" lon="6.01884417"><ele></ele><time>2016-6-18T16:10:50Z</time></trkpt>
<trkpt lat="46.16320716" lon="6.01893109"><ele></ele><time>2016-6-18T16:10:53Z</time></trkpt>
<trkpt lat="46.16324346" lon="6.01901994"><ele></ele><time>2016-6-18T16:10:56Z</time></trkpt>
<trkpt lat="46.16327849" lon="6.01911223"><ele></ele><time>2016-6-18T16:10:59Z</time></trkpt>
<trkpt lat="46.16331629" lon="6.01920669"><ele></ele><time>2016-6-18T16:11:2Z</time></trkpt>
<trkpt lat="46.16335552" lon="6.01929939"><ele></ele><time>2016-6-18T16:11:5Z</time></trkpt>
<trkpt lat="46.16339819" lon="6.01939185"><ele></ele><time>2016-6-18T16:11:8Z</time></trkpt>
<trkpt lat="46.16344093" lon="6.01948673"><ele></ele><time>2016-6-18T16:11:11Z</time></trkpt>
<trkpt lat="46.16348309" lon="6.01958304"><ele></ele><time>2016-6-18T16:11:14Z</time></trkpt>
<trkpt lat="46.16352425" lon="6.01968136"><ele></ele><time>2016-6-18T16:11:17Z</time></trkpt>
<trkpt lat="46.16356825" lon="6.01978244"><ele></ele><time>2016-6-18T16:11:20Z</time></trkpt>
<trkpt lat="46.16361092" lon="6.01988269"><ele></ele><time>2016-6-18T16:11:23Z</time></trkpt>
<trkpt lat="46.16365249" lon="6.01998193"><ele></ele><time>2016-6-18T16:11:26Z</time></trkpt>
<trkpt lat="46.16369407" lon="6.02008235"><ele></ele><time>2016-6-18T16:11:29Z</time></trkpt>
<trkpt lat="46.16373732" lon="6.02018310"><ele></ele><time>2016-6-18T16:11:32Z</time></trkpt>
<trkpt lat="46.16378082" lon="6.02028175"><ele></ele><time>2016-6-18T16:11:35Z</time></trkpt>
<trkpt lat="46.16382273" lon="6.02038032"><ele></ele><time>2016-6-18T16:11:38Z</time></trkpt>
<trkpt lat="46.16386640" lon="6.02047906"><ele></ele><time>2016-6-18T16:11:41Z</time></trkpt>
<trkpt lat="46.16390973" lon="6.02057562"><ele></ele><time>2016-6-18T16:11:44Z</time></trkpt>
<trkpt lat="46.16395122" lon="6.02067168"><ele></ele><time>2016-6-18T16:11:47Z</time></trkpt>
<trkpt lat="46.16399204" lon="6.02077000"><ele></ele><time>2016-6-18T16:11:50Z</time></trkpt>
<trkpt lat="46.16403253" lon="6.02086413"><ele></ele><time>2016-6-18T16:11:53Z</time></trkpt>
<trkpt lat="46.16407318" lon="6.02095222"><ele></ele><time>2016-6-18T16:11:56Z</time></trkpt>
<trkpt lat="46.16411182" lon="6.02104300"><ele></ele><time>2016-6-18T16:11:59Z</time></trkpt>
<trkpt lat="46.16415088" lon="6.02113520"><ele></ele><time>2016-6-18T16:12:2Z</time></trkpt>
<trkpt lat="46.16418743" lon="6.02122958"><ele></ele><time>2016-6-18T16:12:5Z</time></trkpt>
<trkpt lat="46.16422523" lon="6.02132346"><ele></ele><time>2016-6-18T16:12:8Z</time></trkpt>
<trkpt lat="46.16426353" lon="6.02141725"><ele></ele><time>2016-6-18T16:12:11Z</time></trkpt>
<trkpt lat="46.16430209" lon="6.02151163"><ele></ele><time>2016-6-18T16:12:14Z</time></trkpt>
<trkpt lat="46.16434149" lon="6.02160634"><ele></ele><time>2016-6-18T16:12:17Z</time></trkpt>
<trkpt lat="46.16438038" lon="6.02170047"><ele></ele><time>2016-6-18T16:12:20Z</time></trkpt>
<trkpt lat="46.16441969" lon="6.02179410"><ele></ele><time>2016-6-18T16:12:23Z</time></trkpt>
<trkpt lat="46.16445883" lon="6.02188739"><ele></ele><time>2016-6-18T16:12:26Z</time></trkpt>
<trkpt lat="46.16449747" lon="6.02198068"><ele></ele><time>2016-6-18T16:12:29Z</time></trkpt>
<trkpt lat="46.16453553" lon="6.02207439"><ele></ele><time>2016-6-18T16:12:32Z</time></trkpt>
<trkpt lat="46.16457316" lon="6.02216726"><ele></ele><time>2016-6-18T16:12:35Z</time></trkpt>
<trkpt lat="46.16461130" lon="6.02225795"><ele></ele><time>2016-6-18T16:12:38Z</time></trkpt>
<trkpt lat="46.16464927" lon="6.02234714"><ele></ele><time>2016-6-18T16:12:41Z</time></trkpt>
<trkpt lat="46.16468565" lon="6.02243599"><ele></ele><time>2016-6-18T16:12:44Z</time></trkpt>
<trkpt lat="46.16472127" lon="6.02252383"><ele></ele><time>2016-6-18T16:12:47Z</time></trkpt>
<trkpt lat="46.16475614" lon="6.02261025"><ele></ele><time>2016-6-18T16:12:50Z</time></trkpt>
<trkpt lat="46.16479076" lon="6.02269507"><ele></ele><time>2016-6-18T16:12:53Z</time></trkpt>
<trkpt lat="46.16482562" lon="6.02277813"><ele></ele><time>2016-6-18T16:12:56Z</time></trkpt>
<trkpt lat="46.16485965" lon="6.02286036"><ele></ele><time>2016-6-18T16:12:59Z</time></trkpt>
<trkpt lat="46.16489335" lon="6.02294225"><ele></ele><time>2016-6-18T16:13:2Z</time></trkpt>
<trkpt lat="46.16492696" lon="6.02302398"><ele></ele><time>2016-6-18T16:13:5Z</time></trkpt>
<trkpt lat="46.16496015" lon="6.02310578"><ele></ele><time>2016-6-18T16:13:8Z</time></trkpt>
<trkpt lat="46.16499368" lon="6.02318742"><ele></ele><time>2016-6-18T16:13:11Z</time></trkpt>
<trkpt lat="46.16502704" lon="6.02326906"><ele></ele><time>2016-6-18T16:13:14Z</time></trkpt>
<trkpt lat="46.16505956" lon="6.02334986"><ele></ele><time>2016-6-18T16:13:17Z</time></trkpt>
<trkpt lat="46.16509192" lon="6.02343050"><ele></ele><time>2016-6-18T16:13:20Z</time></trkpt>
<trkpt lat="46.16512452" lon="6.02351239"><ele></ele><time>2016-6-18T16:13:23Z</time></trkpt>
<trkpt lat="46.16515788" lon="6.02359185"><ele></ele><time>2016-6-18T16:13:26Z</time></trkpt>
<trkpt lat="46.16519133" lon="6.02367156"><ele></ele><time>2016-6-18T16:13:29Z</time></trkpt>
<trkpt lat="46.16522435" lon="6.02375345"><ele></ele><time>2016-6-18T16:13:32Z</time></trkpt>
<trkpt lat="46.16525738" lon="6.02383442"><ele></ele><time>2016-6-18T16:13:35Z</time></trkpt>
<trkpt lat="46.16529048" lon="6.02391606"><ele></ele><time>2016-6-18T16:13:38Z</time></trkpt>
<trkpt lat="46.16532309" lon="6.02399594"><ele></ele><time>2016-6-18T16:13:41Z</time></trkpt>
<trkpt lat="46.16535595" lon="6.02407523"><ele></ele><time>2016-6-18T16:13:44Z</time></trkpt>
<trkpt lat="46.16538872" lon="6.02415402"><ele></ele><time>2016-6-18T16:13:47Z</time></trkpt>
<trkpt lat="46.16542124" lon="6.02423315"><ele></ele><time>2016-6-18T16:13:50Z</time></trkpt>
<trkpt lat="46.16545276" lon="6.02431244"><ele></ele><time>2016-6-18T16:13:53Z</time></trkpt>
<trkpt lat="46.16548494" lon="6.02438964"><ele></ele><time>2016-6-18T16:13:56Z</time></trkpt>
<trkpt lat="46.16551654" lon="6.02446675"><ele></ele><time>2016-6-18T16:13:59Z</time></trkpt>
<trkpt lat="46.16554697" lon="6.02454454"><ele></ele><time>2016-6-18T16:14:2Z</time></trkpt>
<trkpt lat="46.16557807" lon="6.02462173"><ele></ele><time>2016-6-18T16:14:5Z</time></trkpt>
<trkpt lat="46.16560925" lon="6.02469742"><ele></ele><time>2016-6-18T16:14:8Z</time></trkpt>
<trkpt lat="46.16563984" lon="6.02477219"><ele></ele><time>2016-6-18T16:14:11Z</time></trkpt>
<trkpt lat="46.16566893" lon="6.02484503"><ele></ele><time>2016-6-18T16:14:14Z</time></trkpt>
<trkpt lat="46.16569642" lon="6.02491569"><ele></ele><time>2016-6-18T16:14:17Z</time></trkpt>
<trkpt lat="46.16572358" lon="6.02498383"><ele></ele><time>2016-6-18T16:14:20Z</time></trkpt>
<trkpt lat="46.16575266" lon="6.02504728"><ele></ele><time>2016-6-18T16:14:23Z</time></trkpt>
<trkpt lat="46.16578954" lon="6.02509439"><ele></ele><time>2016-6-18T16:14:26Z</time></trkpt>
<trkpt lat="46.16583439" lon="6.02511694"><ele></ele><time>2016-6-18T16:14:29Z</time></trkpt>
<trkpt lat="46.16587764" lon="6.02513630"><ele></ele><time>2016-6-18T16:14:32Z</time></trkpt>
<trkpt lat="46.16591368" lon="6.02517142"><ele></ele><time>2016-6-18T16:14:35Z</time></trkpt>
<trkpt lat="46.16594343" lon="6.02521920"><ele></ele><time>2016-6-18T16:14:38Z</time></trkpt>
<trkpt lat="46.16596607" lon="6.02527795"><ele></ele><time>2016-6-18T16:14:41Z</time></trkpt>
<trkpt lat="46.16597093" lon="6.02534308"><ele></ele><time>2016-6-18T16:14:44Z</time></trkpt>
<trkpt lat="46.16596422" lon="6.02540930"><ele></ele><time>2016-6-18T16:14:47Z</time></trkpt>
<trkpt lat="46.16595844" lon="6.02547769"><ele></ele><time>2016-6-18T16:14:50Z</time></trkpt>
<trkpt lat="46.16595970" lon="6.02554768"><ele></ele><time>2016-6-18T16:14:53Z</time></trkpt>
<trkpt lat="46.16597336" lon="6.02561709"><ele></ele><time>2016-6-18T16:14:56Z</time></trkpt>
<trkpt lat="46.16599607" lon="6.02568749"><ele></ele><time>2016-6-18T16:14:59Z</time></trkpt>
<trkpt lat="46.16602197" lon="6.02576008"><ele></ele><time>2016-6-18T16:15:2Z</time></trkpt>
<trkpt lat="46.16604888" lon="6.02583527"><ele></ele><time>2016-6-18T16:15:5Z</time></trkpt>
<trkpt lat="46.16607679" lon="6.02591263"><ele></ele><time>2016-6-18T16:15:8Z</time></trkpt>
<trkpt lat="46.16610546" lon="6.02599159"><ele></ele><time>2016-6-18T16:15:11Z</time></trkpt>
<trkpt lat="46.16613437" lon="6.02607214"><ele></ele><time>2016-6-18T16:15:14Z</time></trkpt>
<trkpt lat="46.16616304" lon="6.02615369"><ele></ele><time>2016-6-18T16:15:17Z</time></trkpt>
<trkpt lat="46.16619238" lon="6.02623592"><ele></ele><time>2016-6-18T16:15:20Z</time></trkpt>
<trkpt lat="46.16622205" lon="6.02631932"><ele></ele><time>2016-6-18T16:15:23Z</time></trkpt>
<trkpt lat="46.16625264" lon="6.02640272"><ele></ele><time>2016-6-18T16:15:26Z</time></trkpt>
<trkpt lat="46.16628223" lon="6.02648738"><ele></ele><time>2016-6-18T16:15:29Z</time></trkpt>
<trkpt lat="46.16631299" lon="6.02657078"><ele></ele><time>2016-6-18T16:15:32Z</time></trkpt>
<trkpt lat="46.16634526" lon="6.02665418"><ele></ele><time>2016-6-18T16:15:35Z</time></trkpt>
<trkpt lat="46.16637804" lon="6.02673884"><ele></ele><time>2016-6-18T16:15:38Z</time></trkpt>
<trkpt lat="46.16641006" lon="6.02682542"><ele></ele><time>2016-6-18T16:15:41Z</time></trkpt>
<trkpt lat="46.16644124" lon="6.02691418"><ele></ele><time>2016-6-18T16:15:44Z</time></trkpt>
<trkpt lat="46.16647166" lon="6.02700303"><ele></ele><time>2016-6-18T16:15:47Z</time></trkpt>
<trkpt lat="46.16650175" lon="6.02709197"><ele></ele><time>2016-6-18T16:15:50Z</time></trkpt>
<trkpt lat="46.16653193" lon="6.02718073"><ele></ele><time>2016-6-18T16:15:53Z</time></trkpt>
<trkpt lat="46.16656244" lon="6.02726907"><ele></ele><time>2016-6-18T16:15:56Z</time></trkpt>
<trkpt lat="46.16659345" lon="6.02735725"><ele></ele><time>2016-6-18T16:15:59Z</time></trkpt>
<trkpt lat="46.16662438" lon="6.02744669"><ele></ele><time>2016-6-18T16:16:2Z</time></trkpt>
<trkpt lat="46.16665573" lon="6.02753637"><ele></ele><time>2016-6-18T16:16:5Z</time></trkpt>
<trkpt lat="46.16668724" lon="6.02762640"><ele></ele><time>2016-6-18T16:16:8Z</time></trkpt>
<trkpt lat="46.16671792" lon="6.02771759"><ele></ele><time>2016-6-18T16:16:11Z</time></trkpt>
<trkpt lat="46.16674852" lon="6.02780929"><ele></ele><time>2016-6-18T16:16:14Z</time></trkpt>
<trkpt lat="46.16677945" lon="6.02790073"><ele></ele><time>2016-6-18T16:16:17Z</time></trkpt>
<trkpt lat="46.16681029" lon="6.02799243"><ele></ele><time>2016-6-18T16:16:20Z</time></trkpt>
<trkpt lat="46.16684105" lon="6.02808455"><ele></ele><time>2016-6-18T16:16:23Z</time></trkpt>
<trkpt lat="46.16687215" lon="6.02817692"><ele></ele><time>2016-6-18T16:16:26Z</time></trkpt>
<trkpt lat="46.16690367" lon="6.02826987"><ele></ele><time>2016-6-18T16:16:29Z</time></trkpt>
<trkpt lat="46.16693493" lon="6.02836325"><ele></ele><time>2016-6-18T16:16:32Z</time></trkpt>
<trkpt lat="46.16696653" lon="6.02845763"><ele></ele><time>2016-6-18T16:16:35Z</time></trkpt>
<trkpt lat="46.16699805" lon="6.02855268"><ele></ele><time>2016-6-18T16:16:38Z</time></trkpt>
<trkpt lat="46.16702990" lon="6.02864815"><ele></ele><time>2016-6-18T16:16:41Z</time></trkpt>
<trkpt lat="46.16706166" lon="6.02874404"><ele></ele><time>2016-6-18T16:16:44Z</time></trkpt>
<trkpt lat="46.16709393" lon="6.02883968"><ele></ele><time>2016-6-18T16:16:47Z</time></trkpt>
<trkpt lat="46.16712662" lon="6.02893548"><ele></ele><time>2016-6-18T16:16:50Z</time></trkpt>
<trkpt lat="46.16715864" lon="6.02903229"><ele></ele><time>2016-6-18T16:16:53Z</time></trkpt>
<trkpt lat="46.16718982" lon="6.02912969"><ele></ele><time>2016-6-18T16:16:56Z</time></trkpt>
<trkpt lat="46.16722159" lon="6.02922725"><ele></ele><time>2016-6-18T16:16:59Z</time></trkpt>
<trkpt lat="46.16725386" lon="6.02932482"><ele></ele><time>2016-6-18T16:17:2Z</time></trkpt>
<trkpt lat="46.16728613" lon="6.02942306"><ele></ele><time>2016-6-18T16:17:5Z</time></trkpt>
<trkpt lat="46.16731798" lon="6.02952112"><ele></ele><time>2016-6-18T16:17:8Z</time></trkpt>
<trkpt lat="46.16734983" lon="6.02961928"><ele></ele><time>2016-6-18T16:17:11Z</time></trkpt>
<trkpt lat="46.16738194" lon="6.02971734"><ele></ele><time>2016-6-18T16:17:14Z</time></trkpt>
<trkpt lat="46.16741387" lon="6.02981566"><ele></ele><time>2016-6-18T16:17:17Z</time></trkpt>
<trkpt lat="46.16744522" lon="6.02991424"><ele></ele><time>2016-6-18T16:17:20Z</time></trkpt>
<trkpt lat="46.16747699" lon="6.03001272"><ele></ele><time>2016-6-18T16:17:23Z</time></trkpt>
<trkpt lat="46.16750892" lon="6.03011088"><ele></ele><time>2016-6-18T16:17:26Z</time></trkpt>
<trkpt lat="46.16754136" lon="6.03020878"><ele></ele><time>2016-6-18T16:17:29Z</time></trkpt>
<trkpt lat="46.16757405" lon="6.03030684"><ele></ele><time>2016-6-18T16:17:32Z</time></trkpt>
<trkpt lat="46.16760632" lon="6.03040583"><ele></ele><time>2016-6-18T16:17:35Z</time></trkpt>
<trkpt lat="46.16763834" lon="6.03050524"><ele></ele><time>2016-6-18T16:17:38Z</time></trkpt>
<trkpt lat="46.16767069" lon="6.03060482"><ele></ele><time>2016-6-18T16:17:41Z</time></trkpt>
<trkpt lat="46.16770347" lon="6.03070457"><ele></ele><time>2016-6-18T16:17:44Z</time></trkpt>
<trkpt lat="46.16773666" lon="6.03080473"><ele></ele><time>2016-6-18T16:17:47Z</time></trkpt>
<trkpt lat="46.16776926" lon="6.03090607"><ele></ele><time>2016-6-18T16:17:50Z</time></trkpt>
<trkpt lat="46.16780179" lon="6.03100782"><ele></ele><time>2016-6-18T16:17:53Z</time></trkpt>
<trkpt lat="46.16783448" lon="6.03110958"><ele></ele><time>2016-6-18T16:17:56Z</time></trkpt>
<trkpt lat="46.16786675" lon="6.03121134"><ele></ele><time>2016-6-18T16:17:59Z</time></trkpt>
<trkpt lat="46.16789985" lon="6.03131376"><ele></ele><time>2016-6-18T16:18:2Z</time></trkpt>
<trkpt lat="46.16793330" lon="6.03141636"><ele></ele><time>2016-6-18T16:18:5Z</time></trkpt>
<trkpt lat="46.16796666" lon="6.03151929"><ele></ele><time>2016-6-18T16:18:8Z</time></trkpt>
<trkpt lat="46.16800019" lon="6.03162238"><ele></ele><time>2016-6-18T16:18:11Z</time></trkpt>
<trkpt lat="46.16803396" lon="6.03172489"><ele></ele><time>2016-6-18T16:18:14Z</time></trkpt>
<trkpt lat="46.16806749" lon="6.03182757"><ele></ele><time>2016-6-18T16:18:17Z</time></trkpt>
<trkpt lat="46.16810035" lon="6.03193025"><ele></ele><time>2016-6-18T16:18:20Z</time></trkpt>
<trkpt lat="46.16813354" lon="6.03203276"><ele></ele><time>2016-6-18T16:18:23Z</time></trkpt>
<trkpt lat="46.16816673" lon="6.03213527"><ele></ele><time>2016-6-18T16:18:26Z</time></trkpt>
<trkpt lat="46.16820009" lon="6.03223736"><ele></ele><time>2016-6-18T16:18:29Z</time></trkpt>
<trkpt lat="46.16823312" lon="6.03233912"><ele></ele><time>2016-6-18T16:18:32Z</time></trkpt>
<trkpt lat="46.16826648" lon="6.03244088"><ele></ele><time>2016-6-18T16:18:35Z</time></trkpt>
<trkpt lat="46.16830026" lon="6.03254205"><ele></ele><time>2016-6-18T16:18:38Z</time></trkpt>
<trkpt lat="46.16833404" lon="6.03264338"><ele></ele><time>2016-6-18T16:18:41Z</time></trkpt>
<trkpt lat="46.16836748" lon="6.03274489"><ele></ele><time>2016-6-18T16:18:44Z</time></trkpt>
<trkpt lat="46.16840109" lon="6.03284597"><ele></ele><time>2016-6-18T16:18:47Z</time></trkpt>
<trkpt lat="46.16843479" lon="6.03294647"><ele></ele><time>2016-6-18T16:18:50Z</time></trkpt>
<trkpt lat="46.16846815" lon="6.03304622"><ele></ele><time>2016-6-18T16:18:53Z</time></trkpt>
<trkpt lat="46.16850209" lon="6.03314538"><ele></ele><time>2016-6-18T16:18:56Z</time></trkpt>
<trkpt lat="46.16853604" lon="6.03324403"><ele></ele><time>2016-6-18T16:18:59Z</time></trkpt>
<trkpt lat="46.16857032" lon="6.03334227"><ele></ele><time>2016-6-18T16:19:2Z</time></trkpt>
<trkpt lat="46.16860452" lon="6.03344059"><ele></ele><time>2016-6-18T16:19:5Z</time></trkpt>
<trkpt lat="46.16863872" lon="6.03353882"><ele></ele><time>2016-6-18T16:19:8Z</time></trkpt>
<trkpt lat="46.16867376" lon="6.03363672"><ele></ele><time>2016-6-18T16:19:11Z</time></trkpt>
<trkpt lat="46.16870862" lon="6.03373487"><ele></ele><time>2016-6-18T16:19:14Z</time></trkpt>
<trkpt lat="46.16874274" lon="6.03383286"><ele></ele><time>2016-6-18T16:19:17Z</time></trkpt>
<trkpt lat="46.16877727" lon="6.03393076"><ele></ele><time>2016-6-18T16:19:20Z</time></trkpt>
<trkpt lat="46.16881206" lon="6.03402900"><ele></ele><time>2016-6-18T16:19:23Z</time></trkpt>
<trkpt lat="46.16884693" lon="6.03412706"><ele></ele><time>2016-6-18T16:19:26Z</time></trkpt>
<trkpt lat="46.16888238" lon="6.03422513"><ele></ele><time>2016-6-18T16:19:29Z</time></trkpt>
<trkpt lat="46.16891784" lon="6.03432337"><ele></ele><time>2016-6-18T16:19:32Z</time></trkpt>
<trkpt lat="46.16895388" lon="6.03442144"><ele></ele><time>2016-6-18T16:19:35Z</time></trkpt>
<trkpt lat="46.16899017" lon="6.03451917"><ele></ele><time>2016-6-18T16:19:38Z</time></trkpt>
<trkpt lat="46.16902697" lon="6.03461648"><ele></ele><time>2016-6-18T16:19:41Z</time></trkpt>
<trkpt lat="46.16906418" lon="6.03471338"><ele></ele><time>2016-6-18T16:19:44Z</time></trkpt>
<trkpt lat="46.16910073" lon="6.03481069"><ele></ele><time>2016-6-18T16:19:47Z</time></trkpt>
<trkpt lat="46.16913803" lon="6.03490784"><ele></ele><time>2016-6-18T16:19:50Z</time></trkpt>
<trkpt lat="46.16917667" lon="6.03500440"><ele></ele><time>2016-6-18T16:19:53Z</time></trkpt>
<trkpt lat="46.16921556" lon="6.03510104"><ele></ele><time>2016-6-18T16:19:56Z</time></trkpt>
<trkpt lat="46.16925403" lon="6.03519794"><ele></ele><time>2016-6-18T16:19:59Z</time></trkpt>
<trkpt lat="46.16929318" lon="6.03529450"><ele></ele><time>2016-6-18T16:20:2Z</time></trkpt>
<trkpt lat="46.16933249" lon="6.03539097"><ele></ele><time>2016-6-18T16:20:5Z</time></trkpt>
<trkpt lat="46.16937205" lon="6.03548736"><ele></ele><time>2016-6-18T16:20:8Z</time></trkpt>
<trkpt lat="46.16941170" lon="6.03558334"><ele></ele><time>2016-6-18T16:20:11Z</time></trkpt>
<trkpt lat="46.16945084" lon="6.03567914"><ele></ele><time>2016-6-18T16:20:14Z</time></trkpt>
<trkpt lat="46.16949032" lon="6.03577469"><ele></ele><time>2016-6-18T16:20:17Z</time></trkpt>
<trkpt lat="46.16953089" lon="6.03586924"><ele></ele><time>2016-6-18T16:20:20Z</time></trkpt>
<trkpt lat="46.16957129" lon="6.03596396"><ele></ele><time>2016-6-18T16:20:23Z</time></trkpt>
<trkpt lat="46.16961127" lon="6.03605834"><ele></ele><time>2016-6-18T16:20:26Z</time></trkpt>
<trkpt lat="46.16965125" lon="6.03615238"><ele></ele><time>2016-6-18T16:20:29Z</time></trkpt>
<trkpt lat="46.16969115" lon="6.03624626"><ele></ele><time>2016-6-18T16:20:32Z</time></trkpt>
<trkpt lat="46.16973122" lon="6.03633955"><ele></ele><time>2016-6-18T16:20:35Z</time></trkpt>
<trkpt lat="46.16977204" lon="6.03643192"><ele></ele><time>2016-6-18T16:20:38Z</time></trkpt>
<trkpt lat="46.16981328" lon="6.03652362"><ele></ele><time>2016-6-18T16:20:41Z</time></trkpt>
<trkpt lat="46.16985418" lon="6.03661523"><ele></ele><time>2016-6-18T16:20:44Z</time></trkpt>
<trkpt lat="46.16989508" lon="6.03670727"><ele></ele><time>2016-6-18T16:20:47Z</time></trkpt>
<trkpt lat="46.16993682" lon="6.03679905"><ele></ele><time>2016-6-18T16:20:50Z</time></trkpt>
<trkpt lat="46.16997865" lon="6.03689100"><ele></ele><time>2016-6-18T16:20:53Z</time></trkpt>
<trkpt lat="46.17002022" lon="6.03698286"><ele></ele><time>2016-6-18T16:20:56Z</time></trkpt>
<trkpt lat="46.17006239" lon="6.03707406"><ele></ele><time>2016-6-18T16:20:59Z</time></trkpt>
<trkpt lat="46.17010446" lon="6.03716475"><ele></ele><time>2016-6-18T16:21:2Z</time></trkpt>
<trkpt lat="46.17014587" lon="6.03725544"><ele></ele><time>2016-6-18T16:21:5Z</time></trkpt>
<trkpt lat="46.17018694" lon="6.03734622"><ele></ele><time>2016-6-18T16:21:8Z</time></trkpt>
<trkpt lat="46.17022793" lon="6.03743674"><ele></ele><time>2016-6-18T16:21:11Z</time></trkpt>
<trkpt lat="46.17026917" lon="6.03752660"><ele></ele><time>2016-6-18T16:21:14Z</time></trkpt>
<trkpt lat="46.17031108" lon="6.03761544"><ele></ele><time>2016-6-18T16:21:17Z</time></trkpt>
<trkpt lat="46.17035257" lon="6.03770278"><ele></ele><time>2016-6-18T16:21:20Z</time></trkpt>
<trkpt lat="46.17039305" lon="6.03778895"><ele></ele><time>2016-6-18T16:21:23Z</time></trkpt>
<trkpt lat="46.17043194" lon="6.03787386"><ele></ele><time>2016-6-18T16:21:26Z</time></trkpt>
<trkpt lat="46.17047075" lon="6.03795676"><ele></ele><time>2016-6-18T16:21:29Z</time></trkpt>
<trkpt lat="46.17051048" lon="6.03803638"><ele></ele><time>2016-6-18T16:21:32Z</time></trkpt>
<trkpt lat="46.17055139" lon="6.03811283"><ele></ele><time>2016-6-18T16:21:35Z</time></trkpt>
<trkpt lat="46.17059623" lon="6.03818139"><ele></ele><time>2016-6-18T16:21:38Z</time></trkpt>
<trkpt lat="46.17064593" lon="6.03823135"><ele></ele><time>2016-6-18T16:21:41Z</time></trkpt>
<trkpt lat="46.17069505" lon="6.03825842"><ele></ele><time>2016-6-18T16:21:44Z</time></trkpt>
<trkpt lat="46.17073922" lon="6.03828088"><ele></ele><time>2016-6-18T16:21:47Z</time></trkpt>
<trkpt lat="46.17077476" lon="6.03830603"><ele></ele><time>2016-6-18T16:21:50Z</time></trkpt>
<trkpt lat="46.17079597" lon="6.03832833"><ele></ele><time>2016-6-18T16:21:53Z</time></trkpt>
<trkpt lat="46.17080846" lon="6.03834819"><ele></ele><time>2016-6-18T16:21:56Z</time></trkpt>
<trkpt lat="46.17082187" lon="6.03837166"><ele></ele><time>2016-6-18T16:21:59Z</time></trkpt>
<trkpt lat="46.17083503" lon="6.03840527"><ele></ele><time>2016-6-18T16:22:2Z</time></trkpt>
<trkpt lat="46.17084400" lon="6.03844726"><ele></ele><time>2016-6-18T16:22:5Z</time></trkpt>
<trkpt lat="46.17084333" lon="6.03849244"><ele></ele><time>2016-6-18T16:22:8Z</time></trkpt>
<trkpt lat="46.17083629" lon="6.03854257"><ele></ele><time>2016-6-18T16:22:11Z</time></trkpt>
<trkpt lat="46.17083193" lon="6.03859956"><ele></ele><time>2016-6-18T16:22:14Z</time></trkpt>
<trkpt lat="46.17083805" lon="6.03866260"><ele></ele><time>2016-6-18T16:22:17Z</time></trkpt>
<trkpt lat="46.17085523" lon="6.03872890"><ele></ele><time>2016-6-18T16:22:20Z</time></trkpt>
<trkpt lat="46.17087912" lon="6.03879805"><ele></ele><time>2016-6-18T16:22:23Z</time></trkpt>
<trkpt lat="46.17090653" lon="6.03886594"><ele></ele><time>2016-6-18T16:22:26Z</time></trkpt>
<trkpt lat="46.17093628" lon="6.03893383"><ele></ele><time>2016-6-18T16:22:29Z</time></trkpt>
<trkpt lat="46.17096780" lon="6.03900332"><ele></ele><time>2016-6-18T16:22:32Z</time></trkpt>
<trkpt lat="46.17099957" lon="6.03907339"><ele></ele><time>2016-6-18T16:22:35Z</time></trkpt>
<trkpt lat="46.17103209" lon="6.03914363"><ele></ele><time>2016-6-18T16:22:38Z</time></trkpt>
<trkpt lat="46.17106578" lon="6.03921488"><ele></ele><time>2016-6-18T16:22:41Z</time></trkpt>
<trkpt lat="46.17109965" lon="6.03928755"><ele></ele><time>2016-6-18T16:22:44Z</time></trkpt>
<trkpt lat="46.17113418" lon="6.03936148"><ele></ele><time>2016-6-18T16:22:47Z</time></trkpt>
<trkpt lat="46.17116888" lon="6.03943683"><ele></ele><time>2016-6-18T16:22:50Z</time></trkpt>
<trkpt lat="46.17120442" lon="6.03951302"><ele></ele><time>2016-6-18T16:22:53Z</time></trkpt>
<trkpt lat="46.17124063" lon="6.03958938"><ele></ele><time>2016-6-18T16:22:56Z</time></trkpt>
<trkpt lat="46.17127609" lon="6.03966717"><ele></ele><time>2016-6-18T16:22:59Z</time></trkpt>
<trkpt lat="46.17131037" lon="6.03974612"><ele></ele><time>2016-6-18T16:23:2Z</time></trkpt>
<trkpt lat="46.17134473" lon="6.03982567"><ele></ele><time>2016-6-18T16:23:5Z</time></trkpt>
<trkpt lat="46.17137918" lon="6.03990580"><ele></ele><time>2016-6-18T16:23:8Z</time></trkpt>
<trkpt lat="46.17141405" lon="6.03998627"><ele></ele><time>2016-6-18T16:23:11Z</time></trkpt>
<trkpt lat="46.17144867" lon="6.04006757"><ele></ele><time>2016-6-18T16:23:14Z</time></trkpt>
<trkpt lat="46.17148412" lon="6.04014896"><ele></ele><time>2016-6-18T16:23:17Z</time></trkpt>
<trkpt lat="46.17151975" lon="6.04023119"><ele></ele><time>2016-6-18T16:23:20Z</time></trkpt>
<trkpt lat="46.17155445" lon="6.04031492"><ele></ele><time>2016-6-18T16:23:23Z</time></trkpt>
<trkpt lat="46.17158848" lon="6.04040058"><ele></ele><time>2016-6-18T16:23:26Z</time></trkpt>
<trkpt lat="46.17162167" lon="6.04048734"><ele></ele><time>2016-6-18T16:23:29Z</time></trkpt>
<trkpt lat="46.17165520" lon="6.04057493"><ele></ele><time>2016-6-18T16:23:32Z</time></trkpt>
<trkpt lat="46.17168915" lon="6.04066302"><ele></ele><time>2016-6-18T16:23:35Z</time></trkpt>
<trkpt lat="46.17172309" lon="6.04075204"><ele></ele><time>2016-6-18T16:23:38Z</time></trkpt>
<trkpt lat="46.17175654" lon="6.04084214"><ele></ele><time>2016-6-18T16:23:41Z</time></trkpt>
<trkpt lat="46.17178973" lon="6.04093367"><ele></ele><time>2016-6-18T16:23:44Z</time></trkpt>
<trkpt lat="46.17182275" lon="6.04102629"><ele></ele><time>2016-6-18T16:23:47Z</time></trkpt>
<trkpt lat="46.17185536" lon="6.04112059"><ele></ele><time>2016-6-18T16:23:50Z</time></trkpt>
<trkpt lat="46.17188746" lon="6.04121623"><ele></ele><time>2016-6-18T16:23:53Z</time></trkpt>
<trkpt lat="46.17191889" lon="6.04131295"><ele></ele><time>2016-6-18T16:23:56Z</time></trkpt>
<trkpt lat="46.17195024" lon="6.04141052"><ele></ele><time>2016-6-18T16:23:59Z</time></trkpt>
<trkpt lat="46.17198134" lon="6.04150909"><ele></ele><time>2016-6-18T16:24:2Z</time></trkpt>
<trkpt lat="46.17201210" lon="6.04160833"><ele></ele><time>2016-6-18T16:24:5Z</time></trkpt>
<trkpt lat="46.17204144" lon="6.04170808"><ele></ele><time>2016-6-18T16:24:8Z</time></trkpt>
<trkpt lat="46.17206994" lon="6.04180723"><ele></ele><time>2016-6-18T16:24:11Z</time></trkpt>
<trkpt lat="46.17209734" lon="6.04190622"><ele></ele><time>2016-6-18T16:24:14Z</time></trkpt>
<trkpt lat="46.17212408" lon="6.04200513"><ele></ele><time>2016-6-18T16:24:17Z</time></trkpt>
<trkpt lat="46.17214965" lon="6.04210353"><ele></ele><time>2016-6-18T16:24:20Z</time></trkpt>
<trkpt lat="46.17217345" lon="6.04220286"><ele></ele><time>2016-6-18T16:24:23Z</time></trkpt>
<trkpt lat="46.17219516" lon="6.04230328"><ele></ele><time>2016-6-18T16:24:26Z</time></trkpt>
<trkpt lat="46.17221595" lon="6.04240352"><ele></ele><time>2016-6-18T16:24:29Z</time></trkpt>
<trkpt lat="46.17223665" lon="6.04250276"><ele></ele><time>2016-6-18T16:24:32Z</time></trkpt>
<trkpt lat="46.17225744" lon="6.04260159"><ele></ele><time>2016-6-18T16:24:35Z</time></trkpt>
<trkpt lat="46.17227722" lon="6.04269999"><ele></ele><time>2016-6-18T16:24:38Z</time></trkpt>
<trkpt lat="46.17229558" lon="6.04279722"><ele></ele><time>2016-6-18T16:24:41Z</time></trkpt>
<trkpt lat="46.17231226" lon="6.04289353"><ele></ele><time>2016-6-18T16:24:44Z</time></trkpt>
<trkpt lat="46.17232776" lon="6.04298715"><ele></ele><time>2016-6-18T16:24:47Z</time></trkpt>
<trkpt lat="46.17234277" lon="6.04307692"><ele></ele><time>2016-6-18T16:24:50Z</time></trkpt>
<trkpt lat="46.17235752" lon="6.04316074"><ele></ele><time>2016-6-18T16:24:53Z</time></trkpt>
<trkpt lat="46.17237185" lon="6.04324163"><ele></ele><time>2016-6-18T16:24:56Z</time></trkpt>
<trkpt lat="46.17238442" lon="6.04332587"><ele></ele><time>2016-6-18T16:24:59Z</time></trkpt>
<trkpt lat="46.17239784" lon="6.04341094"><ele></ele><time>2016-6-18T16:25:2Z</time></trkpt>
<trkpt lat="46.17240898" lon="6.04349728"><ele></ele><time>2016-6-18T16:25:5Z</time></trkpt>
<trkpt lat="46.17241669" lon="6.04358613"><ele></ele><time>2016-6-18T16:25:8Z</time></trkpt>
<trkpt lat="46.17242457" lon="6.04367774"><ele></ele><time>2016-6-18T16:25:11Z</time></trkpt>
<trkpt lat="46.17243296" lon="6.04377237"><ele></ele><time>2016-6-18T16:25:14Z</time></trkpt>
<trkpt lat="46.17244050" lon="6.04387186"><ele></ele><time>2016-6-18T16:25:17Z</time></trkpt>
<trkpt lat="46.17244829" lon="6.04397396"><ele></ele><time>2016-6-18T16:25:20Z</time></trkpt>
<trkpt lat="46.17245609" lon="6.04407764"><ele></ele><time>2016-6-18T16:25:23Z</time></trkpt>
<trkpt lat="46.17246523" lon="6.04418200"><ele></ele><time>2016-6-18T16:25:26Z</time></trkpt>
<trkpt lat="46.17247495" lon="6.04428694"><ele></ele><time>2016-6-18T16:25:29Z</time></trkpt>
<trkpt lat="46.17248358" lon="6.04439205"><ele></ele><time>2016-6-18T16:25:32Z</time></trkpt>
<trkpt lat="46.17248895" lon="6.04449959"><ele></ele><time>2016-6-18T16:25:35Z</time></trkpt>
<trkpt lat="46.17249398" lon="6.04460738"><ele></ele><time>2016-6-18T16:25:38Z</time></trkpt>
<trkpt lat="46.17249842" lon="6.04471517"><ele></ele><time>2016-6-18T16:25:41Z</time></trkpt>
<trkpt lat="46.17250336" lon="6.04482288"><ele></ele><time>2016-6-18T16:25:44Z</time></trkpt>
<trkpt lat="46.17250906" lon="6.04493083"><ele></ele><time>2016-6-18T16:25:47Z</time></trkpt>
<trkpt lat="46.17251443" lon="6.04504005"><ele></ele><time>2016-6-18T16:25:50Z</time></trkpt>
<trkpt lat="46.17251895" lon="6.04515136"><ele></ele><time>2016-6-18T16:25:53Z</time></trkpt>
<trkpt lat="46.17252348" lon="6.04526469"><ele></ele><time>2016-6-18T16:25:56Z</time></trkpt>
<trkpt lat="46.17252843" lon="6.04538019"><ele></ele><time>2016-6-18T16:25:59Z</time></trkpt>
<trkpt lat="46.17253438" lon="6.04549670"><ele></ele><time>2016-6-18T16:26:2Z</time></trkpt>
<trkpt lat="46.17254234" lon="6.04561404"><ele></ele><time>2016-6-18T16:26:5Z</time></trkpt>
<trkpt lat="46.17254946" lon="6.04573307"><ele></ele><time>2016-6-18T16:26:8Z</time></trkpt>
<trkpt lat="46.17255483" lon="6.04585326"><ele></ele><time>2016-6-18T16:26:11Z</time></trkpt>
<trkpt lat="46.17256003" lon="6.04597488"><ele></ele><time>2016-6-18T16:26:14Z</time></trkpt>
<trkpt lat="46.17256589" lon="6.04609726"><ele></ele><time>2016-6-18T16:26:17Z</time></trkpt>
<trkpt lat="46.17257218" lon="6.04622047"><ele></ele><time>2016-6-18T16:26:20Z</time></trkpt>
<trkpt lat="46.17257939" lon="6.04634386"><ele></ele><time>2016-6-18T16:26:23Z</time></trkpt>
<trkpt lat="46.17258743" lon="6.04646707"><ele></ele><time>2016-6-18T16:26:26Z</time></trkpt>
<trkpt lat="46.17259548" lon="6.04658995"><ele></ele><time>2016-6-18T16:26:29Z</time></trkpt>
<trkpt lat="46.17260445" lon="6.04671258"><ele></ele><time>2016-6-18T16:26:32Z</time></trkpt>
<trkpt lat="46.17261509" lon="6.04683495"><ele></ele><time>2016-6-18T16:26:35Z</time></trkpt>
<trkpt lat="46.17262700" lon="6.04695674"><ele></ele><time>2016-6-18T16:26:38Z</time></trkpt>
<trkpt lat="46.17264007" lon="6.04707803"><ele></ele><time>2016-6-18T16:26:41Z</time></trkpt>
<trkpt lat="46.17265399" lon="6.04719923"><ele></ele><time>2016-6-18T16:26:44Z</time></trkpt>
<trkpt lat="46.17266874" lon="6.04732035"><ele></ele><time>2016-6-18T16:26:47Z</time></trkpt>
<trkpt lat="46.17268517" lon="6.04744113"><ele></ele><time>2016-6-18T16:26:50Z</time></trkpt>
<trkpt lat="46.17270268" lon="6.04756225"><ele></ele><time>2016-6-18T16:26:53Z</time></trkpt>
<trkpt lat="46.17272096" lon="6.04768354"><ele></ele><time>2016-6-18T16:26:56Z</time></trkpt>
<trkpt lat="46.17273998" lon="6.04780532"><ele></ele><time>2016-6-18T16:26:59Z</time></trkpt>
<trkpt lat="46.17275993" lon="6.04792770"><ele></ele><time>2016-6-18T16:27:2Z</time></trkpt>
<trkpt lat="46.17278198" lon="6.04804999"><ele></ele><time>2016-6-18T16:27:5Z</time></trkpt>
<trkpt lat="46.17280587" lon="6.04817212"><ele></ele><time>2016-6-18T16:27:8Z</time></trkpt>
<trkpt lat="46.17283076" lon="6.04829399"><ele></ele><time>2016-6-18T16:27:11Z</time></trkpt>
<trkpt lat="46.17285607" lon="6.04841544"><ele></ele><time>2016-6-18T16:27:14Z</time></trkpt>
<trkpt lat="46.17288264" lon="6.04853648"><ele></ele><time>2016-6-18T16:27:17Z</time></trkpt>
<trkpt lat="46.17291022" lon="6.04865709"><ele></ele><time>2016-6-18T16:27:20Z</time></trkpt>
<trkpt lat="46.17293797" lon="6.04877754"><ele></ele><time>2016-6-18T16:27:23Z</time></trkpt>
<trkpt lat="46.17296604" lon="6.04889799"><ele></ele><time>2016-6-18T16:27:26Z</time></trkpt>
<trkpt lat="46.17299496" lon="6.04901819"><ele></ele><time>2016-6-18T16:27:29Z</time></trkpt>
<trkpt lat="46.17302396" lon="6.04913847"><ele></ele><time>2016-6-18T16:27:32Z</time></trkpt>
<trkpt lat="46.17305288" lon="6.04925883"><ele></ele><time>2016-6-18T16:27:35Z</time></trkpt>
<trkpt lat="46.17308213" lon="6.04937886"><ele></ele><time>2016-6-18T16:27:38Z</time></trkpt>
<trkpt lat="46.17311155" lon="6.04949889"><ele></ele><time>2016-6-18T16:27:41Z</time></trkpt>
<trkpt lat="46.17314089" lon="6.04961883"><ele></ele><time>2016-6-18T16:27:44Z</time></trkpt>
<trkpt lat="46.17316998" lon="6.04973903"><ele></ele><time>2016-6-18T16:27:47Z</time></trkpt>
<trkpt lat="46.17319990" lon="6.04985872"><ele></ele><time>2016-6-18T16:27:50Z</time></trkpt>
<trkpt lat="46.17322949" lon="6.04997833"><ele></ele><time>2016-6-18T16:27:53Z</time></trkpt>
<trkpt lat="46.17325807" lon="6.05009870"><ele></ele><time>2016-6-18T16:27:56Z</time></trkpt>
<trkpt lat="46.17328607" lon="6.05021965"><ele></ele><time>2016-6-18T16:27:59Z</time></trkpt>
<trkpt lat="46.17331414" lon="6.05034077"><ele></ele><time>2016-6-18T16:28:2Z</time></trkpt>
<trkpt lat="46.17334298" lon="6.05046147"><ele></ele><time>2016-6-18T16:28:5Z</time></trkpt>
<trkpt lat="46.17337215" lon="6.05058124"><ele></ele><time>2016-6-18T16:28:8Z</time></trkpt>
<trkpt lat="46.17340115" lon="6.05070035"><ele></ele><time>2016-6-18T16:28:11Z</time></trkpt>
<trkpt lat="46.17342956" lon="6.05081929"><ele></ele><time>2016-6-18T16:28:14Z</time></trkpt>
<trkpt lat="46.17345706" lon="6.05093806"><ele></ele><time>2016-6-18T16:28:17Z</time></trkpt>
<trkpt lat="46.17348438" lon="6.05105658"><ele></ele><time>2016-6-18T16:28:20Z</time></trkpt>
<trkpt lat="46.17351213" lon="6.05117443"><ele></ele><time>2016-6-18T16:28:23Z</time></trkpt>
<trkpt lat="46.17354029" lon="6.05129136"><ele></ele><time>2016-6-18T16:28:26Z</time></trkpt>
<trkpt lat="46.17356828" lon="6.05140770"><ele></ele><time>2016-6-18T16:28:29Z</time></trkpt>
<trkpt lat="46.17359553" lon="6.05152354"><ele></ele><time>2016-6-18T16:28:32Z</time></trkpt>
<trkpt lat="46.17362210" lon="6.05163854"><ele></ele><time>2016-6-18T16:28:35Z</time></trkpt>
<trkpt lat="46.17364808" lon="6.05175245"><ele></ele><time>2016-6-18T16:28:38Z</time></trkpt>
<trkpt lat="46.17367348" lon="6.05186510"><ele></ele><time>2016-6-18T16:28:41Z</time></trkpt>
<trkpt lat="46.17369812" lon="6.05197616"><ele></ele><time>2016-6-18T16:28:44Z</time></trkpt>
<trkpt lat="46.17372259" lon="6.05208529"><ele></ele><time>2016-6-18T16:28:47Z</time></trkpt>
<trkpt lat="46.17374615" lon="6.05219099"><ele></ele><time>2016-6-18T16:28:50Z</time></trkpt>
<trkpt lat="46.17376962" lon="6.05229383"><ele></ele><time>2016-6-18T16:28:53Z</time></trkpt>
<trkpt lat="46.17379342" lon="6.05239416"><ele></ele><time>2016-6-18T16:28:56Z</time></trkpt>
<trkpt lat="46.17381698" lon="6.05249156"><ele></ele><time>2016-6-18T16:28:59Z</time></trkpt>
<trkpt lat="46.17383868" lon="6.05258686"><ele></ele><time>2016-6-18T16:29:2Z</time></trkpt>
<trkpt lat="46.17385746" lon="6.05268066"><ele></ele><time>2016-6-18T16:29:5Z</time></trkpt>
<trkpt lat="46.17387515" lon="6.05277227"><ele></ele><time>2016-6-18T16:29:8Z</time></trkpt>
<trkpt lat="46.17389216" lon="6.05286187"><ele></ele><time>2016-6-18T16:29:11Z</time></trkpt>
<trkpt lat="46.17390876" lon="6.05295005"><ele></ele><time>2016-6-18T16:29:14Z</time></trkpt>
<trkpt lat="46.17392569" lon="6.05303588"><ele></ele><time>2016-6-18T16:29:17Z</time></trkpt>
<trkpt lat="46.17394178" lon="6.05311878"><ele></ele><time>2016-6-18T16:29:20Z</time></trkpt>
<trkpt lat="46.17395712" lon="6.05319883"><ele></ele><time>2016-6-18T16:29:23Z</time></trkpt>
<trkpt lat="46.17397397" lon="6.05327602"><ele></ele><time>2016-6-18T16:29:26Z</time></trkpt>
<trkpt lat="46.17398906" lon="6.05335305"><ele></ele><time>2016-6-18T16:29:29Z</time></trkpt>
<trkpt lat="46.17400154" lon="6.05342824"><ele></ele><time>2016-6-18T16:29:32Z</time></trkpt>
<trkpt lat="46.17402183" lon="6.05348733"><ele></ele><time>2016-6-18T16:29:35Z</time></trkpt>
<trkpt lat="46.17402845" lon="6.05349622"><ele></ele><time>2016-6-18T16:29:38Z</time></trkpt>
<trkpt lat="46.17407782" lon="6.05347945"><ele></ele><time>2016-6-18T16:29:41Z</time></trkpt>
<trkpt lat="46.17413197" lon="6.05346076"><ele></ele><time>2016-6-18T16:29:44Z</time></trkpt>
<trkpt lat="46.17418494" lon="6.05344333"><ele></ele><time>2016-6-18T16:29:47Z</time></trkpt>
<trkpt lat="46.17424713" lon="6.05344794"><ele></ele><time>2016-6-18T16:29:50Z</time></trkpt>
<trkpt lat="46.17430715" lon="6.05343696"><ele></ele><time>2016-6-18T16:29:53Z</time></trkpt>
<trkpt lat="46.17436758" lon="6.05343084"><ele></ele><time>2016-6-18T16:29:56Z</time></trkpt>
<trkpt lat="46.17443145" lon="6.05341969"><ele></ele><time>2016-6-18T16:29:59Z</time></trkpt>
<trkpt lat="46.17449457" lon="6.05340754"><ele></ele><time>2016-6-18T16:30:2Z</time></trkpt>
<trkpt lat="46.17455785" lon="6.05339547"><ele></ele><time>2016-6-18T16:30:5Z</time></trkpt>
<trkpt lat="46.17462172" lon="6.05338139"><ele></ele><time>2016-6-18T16:30:8Z</time></trkpt>
<trkpt lat="46.17468853" lon="6.05336613"><ele></ele><time>2016-6-18T16:30:11Z</time></trkpt>
<trkpt lat="46.17475298" lon="6.05334962"><ele></ele><time>2016-6-18T16:30:14Z</time></trkpt>
<trkpt lat="46.17481786" lon="6.05333512"><ele></ele><time>2016-6-18T16:30:17Z</time></trkpt>
<trkpt lat="46.17488609" lon="6.05332053"><ele></ele><time>2016-6-18T16:30:20Z</time></trkpt>
<trkpt lat="46.17495323" lon="6.05330327"><ele></ele><time>2016-6-18T16:30:23Z</time></trkpt>
<trkpt lat="46.17502037" lon="6.05328583"><ele></ele><time>2016-6-18T16:30:26Z</time></trkpt>
<trkpt lat="46.17508600" lon="6.05326789"><ele></ele><time>2016-6-18T16:30:29Z</time></trkpt>
<trkpt lat="46.17515355" lon="6.05324769"><ele></ele><time>2016-6-18T16:30:32Z</time></trkpt>
<trkpt lat="46.17521935" lon="6.05322557"><ele></ele><time>2016-6-18T16:30:35Z</time></trkpt>
<trkpt lat="46.17528565" lon="6.05320402"><ele></ele><time>2016-6-18T16:30:38Z</time></trkpt>
<trkpt lat="46.17535103" lon="6.05318282"><ele></ele><time>2016-6-18T16:30:41Z</time></trkpt>
<trkpt lat="46.17541700" lon="6.05316312"><ele></ele><time>2016-6-18T16:30:44Z</time></trkpt>
<trkpt lat="46.17548556" lon="6.05314426"><ele></ele><time>2016-6-18T16:30:47Z</time></trkpt>
<trkpt lat="46.17555463" lon="6.05312473"><ele></ele><time>2016-6-18T16:30:50Z</time></trkpt>
<trkpt lat="46.17562294" lon="6.05310428"><ele></ele><time>2016-6-18T16:30:53Z</time></trkpt>
<trkpt lat="46.17569058" lon="6.05308383"><ele></ele><time>2016-6-18T16:30:56Z</time></trkpt>
<trkpt lat="46.17575948" lon="6.05306363"><ele></ele><time>2016-6-18T16:30:59Z</time></trkpt>
<trkpt lat="46.17582955" lon="6.05304468"><ele></ele><time>2016-6-18T16:31:2Z</time></trkpt>
<trkpt lat="46.17590030" lon="6.05302926"><ele></ele><time>2016-6-18T16:31:5Z</time></trkpt>
<trkpt lat="46.17597154" lon="6.05301728"><ele></ele><time>2016-6-18T16:31:8Z</time></trkpt>
<trkpt lat="46.17604287" lon="6.05300814"><ele></ele><time>2016-6-18T16:31:11Z</time></trkpt>
<trkpt lat="46.17611337" lon="6.05300537"><ele></ele><time>2016-6-18T16:31:14Z</time></trkpt>
<trkpt lat="46.17618386" lon="6.05300764"><ele></ele><time>2016-6-18T16:31:17Z</time></trkpt>
<trkpt lat="46.17625326" lon="6.05301359"><ele></ele><time>2016-6-18T16:31:20Z</time></trkpt>
<trkpt lat="46.17632132" lon="6.05302105"><ele></ele><time>2016-6-18T16:31:23Z</time></trkpt>
<trkpt lat="46.17638762" lon="6.05302742"><ele></ele><time>2016-6-18T16:31:26Z</time></trkpt>
<trkpt lat="46.17645417" lon="6.05303245"><ele></ele><time>2016-6-18T16:31:29Z</time></trkpt>
<trkpt lat="46.17652140" lon="6.05303505"><ele></ele><time>2016-6-18T16:31:32Z</time></trkpt>
<trkpt lat="46.17659004" lon="6.05303538"><ele></ele><time>2016-6-18T16:31:35Z</time></trkpt>
<trkpt lat="46.17666087" lon="6.05303756"><ele></ele><time>2016-6-18T16:31:38Z</time></trkpt>
<trkpt lat="46.17673262" lon="6.05303999"><ele></ele><time>2016-6-18T16:31:41Z</time></trkpt>
<trkpt lat="46.17680579" lon="6.05304468"><ele></ele><time>2016-6-18T16:31:44Z</time></trkpt>
<trkpt lat="46.17688023" lon="6.05305173"><ele></ele><time>2016-6-18T16:31:47Z</time></trkpt>
<trkpt lat="46.17695499" lon="6.05305784"><ele></ele><time>2016-6-18T16:31:50Z</time></trkpt>
<trkpt lat="46.17703118" lon="6.05306463"><ele></ele><time>2016-6-18T16:31:53Z</time></trkpt>
<trkpt lat="46.17710855" lon="6.05307243"><ele></ele><time>2016-6-18T16:31:56Z</time></trkpt>
<trkpt lat="46.17718725" lon="6.05308827"><ele></ele><time>2016-6-18T16:31:59Z</time></trkpt>
<trkpt lat="46.17726504" lon="6.05310855"><ele></ele><time>2016-6-18T16:32:2Z</time></trkpt>
<trkpt lat="46.17733989" lon="6.05312934"><ele></ele><time>2016-6-18T16:32:5Z</time></trkpt>
<trkpt lat="46.17741357" lon="6.05315608"><ele></ele><time>2016-6-18T16:32:8Z</time></trkpt>
<trkpt lat="46.17748389" lon="6.05318835"><ele></ele><time>2016-6-18T16:32:11Z</time></trkpt>
<trkpt lat="46.17755245" lon="6.05322573"><ele></ele><time>2016-6-18T16:32:14Z</time></trkpt>
<trkpt lat="46.17762127" lon="6.05326815"><ele></ele><time>2016-6-18T16:32:17Z</time></trkpt>
<trkpt lat="46.17768799" lon="6.05331458"><ele></ele><time>2016-6-18T16:32:20Z</time></trkpt>
<trkpt lat="46.17775027" lon="6.05336454"><ele></ele><time>2016-6-18T16:32:23Z</time></trkpt>
<trkpt lat="46.17780827" lon="6.05341692"><ele></ele><time>2016-6-18T16:32:26Z</time></trkpt>
<trkpt lat="46.17786233" lon="6.05346923"><ele></ele><time>2016-6-18T16:32:29Z</time></trkpt>
<trkpt lat="46.17791120" lon="6.05352145"><ele></ele><time>2016-6-18T16:32:32Z</time></trkpt>
<trkpt lat="46.17795554" lon="6.05357484"><ele></ele><time>2016-6-18T16:32:35Z</time></trkpt>
<trkpt lat="46.17799703" lon="6.05362882"><ele></ele><time>2016-6-18T16:32:38Z</time></trkpt>
<trkpt lat="46.17803383" lon="6.05367710"><ele></ele><time>2016-6-18T16:32:41Z</time></trkpt>
<trkpt lat="46.17807104" lon="6.05372999"><ele></ele><time>2016-6-18T16:32:44Z</time></trkpt>
<trkpt lat="46.17810407" lon="6.05377818"><ele></ele><time>2016-6-18T16:32:47Z</time></trkpt>
<trkpt lat="46.17813550" lon="6.05383325"><ele></ele><time>2016-6-18T16:32:50Z</time></trkpt>
<trkpt lat="46.17816643" lon="6.05389277"><ele></ele><time>2016-6-18T16:32:53Z</time></trkpt>
<trkpt lat="46.17819669" lon="6.05395404"><ele></ele><time>2016-6-18T16:32:56Z</time></trkpt>
<trkpt lat="46.17822678" lon="6.05401875"><ele></ele><time>2016-6-18T16:32:59Z</time></trkpt>
<trkpt lat="46.17825586" lon="6.05408404"><ele></ele><time>2016-6-18T16:33:2Z</time></trkpt>
<trkpt lat="46.17828512" lon="6.05415076"><ele></ele><time>2016-6-18T16:33:5Z</time></trkpt>
<trkpt lat="46.17831579" lon="6.05421748"><ele></ele><time>2016-6-18T16:33:8Z</time></trkpt>
<trkpt lat="46.17834790" lon="6.05428336"><ele></ele><time>2016-6-18T16:33:11Z</time></trkpt>
<trkpt lat="46.17838109" lon="6.05434924"><ele></ele><time>2016-6-18T16:33:14Z</time></trkpt>
<trkpt lat="46.17841529" lon="6.05441538"><ele></ele><time>2016-6-18T16:33:17Z</time></trkpt>
<trkpt lat="46.17844923" lon="6.05448419"><ele></ele><time>2016-6-18T16:33:20Z</time></trkpt>
<trkpt lat="46.17848293" lon="6.05455594"><ele></ele><time>2016-6-18T16:33:23Z</time></trkpt>
<trkpt lat="46.17851780" lon="6.05462928"><ele></ele><time>2016-6-18T16:33:26Z</time></trkpt>
<trkpt lat="46.17855426" lon="6.05470195"><ele></ele><time>2016-6-18T16:33:29Z</time></trkpt>
<trkpt lat="46.17859047" lon="6.05477530"><ele></ele><time>2016-6-18T16:33:32Z</time></trkpt>
<trkpt lat="46.17862316" lon="6.05485350"><ele></ele><time>2016-6-18T16:33:35Z</time></trkpt>
<trkpt lat="46.17864923" lon="6.05493966"><ele></ele><time>2016-6-18T16:33:38Z</time></trkpt>
<trkpt lat="46.17867085" lon="6.05503413"><ele></ele><time>2016-6-18T16:33:41Z</time></trkpt>
<trkpt lat="46.17868778" lon="6.05513144"><ele></ele><time>2016-6-18T16:33:44Z</time></trkpt>
<trkpt lat="46.17870128" lon="6.05523052"><ele></ele><time>2016-6-18T16:33:47Z</time></trkpt>
<trkpt lat="46.17871603" lon="6.05532967"><ele></ele><time>2016-6-18T16:33:50Z</time></trkpt>
<trkpt lat="46.17873439" lon="6.05542975"><ele></ele><time>2016-6-18T16:33:53Z</time></trkpt>
<trkpt lat="46.17875434" lon="6.05553134"><ele></ele><time>2016-6-18T16:33:56Z</time></trkpt>
<trkpt lat="46.17877202" lon="6.05563193"><ele></ele><time>2016-6-18T16:33:59Z</time></trkpt>
<trkpt lat="46.17878778" lon="6.05573419"><ele></ele><time>2016-6-18T16:34:2Z</time></trkpt>
<trkpt lat="46.17880438" lon="6.05583653"><ele></ele><time>2016-6-18T16:34:5Z</time></trkpt>
<trkpt lat="46.17882147" lon="6.05593937"><ele></ele><time>2016-6-18T16:34:8Z</time></trkpt>
<trkpt lat="46.17883866" lon="6.05604390"><ele></ele><time>2016-6-18T16:34:11Z</time></trkpt>
<trkpt lat="46.17885618" lon="6.05614867"><ele></ele><time>2016-6-18T16:34:14Z</time></trkpt>
<trkpt lat="46.17887244" lon="6.05625235"><ele></ele><time>2016-6-18T16:34:17Z</time></trkpt>
<trkpt lat="46.17888954" lon="6.05635545"><ele></ele><time>2016-6-18T16:34:20Z</time></trkpt>
<trkpt lat="46.17890404" lon="6.05645679"><ele></ele><time>2016-6-18T16:34:23Z</time></trkpt>
<trkpt lat="46.17891242" lon="6.05655712"><ele></ele><time>2016-6-18T16:34:26Z</time></trkpt>
<trkpt lat="46.17891342" lon="6.05665779"><ele></ele><time>2016-6-18T16:34:29Z</time></trkpt>
<trkpt lat="46.17891133" lon="6.05675887"><ele></ele><time>2016-6-18T16:34:32Z</time></trkpt>
<trkpt lat="46.17890965" lon="6.05685996"><ele></ele><time>2016-6-18T16:34:35Z</time></trkpt>
<trkpt lat="46.17890856" lon="6.05695996"><ele></ele><time>2016-6-18T16:34:38Z</time></trkpt>
<trkpt lat="46.17890647" lon="6.05705995"><ele></ele><time>2016-6-18T16:34:41Z</time></trkpt>
<trkpt lat="46.17890345" lon="6.05716087"><ele></ele><time>2016-6-18T16:34:44Z</time></trkpt>
<trkpt lat="46.17889959" lon="6.05726263"><ele></ele><time>2016-6-18T16:34:47Z</time></trkpt>
<trkpt lat="46.17889574" lon="6.05736472"><ele></ele><time>2016-6-18T16:34:50Z</time></trkpt>
<trkpt lat="46.17889415" lon="6.05746664"><ele></ele><time>2016-6-18T16:34:53Z</time></trkpt>
<trkpt lat="46.17889339" lon="6.05756764"><ele></ele><time>2016-6-18T16:34:56Z</time></trkpt>
<trkpt lat="46.17889096" lon="6.05766722"><ele></ele><time>2016-6-18T16:34:59Z</time></trkpt>
<trkpt lat="46.17888794" lon="6.05776504"><ele></ele><time>2016-6-18T16:35:2Z</time></trkpt>
<trkpt lat="46.17888467" lon="6.05786126"><ele></ele><time>2016-6-18T16:35:5Z</time></trkpt>
<trkpt lat="46.17888082" lon="6.05795564"><ele></ele><time>2016-6-18T16:35:8Z</time></trkpt>
<trkpt lat="46.17887696" lon="6.05804843"><ele></ele><time>2016-6-18T16:35:11Z</time></trkpt>
<trkpt lat="46.17887369" lon="6.05814038"><ele></ele><time>2016-6-18T16:35:14Z</time></trkpt>
<trkpt lat="46.17887042" lon="6.05823250"><ele></ele><time>2016-6-18T16:35:17Z</time></trkpt>
<trkpt lat="46.17886632" lon="6.05832277"><ele></ele><time>2016-6-18T16:35:20Z</time></trkpt>
<trkpt lat="46.17886229" lon="6.05841103"><ele></ele><time>2016-6-18T16:35:23Z</time></trkpt>
<trkpt lat="46.17885978" lon="6.05849803"><ele></ele><time>2016-6-18T16:35:26Z</time></trkpt>
<trkpt lat="46.17885752" lon="6.05858454"><ele></ele><time>2016-6-18T16:35:29Z</time></trkpt>
<trkpt lat="46.17885509" lon="6.05866752"><ele></ele><time>2016-6-18T16:35:32Z</time></trkpt>
<trkpt lat="46.17885333" lon="6.05874714"><ele></ele><time>2016-6-18T16:35:35Z</time></trkpt>
<trkpt lat="46.17885257" lon="6.05882283"><ele></ele><time>2016-6-18T16:35:38Z</time></trkpt>
<trkpt lat="46.17885089" lon="6.05889785"><ele></ele><time>2016-6-18T16:35:41Z</time></trkpt>
<trkpt lat="46.17884989" lon="6.05897438"><ele></ele><time>2016-6-18T16:35:44Z</time></trkpt>
<trkpt lat="46.17884888" lon="6.05905208"><ele></ele><time>2016-6-18T16:35:47Z</time></trkpt>
<trkpt lat="46.17884612" lon="6.05912953"><ele></ele><time>2016-6-18T16:35:50Z</time></trkpt>
<trkpt lat="46.17884235" lon="6.05920538"><ele></ele><time>2016-6-18T16:35:53Z</time></trkpt>
<trkpt lat="46.17883958" lon="6.05927889"><ele></ele><time>2016-6-18T16:35:56Z</time></trkpt>
<trkpt lat="46.17883866" lon="6.05934922"><ele></ele><time>2016-6-18T16:35:59Z</time></trkpt>
<trkpt lat="46.17883832" lon="6.05941736"><ele></ele><time>2016-6-18T16:36:2Z</time></trkpt>
<trkpt lat="46.17883665" lon="6.05948316"><ele></ele><time>2016-6-18T16:36:5Z</time></trkpt>
<trkpt lat="46.17883413" lon="6.05954644"><ele></ele><time>2016-6-18T16:36:8Z</time></trkpt>
<trkpt lat="46.17883254" lon="6.05960788"><ele></ele><time>2016-6-18T16:36:11Z</time></trkpt>
<trkpt lat="46.17883237" lon="6.05966739"><ele></ele><time>2016-6-18T16:36:14Z</time></trkpt>
<trkpt lat="46.17883757" lon="6.05972204"><ele></ele><time>2016-6-18T16:36:17Z</time></trkpt>
<trkpt lat="46.17884972" lon="6.05977099"><ele></ele><time>2016-6-18T16:36:20Z</time></trkpt>
<trkpt lat="46.17887135" lon="6.05981148"><ele></ele><time>2016-6-18T16:36:23Z</time></trkpt>
<trkpt lat="46.17890085" lon="6.05984174"><ele></ele><time>2016-6-18T16:36:26Z</time></trkpt>
<trkpt lat="46.17893664" lon="6.05986864"><ele></ele><time>2016-6-18T16:36:29Z</time></trkpt>
<trkpt lat="46.17897687" lon="6.05989882"><ele></ele><time>2016-6-18T16:36:32Z</time></trkpt>
<trkpt lat="46.17901853" lon="6.05993478"><ele></ele><time>2016-6-18T16:36:35Z</time></trkpt>
<trkpt lat="46.17906388" lon="6.05997224"><ele></ele><time>2016-6-18T16:36:38Z</time></trkpt>
<trkpt lat="46.17911266" lon="6.06000979"><ele></ele><time>2016-6-18T16:36:41Z</time></trkpt>
<trkpt lat="46.17916480" lon="6.06004877"><ele></ele><time>2016-6-18T16:36:44Z</time></trkpt>
<trkpt lat="46.17921953" lon="6.06009068"><ele></ele><time>2016-6-18T16:36:47Z</time></trkpt>
<trkpt lat="46.17927653" lon="6.06013569"><ele></ele><time>2016-6-18T16:36:50Z</time></trkpt>
<trkpt lat="46.17933503" lon="6.06018213"><ele></ele><time>2016-6-18T16:36:53Z</time></trkpt>
<trkpt lat="46.17939354" lon="6.06022982"><ele></ele><time>2016-6-18T16:36:56Z</time></trkpt>
<trkpt lat="46.17945255" lon="6.06027684"><ele></ele><time>2016-6-18T16:36:59Z</time></trkpt>
<trkpt lat="46.17951214" lon="6.06032168"><ele></ele><time>2016-6-18T16:37:2Z</time></trkpt>
<trkpt lat="46.17957132" lon="6.06036644"><ele></ele><time>2016-6-18T16:37:5Z</time></trkpt>
<trkpt lat="46.17963024" lon="6.06041087"><ele></ele><time>2016-6-18T16:37:8Z</time></trkpt>
<trkpt lat="46.17968825" lon="6.06045412"><ele></ele><time>2016-6-18T16:37:11Z</time></trkpt>
<trkpt lat="46.17974482" lon="6.06049687"><ele></ele><time>2016-6-18T16:37:14Z</time></trkpt>
<trkpt lat="46.17979964" lon="6.06054012"><ele></ele><time>2016-6-18T16:37:17Z</time></trkpt>
<trkpt lat="46.17985354" lon="6.06058295"><ele></ele><time>2016-6-18T16:37:20Z</time></trkpt>
<trkpt lat="46.17990710" lon="6.06062377"><ele></ele><time>2016-6-18T16:37:23Z</time></trkpt>
<trkpt lat="46.17996049" lon="6.06066233"><ele></ele><time>2016-6-18T16:37:26Z</time></trkpt>
<trkpt lat="46.18000793" lon="6.06069954"><ele></ele><time>2016-6-18T16:37:29Z</time></trkpt>
<trkpt lat="46.18004490" lon="6.06073399"><ele></ele><time>2016-6-18T16:37:32Z</time></trkpt>
<trkpt lat="46.18007943" lon="6.06076417"><ele></ele><time>2016-6-18T16:37:35Z</time></trkpt>
<trkpt lat="46.18011463" lon="6.06079174"><ele></ele><time>2016-6-18T16:37:38Z</time></trkpt>
<trkpt lat="46.18015160" lon="6.06082175"><ele></ele><time>2016-6-18T16:37:41Z</time></trkpt>
<trkpt lat="46.18019317" lon="6.06085293"><ele></ele><time>2016-6-18T16:37:44Z</time></trkpt>
<trkpt lat="46.18023936" lon="6.06088738"><ele></ele><time>2016-6-18T16:37:47Z</time></trkpt>
<trkpt lat="46.18028889" lon="6.06092250"><ele></ele><time>2016-6-18T16:37:50Z</time></trkpt>
<trkpt lat="46.18034053" lon="6.06095997"><ele></ele><time>2016-6-18T16:37:53Z</time></trkpt>
<trkpt lat="46.18039509" lon="6.06099769"><ele></ele><time>2016-6-18T16:37:56Z</time></trkpt>
<trkpt lat="46.18045276" lon="6.06103733"><ele></ele><time>2016-6-18T16:37:59Z</time></trkpt>
<trkpt lat="46.18051202" lon="6.06108159"><ele></ele><time>2016-6-18T16:38:2Z</time></trkpt>
<trkpt lat="46.18057237" lon="6.06112786"><ele></ele><time>2016-6-18T16:38:5Z</time></trkpt>
<trkpt lat="46.18063498" lon="6.06117605"><ele></ele><time>2016-6-18T16:38:8Z</time></trkpt>
<trkpt lat="46.18070078" lon="6.06122668"><ele></ele><time>2016-6-18T16:38:11Z</time></trkpt>
<trkpt lat="46.18076918" lon="6.06127789"><ele></ele><time>2016-6-18T16:38:14Z</time></trkpt>
<trkpt lat="46.18083967" lon="6.06132969"><ele></ele><time>2016-6-18T16:38:17Z</time></trkpt>
<trkpt lat="46.18091117" lon="6.06138292"><ele></ele><time>2016-6-18T16:38:20Z</time></trkpt>
<trkpt lat="46.18098493" lon="6.06143983"><ele></ele><time>2016-6-18T16:38:23Z</time></trkpt>
<trkpt lat="46.18106045" lon="6.06149809"><ele></ele><time>2016-6-18T16:38:26Z</time></trkpt>
<trkpt lat="46.18113622" lon="6.06155324"><ele></ele><time>2016-6-18T16:38:29Z</time></trkpt>
<trkpt lat="46.18121283" lon="6.06161107"><ele></ele><time>2016-6-18T16:38:32Z</time></trkpt>
<trkpt lat="46.18128936" lon="6.06167008"><ele></ele><time>2016-6-18T16:38:35Z</time></trkpt>
<trkpt lat="46.18136555" lon="6.06172834"><ele></ele><time>2016-6-18T16:38:38Z</time></trkpt>
<trkpt lat="46.18144149" lon="6.06178625"><ele></ele><time>2016-6-18T16:38:41Z</time></trkpt>
<trkpt lat="46.18151626" lon="6.06184233"><ele></ele><time>2016-6-18T16:38:44Z</time></trkpt>
<trkpt lat="46.18159052" lon="6.06189799"><ele></ele><time>2016-6-18T16:38:47Z</time></trkpt>
<trkpt lat="46.18166378" lon="6.06195322"><ele></ele><time>2016-6-18T16:38:50Z</time></trkpt>
<trkpt lat="46.18173569" lon="6.06200955"><ele></ele><time>2016-6-18T16:38:53Z</time></trkpt>
<trkpt lat="46.18180669" lon="6.06206403"><ele></ele><time>2016-6-18T16:38:56Z</time></trkpt>
<trkpt lat="46.18187618" lon="6.06211717"><ele></ele><time>2016-6-18T16:38:59Z</time></trkpt>
<trkpt lat="46.18194482" lon="6.06216847"><ele></ele><time>2016-6-18T16:39:2Z</time></trkpt>
<trkpt lat="46.18201288" lon="6.06221449"><ele></ele><time>2016-6-18T16:39:5Z</time></trkpt>
<trkpt lat="46.18208136" lon="6.06226285"><ele></ele><time>2016-6-18T16:39:8Z</time></trkpt>
<trkpt lat="46.18215186" lon="6.06231750"><ele></ele><time>2016-6-18T16:39:11Z</time></trkpt>
<trkpt lat="46.18222377" lon="6.06237282"><ele></ele><time>2016-6-18T16:39:14Z</time></trkpt>
<trkpt lat="46.18229762" lon="6.06242412"><ele></ele><time>2016-6-18T16:39:17Z</time></trkpt>
<trkpt lat="46.18237339" lon="6.06247642"><ele></ele><time>2016-6-18T16:39:20Z</time></trkpt>
<trkpt lat="46.18244397" lon="6.06252973"><ele></ele><time>2016-6-18T16:39:23Z</time></trkpt>
<trkpt lat="46.18250658" lon="6.06257667"><ele></ele><time>2016-6-18T16:39:26Z</time></trkpt>
<trkpt lat="46.18255662" lon="6.06261439"><ele></ele><time>2016-6-18T16:39:29Z</time></trkpt>
<trkpt lat="46.18259367" lon="6.06266535"><ele></ele><time>2016-6-18T16:39:32Z</time></trkpt>
<trkpt lat="46.18261999" lon="6.06273257"><ele></ele><time>2016-6-18T16:39:35Z</time></trkpt>
<trkpt lat="46.18265033" lon="6.06280197"><ele></ele><time>2016-6-18T16:39:38Z</time></trkpt>
<trkpt lat="46.18269299" lon="6.06285822"><ele></ele><time>2016-6-18T16:39:41Z</time></trkpt>
<trkpt lat="46.18274873" lon="6.06289778"><ele></ele><time>2016-6-18T16:39:44Z</time></trkpt>
<trkpt lat="46.18280925" lon="6.06292309"><ele></ele><time>2016-6-18T16:39:47Z</time></trkpt>
<trkpt lat="46.18287044" lon="6.06294128"><ele></ele><time>2016-6-18T16:39:50Z</time></trkpt>
<trkpt lat="46.18293263" lon="6.06296316"><ele></ele><time>2016-6-18T16:39:53Z</time></trkpt>
<trkpt lat="46.18299424" lon="6.06299719"><ele></ele><time>2016-6-18T16:39:56Z</time></trkpt>
<trkpt lat="46.18305626" lon="6.06304362"><ele></ele><time>2016-6-18T16:39:59Z</time></trkpt>
<trkpt lat="46.18311846" lon="6.06309542"><ele></ele><time>2016-6-18T16:40:2Z</time></trkpt>
<trkpt lat="46.18318266" lon="6.06314505"><ele></ele><time>2016-6-18T16:40:5Z</time></trkpt>
<trkpt lat="46.18324754" lon="6.06319567"><ele></ele><time>2016-6-18T16:40:8Z</time></trkpt>
<trkpt lat="46.18331334" lon="6.06324689"><ele></ele><time>2016-6-18T16:40:11Z</time></trkpt>
<trkpt lat="46.18338039" lon="6.06329827"><ele></ele><time>2016-6-18T16:40:14Z</time></trkpt>
<trkpt lat="46.18344896" lon="6.06335049"><ele></ele><time>2016-6-18T16:40:17Z</time></trkpt>
<trkpt lat="46.18351928" lon="6.06340329"><ele></ele><time>2016-6-18T16:40:20Z</time></trkpt>
<trkpt lat="46.18359086" lon="6.06345643"><ele></ele><time>2016-6-18T16:40:23Z</time></trkpt>
<trkpt lat="46.18366395" lon="6.06351024"><ele></ele><time>2016-6-18T16:40:26Z</time></trkpt>
<trkpt lat="46.18373796" lon="6.06356548"><ele></ele><time>2016-6-18T16:40:29Z</time></trkpt>
<trkpt lat="46.18381223" lon="6.06362256"><ele></ele><time>2016-6-18T16:40:32Z</time></trkpt>
<trkpt lat="46.18388699" lon="6.06368056"><ele></ele><time>2016-6-18T16:40:35Z</time></trkpt>
<trkpt lat="46.18396268" lon="6.06373874"><ele></ele><time>2016-6-18T16:40:38Z</time></trkpt>
<trkpt lat="46.18403686" lon="6.06379573"><ele></ele><time>2016-6-18T16:40:41Z</time></trkpt>
<trkpt lat="46.18410995" lon="6.06385776"><ele></ele><time>2016-6-18T16:40:44Z</time></trkpt>
<trkpt lat="46.18418162" lon="6.06392515"><ele></ele><time>2016-6-18T16:40:47Z</time></trkpt>
<trkpt lat="46.18425119" lon="6.06399698"><ele></ele><time>2016-6-18T16:40:50Z</time></trkpt>
<trkpt lat="46.18431866" lon="6.06407267"><ele></ele><time>2016-6-18T16:40:53Z</time></trkpt>
<trkpt lat="46.18438337" lon="6.06415272"><ele></ele><time>2016-6-18T16:40:56Z</time></trkpt>
<trkpt lat="46.18444523" lon="6.06423687"><ele></ele><time>2016-6-18T16:40:59Z</time></trkpt>
<trkpt lat="46.18450482" lon="6.06432362"><ele></ele><time>2016-6-18T16:41:2Z</time></trkpt>
<trkpt lat="46.18456157" lon="6.06441314"><ele></ele><time>2016-6-18T16:41:5Z</time></trkpt>
<trkpt lat="46.18461530" lon="6.06450526"><ele></ele><time>2016-6-18T16:41:8Z</time></trkpt>
<trkpt lat="46.18466618" lon="6.06460040"><ele></ele><time>2016-6-18T16:41:11Z</time></trkpt>
<trkpt lat="46.18471613" lon="6.06469570"><ele></ele><time>2016-6-18T16:41:14Z</time></trkpt>
<trkpt lat="46.18476718" lon="6.06478957"><ele></ele><time>2016-6-18T16:41:17Z</time></trkpt>
<trkpt lat="46.18481814" lon="6.06488278"><ele></ele><time>2016-6-18T16:41:20Z</time></trkpt>
<trkpt lat="46.18486826" lon="6.06497599"><ele></ele><time>2016-6-18T16:41:23Z</time></trkpt>
<trkpt lat="46.18491805" lon="6.06506945"><ele></ele><time>2016-6-18T16:41:26Z</time></trkpt>
<trkpt lat="46.18496776" lon="6.06516207"><ele></ele><time>2016-6-18T16:41:29Z</time></trkpt>
<trkpt lat="46.18501713" lon="6.06525309"><ele></ele><time>2016-6-18T16:41:32Z</time></trkpt>
<trkpt lat="46.18506582" lon="6.06534253"><ele></ele><time>2016-6-18T16:41:35Z</time></trkpt>
<trkpt lat="46.18511427" lon="6.06543104"><ele></ele><time>2016-6-18T16:41:38Z</time></trkpt>
<trkpt lat="46.18516238" lon="6.06551905"><ele></ele><time>2016-6-18T16:41:41Z</time></trkpt>
<trkpt lat="46.18520999" lon="6.06560656"><ele></ele><time>2016-6-18T16:41:44Z</time></trkpt>
<trkpt lat="46.18525752" lon="6.06569365"><ele></ele><time>2016-6-18T16:41:47Z</time></trkpt>
<trkpt lat="46.18530513" lon="6.06578006"><ele></ele><time>2016-6-18T16:41:50Z</time></trkpt>
<trkpt lat="46.18535299" lon="6.06586573"><ele></ele><time>2016-6-18T16:41:53Z</time></trkpt>
<trkpt lat="46.18540077" lon="6.06595223"><ele></ele><time>2016-6-18T16:41:56Z</time></trkpt>
<trkpt lat="46.18544762" lon="6.06604083"><ele></ele><time>2016-6-18T16:41:59Z</time></trkpt>
<trkpt lat="46.18549506" lon="6.06612909"><ele></ele><time>2016-6-18T16:42:2Z</time></trkpt>
<trkpt lat="46.18554418" lon="6.06621617"><ele></ele><time>2016-6-18T16:42:5Z</time></trkpt>
<trkpt lat="46.18559330" lon="6.06630226"><ele></ele><time>2016-6-18T16:42:8Z</time></trkpt>
<trkpt lat="46.18564392" lon="6.06638767"><ele></ele><time>2016-6-18T16:42:11Z</time></trkpt>
<trkpt lat="46.18569648" lon="6.06647233"><ele></ele><time>2016-6-18T16:42:14Z</time></trkpt>
<trkpt lat="46.18574895" lon="6.06655782"><ele></ele><time>2016-6-18T16:42:17Z</time></trkpt>
<trkpt lat="46.18580117" lon="6.06664365"><ele></ele><time>2016-6-18T16:42:20Z</time></trkpt>
<trkpt lat="46.18585146" lon="6.06673099"><ele></ele><time>2016-6-18T16:42:23Z</time></trkpt>
<trkpt lat="46.18589714" lon="6.06682227"><ele></ele><time>2016-6-18T16:42:26Z</time></trkpt>
<trkpt lat="46.18593939" lon="6.06691648"><ele></ele><time>2016-6-18T16:42:29Z</time></trkpt>
<trkpt lat="46.18598146" lon="6.06701086"><ele></ele><time>2016-6-18T16:42:32Z</time></trkpt>
<trkpt lat="46.18602656" lon="6.06710290"><ele></ele><time>2016-6-18T16:42:35Z</time></trkpt>
<trkpt lat="46.18607492" lon="6.06719258"><ele></ele><time>2016-6-18T16:42:38Z</time></trkpt>
<trkpt lat="46.18612588" lon="6.06728353"><ele></ele><time>2016-6-18T16:42:41Z</time></trkpt>
<trkpt lat="46.18617819" lon="6.06737682"><ele></ele><time>2016-6-18T16:42:44Z</time></trkpt>
<trkpt lat="46.18622982" lon="6.06747229"><ele></ele><time>2016-6-18T16:42:47Z</time></trkpt>
<trkpt lat="46.18628036" lon="6.06757153"><ele></ele><time>2016-6-18T16:42:50Z</time></trkpt>
<trkpt lat="46.18633283" lon="6.06767337"><ele></ele><time>2016-6-18T16:42:53Z</time></trkpt>
<trkpt lat="46.18638866" lon="6.06777714"><ele></ele><time>2016-6-18T16:42:56Z</time></trkpt>
<trkpt lat="46.18644733" lon="6.06788233"><ele></ele><time>2016-6-18T16:42:59Z</time></trkpt>
<trkpt lat="46.18650634" lon="6.06798844"><ele></ele><time>2016-6-18T16:43:2Z</time></trkpt>
<trkpt lat="46.18656510" lon="6.06809473"><ele></ele><time>2016-6-18T16:43:5Z</time></trkpt>
<trkpt lat="46.18662343" lon="6.06820218"><ele></ele><time>2016-6-18T16:43:8Z</time></trkpt>
<trkpt lat="46.18668186" lon="6.06831257"><ele></ele><time>2016-6-18T16:43:11Z</time></trkpt>
<trkpt lat="46.18673969" lon="6.06842078"><ele></ele><time>2016-6-18T16:43:14Z</time></trkpt>
<trkpt lat="46.18679853" lon="6.06852916"><ele></ele><time>2016-6-18T16:43:17Z</time></trkpt>
<trkpt lat="46.18685737" lon="6.06863678"><ele></ele><time>2016-6-18T16:43:20Z</time></trkpt>
<trkpt lat="46.18691529" lon="6.06874256"><ele></ele><time>2016-6-18T16:43:23Z</time></trkpt>
<trkpt lat="46.18697195" lon="6.06884658"><ele></ele><time>2016-6-18T16:43:26Z</time></trkpt>
<trkpt lat="46.18702669" lon="6.06894733"><ele></ele><time>2016-6-18T16:43:29Z</time></trkpt>
<trkpt lat="46.18708243" lon="6.06905177"><ele></ele><time>2016-6-18T16:43:32Z</time></trkpt>
<trkpt lat="46.18714018" lon="6.06916023"><ele></ele><time>2016-6-18T16:43:35Z</time></trkpt>
<trkpt lat="46.18719994" lon="6.06927004"><ele></ele><time>2016-6-18T16:43:38Z</time></trkpt>
<trkpt lat="46.18726012" lon="6.06937766"><ele></ele><time>2016-6-18T16:43:41Z</time></trkpt>
<trkpt lat="46.18731972" lon="6.06948344"><ele></ele><time>2016-6-18T16:43:44Z</time></trkpt>
<trkpt lat="46.18737864" lon="6.06958704"><ele></ele><time>2016-6-18T16:43:47Z</time></trkpt>
<trkpt lat="46.18743254" lon="6.06968494"><ele></ele><time>2016-6-18T16:43:50Z</time></trkpt>
<trkpt lat="46.18748358" lon="6.06978016"><ele></ele><time>2016-6-18T16:43:53Z</time></trkpt>
<trkpt lat="46.18753614" lon="6.06987504"><ele></ele><time>2016-6-18T16:43:56Z</time></trkpt>
<trkpt lat="46.18758853" lon="6.06996682"><ele></ele><time>2016-6-18T16:43:59Z</time></trkpt>
<trkpt lat="46.18763966" lon="6.07005743"><ele></ele><time>2016-6-18T16:44:2Z</time></trkpt>
<trkpt lat="46.18768835" lon="6.07014737"><ele></ele><time>2016-6-18T16:44:5Z</time></trkpt>
<trkpt lat="46.18773605" lon="6.07023530"><ele></ele><time>2016-6-18T16:44:8Z</time></trkpt>
<trkpt lat="46.18778449" lon="6.07032213"><ele></ele><time>2016-6-18T16:44:11Z</time></trkpt>
<trkpt lat="46.18783269" lon="6.07040604"><ele></ele><time>2016-6-18T16:44:14Z</time></trkpt>
<trkpt lat="46.18788055" lon="6.07048826"><ele></ele><time>2016-6-18T16:44:17Z</time></trkpt>
<trkpt lat="46.18792749" lon="6.07056839"><ele></ele><time>2016-6-18T16:44:20Z</time></trkpt>
<trkpt lat="46.18797292" lon="6.07064827"><ele></ele><time>2016-6-18T16:44:23Z</time></trkpt>
<trkpt lat="46.18801793" lon="6.07072924"><ele></ele><time>2016-6-18T16:44:26Z</time></trkpt>
<trkpt lat="46.18806370" lon="6.07081222"><ele></ele><time>2016-6-18T16:44:29Z</time></trkpt>
<trkpt lat="46.18811122" lon="6.07089629"><ele></ele><time>2016-6-18T16:44:32Z</time></trkpt>
<trkpt lat="46.18815942" lon="6.07098036"><ele></ele><time>2016-6-18T16:44:35Z</time></trkpt>
<trkpt lat="46.18820678" lon="6.07106603"><ele></ele><time>2016-6-18T16:44:38Z</time></trkpt>
<trkpt lat="46.18825304" lon="6.07115102"><ele></ele><time>2016-6-18T16:44:41Z</time></trkpt>
<trkpt lat="46.18829923" lon="6.07123300"><ele></ele><time>2016-6-18T16:44:44Z</time></trkpt>
<trkpt lat="46.18834583" lon="6.07131070"><ele></ele><time>2016-6-18T16:44:47Z</time></trkpt>
<trkpt lat="46.18839160" lon="6.07138915"><ele></ele><time>2016-6-18T16:44:50Z</time></trkpt>
<trkpt lat="46.18843552" lon="6.07147397"><ele></ele><time>2016-6-18T16:44:53Z</time></trkpt>
<trkpt lat="46.18847919" lon="6.07156232"><ele></ele><time>2016-6-18T16:44:56Z</time></trkpt>
<trkpt lat="46.18852529" lon="6.07164949"><ele></ele><time>2016-6-18T16:44:59Z</time></trkpt>
<trkpt lat="46.18857407" lon="6.07173909"><ele></ele><time>2016-6-18T16:45:2Z</time></trkpt>
<trkpt lat="46.18862319" lon="6.07182995"><ele></ele><time>2016-6-18T16:45:5Z</time></trkpt>
<trkpt lat="46.18867155" lon="6.07192199"><ele></ele><time>2016-6-18T16:45:8Z</time></trkpt>
<trkpt lat="46.18872033" lon="6.07201218"><ele></ele><time>2016-6-18T16:45:11Z</time></trkpt>
<trkpt lat="46.18877046" lon="6.07210119"><ele></ele><time>2016-6-18T16:45:14Z</time></trkpt>
<trkpt lat="46.18882033" lon="6.07218887"><ele></ele><time>2016-6-18T16:45:17Z</time></trkpt>
<trkpt lat="46.18886802" lon="6.07227763"><ele></ele><time>2016-6-18T16:45:20Z</time></trkpt>
<trkpt lat="46.18891505" lon="6.07236715"><ele></ele><time>2016-6-18T16:45:23Z</time></trkpt>
<trkpt lat="46.18896400" lon="6.07245617"><ele></ele><time>2016-6-18T16:45:26Z</time></trkpt>
<trkpt lat="46.18901446" lon="6.07254250"><ele></ele><time>2016-6-18T16:45:29Z</time></trkpt>
<trkpt lat="46.18906198" lon="6.07262556"><ele></ele><time>2016-6-18T16:45:32Z</time></trkpt>
<trkpt lat="46.18910775" lon="6.07270955"><ele></ele><time>2016-6-18T16:45:35Z</time></trkpt>
<trkpt lat="46.18915653" lon="6.07279555"><ele></ele><time>2016-6-18T16:45:38Z</time></trkpt>
<trkpt lat="46.18920498" lon="6.07287803"><ele></ele><time>2016-6-18T16:45:41Z</time></trkpt>
<trkpt lat="46.18924982" lon="6.07296034"><ele></ele><time>2016-6-18T16:45:44Z</time></trkpt>
<trkpt lat="46.18929299" lon="6.07304525"><ele></ele><time>2016-6-18T16:45:47Z</time></trkpt>
<trkpt lat="46.18933699" lon="6.07313032"><ele></ele><time>2016-6-18T16:45:50Z</time></trkpt>
<trkpt lat="46.18938150" lon="6.07321322"><ele></ele><time>2016-6-18T16:45:53Z</time></trkpt>
<trkpt lat="46.18942684" lon="6.07329402"><ele></ele><time>2016-6-18T16:45:56Z</time></trkpt>
<trkpt lat="46.18947152" lon="6.07337776"><ele></ele><time>2016-6-18T16:45:59Z</time></trkpt>
<trkpt lat="46.18951687" lon="6.07346409"><ele></ele><time>2016-6-18T16:46:2Z</time></trkpt>
<trkpt lat="46.18956246" lon="6.07355285"><ele></ele><time>2016-6-18T16:46:5Z</time></trkpt>
<trkpt lat="46.18961343" lon="6.07363885"><ele></ele><time>2016-6-18T16:46:8Z</time></trkpt>
<trkpt lat="46.18966104" lon="6.07372602"><ele></ele><time>2016-6-18T16:46:11Z</time></trkpt>
<trkpt lat="46.18971619" lon="6.07380297"><ele></ele><time>2016-6-18T16:46:14Z</time></trkpt>
<trkpt lat="46.18976992" lon="6.07391370"><ele></ele><time>2016-6-18T16:46:17Z</time></trkpt>
<trkpt lat="46.18982499" lon="6.07401277"><ele></ele><time>2016-6-18T16:46:20Z</time></trkpt>
<trkpt lat="46.18987922" lon="6.07410396"><ele></ele><time>2016-6-18T16:46:23Z</time></trkpt>
<trkpt lat="46.18993253" lon="6.07420170"><ele></ele><time>2016-6-18T16:46:26Z</time></trkpt>
<trkpt lat="46.18998550" lon="6.07430278"><ele></ele><time>2016-6-18T16:46:29Z</time></trkpt>
<trkpt lat="46.19003990" lon="6.07440638"><ele></ele><time>2016-6-18T16:46:32Z</time></trkpt>
<trkpt lat="46.19009446" lon="6.07450722"><ele></ele><time>2016-6-18T16:46:35Z</time></trkpt>
<trkpt lat="46.19014509" lon="6.07460822"><ele></ele><time>2016-6-18T16:46:38Z</time></trkpt>
<trkpt lat="46.19019555" lon="6.07470738"><ele></ele><time>2016-6-18T16:46:41Z</time></trkpt>
<trkpt lat="46.19024668" lon="6.07480436"><ele></ele><time>2016-6-18T16:46:44Z</time></trkpt>
<trkpt lat="46.19029739" lon="6.07490008"><ele></ele><time>2016-6-18T16:46:47Z</time></trkpt>
<trkpt lat="46.19034743" lon="6.07499488"><ele></ele><time>2016-6-18T16:46:50Z</time></trkpt>
<trkpt lat="46.19039613" lon="6.07508976"><ele></ele><time>2016-6-18T16:46:53Z</time></trkpt>
<trkpt lat="46.19044474" lon="6.07518448"><ele></ele><time>2016-6-18T16:46:56Z</time></trkpt>
<trkpt lat="46.19049395" lon="6.07527819"><ele></ele><time>2016-6-18T16:46:59Z</time></trkpt>
<trkpt lat="46.19054474" lon="6.07537055"><ele></ele><time>2016-6-18T16:47:2Z</time></trkpt>
<trkpt lat="46.19059537" lon="6.07546309"><ele></ele><time>2016-6-18T16:47:5Z</time></trkpt>
<trkpt lat="46.19064658" lon="6.07555554"><ele></ele><time>2016-6-18T16:47:8Z</time></trkpt>
<trkpt lat="46.19069654" lon="6.07564657"><ele></ele><time>2016-6-18T16:47:11Z</time></trkpt>
<trkpt lat="46.19074465" lon="6.07573483"><ele></ele><time>2016-6-18T16:47:14Z</time></trkpt>
<trkpt lat="46.19079142" lon="6.07581857"><ele></ele><time>2016-6-18T16:47:17Z</time></trkpt>
<trkpt lat="46.19083718" lon="6.07589962"><ele></ele><time>2016-6-18T16:47:20Z</time></trkpt>
<trkpt lat="46.19088043" lon="6.07598017"><ele></ele><time>2016-6-18T16:47:23Z</time></trkpt>
<trkpt lat="46.19092285" lon="6.07605913"><ele></ele><time>2016-6-18T16:47:26Z</time></trkpt>
<trkpt lat="46.19096534" lon="6.07613632"><ele></ele><time>2016-6-18T16:47:29Z</time></trkpt>
<trkpt lat="46.19100717" lon="6.07621285"><ele></ele><time>2016-6-18T16:47:32Z</time></trkpt>
<trkpt lat="46.19104782" lon="6.07628862"><ele></ele><time>2016-6-18T16:47:35Z</time></trkpt>
<trkpt lat="46.19108814" lon="6.07636180"><ele></ele><time>2016-6-18T16:47:38Z</time></trkpt>
<trkpt lat="46.19112703" lon="6.07643212"><ele></ele><time>2016-6-18T16:47:41Z</time></trkpt>
<trkpt lat="46.19116458" lon="6.07649817"><ele></ele><time>2016-6-18T16:47:44Z</time></trkpt>
<trkpt lat="46.19120842" lon="6.07654695"><ele></ele><time>2016-6-18T16:47:47Z</time></trkpt>
<trkpt lat="46.19125988" lon="6.07656615"><ele></ele><time>2016-6-18T16:47:50Z</time></trkpt>
<trkpt lat="46.19130984" lon="6.07655366"><ele></ele><time>2016-6-18T16:47:53Z</time></trkpt>
<trkpt lat="46.19135636" lon="6.07651644"><ele></ele><time>2016-6-18T16:47:56Z</time></trkpt>
<trkpt lat="46.19140053" lon="6.07646490"><ele></ele><time>2016-6-18T16:47:59Z</time></trkpt>
<trkpt lat="46.19144588" lon="6.07641066"><ele></ele><time>2016-6-18T16:48:2Z</time></trkpt>
<trkpt lat="46.19149206" lon="6.07635643"><ele></ele><time>2016-6-18T16:48:5Z</time></trkpt>
<trkpt lat="46.19153850" lon="6.07630354"><ele></ele><time>2016-6-18T16:48:8Z</time></trkpt>
<trkpt lat="46.19158535" lon="6.07625258"><ele></ele><time>2016-6-18T16:48:11Z</time></trkpt>
<trkpt lat="46.19163112" lon="6.07620095"><ele></ele><time>2016-6-18T16:48:14Z</time></trkpt>
<trkpt lat="46.19167479" lon="6.07614839"><ele></ele><time>2016-6-18T16:48:17Z</time></trkpt>
<trkpt lat="46.19171795" lon="6.07609542"><ele></ele><time>2016-6-18T16:48:20Z</time></trkpt>
<trkpt lat="46.19176238" lon="6.07604153"><ele></ele><time>2016-6-18T16:48:23Z</time></trkpt>
<trkpt lat="46.19180890" lon="6.07598704"><ele></ele><time>2016-6-18T16:48:26Z</time></trkpt>
<trkpt lat="46.19185667" lon="6.07593147"><ele></ele><time>2016-6-18T16:48:29Z</time></trkpt>
<trkpt lat="46.19190386" lon="6.07587246"><ele></ele><time>2016-6-18T16:48:32Z</time></trkpt>
<trkpt lat="46.19195214" lon="6.07581253"><ele></ele><time>2016-6-18T16:48:35Z</time></trkpt>
<trkpt lat="46.19200403" lon="6.07575587"><ele></ele><time>2016-6-18T16:48:38Z</time></trkpt>
<trkpt lat="46.19205717" lon="6.07570105"><ele></ele><time>2016-6-18T16:48:41Z</time></trkpt>
<trkpt lat="46.19210905" lon="6.07564573"><ele></ele><time>2016-6-18T16:48:44Z</time></trkpt>
<trkpt lat="46.19215893" lon="6.07558848"><ele></ele><time>2016-6-18T16:48:47Z</time></trkpt>
<trkpt lat="46.19220796" lon="6.07553090"><ele></ele><time>2016-6-18T16:48:50Z</time></trkpt>
<trkpt lat="46.19225708" lon="6.07547524"><ele></ele><time>2016-6-18T16:48:53Z</time></trkpt>
<trkpt lat="46.19230553" lon="6.07542059"><ele></ele><time>2016-6-18T16:48:56Z</time></trkpt>
<trkpt lat="46.19235372" lon="6.07536452"><ele></ele><time>2016-6-18T16:48:59Z</time></trkpt>
<trkpt lat="46.19240527" lon="6.07530828"><ele></ele><time>2016-6-18T16:49:2Z</time></trkpt>
<trkpt lat="46.19245732" lon="6.07524809"><ele></ele><time>2016-6-18T16:49:5Z</time></trkpt>
<trkpt lat="46.19250996" lon="6.07518674"><ele></ele><time>2016-6-18T16:49:8Z</time></trkpt>
<trkpt lat="46.19256419" lon="6.07512756"><ele></ele><time>2016-6-18T16:49:11Z</time></trkpt>
<trkpt lat="46.19261809" lon="6.07506805"><ele></ele><time>2016-6-18T16:49:14Z</time></trkpt>
<trkpt lat="46.19267215" lon="6.07500980"><ele></ele><time>2016-6-18T16:49:17Z</time></trkpt>
<trkpt lat="46.19272646" lon="6.07495322"><ele></ele><time>2016-6-18T16:49:20Z</time></trkpt>
<trkpt lat="46.19277935" lon="6.07489614"><ele></ele><time>2016-6-18T16:49:23Z</time></trkpt>
<trkpt lat="46.19283057" lon="6.07483906"><ele></ele><time>2016-6-18T16:49:26Z</time></trkpt>
<trkpt lat="46.19288019" lon="6.07478307"><ele></ele><time>2016-6-18T16:49:29Z</time></trkpt>
<trkpt lat="46.19292822" lon="6.07472666"><ele></ele><time>2016-6-18T16:49:32Z</time></trkpt>
<trkpt lat="46.19297650" lon="6.07467075"><ele></ele><time>2016-6-18T16:49:35Z</time></trkpt>
<trkpt lat="46.19302352" lon="6.07461518"><ele></ele><time>2016-6-18T16:49:38Z</time></trkpt>
<trkpt lat="46.19307046" lon="6.07456069"><ele></ele><time>2016-6-18T16:49:41Z</time></trkpt>
<trkpt lat="46.19311958" lon="6.07450739"><ele></ele><time>2016-6-18T16:49:44Z</time></trkpt>
<trkpt lat="46.19316970" lon="6.07445374"><ele></ele><time>2016-6-18T16:49:47Z</time></trkpt>
<trkpt lat="46.19321857" lon="6.07440202"><ele></ele><time>2016-6-18T16:49:50Z</time></trkpt>
<trkpt lat="46.19326408" lon="6.07435207"><ele></ele><time>2016-6-18T16:49:53Z</time></trkpt>
<trkpt lat="46.19330750" lon="6.07430270"><ele></ele><time>2016-6-18T16:49:56Z</time></trkpt>
<trkpt lat="46.19335134" lon="6.07425727"><ele></ele><time>2016-6-18T16:49:59Z</time></trkpt>
<trkpt lat="46.19339316" lon="6.07421544"><ele></ele><time>2016-6-18T16:50:2Z</time></trkpt>
<trkpt lat="46.19343197" lon="6.07417479"><ele></ele><time>2016-6-18T16:50:5Z</time></trkpt>
<trkpt lat="46.19346927" lon="6.07414068"><ele></ele><time>2016-6-18T16:50:8Z</time></trkpt>
<trkpt lat="46.19350422" lon="6.07410430"><ele></ele><time>2016-6-18T16:50:11Z</time></trkpt>
<trkpt lat="46.19353959" lon="6.07406675"><ele></ele><time>2016-6-18T16:50:14Z</time></trkpt>
<trkpt lat="46.19357622" lon="6.07403046"><ele></ele><time>2016-6-18T16:50:17Z</time></trkpt>
<trkpt lat="46.19361478" lon="6.07399282"><ele></ele><time>2016-6-18T16:50:20Z</time></trkpt>
<trkpt lat="46.19365292" lon="6.07395074"><ele></ele><time>2016-6-18T16:50:23Z</time></trkpt>
<trkpt lat="46.19369005" lon="6.07390649"><ele></ele><time>2016-6-18T16:50:26Z</time></trkpt>
<trkpt lat="46.19372659" lon="6.07386382"><ele></ele><time>2016-6-18T16:50:29Z</time></trkpt>
<trkpt lat="46.19376440" lon="6.07382317"><ele></ele><time>2016-6-18T16:50:32Z</time></trkpt>
<trkpt lat="46.19380488" lon="6.07378445"><ele></ele><time>2016-6-18T16:50:35Z</time></trkpt>
<trkpt lat="46.19384654" lon="6.07374648"><ele></ele><time>2016-6-18T16:50:38Z</time></trkpt>
<trkpt lat="46.19388627" lon="6.07370297"><ele></ele><time>2016-6-18T16:50:41Z</time></trkpt>
<trkpt lat="46.19392407" lon="6.07365696"><ele></ele><time>2016-6-18T16:50:44Z</time></trkpt>
<trkpt lat="46.19396288" lon="6.07361295"><ele></ele><time>2016-6-18T16:50:47Z</time></trkpt>
<trkpt lat="46.19399976" lon="6.07357188"><ele></ele><time>2016-6-18T16:50:50Z</time></trkpt>
<trkpt lat="46.19403832" lon="6.07352913"><ele></ele><time>2016-6-18T16:50:53Z</time></trkpt>
<trkpt lat="46.19407947" lon="6.07348387"><ele></ele><time>2016-6-18T16:50:56Z</time></trkpt>
<trkpt lat="46.19411903" lon="6.07343869"><ele></ele><time>2016-6-18T16:50:59Z</time></trkpt>
<trkpt lat="46.19415742" lon="6.07339184"><ele></ele><time>2016-6-18T16:51:2Z</time></trkpt>
<trkpt lat="46.19419573" lon="6.07334582"><ele></ele><time>2016-6-18T16:51:5Z</time></trkpt>
<trkpt lat="46.19423697" lon="6.07329662"><ele></ele><time>2016-6-18T16:51:8Z</time></trkpt>
<trkpt lat="46.19428139" lon="6.07324574"><ele></ele><time>2016-6-18T16:51:11Z</time></trkpt>
<trkpt lat="46.19432297" lon="6.07319788"><ele></ele><time>2016-6-18T16:51:14Z</time></trkpt>
<trkpt lat="46.19436714" lon="6.07314776"><ele></ele><time>2016-6-18T16:51:17Z</time></trkpt>
<trkpt lat="46.19441156" lon="6.07310199"><ele></ele><time>2016-6-18T16:51:20Z</time></trkpt>
<trkpt lat="46.19445733" lon="6.07306033"><ele></ele><time>2016-6-18T16:51:23Z</time></trkpt>
<trkpt lat="46.19450192" lon="6.07301096"><ele></ele><time>2016-6-18T16:51:26Z</time></trkpt>
<trkpt lat="46.19454626" lon="6.07295472"><ele></ele><time>2016-6-18T16:51:29Z</time></trkpt>
<trkpt lat="46.19459404" lon="6.07289856"><ele></ele><time>2016-6-18T16:51:32Z</time></trkpt>
<trkpt lat="46.19463846" lon="6.07284475"><ele></ele><time>2016-6-18T16:51:35Z</time></trkpt>
<trkpt lat="46.19468506" lon="6.07278926"><ele></ele><time>2016-6-18T16:51:38Z</time></trkpt>
<trkpt lat="46.19472664" lon="6.07273294"><ele></ele><time>2016-6-18T16:51:41Z</time></trkpt>
<trkpt lat="46.19477115" lon="6.07267602"><ele></ele><time>2016-6-18T16:51:44Z</time></trkpt>
<trkpt lat="46.19481616" lon="6.07262054"><ele></ele><time>2016-6-18T16:51:47Z</time></trkpt>
<trkpt lat="46.19486083" lon="6.07257108"><ele></ele><time>2016-6-18T16:51:50Z</time></trkpt>
<trkpt lat="46.19490157" lon="6.07252473"><ele></ele><time>2016-6-18T16:51:53Z</time></trkpt>
<trkpt lat="46.19494054" lon="6.07247586"><ele></ele><time>2016-6-18T16:51:56Z</time></trkpt>
<trkpt lat="46.19497810" lon="6.07243597"><ele></ele><time>2016-6-18T16:51:59Z</time></trkpt>
<trkpt lat="46.19502143" lon="6.07240252"><ele></ele><time>2016-6-18T16:52:2Z</time></trkpt>
<trkpt lat="46.19505697" lon="6.07238492"><ele></ele><time>2016-6-18T16:52:5Z</time></trkpt>
<trkpt lat="46.19508262" lon="6.07237863"><ele></ele><time>2016-6-18T16:52:8Z</time></trkpt>
<trkpt lat="46.19509435" lon="6.07241317"><ele></ele><time>2016-6-18T16:52:11Z</time></trkpt>
<trkpt lat="46.19511296" lon="6.07246446"><ele></ele><time>2016-6-18T16:52:14Z</time></trkpt>
<trkpt lat="46.19512830" lon="6.07250813"><ele></ele><time>2016-6-18T16:52:17Z</time></trkpt>
<trkpt lat="46.19516074" lon="6.07257653"><ele></ele><time>2016-6-18T16:52:20Z</time></trkpt>
<trkpt lat="46.19520030" lon="6.07265649"><ele></ele><time>2016-6-18T16:52:23Z</time></trkpt>
<trkpt lat="46.19524112" lon="6.07273906"><ele></ele><time>2016-6-18T16:52:26Z</time></trkpt>
<trkpt lat="46.19528018" lon="6.07282388"><ele></ele><time>2016-6-18T16:52:29Z</time></trkpt>
<trkpt lat="46.19532259" lon="6.07291055"><ele></ele><time>2016-6-18T16:52:32Z</time></trkpt>
<trkpt lat="46.19536065" lon="6.07299143"><ele></ele><time>2016-6-18T16:52:35Z</time></trkpt>
<trkpt lat="46.19539719" lon="6.07307618"><ele></ele><time>2016-6-18T16:52:38Z</time></trkpt>
<trkpt lat="46.19543692" lon="6.07315966"><ele></ele><time>2016-6-18T16:52:41Z</time></trkpt>
<trkpt lat="46.19548126" lon="6.07324063"><ele></ele><time>2016-6-18T16:52:44Z</time></trkpt>
<trkpt lat="46.19552334" lon="6.07331540"><ele></ele><time>2016-6-18T16:52:47Z</time></trkpt>
<trkpt lat="46.19556617" lon="6.07338924"><ele></ele><time>2016-6-18T16:52:50Z</time></trkpt>
<trkpt lat="46.19560850" lon="6.07346308"><ele></ele><time>2016-6-18T16:52:53Z</time></trkpt>
<trkpt lat="46.19565418" lon="6.07354020"><ele></ele><time>2016-6-18T16:52:56Z</time></trkpt>
<trkpt lat="46.19570078" lon="6.07361547"><ele></ele><time>2016-6-18T16:52:59Z</time></trkpt>
<trkpt lat="46.19574797" lon="6.07369057"><ele></ele><time>2016-6-18T16:53:2Z</time></trkpt>
<trkpt lat="46.19579483" lon="6.07375838"><ele></ele><time>2016-6-18T16:53:5Z</time></trkpt>
<trkpt lat="46.19584478" lon="6.07382996"><ele></ele><time>2016-6-18T16:53:8Z</time></trkpt>
<trkpt lat="46.19589826" lon="6.07390548"><ele></ele><time>2016-6-18T16:53:11Z</time></trkpt>
<trkpt lat="46.19594688" lon="6.07397673"><ele></ele><time>2016-6-18T16:53:14Z</time></trkpt>
<trkpt lat="46.19599566" lon="6.07404873"><ele></ele><time>2016-6-18T16:53:17Z</time></trkpt>
<trkpt lat="46.19604746" lon="6.07412475"><ele></ele><time>2016-6-18T16:53:20Z</time></trkpt>
<trkpt lat="46.19609959" lon="6.07419868"><ele></ele><time>2016-6-18T16:53:23Z</time></trkpt>
<trkpt lat="46.19614863" lon="6.07426833"><ele></ele><time>2016-6-18T16:53:26Z</time></trkpt>
<trkpt lat="46.19620227" lon="6.07434344"><ele></ele><time>2016-6-18T16:53:29Z</time></trkpt>
<trkpt lat="46.19625944" lon="6.07442373"><ele></ele><time>2016-6-18T16:53:32Z</time></trkpt>
<trkpt lat="46.19631928" lon="6.07450889"><ele></ele><time>2016-6-18T16:53:35Z</time></trkpt>
<trkpt lat="46.19638173" lon="6.07459657"><ele></ele><time>2016-6-18T16:53:38Z</time></trkpt>
<trkpt lat="46.19644736" lon="6.07468575"><ele></ele><time>2016-6-18T16:53:41Z</time></trkpt>
<trkpt lat="46.19651056" lon="6.07477158"><ele></ele><time>2016-6-18T16:53:44Z</time></trkpt>
<trkpt lat="46.19657150" lon="6.07485498"><ele></ele><time>2016-6-18T16:53:47Z</time></trkpt>
<trkpt lat="46.19663277" lon="6.07494006"><ele></ele><time>2016-6-18T16:53:50Z</time></trkpt>
<trkpt lat="46.19669295" lon="6.07502463"><ele></ele><time>2016-6-18T16:53:53Z</time></trkpt>
<trkpt lat="46.19675824" lon="6.07511482"><ele></ele><time>2016-6-18T16:53:56Z</time></trkpt>
<trkpt lat="46.19682739" lon="6.07520493"><ele></ele><time>2016-6-18T16:53:59Z</time></trkpt>
<trkpt lat="46.19689680" lon="6.07529646"><ele></ele><time>2016-6-18T16:54:2Z</time></trkpt>
<trkpt lat="46.19696536" lon="6.07538899"><ele></ele><time>2016-6-18T16:54:5Z</time></trkpt>
<trkpt lat="46.19703317" lon="6.07548170"><ele></ele><time>2016-6-18T16:54:8Z</time></trkpt>
<trkpt lat="46.19710039" lon="6.07557516"><ele></ele><time>2016-6-18T16:54:11Z</time></trkpt>
<trkpt lat="46.19716896" lon="6.07566996"><ele></ele><time>2016-6-18T16:54:14Z</time></trkpt>
<trkpt lat="46.19723677" lon="6.07576056"><ele></ele><time>2016-6-18T16:54:17Z</time></trkpt>
<trkpt lat="46.19730332" lon="6.07584958"><ele></ele><time>2016-6-18T16:54:20Z</time></trkpt>
<trkpt lat="46.19736828" lon="6.07593692"><ele></ele><time>2016-6-18T16:54:23Z</time></trkpt>
<trkpt lat="46.19743198" lon="6.07602409"><ele></ele><time>2016-6-18T16:54:26Z</time></trkpt>
<trkpt lat="46.19749510" lon="6.07610984"><ele></ele><time>2016-6-18T16:54:29Z</time></trkpt>
<trkpt lat="46.19755729" lon="6.07619458"><ele></ele><time>2016-6-18T16:54:32Z</time></trkpt>
<trkpt lat="46.19761856" lon="6.07627748"><ele></ele><time>2016-6-18T16:54:35Z</time></trkpt>
<trkpt lat="46.19767925" lon="6.07635844"><ele></ele><time>2016-6-18T16:54:38Z</time></trkpt>
<trkpt lat="46.19773859" lon="6.07643958"><ele></ele><time>2016-6-18T16:54:41Z</time></trkpt>
<trkpt lat="46.19779626" lon="6.07652206"><ele></ele><time>2016-6-18T16:54:44Z</time></trkpt>
<trkpt lat="46.19785284" lon="6.07660605"><ele></ele><time>2016-6-18T16:54:47Z</time></trkpt>
<trkpt lat="46.19790916" lon="6.07668953"><ele></ele><time>2016-6-18T16:54:50Z</time></trkpt>
<trkpt lat="46.19796599" lon="6.07677092"><ele></ele><time>2016-6-18T16:54:53Z</time></trkpt>
<trkpt lat="46.19802307" lon="6.07684988"><ele></ele><time>2016-6-18T16:54:56Z</time></trkpt>
<trkpt lat="46.19807974" lon="6.07692766"><ele></ele><time>2016-6-18T16:54:59Z</time></trkpt>
<trkpt lat="46.19813564" lon="6.07700352"><ele></ele><time>2016-6-18T16:55:2Z</time></trkpt>
<trkpt lat="46.19819063" lon="6.07707845"><ele></ele><time>2016-6-18T16:55:5Z</time></trkpt>
<trkpt lat="46.19824436" lon="6.07715338"><ele></ele><time>2016-6-18T16:55:8Z</time></trkpt>
<trkpt lat="46.19829104" lon="6.07723385"><ele></ele><time>2016-6-18T16:55:11Z</time></trkpt>
<trkpt lat="46.19832608" lon="6.07732647"><ele></ele><time>2016-6-18T16:55:14Z</time></trkpt>
<trkpt lat="46.19834946" lon="6.07742907"><ele></ele><time>2016-6-18T16:55:17Z</time></trkpt>
<trkpt lat="46.19836304" lon="6.07753878"><ele></ele><time>2016-6-18T16:55:20Z</time></trkpt>
<trkpt lat="46.19836547" lon="6.07765152"><ele></ele><time>2016-6-18T16:55:23Z</time></trkpt>
<trkpt lat="46.19836019" lon="6.07776392"><ele></ele><time>2016-6-18T16:55:26Z</time></trkpt>
<trkpt lat="46.19835215" lon="6.07787364"><ele></ele><time>2016-6-18T16:55:29Z</time></trkpt>
<trkpt lat="46.19834502" lon="6.07798110"><ele></ele><time>2016-6-18T16:55:32Z</time></trkpt>
<trkpt lat="46.19833949" lon="6.07808587"><ele></ele><time>2016-6-18T16:55:35Z</time></trkpt>
<trkpt lat="46.19833128" lon="6.07818654"><ele></ele><time>2016-6-18T16:55:38Z</time></trkpt>
<trkpt lat="46.19831879" lon="6.07828368"><ele></ele><time>2016-6-18T16:55:41Z</time></trkpt>
<trkpt lat="46.19830320" lon="6.07837907"><ele></ele><time>2016-6-18T16:55:44Z</time></trkpt>
<trkpt lat="46.19828769" lon="6.07847404"><ele></ele><time>2016-6-18T16:55:47Z</time></trkpt>
<trkpt lat="46.19827277" lon="6.07856917"><ele></ele><time>2016-6-18T16:55:50Z</time></trkpt>
<trkpt lat="46.19826078" lon="6.07866414"><ele></ele><time>2016-6-18T16:55:53Z</time></trkpt>
<trkpt lat="46.19825173" lon="6.07875944"><ele></ele><time>2016-6-18T16:55:56Z</time></trkpt>
<trkpt lat="46.19824167" lon="6.07885466"><ele></ele><time>2016-6-18T16:55:59Z</time></trkpt>
<trkpt lat="46.19822985" lon="6.07894912"><ele></ele><time>2016-6-18T16:56:2Z</time></trkpt>
<trkpt lat="46.19821854" lon="6.07904484"><ele></ele><time>2016-6-18T16:56:5Z</time></trkpt>
<trkpt lat="46.19820848" lon="6.07914132"><ele></ele><time>2016-6-18T16:56:8Z</time></trkpt>
<trkpt lat="46.19820018" lon="6.07923763"><ele></ele><time>2016-6-18T16:56:11Z</time></trkpt>
<trkpt lat="46.19818962" lon="6.07933469"><ele></ele><time>2016-6-18T16:56:14Z</time></trkpt>
<trkpt lat="46.19817177" lon="6.07942882"><ele></ele><time>2016-6-18T16:56:17Z</time></trkpt>
<trkpt lat="46.19815174" lon="6.07951926"><ele></ele><time>2016-6-18T16:56:20Z</time></trkpt>
<trkpt lat="46.19813656" lon="6.07961096"><ele></ele><time>2016-6-18T16:56:23Z</time></trkpt>
<trkpt lat="46.19812542" lon="6.07970383"><ele></ele><time>2016-6-18T16:56:26Z</time></trkpt>
<trkpt lat="46.19811687" lon="6.07979838"><ele></ele><time>2016-6-18T16:56:29Z</time></trkpt>
<trkpt lat="46.19811209" lon="6.07989678"><ele></ele><time>2016-6-18T16:56:32Z</time></trkpt>
<trkpt lat="46.19811175" lon="6.08000030"><ele></ele><time>2016-6-18T16:56:35Z</time></trkpt>
<trkpt lat="46.19811519" lon="6.08010725"><ele></ele><time>2016-6-18T16:56:38Z</time></trkpt>
<trkpt lat="46.19811930" lon="6.08021705"><ele></ele><time>2016-6-18T16:56:41Z</time></trkpt>
<trkpt lat="46.19812558" lon="6.08032795"><ele></ele><time>2016-6-18T16:56:44Z</time></trkpt>
<trkpt lat="46.19813405" lon="6.08043892"><ele></ele><time>2016-6-18T16:56:47Z</time></trkpt>
<trkpt lat="46.19814352" lon="6.08054998"><ele></ele><time>2016-6-18T16:56:50Z</time></trkpt>
<trkpt lat="46.19815308" lon="6.08066037"><ele></ele><time>2016-6-18T16:56:53Z</time></trkpt>
<trkpt lat="46.19816188" lon="6.08076984"><ele></ele><time>2016-6-18T16:56:56Z</time></trkpt>
<trkpt lat="46.19817110" lon="6.08087763"><ele></ele><time>2016-6-18T16:56:59Z</time></trkpt>
<trkpt lat="46.19817940" lon="6.08098316"><ele></ele><time>2016-6-18T16:57:2Z</time></trkpt>
<trkpt lat="46.19818686" lon="6.08108626"><ele></ele><time>2016-6-18T16:57:5Z</time></trkpt>
<trkpt lat="46.19819398" lon="6.08118785"><ele></ele><time>2016-6-18T16:57:8Z</time></trkpt>
<trkpt lat="46.19820069" lon="6.08128742"><ele></ele><time>2016-6-18T16:57:11Z</time></trkpt>
<trkpt lat="46.19820563" lon="6.08138465"><ele></ele><time>2016-6-18T16:57:14Z</time></trkpt>
<trkpt lat="46.19821058" lon="6.08148054"><ele></ele><time>2016-6-18T16:57:17Z</time></trkpt>
<trkpt lat="46.19821410" lon="6.08157509"><ele></ele><time>2016-6-18T16:57:20Z</time></trkpt>
<trkpt lat="46.19821778" lon="6.08166838"><ele></ele><time>2016-6-18T16:57:23Z</time></trkpt>
<trkpt lat="46.19822516" lon="6.08175916"><ele></ele><time>2016-6-18T16:57:26Z</time></trkpt>
<trkpt lat="46.19823296" lon="6.08184893"><ele></ele><time>2016-6-18T16:57:29Z</time></trkpt>
<trkpt lat="46.19824377" lon="6.08193618"><ele></ele><time>2016-6-18T16:57:32Z</time></trkpt>
<trkpt lat="46.19826095" lon="6.08202126"><ele></ele><time>2016-6-18T16:57:35Z</time></trkpt>
<trkpt lat="46.19828719" lon="6.08210139"><ele></ele><time>2016-6-18T16:57:38Z</time></trkpt>
<trkpt lat="46.19832097" lon="6.08217515"><ele></ele><time>2016-6-18T16:57:41Z</time></trkpt>
<trkpt lat="46.19835927" lon="6.08224514"><ele></ele><time>2016-6-18T16:57:44Z</time></trkpt>
<trkpt lat="46.19840026" lon="6.08231303"><ele></ele><time>2016-6-18T16:57:47Z</time></trkpt>
<trkpt lat="46.19844024" lon="6.08238428"><ele></ele><time>2016-6-18T16:57:50Z</time></trkpt>
<trkpt lat="46.19847897" lon="6.08245988"><ele></ele><time>2016-6-18T16:57:53Z</time></trkpt>
<trkpt lat="46.19851962" lon="6.08253708"><ele></ele><time>2016-6-18T16:57:56Z</time></trkpt>
<trkpt lat="46.19856547" lon="6.08261906"><ele></ele><time>2016-6-18T16:57:59Z</time></trkpt>
<trkpt lat="46.19861425" lon="6.08270514"><ele></ele><time>2016-6-18T16:58:2Z</time></trkpt>
<trkpt lat="46.19866177" lon="6.08278695"><ele></ele><time>2016-6-18T16:58:5Z</time></trkpt>
<trkpt lat="46.19870863" lon="6.08286724"><ele></ele><time>2016-6-18T16:58:8Z</time></trkpt>
<trkpt lat="46.19875473" lon="6.08294813"><ele></ele><time>2016-6-18T16:58:11Z</time></trkpt>
<trkpt lat="46.19880192" lon="6.08303094"><ele></ele><time>2016-6-18T16:58:14Z</time></trkpt>
<trkpt lat="46.19884986" lon="6.08311929"><ele></ele><time>2016-6-18T16:58:17Z</time></trkpt>
<trkpt lat="46.19890016" lon="6.08322088"><ele></ele><time>2016-6-18T16:58:20Z</time></trkpt>
<trkpt lat="46.19894978" lon="6.08330394"><ele></ele><time>2016-6-18T16:58:23Z</time></trkpt>
<trkpt lat="46.19899713" lon="6.08338072"><ele></ele><time>2016-6-18T16:58:26Z</time></trkpt>
<trkpt lat="46.19904642" lon="6.08347183"><ele></ele><time>2016-6-18T16:58:29Z</time></trkpt>
<trkpt lat="46.19909680" lon="6.08356646"><ele></ele><time>2016-6-18T16:58:32Z</time></trkpt>
<trkpt lat="46.19914549" lon="6.08365699"><ele></ele><time>2016-6-18T16:58:35Z</time></trkpt>
<trkpt lat="46.19919453" lon="6.08374634"><ele></ele><time>2016-6-18T16:58:38Z</time></trkpt>
<trkpt lat="46.19924532" lon="6.08383787"><ele></ele><time>2016-6-18T16:58:41Z</time></trkpt>
<trkpt lat="46.19929587" lon="6.08392898"><ele></ele><time>2016-6-18T16:58:44Z</time></trkpt>
<trkpt lat="46.19934758" lon="6.08402110"><ele></ele><time>2016-6-18T16:58:47Z</time></trkpt>
<trkpt lat="46.19939854" lon="6.08411288"><ele></ele><time>2016-6-18T16:58:50Z</time></trkpt>
<trkpt lat="46.19944959" lon="6.08420508"><ele></ele><time>2016-6-18T16:58:53Z</time></trkpt>
<trkpt lat="46.19950105" lon="6.08429753"><ele></ele><time>2016-6-18T16:58:56Z</time></trkpt>
<trkpt lat="46.19955369" lon="6.08439183"><ele></ele><time>2016-6-18T16:58:59Z</time></trkpt>
<trkpt lat="46.19960650" lon="6.08448713"><ele></ele><time>2016-6-18T16:59:2Z</time></trkpt>
<trkpt lat="46.19965796" lon="6.08458528"><ele></ele><time>2016-6-18T16:59:5Z</time></trkpt>
<trkpt lat="46.19970792" lon="6.08468318"><ele></ele><time>2016-6-18T16:59:8Z</time></trkpt>
<trkpt lat="46.19975729" lon="6.08478159"><ele></ele><time>2016-6-18T16:59:11Z</time></trkpt>
<trkpt lat="46.19980959" lon="6.08487815"><ele></ele><time>2016-6-18T16:59:14Z</time></trkpt>
<trkpt lat="46.19986466" lon="6.08497295"><ele></ele><time>2016-6-18T16:59:17Z</time></trkpt>
<trkpt lat="46.19991990" lon="6.08506783"><ele></ele><time>2016-6-18T16:59:20Z</time></trkpt>
<trkpt lat="46.19997354" lon="6.08516263"><ele></ele><time>2016-6-18T16:59:23Z</time></trkpt>
<trkpt lat="46.20002442" lon="6.08525533"><ele></ele><time>2016-6-18T16:59:26Z</time></trkpt>
<trkpt lat="46.20007656" lon="6.08534720"><ele></ele><time>2016-6-18T16:59:29Z</time></trkpt>
<trkpt lat="46.20012852" lon="6.08543856"><ele></ele><time>2016-6-18T16:59:32Z</time></trkpt>
<trkpt lat="46.20018032" lon="6.08552850"><ele></ele><time>2016-6-18T16:59:35Z</time></trkpt>
<trkpt lat="46.20023254" lon="6.08561743"><ele></ele><time>2016-6-18T16:59:38Z</time></trkpt>
<trkpt lat="46.20028510" lon="6.08570485"><ele></ele><time>2016-6-18T16:59:41Z</time></trkpt>
<trkpt lat="46.20033748" lon="6.08578909"><ele></ele><time>2016-6-18T16:59:44Z</time></trkpt>
<trkpt lat="46.20039188" lon="6.08586595"><ele></ele><time>2016-6-18T16:59:47Z</time></trkpt>
<trkpt lat="46.20044754" lon="6.08593955"><ele></ele><time>2016-6-18T16:59:50Z</time></trkpt>
<trkpt lat="46.20050713" lon="6.08601163"><ele></ele><time>2016-6-18T16:59:53Z</time></trkpt>
<trkpt lat="46.20056807" lon="6.08607483"><ele></ele><time>2016-6-18T16:59:56Z</time></trkpt>
<trkpt lat="46.20063186" lon="6.08613275"><ele></ele><time>2016-6-18T16:59:59Z</time></trkpt>
<trkpt lat="46.20070076" lon="6.08618899"><ele></ele><time>2016-6-18T17:0:2Z</time></trkpt>
<trkpt lat="46.20077075" lon="6.08624088"><ele></ele><time>2016-6-18T17:0:5Z</time></trkpt>
<trkpt lat="46.20084166" lon="6.08628958"><ele></ele><time>2016-6-18T17:0:8Z</time></trkpt>
<trkpt lat="46.20091324" lon="6.08633333"><ele></ele><time>2016-6-18T17:0:11Z</time></trkpt>
<trkpt lat="46.20098557" lon="6.08637147"><ele></ele><time>2016-6-18T17:0:14Z</time></trkpt>
<trkpt lat="46.20105858" lon="6.08640449"><ele></ele><time>2016-6-18T17:0:17Z</time></trkpt>
<trkpt lat="46.20113083" lon="6.08643299"><ele></ele><time>2016-6-18T17:0:20Z</time></trkpt>
<trkpt lat="46.20120476" lon="6.08646107"><ele></ele><time>2016-6-18T17:0:23Z</time></trkpt>
<trkpt lat="46.20128246" lon="6.08649476"><ele></ele><time>2016-6-18T17:0:26Z</time></trkpt>
<trkpt lat="46.20135656" lon="6.08652762"><ele></ele><time>2016-6-18T17:0:29Z</time></trkpt>
<trkpt lat="46.20143199" lon="6.08656182"><ele></ele><time>2016-6-18T17:0:32Z</time></trkpt>
<trkpt lat="46.20150953" lon="6.08659426"><ele></ele><time>2016-6-18T17:0:35Z</time></trkpt>
<trkpt lat="46.20159083" lon="6.08661949"><ele></ele><time>2016-6-18T17:0:38Z</time></trkpt>
<trkpt lat="46.20167783" lon="6.08663449"><ele></ele><time>2016-6-18T17:0:41Z</time></trkpt>
<trkpt lat="46.20177322" lon="6.08663432"><ele></ele><time>2016-6-18T17:0:44Z</time></trkpt>
<trkpt lat="46.20186970" lon="6.08661907"><ele></ele><time>2016-6-18T17:0:47Z</time></trkpt>
<trkpt lat="46.20196466" lon="6.08659392"><ele></ele><time>2016-6-18T17:0:50Z</time></trkpt>
<trkpt lat="46.20205997" lon="6.08656366"><ele></ele><time>2016-6-18T17:0:53Z</time></trkpt>
<trkpt lat="46.20215787" lon="6.08653424"><ele></ele><time>2016-6-18T17:0:56Z</time></trkpt>
<trkpt lat="46.20225828" lon="6.08650834"><ele></ele><time>2016-6-18T17:0:59Z</time></trkpt>
<trkpt lat="46.20235819" lon="6.08648286"><ele></ele><time>2016-6-18T17:1:2Z</time></trkpt>
<trkpt lat="46.20245836" lon="6.08645478"><ele></ele><time>2016-6-18T17:1:5Z</time></trkpt>
<trkpt lat="46.20255693" lon="6.08642394"><ele></ele><time>2016-6-18T17:1:8Z</time></trkpt>
<trkpt lat="46.20265516" lon="6.08639309"><ele></ele><time>2016-6-18T17:1:11Z</time></trkpt>
<trkpt lat="46.20275198" lon="6.08636233"><ele></ele><time>2016-6-18T17:1:14Z</time></trkpt>
<trkpt lat="46.20284962" lon="6.08633257"><ele></ele><time>2016-6-18T17:1:17Z</time></trkpt>
<trkpt lat="46.20294702" lon="6.08630357"><ele></ele><time>2016-6-18T17:1:20Z</time></trkpt>
<trkpt lat="46.20304316" lon="6.08627507"><ele></ele><time>2016-6-18T17:1:23Z</time></trkpt>
<trkpt lat="46.20313813" lon="6.08624666"><ele></ele><time>2016-6-18T17:1:26Z</time></trkpt>
<trkpt lat="46.20323217" lon="6.08621799"><ele></ele><time>2016-6-18T17:1:29Z</time></trkpt>
<trkpt lat="46.20332463" lon="6.08618849"><ele></ele><time>2016-6-18T17:1:32Z</time></trkpt>
<trkpt lat="46.20341507" lon="6.08615739"><ele></ele><time>2016-6-18T17:1:35Z</time></trkpt>
<trkpt lat="46.20350308" lon="6.08612269"><ele></ele><time>2016-6-18T17:1:38Z</time></trkpt>
<trkpt lat="46.20358572" lon="6.08608556"><ele></ele><time>2016-6-18T17:1:41Z</time></trkpt>
<trkpt lat="46.20366686" lon="6.08605220"><ele></ele><time>2016-6-18T17:1:44Z</time></trkpt>
<trkpt lat="46.20374624" lon="6.08602747"><ele></ele><time>2016-6-18T17:1:47Z</time></trkpt>
<trkpt lat="46.20382519" lon="6.08602043"><ele></ele><time>2016-6-18T17:1:50Z</time></trkpt>
<trkpt lat="46.20390147" lon="6.08603736"><ele></ele><time>2016-6-18T17:1:53Z</time></trkpt>
<trkpt lat="46.20396777" lon="6.08606645"><ele></ele><time>2016-6-18T17:1:56Z</time></trkpt>
<trkpt lat="46.20401219" lon="6.08613275"><ele></ele><time>2016-6-18T17:1:59Z</time></trkpt>
<trkpt lat="46.20404229" lon="6.08623199"><ele></ele><time>2016-6-18T17:2:2Z</time></trkpt>
<trkpt lat="46.20406877" lon="6.08634096"><ele></ele><time>2016-6-18T17:2:5Z</time></trkpt>
<trkpt lat="46.20409442" lon="6.08645336"><ele></ele><time>2016-6-18T17:2:8Z</time></trkpt>
<trkpt lat="46.20412258" lon="6.08656660"><ele></ele><time>2016-6-18T17:2:11Z</time></trkpt>
<trkpt lat="46.20415318" lon="6.08667883"><ele></ele><time>2016-6-18T17:2:14Z</time></trkpt>
<trkpt lat="46.20418612" lon="6.08679308"><ele></ele><time>2016-6-18T17:2:17Z</time></trkpt>
<trkpt lat="46.20423088" lon="6.08690179"><ele></ele><time>2016-6-18T17:2:20Z</time></trkpt>
<trkpt lat="46.20428679" lon="6.08699952"><ele></ele><time>2016-6-18T17:2:23Z</time></trkpt>
<trkpt lat="46.20434839" lon="6.08708904"><ele></ele><time>2016-6-18T17:2:26Z</time></trkpt>
<trkpt lat="46.20440522" lon="6.08717102"><ele></ele><time>2016-6-18T17:2:29Z</time></trkpt>
<trkpt lat="46.20446113" lon="6.08725970"><ele></ele><time>2016-6-18T17:2:32Z</time></trkpt>
<trkpt lat="46.20451637" lon="6.08735466"><ele></ele><time>2016-6-18T17:2:35Z</time></trkpt>
<trkpt lat="46.20457370" lon="6.08746145"><ele></ele><time>2016-6-18T17:2:38Z</time></trkpt>
<trkpt lat="46.20463070" lon="6.08757678"><ele></ele><time>2016-6-18T17:2:41Z</time></trkpt>
<trkpt lat="46.20468526" lon="6.08770235"><ele></ele><time>2016-6-18T17:2:44Z</time></trkpt>
<trkpt lat="46.20473807" lon="6.08783746"><ele></ele><time>2016-6-18T17:2:47Z</time></trkpt>
<trkpt lat="46.20479180" lon="6.08798054"><ele></ele><time>2016-6-18T17:2:50Z</time></trkpt>
<trkpt lat="46.20484896" lon="6.08812127"><ele></ele><time>2016-6-18T17:2:53Z</time></trkpt>
<trkpt lat="46.20491006" lon="6.08824273"><ele></ele><time>2016-6-18T17:2:56Z</time></trkpt>
<trkpt lat="46.20497762" lon="6.08833744"><ele></ele><time>2016-6-18T17:2:59Z</time></trkpt>
<trkpt lat="46.20504887" lon="6.08840869"><ele></ele><time>2016-6-18T17:3:2Z</time></trkpt>
<trkpt lat="46.20512079" lon="6.08845370"><ele></ele><time>2016-6-18T17:3:5Z</time></trkpt>
<trkpt lat="46.20518516" lon="6.08848345"><ele></ele><time>2016-6-18T17:3:8Z</time></trkpt>
<trkpt lat="46.20523637" lon="6.08851958"><ele></ele><time>2016-6-18T17:3:11Z</time></trkpt>
<trkpt lat="46.20527577" lon="6.08857448"><ele></ele><time>2016-6-18T17:3:14Z</time></trkpt>
<trkpt lat="46.20530594" lon="6.08864263"><ele></ele><time>2016-6-18T17:3:17Z</time></trkpt>
<trkpt lat="46.20531986" lon="6.08871756"><ele></ele><time>2016-6-18T17:3:20Z</time></trkpt>
<trkpt lat="46.20532824" lon="6.08879778"><ele></ele><time>2016-6-18T17:3:23Z</time></trkpt>
<trkpt lat="46.20533025" lon="6.08887875"><ele></ele><time>2016-6-18T17:3:26Z</time></trkpt>
<trkpt lat="46.20532857" lon="6.08896055"><ele></ele><time>2016-6-18T17:3:29Z</time></trkpt>
<trkpt lat="46.20532187" lon="6.08904378"><ele></ele><time>2016-6-18T17:3:32Z</time></trkpt>
<trkpt lat="46.20531717" lon="6.08912886"><ele></ele><time>2016-6-18T17:3:35Z</time></trkpt>
<trkpt lat="46.20531206" lon="6.08921545"><ele></ele><time>2016-6-18T17:3:38Z</time></trkpt>
<trkpt lat="46.20530703" lon="6.08930186"><ele></ele><time>2016-6-18T17:3:41Z</time></trkpt>
<trkpt lat="46.20530326" lon="6.08938795"><ele></ele><time>2016-6-18T17:3:44Z</time></trkpt>
<trkpt lat="46.20530100" lon="6.08947093"><ele></ele><time>2016-6-18T17:3:47Z</time></trkpt>
<trkpt lat="46.20529739" lon="6.08955223"><ele></ele><time>2016-6-18T17:3:50Z</time></trkpt>
<trkpt lat="46.20529538" lon="6.08963236"><ele></ele><time>2016-6-18T17:3:53Z</time></trkpt>
<trkpt lat="46.20529035" lon="6.08971207"><ele></ele><time>2016-6-18T17:3:56Z</time></trkpt>
<trkpt lat="46.20528582" lon="6.08979472"><ele></ele><time>2016-6-18T17:3:59Z</time></trkpt>
<trkpt lat="46.20528163" lon="6.08988097"><ele></ele><time>2016-6-18T17:4:2Z</time></trkpt>
<trkpt lat="46.20527828" lon="6.08996630"><ele></ele><time>2016-6-18T17:4:5Z</time></trkpt>
<trkpt lat="46.20527459" lon="6.09005137"><ele></ele><time>2016-6-18T17:4:8Z</time></trkpt>
<trkpt lat="46.20527082" lon="6.09013896"><ele></ele><time>2016-6-18T17:4:11Z</time></trkpt>
<trkpt lat="46.20526864" lon="6.09022480"><ele></ele><time>2016-6-18T17:4:14Z</time></trkpt>
<trkpt lat="46.20527250" lon="6.09030937"><ele></ele><time>2016-6-18T17:4:17Z</time></trkpt>
<trkpt lat="46.20529152" lon="6.09037978"><ele></ele><time>2016-6-18T17:4:20Z</time></trkpt>
<trkpt lat="46.20532053" lon="6.09043853"><ele></ele><time>2016-6-18T17:4:23Z</time></trkpt>
<trkpt lat="46.20535313" lon="6.09047994"><ele></ele><time>2016-6-18T17:4:26Z</time></trkpt>
<trkpt lat="46.20537995" lon="6.09052185"><ele></ele><time>2016-6-18T17:4:29Z</time></trkpt>
<trkpt lat="46.20539965" lon="6.09057046"><ele></ele><time>2016-6-18T17:4:32Z</time></trkpt>
<trkpt lat="46.20541113" lon="6.09062972"><ele></ele><time>2016-6-18T17:4:35Z</time></trkpt>
<trkpt lat="46.20540476" lon="6.09068588"><ele></ele><time>2016-6-18T17:4:38Z</time></trkpt>
<trkpt lat="46.20539563" lon="6.09074875"><ele></ele><time>2016-6-18T17:4:41Z</time></trkpt>
<trkpt lat="46.20537719" lon="6.09082620"><ele></ele><time>2016-6-18T17:4:44Z</time></trkpt>
<trkpt lat="46.20535598" lon="6.09091463"><ele></ele><time>2016-6-18T17:4:47Z</time></trkpt>
<trkpt lat="46.20532748" lon="6.09101060"><ele></ele><time>2016-6-18T17:4:50Z</time></trkpt>
<trkpt lat="46.20530326" lon="6.09111688"><ele></ele><time>2016-6-18T17:4:53Z</time></trkpt>
<trkpt lat="46.20528004" lon="6.09124512"><ele></ele><time>2016-6-18T17:4:56Z</time></trkpt>
<trkpt lat="46.20525314" lon="6.09138678"><ele></ele><time>2016-6-18T17:4:59Z</time></trkpt>
<trkpt lat="46.20521936" lon="6.09154059"><ele></ele><time>2016-6-18T17:5:2Z</time></trkpt>
<trkpt lat="46.20518709" lon="6.09169582"><ele></ele><time>2016-6-18T17:5:5Z</time></trkpt>
<trkpt lat="46.20515867" lon="6.09185139"><ele></ele><time>2016-6-18T17:5:8Z</time></trkpt>
<trkpt lat="46.20513076" lon="6.09200159"><ele></ele><time>2016-6-18T17:5:11Z</time></trkpt>
<trkpt lat="46.20510545" lon="6.09214257"><ele></ele><time>2016-6-18T17:5:14Z</time></trkpt>
<trkpt lat="46.20508466" lon="6.09226956"><ele></ele><time>2016-6-18T17:5:17Z</time></trkpt>
<trkpt lat="46.20506362" lon="6.09238800"><ele></ele><time>2016-6-18T17:5:20Z</time></trkpt>
<trkpt lat="46.20504183" lon="6.09250484"><ele></ele><time>2016-6-18T17:5:23Z</time></trkpt>
<trkpt lat="46.20501677" lon="6.09260903"><ele></ele><time>2016-6-18T17:5:26Z</time></trkpt>
<trkpt lat="46.20499673" lon="6.09270047"><ele></ele><time>2016-6-18T17:5:29Z</time></trkpt>
<trkpt lat="46.20497175" lon="6.09278496"><ele></ele><time>2016-6-18T17:5:32Z</time></trkpt>
<trkpt lat="46.20494602" lon="6.09285805"><ele></ele><time>2016-6-18T17:5:35Z</time></trkpt>
<trkpt lat="46.20492599" lon="6.09291614"><ele></ele><time>2016-6-18T17:5:38Z</time></trkpt>
<trkpt lat="46.20491015" lon="6.09295637"><ele></ele><time>2016-6-18T17:5:41Z</time></trkpt>
<trkpt lat="46.20490344" lon="6.09298554"><ele></ele><time>2016-6-18T17:5:44Z</time></trkpt>
<trkpt lat="46.20490713" lon="6.09300834"><ele></ele><time>2016-6-18T17:5:47Z</time></trkpt>
<trkpt lat="46.20490847" lon="6.09302988"><ele></ele><time>2016-6-18T17:5:50Z</time></trkpt>
<trkpt lat="46.20491652" lon="6.09304966"><ele></ele><time>2016-6-18T17:5:53Z</time></trkpt>
<trkpt lat="46.20492993" lon="6.09307246"><ele></ele><time>2016-6-18T17:5:56Z</time></trkpt>
<trkpt lat="46.20493982" lon="6.09309627"><ele></ele><time>2016-6-18T17:5:59Z</time></trkpt>
<trkpt lat="46.20494032" lon="6.09312368"><ele></ele><time>2016-6-18T17:6:2Z</time></trkpt>
<trkpt lat="46.20494619" lon="6.09315469"><ele></ele><time>2016-6-18T17:6:5Z</time></trkpt>
<trkpt lat="46.20495507" lon="6.09318277"><ele></ele><time>2016-6-18T17:6:8Z</time></trkpt>
<trkpt lat="46.20496689" lon="6.09320750"><ele></ele><time>2016-6-18T17:6:11Z</time></trkpt>
<trkpt lat="46.20497444" lon="6.09323055"><ele></ele><time>2016-6-18T17:6:14Z</time></trkpt>
<trkpt lat="46.20497175" lon="6.09325242"><ele></ele><time>2016-6-18T17:6:17Z</time></trkpt>
<trkpt lat="46.20496547" lon="6.09327707"><ele></ele><time>2016-6-18T17:6:20Z</time></trkpt>
<trkpt lat="46.20496346" lon="6.09329257"><ele></ele><time>2016-6-18T17:6:23Z</time></trkpt>
<trkpt lat="46.20496849" lon="6.09331118"><ele></ele><time>2016-6-18T17:6:26Z</time></trkpt>
<trkpt lat="46.20497075" lon="6.09333524"><ele></ele><time>2016-6-18T17:6:29Z</time></trkpt>
<trkpt lat="46.20497427" lon="6.09336239"><ele></ele><time>2016-6-18T17:6:32Z</time></trkpt>
<trkpt lat="46.20498265" lon="6.09337916"><ele></ele><time>2016-6-18T17:6:35Z</time></trkpt>
<trkpt lat="46.20498852" lon="6.09340288"><ele></ele><time>2016-6-18T17:6:38Z</time></trkpt>
<trkpt lat="46.20498693" lon="6.09343263"><ele></ele><time>2016-6-18T17:6:41Z</time></trkpt>
<trkpt lat="46.20498424" lon="6.09345644"><ele></ele><time>2016-6-18T17:6:44Z</time></trkpt>
<trkpt lat="46.20498852" lon="6.09348536"><ele></ele><time>2016-6-18T17:6:47Z</time></trkpt>
<trkpt lat="46.20499112" lon="6.09350606"><ele></ele><time>2016-6-18T17:6:50Z</time></trkpt>
<trkpt lat="46.20499162" lon="6.09352492"><ele></ele><time>2016-6-18T17:6:53Z</time></trkpt>
<trkpt lat="46.20498952" lon="6.09354235"><ele></ele><time>2016-6-18T17:6:56Z</time></trkpt>
<trkpt lat="46.20498835" lon="6.09355484"><ele></ele><time>2016-6-18T17:6:59Z</time></trkpt>
<trkpt lat="46.20498047" lon="6.09355819"><ele></ele><time>2016-6-18T17:7:2Z</time></trkpt>
<trkpt lat="46.20497067" lon="6.09355534"><ele></ele><time>2016-6-18T17:7:5Z</time></trkpt>
<trkpt lat="46.20496279" lon="6.09354529"><ele></ele><time>2016-6-18T17:7:8Z</time></trkpt>
<trkpt lat="46.20495575" lon="6.09353196"><ele></ele><time>2016-6-18T17:7:11Z</time></trkpt>
<trkpt lat="46.20494954" lon="6.09351855"><ele></ele><time>2016-6-18T17:7:14Z</time></trkpt>
<trkpt lat="46.20494057" lon="6.09350028"><ele></ele><time>2016-6-18T17:7:17Z</time></trkpt>
<trkpt lat="46.20493605" lon="6.09347907"><ele></ele><time>2016-6-18T17:7:20Z</time></trkpt>
<trkpt lat="46.20493856" lon="6.09346289"><ele></ele><time>2016-6-18T17:7:23Z</time></trkpt>
<trkpt lat="46.20493119" lon="6.09344630"><ele></ele><time>2016-6-18T17:7:26Z</time></trkpt>
<trkpt lat="46.20492582" lon="6.09342559"><ele></ele><time>2016-6-18T17:7:29Z</time></trkpt>
<trkpt lat="46.20492255" lon="6.09341302"><ele></ele><time>2016-6-18T17:7:32Z</time></trkpt>
<trkpt lat="46.20492029" lon="6.09340548"><ele></ele><time>2016-6-18T17:7:35Z</time></trkpt>
<trkpt lat="46.20491677" lon="6.09340103"><ele></ele><time>2016-6-18T17:7:38Z</time></trkpt>
<trkpt lat="46.20490847" lon="6.09339047"><ele></ele><time>2016-6-18T17:7:41Z</time></trkpt>
<trkpt lat="46.20490386" lon="6.09338813"><ele></ele><time>2016-6-18T17:7:44Z</time></trkpt>
<trkpt lat="46.20489657" lon="6.09337715"><ele></ele><time>2016-6-18T17:7:47Z</time></trkpt>
<trkpt lat="46.20487763" lon="6.09335443"><ele></ele><time>2016-6-18T17:7:50Z</time></trkpt>
<trkpt lat="46.20485374" lon="6.09333448"><ele></ele><time>2016-6-18T17:7:53Z</time></trkpt>
<trkpt lat="46.20483739" lon="6.09331554"><ele></ele><time>2016-6-18T17:7:56Z</time></trkpt>
<trkpt lat="46.20481912" lon="6.09328729"><ele></ele><time>2016-6-18T17:7:59Z</time></trkpt>
<trkpt lat="46.20480814" lon="6.09325636"><ele></ele><time>2016-6-18T17:8:2Z</time></trkpt>
<trkpt lat="46.20478786" lon="6.09323214"><ele></ele><time>2016-6-18T17:8:5Z</time></trkpt>
<trkpt lat="46.20477654" lon="6.09320993"><ele></ele><time>2016-6-18T17:8:8Z</time></trkpt>
<trkpt lat="46.20475659" lon="6.09317749"><ele></ele><time>2016-6-18T17:8:11Z</time></trkpt>
<trkpt lat="46.20473874" lon="6.09314832"><ele></ele><time>2016-6-18T17:8:14Z</time></trkpt>
<trkpt lat="46.20470965" lon="6.09311596"><ele></ele><time>2016-6-18T17:8:17Z</time></trkpt>
<trkpt lat="46.20467654" lon="6.09307942"><ele></ele><time>2016-6-18T17:8:20Z</time></trkpt>
<trkpt lat="46.20464142" lon="6.09304279"><ele></ele><time>2016-6-18T17:8:23Z</time></trkpt>
<trkpt lat="46.20460278" lon="6.09300289"><ele></ele><time>2016-6-18T17:8:26Z</time></trkpt>
<trkpt lat="46.20456230" lon="6.09296300"><ele></ele><time>2016-6-18T17:8:29Z</time></trkpt>
<trkpt lat="46.20452014" lon="6.09292896"><ele></ele><time>2016-6-18T17:8:32Z</time></trkpt>
<trkpt lat="46.20447488" lon="6.09289393"><ele></ele><time>2016-6-18T17:8:35Z</time></trkpt>
<trkpt lat="46.20442886" lon="6.09285445"><ele></ele><time>2016-6-18T17:8:38Z</time></trkpt>
<trkpt lat="46.20438620" lon="6.09281396"><ele></ele><time>2016-6-18T17:8:41Z</time></trkpt>
<trkpt lat="46.20434077" lon="6.09277113"><ele></ele><time>2016-6-18T17:8:44Z</time></trkpt>
<trkpt lat="46.20429760" lon="6.09273417"><ele></ele><time>2016-6-18T17:8:47Z</time></trkpt>
<trkpt lat="46.20425896" lon="6.09270098"><ele></ele><time>2016-6-18T17:8:50Z</time></trkpt>
<trkpt lat="46.20422107" lon="6.09266787"><ele></ele><time>2016-6-18T17:8:53Z</time></trkpt>
<trkpt lat="46.20419039" lon="6.09263459"><ele></ele><time>2016-6-18T17:8:56Z</time></trkpt>
<trkpt lat="46.20416617" lon="6.09259553"><ele></ele><time>2016-6-18T17:8:59Z</time></trkpt>
<trkpt lat="46.20414706" lon="6.09255647"><ele></ele><time>2016-6-18T17:9:2Z</time></trkpt>
<trkpt lat="46.20412468" lon="6.09251909"><ele></ele><time>2016-6-18T17:9:5Z</time></trkpt>
<trkpt lat="46.20410222" lon="6.09248338"><ele></ele><time>2016-6-18T17:9:8Z</time></trkpt>
<trkpt lat="46.20408210" lon="6.09245002"><ele></ele><time>2016-6-18T17:9:11Z</time></trkpt>
<trkpt lat="46.20405997" lon="6.09242219"><ele></ele><time>2016-6-18T17:9:14Z</time></trkpt>
<trkpt lat="46.20403985" lon="6.09240082"><ele></ele><time>2016-6-18T17:9:17Z</time></trkpt>
<trkpt lat="46.20401882" lon="6.09237618"><ele></ele><time>2016-6-18T17:9:20Z</time></trkpt>
<trkpt lat="46.20400080" lon="6.09236377"><ele></ele><time>2016-6-18T17:9:23Z</time></trkpt>
<trkpt lat="46.20398487" lon="6.09235908"><ele></ele><time>2016-6-18T17:9:26Z</time></trkpt>
<trkpt lat="46.20396953" lon="6.09234567"><ele></ele><time>2016-6-18T17:9:29Z</time></trkpt>
<trkpt lat="46.20394455" lon="6.09233393"><ele></ele><time>2016-6-18T17:9:32Z</time></trkpt>
<trkpt lat="46.20392033" lon="6.09231558"><ele></ele><time>2016-6-18T17:9:35Z</time></trkpt>
<trkpt lat="46.20389292" lon="6.09229613"><ele></ele><time>2016-6-18T17:9:38Z</time></trkpt>
<trkpt lat="46.20385445" lon="6.09227895"><ele></ele><time>2016-6-18T17:9:41Z</time></trkpt>
<trkpt lat="46.20381807" lon="6.09226612"><ele></ele><time>2016-6-18T17:9:44Z</time></trkpt>
<trkpt lat="46.20378278" lon="6.09225146"><ele></ele><time>2016-6-18T17:9:47Z</time></trkpt>
<trkpt lat="46.20374230" lon="6.09223779"><ele></ele><time>2016-6-18T17:9:50Z</time></trkpt>
<trkpt lat="46.20370952" lon="6.09222740"><ele></ele><time>2016-6-18T17:9:53Z</time></trkpt>
<trkpt lat="46.20367734" lon="6.09222740"><ele></ele><time>2016-6-18T17:9:56Z</time></trkpt>
<trkpt lat="46.20364322" lon="6.09223159"><ele></ele><time>2016-6-18T17:9:59Z</time></trkpt>
<trkpt lat="46.20360777" lon="6.09224282"><ele></ele><time>2016-6-18T17:10:2Z</time></trkpt>
<trkpt lat="46.20357189" lon="6.09225104"><ele></ele><time>2016-6-18T17:10:5Z</time></trkpt>
<trkpt lat="46.20354147" lon="6.09225967"><ele></ele><time>2016-6-18T17:10:8Z</time></trkpt>
<trkpt lat="46.20350417" lon="6.09226478"><ele></ele><time>2016-6-18T17:10:11Z</time></trkpt>
<trkpt lat="46.20345924" lon="6.09226034"><ele></ele><time>2016-6-18T17:10:14Z</time></trkpt>
<trkpt lat="46.20342362" lon="6.09225154"><ele></ele><time>2016-6-18T17:10:17Z</time></trkpt>
<trkpt lat="46.20338682" lon="6.09223997"><ele></ele><time>2016-6-18T17:10:20Z</time></trkpt>
<trkpt lat="46.20334734" lon="6.09223234"><ele></ele><time>2016-6-18T17:10:23Z</time></trkpt>
<trkpt lat="46.20331004" lon="6.09222095"><ele></ele><time>2016-6-18T17:10:26Z</time></trkpt>
<trkpt lat="46.20326537" lon="6.09220033"><ele></ele><time>2016-6-18T17:10:29Z</time></trkpt>
<trkpt lat="46.20322312" lon="6.09217535"><ele></ele><time>2016-6-18T17:10:32Z</time></trkpt>
<trkpt lat="46.20319462" lon="6.09215599"><ele></ele><time>2016-6-18T17:10:35Z</time></trkpt>
<trkpt lat="46.20315623" lon="6.09213738"><ele></ele><time>2016-6-18T17:10:38Z</time></trkpt>
<trkpt lat="46.20312086" lon="6.09211827"><ele></ele><time>2016-6-18T17:10:41Z</time></trkpt>
<trkpt lat="46.20309236" lon="6.09209790"><ele></ele><time>2016-6-18T17:10:44Z</time></trkpt>
<trkpt lat="46.20306144" lon="6.09207845"><ele></ele><time>2016-6-18T17:10:47Z</time></trkpt>
<trkpt lat="46.20302447" lon="6.09205524"><ele></ele><time>2016-6-18T17:10:50Z</time></trkpt>
<trkpt lat="46.20298826" lon="6.09203068"><ele></ele><time>2016-6-18T17:10:53Z</time></trkpt>
<trkpt lat="46.20295306" lon="6.09200042"><ele></ele><time>2016-6-18T17:10:56Z</time></trkpt>
<trkpt lat="46.20291308" lon="6.09197125"><ele></ele><time>2016-6-18T17:10:59Z</time></trkpt>
<trkpt lat="46.20287678" lon="6.09193848"><ele></ele><time>2016-6-18T17:11:2Z</time></trkpt>
<trkpt lat="46.20284954" lon="6.09191693"><ele></ele><time>2016-6-18T17:11:5Z</time></trkpt>
<trkpt lat="46.20282247" lon="6.09189615"><ele></ele><time>2016-6-18T17:11:8Z</time></trkpt>
<trkpt lat="46.20279816" lon="6.09186606"><ele></ele><time>2016-6-18T17:11:11Z</time></trkpt>
<trkpt lat="46.20278039" lon="6.09183219"><ele></ele><time>2016-6-18T17:11:14Z</time></trkpt>
<trkpt lat="46.20277184" lon="6.09181208"><ele></ele><time>2016-6-18T17:11:17Z</time></trkpt>
<trkpt lat="46.20276522" lon="6.09181048"><ele></ele><time>2016-6-18T17:11:20Z</time></trkpt>
<trkpt lat="46.20275734" lon="6.09181669"><ele></ele><time>2016-6-18T17:11:23Z</time></trkpt>
<trkpt lat="46.20274728" lon="6.09182783"><ele></ele><time>2016-6-18T17:11:26Z</time></trkpt>
<trkpt lat="46.20274846" lon="6.09184929"><ele></ele><time>2016-6-18T17:11:29Z</time></trkpt>
<trkpt lat="46.20276120" lon="6.09186647"><ele></ele><time>2016-6-18T17:11:32Z</time></trkpt>
<trkpt lat="46.20277955" lon="6.09188559"><ele></ele><time>2016-6-18T17:11:35Z</time></trkpt>
<trkpt lat="46.20279640" lon="6.09190344"><ele></ele><time>2016-6-18T17:11:38Z</time></trkpt>
<trkpt lat="46.20280864" lon="6.09192305"><ele></ele><time>2016-6-18T17:11:41Z</time></trkpt>
<trkpt lat="46.20283068" lon="6.09195423"><ele></ele><time>2016-6-18T17:11:44Z</time></trkpt>
<trkpt lat="46.20285373" lon="6.09198675"><ele></ele><time>2016-6-18T17:11:47Z</time></trkpt>
<trkpt lat="46.20289103" lon="6.09202850"><ele></ele><time>2016-6-18T17:11:50Z</time></trkpt>
<trkpt lat="46.20292087" lon="6.09206412"><ele></ele><time>2016-6-18T17:11:53Z</time></trkpt>
<trkpt lat="46.20294736" lon="6.09208885"><ele></ele><time>2016-6-18T17:11:56Z</time></trkpt>
<trkpt lat="46.20297275" lon="6.09210905"><ele></ele><time>2016-6-18T17:11:59Z</time></trkpt>
<trkpt lat="46.20298759" lon="6.09212673"><ele></ele><time>2016-6-18T17:12:2Z</time></trkpt>
<trkpt lat="46.20300553" lon="6.09214249"><ele></ele><time>2016-6-18T17:12:5Z</time></trkpt>
<trkpt lat="46.20303352" lon="6.09216018"><ele></ele><time>2016-6-18T17:12:8Z</time></trkpt>
<trkpt lat="46.20308097" lon="6.09218985"><ele></ele><time>2016-6-18T17:12:11Z</time></trkpt>
<trkpt lat="46.20312623" lon="6.09221659"><ele></ele><time>2016-6-18T17:12:14Z</time></trkpt>
<trkpt lat="46.20316705" lon="6.09224073"><ele></ele><time>2016-6-18T17:12:17Z</time></trkpt>
<trkpt lat="46.20320032" lon="6.09226529"><ele></ele><time>2016-6-18T17:12:20Z</time></trkpt>
<trkpt lat="46.20324567" lon="6.09229437"><ele></ele><time>2016-6-18T17:12:23Z</time></trkpt>
<trkpt lat="46.20327643" lon="6.09231424"><ele></ele><time>2016-6-18T17:12:26Z</time></trkpt>
<trkpt lat="46.20330124" lon="6.09232262"><ele></ele><time>2016-6-18T17:12:29Z</time></trkpt>
<trkpt lat="46.20332220" lon="6.09232153"><ele></ele><time>2016-6-18T17:12:32Z</time></trkpt>
<trkpt lat="46.20335069" lon="6.09230929"><ele></ele><time>2016-6-18T17:12:35Z</time></trkpt>
<trkpt lat="46.20337953" lon="6.09229102"><ele></ele><time>2016-6-18T17:12:38Z</time></trkpt>
<trkpt lat="46.20341255" lon="6.09227937"><ele></ele><time>2016-6-18T17:12:41Z</time></trkpt>
<trkpt lat="46.20344658" lon="6.09227534"><ele></ele><time>2016-6-18T17:12:44Z</time></trkpt>
<trkpt lat="46.20348506" lon="6.09227744"><ele></ele><time>2016-6-18T17:12:47Z</time></trkpt>
<trkpt lat="46.20352303" lon="6.09229060"><ele></ele><time>2016-6-18T17:12:50Z</time></trkpt>
<trkpt lat="46.20355697" lon="6.09230015"><ele></ele><time>2016-6-18T17:12:53Z</time></trkpt>
<trkpt lat="46.20359696" lon="6.09230887"><ele></ele><time>2016-6-18T17:12:56Z</time></trkpt>
<trkpt lat="46.20363417" lon="6.09231616"><ele></ele><time>2016-6-18T17:12:59Z</time></trkpt>
<trkpt lat="46.20367583" lon="6.09232714"><ele></ele><time>2016-6-18T17:13:2Z</time></trkpt>
<trkpt lat="46.20371237" lon="6.09233938"><ele></ele><time>2016-6-18T17:13:5Z</time></trkpt>
<trkpt lat="46.20374624" lon="6.09235003"><ele></ele><time>2016-6-18T17:13:8Z</time></trkpt>
<trkpt lat="46.20378312" lon="6.09236302"><ele></ele><time>2016-6-18T17:13:11Z</time></trkpt>
<trkpt lat="46.20382159" lon="6.09237827"><ele></ele><time>2016-6-18T17:13:14Z</time></trkpt>
<trkpt lat="46.20386157" lon="6.09239378"><ele></ele><time>2016-6-18T17:13:17Z</time></trkpt>
<trkpt lat="46.20390189" lon="6.09241398"><ele></ele><time>2016-6-18T17:13:20Z</time></trkpt>
<trkpt lat="46.20392829" lon="6.09244122"><ele></ele><time>2016-6-18T17:13:23Z</time></trkpt>
<trkpt lat="46.20395713" lon="6.09247383"><ele></ele><time>2016-6-18T17:13:26Z</time></trkpt>
<trkpt lat="46.20398303" lon="6.09250819"><ele></ele><time>2016-6-18T17:13:29Z</time></trkpt>
<trkpt lat="46.20401932" lon="6.09254600"><ele></ele><time>2016-6-18T17:13:32Z</time></trkpt>
<trkpt lat="46.20404555" lon="6.09257994"><ele></ele><time>2016-6-18T17:13:35Z</time></trkpt>
<trkpt lat="46.20406886" lon="6.09261322"><ele></ele><time>2016-6-18T17:13:38Z</time></trkpt>
<trkpt lat="46.20410004" lon="6.09265178"><ele></ele><time>2016-6-18T17:13:41Z</time></trkpt>
<trkpt lat="46.20413960" lon="6.09269469"><ele></ele><time>2016-6-18T17:13:44Z</time></trkpt>
<trkpt lat="46.20417246" lon="6.09273836"><ele></ele><time>2016-6-18T17:13:47Z</time></trkpt>
<trkpt lat="46.20421906" lon="6.09278002"><ele></ele><time>2016-6-18T17:13:50Z</time></trkpt>
<trkpt lat="46.20425753" lon="6.09281849"><ele></ele><time>2016-6-18T17:13:53Z</time></trkpt>
<trkpt lat="46.20429592" lon="6.09285613"><ele></ele><time>2016-6-18T17:13:56Z</time></trkpt>
<trkpt lat="46.20433800" lon="6.09289527"><ele></ele><time>2016-6-18T17:13:59Z</time></trkpt>
<trkpt lat="46.20437798" lon="6.09292603"><ele></ele><time>2016-6-18T17:14:2Z</time></trkpt>
<trkpt lat="46.20440849" lon="6.09295755"><ele></ele><time>2016-6-18T17:14:5Z</time></trkpt>
<trkpt lat="46.20443976" lon="6.09298940"><ele></ele><time>2016-6-18T17:14:8Z</time></trkpt>
<trkpt lat="46.20446918" lon="6.09302670"><ele></ele><time>2016-6-18T17:14:11Z</time></trkpt>
<trkpt lat="46.20449600" lon="6.09306584"><ele></ele><time>2016-6-18T17:14:14Z</time></trkpt>
<trkpt lat="46.20452064" lon="6.09310197"><ele></ele><time>2016-6-18T17:14:17Z</time></trkpt>
<trkpt lat="46.20454822" lon="6.09313692"><ele></ele><time>2016-6-18T17:14:20Z</time></trkpt>
<trkpt lat="46.20456414" lon="6.09317766"><ele></ele><time>2016-6-18T17:14:23Z</time></trkpt>
<trkpt lat="46.20458216" lon="6.09322292"><ele></ele><time>2016-6-18T17:14:26Z</time></trkpt>
<trkpt lat="46.20459549" lon="6.09327246"><ele></ele><time>2016-6-18T17:14:29Z</time></trkpt>
<trkpt lat="46.20460932" lon="6.09331646"><ele></ele><time>2016-6-18T17:14:32Z</time></trkpt>
<trkpt lat="46.20461854" lon="6.09335896"><ele></ele><time>2016-6-18T17:14:35Z</time></trkpt>
<trkpt lat="46.20461837" lon="6.09340648"><ele></ele><time>2016-6-18T17:14:38Z</time></trkpt>
<trkpt lat="46.20461427" lon="6.09345409"><ele></ele><time>2016-6-18T17:14:41Z</time></trkpt>
<trkpt lat="46.20461418" lon="6.09349818"><ele></ele><time>2016-6-18T17:14:44Z</time></trkpt>
<trkpt lat="46.20460932" lon="6.09353263"><ele></ele><time>2016-6-18T17:14:47Z</time></trkpt>
<trkpt lat="46.20460077" lon="6.09356079"><ele></ele><time>2016-6-18T17:14:50Z</time></trkpt>
<trkpt lat="46.20459516" lon="6.09359113"><ele></ele><time>2016-6-18T17:14:53Z</time></trkpt>
<trkpt lat="46.20458124" lon="6.09361863"><ele></ele><time>2016-6-18T17:14:56Z</time></trkpt>
<trkpt lat="46.20456607" lon="6.09364637"><ele></ele><time>2016-6-18T17:14:59Z</time></trkpt>
<trkpt lat="46.20455048" lon="6.09366833"><ele></ele><time>2016-6-18T17:15:2Z</time></trkpt>
<trkpt lat="46.20453154" lon="6.09369222"><ele></ele><time>2016-6-18T17:15:5Z</time></trkpt>
<trkpt lat="46.20452140" lon="6.09371502"><ele></ele><time>2016-6-18T17:15:8Z</time></trkpt>
<trkpt lat="46.20451586" lon="6.09373815"><ele></ele><time>2016-6-18T17:15:11Z</time></trkpt>
<trkpt lat="46.20450723" lon="6.09376715"><ele></ele><time>2016-6-18T17:15:14Z</time></trkpt>
<trkpt lat="46.20450312" lon="6.09379448"><ele></ele><time>2016-6-18T17:15:17Z</time></trkpt>
<trkpt lat="46.20449449" lon="6.09382222"><ele></ele><time>2016-6-18T17:15:20Z</time></trkpt>
<trkpt lat="46.20448326" lon="6.09385265"><ele></ele><time>2016-6-18T17:15:23Z</time></trkpt>
<trkpt lat="46.20446943" lon="6.09388157"><ele></ele><time>2016-6-18T17:15:26Z</time></trkpt>
<trkpt lat="46.20445996" lon="6.09391384"><ele></ele><time>2016-6-18T17:15:29Z</time></trkpt>
<trkpt lat="46.20445518" lon="6.09395399"><ele></ele><time>2016-6-18T17:15:32Z</time></trkpt>
<trkpt lat="46.20445266" lon="6.09399774"><ele></ele><time>2016-6-18T17:15:35Z</time></trkpt>
<trkpt lat="46.20445065" lon="6.09403856"><ele></ele><time>2016-6-18T17:15:38Z</time></trkpt>
<trkpt lat="46.20445132" lon="6.09408106"><ele></ele><time>2016-6-18T17:15:41Z</time></trkpt>
<trkpt lat="46.20445484" lon="6.09412339"><ele></ele><time>2016-6-18T17:15:44Z</time></trkpt>
<trkpt lat="46.20445895" lon="6.09416773"><ele></ele><time>2016-6-18T17:15:47Z</time></trkpt>
<trkpt lat="46.20445887" lon="6.09421710"><ele></ele><time>2016-6-18T17:15:50Z</time></trkpt>
<trkpt lat="46.20445828" lon="6.09426579"><ele></ele><time>2016-6-18T17:15:53Z</time></trkpt>
<trkpt lat="46.20445778" lon="6.09431189"><ele></ele><time>2016-6-18T17:15:56Z</time></trkpt>
<trkpt lat="46.20445526" lon="6.09435724"><ele></ele><time>2016-6-18T17:15:59Z</time></trkpt>
<trkpt lat="46.20445359" lon="6.09439605"><ele></ele><time>2016-6-18T17:16:2Z</time></trkpt>
<trkpt lat="46.20444856" lon="6.09443394"><ele></ele><time>2016-6-18T17:16:5Z</time></trkpt>
<trkpt lat="46.20444512" lon="6.09447258"><ele></ele><time>2016-6-18T17:16:8Z</time></trkpt>
<trkpt lat="46.20444587" lon="6.09451365"><ele></ele><time>2016-6-18T17:16:11Z</time></trkpt>
<trkpt lat="46.20444554" lon="6.09455497"><ele></ele><time>2016-6-18T17:16:14Z</time></trkpt>
<trkpt lat="46.20444638" lon="6.09458799"><ele></ele><time>2016-6-18T17:16:17Z</time></trkpt>
<trkpt lat="46.20443917" lon="6.09461884"><ele></ele><time>2016-6-18T17:16:20Z</time></trkpt>
<trkpt lat="46.20442106" lon="6.09465958"><ele></ele><time>2016-6-18T17:16:23Z</time></trkpt>
<trkpt lat="46.20441142" lon="6.09470174"><ele></ele><time>2016-6-18T17:16:26Z</time></trkpt>
<trkpt lat="46.20441427" lon="6.09474507"><ele></ele><time>2016-6-18T17:16:29Z</time></trkpt>
<trkpt lat="46.20442484" lon="6.09479059"><ele></ele><time>2016-6-18T17:16:32Z</time></trkpt>
<trkpt lat="46.20444177" lon="6.09483576"><ele></ele><time>2016-6-18T17:16:35Z</time></trkpt>
<trkpt lat="46.20445937" lon="6.09488086"><ele></ele><time>2016-6-18T17:16:38Z</time></trkpt>
<trkpt lat="46.20447705" lon="6.09492713"><ele></ele><time>2016-6-18T17:16:41Z</time></trkpt>
<trkpt lat="46.20449415" lon="6.09497306"><ele></ele><time>2016-6-18T17:16:44Z</time></trkpt>
<trkpt lat="46.20451285" lon="6.09501748"><ele></ele><time>2016-6-18T17:16:47Z</time></trkpt>
<trkpt lat="46.20453145" lon="6.09506275"><ele></ele><time>2016-6-18T17:16:50Z</time></trkpt>
<trkpt lat="46.20454947" lon="6.09510859"><ele></ele><time>2016-6-18T17:16:53Z</time></trkpt>
<trkpt lat="46.20456917" lon="6.09515520"><ele></ele><time>2016-6-18T17:16:56Z</time></trkpt>
<trkpt lat="46.20459138" lon="6.09520088"><ele></ele><time>2016-6-18T17:16:59Z</time></trkpt>
<trkpt lat="46.20461309" lon="6.09524723"><ele></ele><time>2016-6-18T17:17:2Z</time></trkpt>
<trkpt lat="46.20463137" lon="6.09529568"><ele></ele><time>2016-6-18T17:17:5Z</time></trkpt>
<trkpt lat="46.20464830" lon="6.09534295"><ele></ele><time>2016-6-18T17:17:8Z</time></trkpt>
<trkpt lat="46.20466540" lon="6.09538713"><ele></ele><time>2016-6-18T17:17:11Z</time></trkpt>
<trkpt lat="46.20468409" lon="6.09542803"><ele></ele><time>2016-6-18T17:17:14Z</time></trkpt>
<trkpt lat="46.20470529" lon="6.09546583"><ele></ele><time>2016-6-18T17:17:17Z</time></trkpt>
<trkpt lat="46.20472675" lon="6.09549928"><ele></ele><time>2016-6-18T17:17:20Z</time></trkpt>
<trkpt lat="46.20474217" lon="6.09552434"><ele></ele><time>2016-6-18T17:17:23Z</time></trkpt>
<trkpt lat="46.20475877" lon="6.09554227"><ele></ele><time>2016-6-18T17:17:26Z</time></trkpt>
<trkpt lat="46.20477453" lon="6.09555426"><ele></ele><time>2016-6-18T17:17:29Z</time></trkpt>
<trkpt lat="46.20478945" lon="6.09556474"><ele></ele><time>2016-6-18T17:17:32Z</time></trkpt>
<trkpt lat="46.20480068" lon="6.09557790"><ele></ele><time>2016-6-18T17:17:35Z</time></trkpt>
<trkpt lat="46.20481359" lon="6.09559667"><ele></ele><time>2016-6-18T17:17:38Z</time></trkpt>
<trkpt lat="46.20482365" lon="6.09562366"><ele></ele><time>2016-6-18T17:17:41Z</time></trkpt>
<trkpt lat="46.20482457" lon="6.09565585"><ele></ele><time>2016-6-18T17:17:44Z</time></trkpt>
<trkpt lat="46.20481828" lon="6.09568619"><ele></ele><time>2016-6-18T17:17:47Z</time></trkpt>
<trkpt lat="46.20479490" lon="6.09571544"><ele></ele><time>2016-6-18T17:17:50Z</time></trkpt>
<trkpt lat="46.20476866" lon="6.09574704"><ele></ele><time>2016-6-18T17:17:53Z</time></trkpt>
<trkpt lat="46.20474578" lon="6.09578443"><ele></ele><time>2016-6-18T17:17:56Z</time></trkpt>
<trkpt lat="46.20472013" lon="6.09582508"><ele></ele><time>2016-6-18T17:17:59Z</time></trkpt>
<trkpt lat="46.20469130" lon="6.09586556"><ele></ele><time>2016-6-18T17:18:2Z</time></trkpt>
<trkpt lat="46.20466414" lon="6.09590689"><ele></ele><time>2016-6-18T17:18:5Z</time></trkpt>
<trkpt lat="46.20463782" lon="6.09594838"><ele></ele><time>2016-6-18T17:18:8Z</time></trkpt>
<trkpt lat="46.20461318" lon="6.09599054"><ele></ele><time>2016-6-18T17:18:11Z</time></trkpt>
<trkpt lat="46.20458644" lon="6.09603463"><ele></ele><time>2016-6-18T17:18:14Z</time></trkpt>
<trkpt lat="46.20456322" lon="6.09607872"><ele></ele><time>2016-6-18T17:18:17Z</time></trkpt>
<trkpt lat="46.20454579" lon="6.09611954"><ele></ele><time>2016-6-18T17:18:20Z</time></trkpt>
<trkpt lat="46.20452374" lon="6.09615876"><ele></ele><time>2016-6-18T17:18:23Z</time></trkpt>
<trkpt lat="46.20450187" lon="6.09620092"><ele></ele><time>2016-6-18T17:18:26Z</time></trkpt>
<trkpt lat="46.20447890" lon="6.09624803"><ele></ele><time>2016-6-18T17:18:29Z</time></trkpt>
<trkpt lat="46.20445635" lon="6.09629639"><ele></ele><time>2016-6-18T17:18:32Z</time></trkpt>
<trkpt lat="46.20442148" lon="6.09634149"><ele></ele><time>2016-6-18T17:18:35Z</time></trkpt>
<trkpt lat="46.20439642" lon="6.09638239"><ele></ele><time>2016-6-18T17:18:38Z</time></trkpt>
<trkpt lat="46.20436792" lon="6.09641944"><ele></ele><time>2016-6-18T17:18:41Z</time></trkpt>
<trkpt lat="46.20434336" lon="6.09645993"><ele></ele><time>2016-6-18T17:18:44Z</time></trkpt>
<trkpt lat="46.20433087" lon="6.09650670"><ele></ele><time>2016-6-18T17:18:47Z</time></trkpt>
<trkpt lat="46.20432853" lon="6.09655498"><ele></ele><time>2016-6-18T17:18:50Z</time></trkpt>
<trkpt lat="46.20433867" lon="6.09659982"><ele></ele><time>2016-6-18T17:18:53Z</time></trkpt>
<trkpt lat="46.20435476" lon="6.09664164"><ele></ele><time>2016-6-18T17:18:56Z</time></trkpt>
<trkpt lat="46.20437446" lon="6.09667509"><ele></ele><time>2016-6-18T17:18:59Z</time></trkpt>
<trkpt lat="46.20439625" lon="6.09669898"><ele></ele><time>2016-6-18T17:19:2Z</time></trkpt>
<trkpt lat="46.20441838" lon="6.09672706"><ele></ele><time>2016-6-18T17:19:5Z</time></trkpt>
<trkpt lat="46.20443800" lon="6.09676570"><ele></ele><time>2016-6-18T17:19:8Z</time></trkpt>
<trkpt lat="46.20446473" lon="6.09680216"><ele></ele><time>2016-6-18T17:19:11Z</time></trkpt>
<trkpt lat="46.20449692" lon="6.09683032"><ele></ele><time>2016-6-18T17:19:14Z</time></trkpt>
<trkpt lat="46.20453673" lon="6.09685253"><ele></ele><time>2016-6-18T17:19:17Z</time></trkpt>
<trkpt lat="46.20458032" lon="6.09687005"><ele></ele><time>2016-6-18T17:19:20Z</time></trkpt>
<trkpt lat="46.20462776" lon="6.09688019"><ele></ele><time>2016-6-18T17:19:23Z</time></trkpt>
<trkpt lat="46.20468317" lon="6.09688589"><ele></ele><time>2016-6-18T17:19:26Z</time></trkpt>
<trkpt lat="46.20473203" lon="6.09687692"><ele></ele><time>2016-6-18T17:19:29Z</time></trkpt>
<trkpt lat="46.20478056" lon="6.09686100"><ele></ele><time>2016-6-18T17:19:32Z</time></trkpt>
<trkpt lat="46.20482792" lon="6.09684222"><ele></ele><time>2016-6-18T17:19:35Z</time></trkpt>
<trkpt lat="46.20487344" lon="6.09682244"><ele></ele><time>2016-6-18T17:19:38Z</time></trkpt>
<trkpt lat="46.20491979" lon="6.09680073"><ele></ele><time>2016-6-18T17:19:41Z</time></trkpt>
<trkpt lat="46.20496538" lon="6.09677819"><ele></ele><time>2016-6-18T17:19:44Z</time></trkpt>
<trkpt lat="46.20501685" lon="6.09675933"><ele></ele><time>2016-6-18T17:19:47Z</time></trkpt>
<trkpt lat="46.20507058" lon="6.09674105"><ele></ele><time>2016-6-18T17:19:50Z</time></trkpt>
<trkpt lat="46.20512255" lon="6.09671876"><ele></ele><time>2016-6-18T17:19:53Z</time></trkpt>
<trkpt lat="46.20517837" lon="6.09669889"><ele></ele><time>2016-6-18T17:19:56Z</time></trkpt>
<trkpt lat="46.20522237" lon="6.09668288"><ele></ele><time>2016-6-18T17:19:59Z</time></trkpt>
<trkpt lat="46.20525565" lon="6.09666696"><ele></ele><time>2016-6-18T17:20:2Z</time></trkpt>
<trkpt lat="46.20530033" lon="6.09674449"><ele></ele><time>2016-6-18T17:20:5Z</time></trkpt>
<trkpt lat="46.20535925" lon="6.09680149"><ele></ele><time>2016-6-18T17:20:8Z</time></trkpt>
<trkpt lat="46.20538004" lon="6.09678657"><ele></ele><time>2016-6-18T17:20:11Z</time></trkpt>
<trkpt lat="46.20550652" lon="6.09682462"><ele></ele><time>2016-6-18T17:20:14Z</time></trkpt>
<trkpt lat="46.20557978" lon="6.09681314"><ele></ele><time>2016-6-18T17:20:17Z</time></trkpt>
<trkpt lat="46.20564105" lon="6.09680073"><ele></ele><time>2016-6-18T17:20:20Z</time></trkpt>
<trkpt lat="46.20571540" lon="6.09679277"><ele></ele><time>2016-6-18T17:20:23Z</time></trkpt>
<trkpt lat="46.20577030" lon="6.09677433"><ele></ele><time>2016-6-18T17:20:26Z</time></trkpt>
<trkpt lat="46.20581388" lon="6.09674885"><ele></ele><time>2016-6-18T17:20:29Z</time></trkpt>
<trkpt lat="46.20585806" lon="6.09671499"><ele></ele><time>2016-6-18T17:20:32Z</time></trkpt>
<trkpt lat="46.20589930" lon="6.09668800"><ele></ele><time>2016-6-18T17:20:35Z</time></trkpt>
<trkpt lat="46.20594280" lon="6.09666889"><ele></ele><time>2016-6-18T17:20:38Z</time></trkpt>
<trkpt lat="46.20599686" lon="6.09665489"><ele></ele><time>2016-6-18T17:20:41Z</time></trkpt>
<trkpt lat="46.20604699" lon="6.09664843"><ele></ele><time>2016-6-18T17:20:44Z</time></trkpt>
<trkpt lat="46.20609384" lon="6.09665019"><ele></ele><time>2016-6-18T17:20:47Z</time></trkpt>
<trkpt lat="46.20612812" lon="6.09669177"><ele></ele><time>2016-6-18T17:20:50Z</time></trkpt>
<trkpt lat="46.20616710" lon="6.09670384"><ele></ele><time>2016-6-18T17:20:53Z</time></trkpt>
<trkpt lat="46.20618864" lon="6.09672069"><ele></ele><time>2016-6-18T17:20:56Z</time></trkpt>
<trkpt lat="46.20621487" lon="6.09673007"><ele></ele><time>2016-6-18T17:20:59Z</time></trkpt>
<trkpt lat="46.20622477" lon="6.09670987"><ele></ele><time>2016-6-18T17:21:2Z</time></trkpt>
<trkpt lat="46.20624186" lon="6.09669940"><ele></ele><time>2016-6-18T17:21:5Z</time></trkpt>
<trkpt lat="46.20624614" lon="6.09664198"><ele></ele><time>2016-6-18T17:21:8Z</time></trkpt>
<trkpt lat="46.20627129" lon="6.09662949"><ele></ele><time>2016-6-18T17:21:11Z</time></trkpt>
<trkpt lat="46.20629936" lon="6.09664760"><ele></ele><time>2016-6-18T17:21:14Z</time></trkpt>
<trkpt lat="46.20630607" lon="6.09662949"><ele></ele><time>2016-6-18T17:21:17Z</time></trkpt>
<trkpt lat="46.20631998" lon="6.09663226"><ele></ele><time>2016-6-18T17:21:20Z</time></trkpt>
<trkpt lat="46.20632526" lon="6.09663025"><ele></ele><time>2016-6-18T17:21:23Z</time></trkpt>
<trkpt lat="46.20633096" lon="6.09664148"><ele></ele><time>2016-6-18T17:21:26Z</time></trkpt>
<trkpt lat="46.20633549" lon="6.09666654"><ele></ele><time>2016-6-18T17:21:29Z</time></trkpt>
<trkpt lat="46.20633574" lon="6.09668515"><ele></ele><time>2016-6-18T17:21:32Z</time></trkpt>
<trkpt lat="46.20634052" lon="6.09671339"><ele></ele><time>2016-6-18T17:21:35Z</time></trkpt>
<trkpt lat="46.20634270" lon="6.09674416"><ele></ele><time>2016-6-18T17:21:38Z</time></trkpt>
<trkpt lat="46.20634085" lon="6.09675807"><ele></ele><time>2016-6-18T17:21:41Z</time></trkpt>
<trkpt lat="46.20634287" lon="6.09676637"><ele></ele><time>2016-6-18T17:21:44Z</time></trkpt>
<trkpt lat="46.20634077" lon="6.09677835"><ele></ele><time>2016-6-18T17:21:47Z</time></trkpt>
<trkpt lat="46.20634748" lon="6.09679143"><ele></ele><time>2016-6-18T17:21:50Z</time></trkpt>
<trkpt lat="46.20635745" lon="6.09681180"><ele></ele><time>2016-6-18T17:21:53Z</time></trkpt>
<trkpt lat="46.20636843" lon="6.09683258"><ele></ele><time>2016-6-18T17:21:56Z</time></trkpt>
<trkpt lat="46.20637623" lon="6.09685346"><ele></ele><time>2016-6-18T17:21:59Z</time></trkpt>
<trkpt lat="46.20638142" lon="6.09686620"><ele></ele><time>2016-6-18T17:22:2Z</time></trkpt>
<trkpt lat="46.20639534" lon="6.09687525"><ele></ele><time>2016-6-18T17:22:5Z</time></trkpt>
<trkpt lat="46.20641654" lon="6.09689436"><ele></ele><time>2016-6-18T17:22:8Z</time></trkpt>
<trkpt lat="46.20644043" lon="6.09691682"><ele></ele><time>2016-6-18T17:22:11Z</time></trkpt>
<trkpt lat="46.20646189" lon="6.09695915"><ele></ele><time>2016-6-18T17:22:14Z</time></trkpt>
<trkpt lat="46.20648444" lon="6.09700450"><ele></ele><time>2016-6-18T17:22:17Z</time></trkpt>
<trkpt lat="46.20650355" lon="6.09705529"><ele></ele><time>2016-6-18T17:22:20Z</time></trkpt>
<trkpt lat="46.20651486" lon="6.09710994"><ele></ele><time>2016-6-18T17:22:23Z</time></trkpt>
<trkpt lat="46.20652073" lon="6.09716535"><ele></ele><time>2016-6-18T17:22:26Z</time></trkpt>
<trkpt lat="46.20652593" lon="6.09721782"><ele></ele><time>2016-6-18T17:22:29Z</time></trkpt>
<trkpt lat="46.20653506" lon="6.09726484"><ele></ele><time>2016-6-18T17:22:32Z</time></trkpt>
<trkpt lat="46.20655434" lon="6.09730214"><ele></ele><time>2016-6-18T17:22:35Z</time></trkpt>
<trkpt lat="46.20657915" lon="6.09731639"><ele></ele><time>2016-6-18T17:22:38Z</time></trkpt>
<trkpt lat="46.20660547" lon="6.09731077"><ele></ele><time>2016-6-18T17:22:41Z</time></trkpt>
<trkpt lat="46.20663389" lon="6.09729677"><ele></ele><time>2016-6-18T17:22:44Z</time></trkpt>
<trkpt lat="46.20666465" lon="6.09728035"><ele></ele><time>2016-6-18T17:22:47Z</time></trkpt>
<trkpt lat="46.20670019" lon="6.09726769"><ele></ele><time>2016-6-18T17:22:50Z</time></trkpt>
<trkpt lat="46.20673724" lon="6.09726995"><ele></ele><time>2016-6-18T17:22:53Z</time></trkpt>
<trkpt lat="46.20677110" lon="6.09729283"><ele></ele><time>2016-6-18T17:22:56Z</time></trkpt>
<trkpt lat="46.20679976" lon="6.09733156"><ele></ele><time>2016-6-18T17:22:59Z</time></trkpt>
<trkpt lat="46.20682156" lon="6.09738227"><ele></ele><time>2016-6-18T17:23:2Z</time></trkpt>
<trkpt lat="46.20683564" lon="6.09742653"><ele></ele><time>2016-6-18T17:23:5Z</time></trkpt>
<trkpt lat="46.20685156" lon="6.09746123"><ele></ele><time>2016-6-18T17:23:8Z</time></trkpt>
<trkpt lat="46.20685584" lon="6.09748034"><ele></ele><time>2016-6-18T17:23:11Z</time></trkpt>
<trkpt lat="46.20685944" lon="6.09749232"><ele></ele><time>2016-6-18T17:23:14Z</time></trkpt>
<trkpt lat="46.20686037" lon="6.09748813"><ele></ele><time>2016-6-18T17:23:17Z</time></trkpt>
<trkpt lat="46.20685643" lon="6.09749475"><ele></ele><time>2016-6-18T17:23:20Z</time></trkpt>
<trkpt lat="46.20685140" lon="6.09750364"><ele></ele><time>2016-6-18T17:23:23Z</time></trkpt>
<trkpt lat="46.20685785" lon="6.09751286"><ele></ele><time>2016-6-18T17:23:26Z</time></trkpt>
<trkpt lat="46.20686565" lon="6.09752216"><ele></ele><time>2016-6-18T17:23:29Z</time></trkpt>
<trkpt lat="46.20687394" lon="6.09752879"><ele></ele><time>2016-6-18T17:23:32Z</time></trkpt>
<trkpt lat="46.20687495" lon="6.09754245"><ele></ele><time>2016-6-18T17:23:35Z</time></trkpt>
<trkpt lat="46.20687503" lon="6.09754848"><ele></ele><time>2016-6-18T17:23:38Z</time></trkpt>
<trkpt lat="46.20687788" lon="6.09755603"><ele></ele><time>2016-6-18T17:23:41Z</time></trkpt>
<trkpt lat="46.20689029" lon="6.09756994"><ele></ele><time>2016-6-18T17:23:44Z</time></trkpt>
<trkpt lat="46.20689968" lon="6.09757287"><ele></ele><time>2016-6-18T17:23:47Z</time></trkpt>
<trkpt lat="46.20690806" lon="6.09757329"><ele></ele><time>2016-6-18T17:23:50Z</time></trkpt>
<trkpt lat="46.20691686" lon="6.09757036"><ele></ele><time>2016-6-18T17:23:53Z</time></trkpt>
<trkpt lat="46.20692734" lon="6.09756449"><ele></ele><time>2016-6-18T17:23:56Z</time></trkpt>
<trkpt lat="46.20694008" lon="6.09756240"><ele></ele><time>2016-6-18T17:23:59Z</time></trkpt>
<trkpt lat="46.20695408" lon="6.09755636"><ele></ele><time>2016-6-18T17:24:2Z</time></trkpt>
<trkpt lat="46.20697034" lon="6.09755209"><ele></ele><time>2016-6-18T17:24:5Z</time></trkpt>
<trkpt lat="46.20698584" lon="6.09754899"><ele></ele><time>2016-6-18T17:24:8Z</time></trkpt>
<trkpt lat="46.20700353" lon="6.09754295"><ele></ele><time>2016-6-18T17:24:11Z</time></trkpt>
<trkpt lat="46.20702004" lon="6.09753298"><ele></ele><time>2016-6-18T17:24:14Z</time></trkpt>
<trkpt lat="46.20703588" lon="6.09752317"><ele></ele><time>2016-6-18T17:24:17Z</time></trkpt>
<trkpt lat="46.20705172" lon="6.09751303"><ele></ele><time>2016-6-18T17:24:20Z</time></trkpt>
<trkpt lat="46.20707134" lon="6.09750624"><ele></ele><time>2016-6-18T17:24:23Z</time></trkpt>
<trkpt lat="46.20708416" lon="6.09749593"><ele></ele><time>2016-6-18T17:24:26Z</time></trkpt>
<trkpt lat="46.20708852" lon="6.09748486"><ele></ele><time>2016-6-18T17:24:29Z</time></trkpt>
<trkpt lat="46.20709933" lon="6.09747724"><ele></ele><time>2016-6-18T17:24:32Z</time></trkpt>
<trkpt lat="46.20710813" lon="6.09747623"><ele></ele><time>2016-6-18T17:24:35Z</time></trkpt>
<trkpt lat="46.20712155" lon="6.09747757"><ele></ele><time>2016-6-18T17:24:38Z</time></trkpt>
<trkpt lat="46.20713286" lon="6.09747598"><ele></ele><time>2016-6-18T17:24:41Z</time></trkpt>
<trkpt lat="46.20714200" lon="6.09747464"><ele></ele><time>2016-6-18T17:24:44Z</time></trkpt>
<trkpt lat="46.20714485" lon="6.09747078"><ele></ele><time>2016-6-18T17:24:47Z</time></trkpt>
<trkpt lat="46.20714753" lon="6.09746835"><ele></ele><time>2016-6-18T17:24:50Z</time></trkpt>
<trkpt lat="46.20714703" lon="6.09746802"><ele></ele><time>2016-6-18T17:24:53Z</time></trkpt>
<trkpt lat="46.20715004" lon="6.09746802"><ele></ele><time>2016-6-18T17:24:56Z</time></trkpt>
<trkpt lat="46.20714703" lon="6.09747372"><ele></ele><time>2016-6-18T17:24:59Z</time></trkpt>
<trkpt lat="46.20714778" lon="6.09747849"><ele></ele><time>2016-6-18T17:25:2Z</time></trkpt>
<trkpt lat="46.20714703" lon="6.09748285"><ele></ele><time>2016-6-18T17:25:5Z</time></trkpt>
<trkpt lat="46.20714753" lon="6.09748746"><ele></ele><time>2016-6-18T17:25:8Z</time></trkpt>
<trkpt lat="46.20714443" lon="6.09749333"><ele></ele><time>2016-6-18T17:25:11Z</time></trkpt>
<trkpt lat="46.20714476" lon="6.09749828"><ele></ele><time>2016-6-18T17:25:14Z</time></trkpt>
<trkpt lat="46.20714468" lon="6.09750297"><ele></ele><time>2016-6-18T17:25:17Z</time></trkpt>
<trkpt lat="46.20714527" lon="6.09750716"><ele></ele><time>2016-6-18T17:25:20Z</time></trkpt>
<trkpt lat="46.20714728" lon="6.09751043"><ele></ele><time>2016-6-18T17:25:23Z</time></trkpt>
<trkpt lat="46.20715113" lon="6.09751320"><ele></ele><time>2016-6-18T17:25:26Z</time></trkpt>
<trkpt lat="46.20715558" lon="6.09751554"><ele></ele><time>2016-6-18T17:25:29Z</time></trkpt>
<trkpt lat="46.20716295" lon="6.09751504"><ele></ele><time>2016-6-18T17:25:32Z</time></trkpt>
<trkpt lat="46.20717729" lon="6.09752426"><ele></ele><time>2016-6-18T17:25:35Z</time></trkpt>
<trkpt lat="46.20719137" lon="6.09753088"><ele></ele><time>2016-6-18T17:25:38Z</time></trkpt>
<trkpt lat="46.20720645" lon="6.09752845"><ele></ele><time>2016-6-18T17:25:41Z</time></trkpt>
<trkpt lat="46.20722473" lon="6.09752946"><ele></ele><time>2016-6-18T17:25:44Z</time></trkpt>
<trkpt lat="46.20725063" lon="6.09753214"><ele></ele><time>2016-6-18T17:25:47Z</time></trkpt>
<trkpt lat="46.20728265" lon="6.09753842"><ele></ele><time>2016-6-18T17:25:50Z</time></trkpt>
<trkpt lat="46.20731265" lon="6.09753683"><ele></ele><time>2016-6-18T17:25:53Z</time></trkpt>
<trkpt lat="46.20734878" lon="6.09755117"><ele></ele><time>2016-6-18T17:25:56Z</time></trkpt>
<trkpt lat="46.20740779" lon="6.09754966"><ele></ele><time>2016-6-18T17:25:59Z</time></trkpt>
<trkpt lat="46.20745263" lon="6.09754714"><ele></ele><time>2016-6-18T17:26:2Z</time></trkpt>
<trkpt lat="46.20751667" lon="6.09754396"><ele></ele><time>2016-6-18T17:26:5Z</time></trkpt>
<trkpt lat="46.20758775" lon="6.09754530"><ele></ele><time>2016-6-18T17:26:8Z</time></trkpt>
<trkpt lat="46.20766578" lon="6.09755804"><ele></ele><time>2016-6-18T17:26:11Z</time></trkpt>
<trkpt lat="46.20773502" lon="6.09757086"><ele></ele><time>2016-6-18T17:26:14Z</time></trkpt>
<trkpt lat="46.20780065" lon="6.09759366"><ele></ele><time>2016-6-18T17:26:17Z</time></trkpt>
<trkpt lat="46.20786519" lon="6.09762342"><ele></ele><time>2016-6-18T17:26:20Z</time></trkpt>
<trkpt lat="46.20793107" lon="6.09765368"><ele></ele><time>2016-6-18T17:26:23Z</time></trkpt>
<trkpt lat="46.20798237" lon="6.09768402"><ele></ele><time>2016-6-18T17:26:26Z</time></trkpt>
<trkpt lat="46.20802905" lon="6.09772207"><ele></ele><time>2016-6-18T17:26:29Z</time></trkpt>
<trkpt lat="46.20807658" lon="6.09776876"><ele></ele><time>2016-6-18T17:26:32Z</time></trkpt>
<trkpt lat="46.20812654" lon="6.09782777"><ele></ele><time>2016-6-18T17:26:35Z</time></trkpt>
<trkpt lat="46.20817188" lon="6.09789298"><ele></ele><time>2016-6-18T17:26:38Z</time></trkpt>
<trkpt lat="46.20821438" lon="6.09796582"><ele></ele><time>2016-6-18T17:26:41Z</time></trkpt>
<trkpt lat="46.20824950" lon="6.09803958"><ele></ele><time>2016-6-18T17:26:44Z</time></trkpt>
<trkpt lat="46.20828579" lon="6.09811703"><ele></ele><time>2016-6-18T17:26:47Z</time></trkpt>
<trkpt lat="46.20830054" lon="6.09816539"><ele></ele><time>2016-6-18T17:26:50Z</time></trkpt>
<trkpt lat="46.20833474" lon="6.09824762"><ele></ele><time>2016-6-18T17:26:53Z</time></trkpt>
<trkpt lat="46.20837389" lon="6.09834007"><ele></ele><time>2016-6-18T17:26:56Z</time></trkpt>
<trkpt lat="46.20841864" lon="6.09843696"><ele></ele><time>2016-6-18T17:26:59Z</time></trkpt>
<trkpt lat="46.20845159" lon="6.09853537"><ele></ele><time>2016-6-18T17:27:2Z</time></trkpt>
<trkpt lat="46.20848235" lon="6.09861944"><ele></ele><time>2016-6-18T17:27:5Z</time></trkpt>
<trkpt lat="46.20851537" lon="6.09870133"><ele></ele><time>2016-6-18T17:27:8Z</time></trkpt>
<trkpt lat="46.20854580" lon="6.09876637"><ele></ele><time>2016-6-18T17:27:11Z</time></trkpt>
<trkpt lat="46.20857899" lon="6.09884298"><ele></ele><time>2016-6-18T17:27:14Z</time></trkpt>
<trkpt lat="46.20862258" lon="6.09891909"><ele></ele><time>2016-6-18T17:27:17Z</time></trkpt>
<trkpt lat="46.20865627" lon="6.09900174"><ele></ele><time>2016-6-18T17:27:20Z</time></trkpt>
<trkpt lat="46.20868913" lon="6.09908639"><ele></ele><time>2016-6-18T17:27:23Z</time></trkpt>
<trkpt lat="46.20872048" lon="6.09917030"><ele></ele><time>2016-6-18T17:27:26Z</time></trkpt>
<trkpt lat="46.20874956" lon="6.09925370"><ele></ele><time>2016-6-18T17:27:29Z</time></trkpt>
<trkpt lat="46.20877362" lon="6.09935202"><ele></ele><time>2016-6-18T17:27:32Z</time></trkpt>
<trkpt lat="46.20880094" lon="6.09943517"><ele></ele><time>2016-6-18T17:27:35Z</time></trkpt>
<trkpt lat="46.20882944" lon="6.09951454"><ele></ele><time>2016-6-18T17:27:38Z</time></trkpt>
<trkpt lat="46.20885744" lon="6.09959283"><ele></ele><time>2016-6-18T17:27:41Z</time></trkpt>
<trkpt lat="46.20888652" lon="6.09967053"><ele></ele><time>2016-6-18T17:27:44Z</time></trkpt>
<trkpt lat="46.20891410" lon="6.09974295"><ele></ele><time>2016-6-18T17:27:47Z</time></trkpt>
<trkpt lat="46.20893723" lon="6.09981813"><ele></ele><time>2016-6-18T17:27:50Z</time></trkpt>
<trkpt lat="46.20896162" lon="6.09988930"><ele></ele><time>2016-6-18T17:27:53Z</time></trkpt>
<trkpt lat="46.20898752" lon="6.09995669"><ele></ele><time>2016-6-18T17:27:56Z</time></trkpt>
<trkpt lat="46.20901493" lon="6.10002349"><ele></ele><time>2016-6-18T17:27:59Z</time></trkpt>
<trkpt lat="46.20904176" lon="6.10009122"><ele></ele><time>2016-6-18T17:28:2Z</time></trkpt>
<trkpt lat="46.20907042" lon="6.10015752"><ele></ele><time>2016-6-18T17:28:5Z</time></trkpt>
<trkpt lat="46.20909607" lon="6.10022038"><ele></ele><time>2016-6-18T17:28:8Z</time></trkpt>
<trkpt lat="46.20912272" lon="6.10028517"><ele></ele><time>2016-6-18T17:28:11Z</time></trkpt>
<trkpt lat="46.20914686" lon="6.10035659"><ele></ele><time>2016-6-18T17:28:14Z</time></trkpt>
<trkpt lat="46.20917126" lon="6.10042792"><ele></ele><time>2016-6-18T17:28:17Z</time></trkpt>
<trkpt lat="46.20919716" lon="6.10049757"><ele></ele><time>2016-6-18T17:28:20Z</time></trkpt>
<trkpt lat="46.20922264" lon="6.10056588"><ele></ele><time>2016-6-18T17:28:23Z</time></trkpt>
<trkpt lat="46.20924837" lon="6.10063353"><ele></ele><time>2016-6-18T17:28:26Z</time></trkpt>
<trkpt lat="46.20927444" lon="6.10070083"><ele></ele><time>2016-6-18T17:28:29Z</time></trkpt>
<trkpt lat="46.20930025" lon="6.10076806"><ele></ele><time>2016-6-18T17:28:32Z</time></trkpt>
<trkpt lat="46.20932708" lon="6.10083452"><ele></ele><time>2016-6-18T17:28:35Z</time></trkpt>
<trkpt lat="46.20935415" lon="6.10090158"><ele></ele><time>2016-6-18T17:28:38Z</time></trkpt>
<trkpt lat="46.20938064" lon="6.10096989"><ele></ele><time>2016-6-18T17:28:41Z</time></trkpt>
<trkpt lat="46.20940519" lon="6.10103929"><ele></ele><time>2016-6-18T17:28:44Z</time></trkpt>
<trkpt lat="46.20943026" lon="6.10110794"><ele></ele><time>2016-6-18T17:28:47Z</time></trkpt>
<trkpt lat="46.20945565" lon="6.10117567"><ele></ele><time>2016-6-18T17:28:50Z</time></trkpt>
<trkpt lat="46.20948139" lon="6.10124155"><ele></ele><time>2016-6-18T17:28:53Z</time></trkpt>
<trkpt lat="46.20950486" lon="6.10130969"><ele></ele><time>2016-6-18T17:28:56Z</time></trkpt>
<trkpt lat="46.20952866" lon="6.10137507"><ele></ele><time>2016-6-18T17:28:59Z</time></trkpt>
<trkpt lat="46.20955247" lon="6.10143936"><ele></ele><time>2016-6-18T17:29:2Z</time></trkpt>
<trkpt lat="46.20957635" lon="6.10150357"><ele></ele><time>2016-6-18T17:29:5Z</time></trkpt>
<trkpt lat="46.20960066" lon="6.10156777"><ele></ele><time>2016-6-18T17:29:8Z</time></trkpt>
<trkpt lat="46.20962505" lon="6.10163215"><ele></ele><time>2016-6-18T17:29:11Z</time></trkpt>
<trkpt lat="46.20965028" lon="6.10169685"><ele></ele><time>2016-6-18T17:29:14Z</time></trkpt>
<trkpt lat="46.20967417" lon="6.10176383"><ele></ele><time>2016-6-18T17:29:17Z</time></trkpt>
<trkpt lat="46.20969739" lon="6.10183205"><ele></ele><time>2016-6-18T17:29:20Z</time></trkpt>
<trkpt lat="46.20972136" lon="6.10190020"><ele></ele><time>2016-6-18T17:29:23Z</time></trkpt>
<trkpt lat="46.20974567" lon="6.10196826"><ele></ele><time>2016-6-18T17:29:26Z</time></trkpt>
<trkpt lat="46.20976964" lon="6.10203858"><ele></ele><time>2016-6-18T17:29:29Z</time></trkpt>
<trkpt lat="46.20979479" lon="6.10210656"><ele></ele><time>2016-6-18T17:29:32Z</time></trkpt>
<trkpt lat="46.20981893" lon="6.10217462"><ele></ele><time>2016-6-18T17:29:35Z</time></trkpt>
<trkpt lat="46.20984374" lon="6.10224252"><ele></ele><time>2016-6-18T17:29:38Z</time></trkpt>
<trkpt lat="46.20986897" lon="6.10231234"><ele></ele><time>2016-6-18T17:29:41Z</time></trkpt>
<trkpt lat="46.20989528" lon="6.10238358"><ele></ele><time>2016-6-18T17:29:44Z</time></trkpt>
<trkpt lat="46.20992303" lon="6.10245642"><ele></ele><time>2016-6-18T17:29:47Z</time></trkpt>
<trkpt lat="46.20995077" lon="6.10252784"><ele></ele><time>2016-6-18T17:29:50Z</time></trkpt>
<trkpt lat="46.20997885" lon="6.10260378"><ele></ele><time>2016-6-18T17:29:53Z</time></trkpt>
<trkpt lat="46.21000827" lon="6.10268516"><ele></ele><time>2016-6-18T17:29:56Z</time></trkpt>
<trkpt lat="46.21003996" lon="6.10276974"><ele></ele><time>2016-6-18T17:29:59Z</time></trkpt>
<trkpt lat="46.21007256" lon="6.10285884"><ele></ele><time>2016-6-18T17:30:2Z</time></trkpt>
<trkpt lat="46.21010659" lon="6.10295045"><ele></ele><time>2016-6-18T17:30:5Z</time></trkpt>
<trkpt lat="46.21014356" lon="6.10304425"><ele></ele><time>2016-6-18T17:30:8Z</time></trkpt>
<trkpt lat="46.21018362" lon="6.10314013"><ele></ele><time>2016-6-18T17:30:11Z</time></trkpt>
<trkpt lat="46.21022696" lon="6.10323678"><ele></ele><time>2016-6-18T17:30:14Z</time></trkpt>
<trkpt lat="46.21027272" lon="6.10333426"><ele></ele><time>2016-6-18T17:30:17Z</time></trkpt>
<trkpt lat="46.21032234" lon="6.10342789"><ele></ele><time>2016-6-18T17:30:20Z</time></trkpt>
<trkpt lat="46.21037515" lon="6.10352176"><ele></ele><time>2016-6-18T17:30:23Z</time></trkpt>
<trkpt lat="46.21043039" lon="6.10361086"><ele></ele><time>2016-6-18T17:30:26Z</time></trkpt>
<trkpt lat="46.21049065" lon="6.10369527"><ele></ele><time>2016-6-18T17:30:29Z</time></trkpt>
<trkpt lat="46.21055427" lon="6.10377347"><ele></ele><time>2016-6-18T17:30:32Z</time></trkpt>
<trkpt lat="46.21061839" lon="6.10384606"><ele></ele><time>2016-6-18T17:30:35Z</time></trkpt>
<trkpt lat="46.21068193" lon="6.10391378"><ele></ele><time>2016-6-18T17:30:38Z</time></trkpt>
<trkpt lat="46.21074462" lon="6.10398143"><ele></ele><time>2016-6-18T17:30:41Z</time></trkpt>
<trkpt lat="46.21080673" lon="6.10404756"><ele></ele><time>2016-6-18T17:30:44Z</time></trkpt>
<trkpt lat="46.21086700" lon="6.10411235"><ele></ele><time>2016-6-18T17:30:47Z</time></trkpt>
<trkpt lat="46.21092534" lon="6.10417387"><ele></ele><time>2016-6-18T17:30:50Z</time></trkpt>
<trkpt lat="46.21098359" lon="6.10423255"><ele></ele><time>2016-6-18T17:30:53Z</time></trkpt>
<trkpt lat="46.21104243" lon="6.10428644"><ele></ele><time>2016-6-18T17:30:56Z</time></trkpt>
<trkpt lat="46.21110018" lon="6.10434126"><ele></ele><time>2016-6-18T17:30:59Z</time></trkpt>
<trkpt lat="46.21115902" lon="6.10439398"><ele></ele><time>2016-6-18T17:31:2Z</time></trkpt>
<trkpt lat="46.21122063" lon="6.10444218"><ele></ele><time>2016-6-18T17:31:5Z</time></trkpt>
<trkpt lat="46.21128358" lon="6.10448794"><ele></ele><time>2016-6-18T17:31:8Z</time></trkpt>
<trkpt lat="46.21134519" lon="6.10453589"><ele></ele><time>2016-6-18T17:31:11Z</time></trkpt>
<trkpt lat="46.21140403" lon="6.10458794"><ele></ele><time>2016-6-18T17:31:14Z</time></trkpt>
<trkpt lat="46.21146169" lon="6.10464058"><ele></ele><time>2016-6-18T17:31:17Z</time></trkpt>
<trkpt lat="46.21151894" lon="6.10469347"><ele></ele><time>2016-6-18T17:31:20Z</time></trkpt>
<trkpt lat="46.21157502" lon="6.10474829"><ele></ele><time>2016-6-18T17:31:23Z</time></trkpt>
<trkpt lat="46.21162942" lon="6.10480193"><ele></ele><time>2016-6-18T17:31:26Z</time></trkpt>
<trkpt lat="46.21168348" lon="6.10485390"><ele></ele><time>2016-6-18T17:31:29Z</time></trkpt>
<trkpt lat="46.21173696" lon="6.10490235"><ele></ele><time>2016-6-18T17:31:32Z</time></trkpt>
<trkpt lat="46.21178926" lon="6.10494979"><ele></ele><time>2016-6-18T17:31:35Z</time></trkpt>
<trkpt lat="46.21183695" lon="6.10499228"><ele></ele><time>2016-6-18T17:31:38Z</time></trkpt>
<trkpt lat="46.21188104" lon="6.10503562"><ele></ele><time>2016-6-18T17:31:41Z</time></trkpt>
<trkpt lat="46.21192094" lon="6.10508205"><ele></ele><time>2016-6-18T17:31:44Z</time></trkpt>
<trkpt lat="46.21195857" lon="6.10512908"><ele></ele><time>2016-6-18T17:31:47Z</time></trkpt>
<trkpt lat="46.21199587" lon="6.10517367"><ele></ele><time>2016-6-18T17:31:50Z</time></trkpt>
<trkpt lat="46.21202772" lon="6.10520979"><ele></ele><time>2016-6-18T17:31:53Z</time></trkpt>
<trkpt lat="46.21205228" lon="6.10523318"><ele></ele><time>2016-6-18T17:31:56Z</time></trkpt>
<trkpt lat="46.21206846" lon="6.10524793"><ele></ele><time>2016-6-18T17:31:59Z</time></trkpt>
<trkpt lat="46.21207768" lon="6.10525707"><ele></ele><time>2016-6-18T17:32:2Z</time></trkpt>
<trkpt lat="46.21207978" lon="6.10525916"><ele></ele><time>2016-6-18T17:32:5Z</time></trkpt>
<trkpt lat="46.21208003" lon="6.10525958"><ele></ele><time>2016-6-18T17:32:8Z</time></trkpt>
<trkpt lat="46.21208606" lon="6.10526176"><ele></ele><time>2016-6-18T17:32:11Z</time></trkpt>
<trkpt lat="46.21208179" lon="6.10525388"><ele></ele><time>2016-6-18T17:32:14Z</time></trkpt>
<trkpt lat="46.21207768" lon="6.10524776"><ele></ele><time>2016-6-18T17:32:17Z</time></trkpt>
<trkpt lat="46.21207609" lon="6.10524223"><ele></ele><time>2016-6-18T17:32:20Z</time></trkpt>
<trkpt lat="46.21207475" lon="6.10523595"><ele></ele><time>2016-6-18T17:32:23Z</time></trkpt>
<trkpt lat="46.21207416" lon="6.10523175"><ele></ele><time>2016-6-18T17:32:26Z</time></trkpt>
<trkpt lat="46.21208464" lon="6.10524089"><ele></ele><time>2016-6-18T17:32:29Z</time></trkpt>
<trkpt lat="46.21209956" lon="6.10525304"><ele></ele><time>2016-6-18T17:32:32Z</time></trkpt>
<trkpt lat="46.21211817" lon="6.10526788"><ele></ele><time>2016-6-18T17:32:35Z</time></trkpt>
<trkpt lat="46.21214658" lon="6.10528615"><ele></ele><time>2016-6-18T17:32:38Z</time></trkpt>
<trkpt lat="46.21217977" lon="6.10529018"><ele></ele><time>2016-6-18T17:32:41Z</time></trkpt>
<trkpt lat="46.21222185" lon="6.10527299"><ele></ele><time>2016-6-18T17:32:44Z</time></trkpt>
<trkpt lat="46.21227206" lon="6.10524525"><ele></ele><time>2016-6-18T17:32:47Z</time></trkpt>
<trkpt lat="46.21231556" lon="6.10520393"><ele></ele><time>2016-6-18T17:32:50Z</time></trkpt>
<trkpt lat="46.21235169" lon="6.10514995"><ele></ele><time>2016-6-18T17:32:53Z</time></trkpt>
<trkpt lat="46.21239158" lon="6.10508842"><ele></ele><time>2016-6-18T17:32:56Z</time></trkpt>
<trkpt lat="46.21243433" lon="6.10501869"><ele></ele><time>2016-6-18T17:32:59Z</time></trkpt>
<trkpt lat="46.21247658" lon="6.10493939"><ele></ele><time>2016-6-18T17:33:2Z</time></trkpt>
<trkpt lat="46.21252242" lon="6.10486077"><ele></ele><time>2016-6-18T17:33:5Z</time></trkpt>
<trkpt lat="46.21257138" lon="6.10478399"><ele></ele><time>2016-6-18T17:33:8Z</time></trkpt>
<trkpt lat="46.21262292" lon="6.10471149"><ele></ele><time>2016-6-18T17:33:11Z</time></trkpt>
<trkpt lat="46.21267347" lon="6.10464058"><ele></ele><time>2016-6-18T17:33:14Z</time></trkpt>
<trkpt lat="46.21272468" lon="6.10457478"><ele></ele><time>2016-6-18T17:33:17Z</time></trkpt>
<trkpt lat="46.21277472" lon="6.10450638"><ele></ele><time>2016-6-18T17:33:20Z</time></trkpt>
<trkpt lat="46.21282426" lon="6.10443866"><ele></ele><time>2016-6-18T17:33:23Z</time></trkpt>
<trkpt lat="46.21287187" lon="6.10437043"><ele></ele><time>2016-6-18T17:33:26Z</time></trkpt>
<trkpt lat="46.21291939" lon="6.10430178"><ele></ele><time>2016-6-18T17:33:29Z</time></trkpt>
<trkpt lat="46.21296600" lon="6.10423313"><ele></ele><time>2016-6-18T17:33:32Z</time></trkpt>
<trkpt lat="46.21301193" lon="6.10416432"><ele></ele><time>2016-6-18T17:33:35Z</time></trkpt>
<trkpt lat="46.21305786" lon="6.10409467"><ele></ele><time>2016-6-18T17:33:38Z</time></trkpt>
<trkpt lat="46.21310698" lon="6.10402384"><ele></ele><time>2016-6-18T17:33:41Z</time></trkpt>
<trkpt lat="46.21315735" lon="6.10395217"><ele></ele><time>2016-6-18T17:33:44Z</time></trkpt>
<trkpt lat="46.21320647" lon="6.10388042"><ele></ele><time>2016-6-18T17:33:47Z</time></trkpt>
<trkpt lat="46.21325836" lon="6.10380733"><ele></ele><time>2016-6-18T17:33:50Z</time></trkpt>
<trkpt lat="46.21330999" lon="6.10373357"><ele></ele><time>2016-6-18T17:33:53Z</time></trkpt>
<trkpt lat="46.21336254" lon="6.10365956"><ele></ele><time>2016-6-18T17:33:56Z</time></trkpt>
<trkpt lat="46.21341669" lon="6.10358764"><ele></ele><time>2016-6-18T17:33:59Z</time></trkpt>
<trkpt lat="46.21346774" lon="6.10351548"><ele></ele><time>2016-6-18T17:34:2Z</time></trkpt>
<trkpt lat="46.21351635" lon="6.10344716"><ele></ele><time>2016-6-18T17:34:5Z</time></trkpt>
<trkpt lat="46.21357444" lon="6.10340266"><ele></ele><time>2016-6-18T17:34:8Z</time></trkpt>
<trkpt lat="46.21363563" lon="6.10339494"><ele></ele><time>2016-6-18T17:34:11Z</time></trkpt>
<trkpt lat="46.21370402" lon="6.10337969"><ele></ele><time>2016-6-18T17:34:14Z</time></trkpt>
<trkpt lat="46.21375716" lon="6.10340995"><ele></ele><time>2016-6-18T17:34:17Z</time></trkpt>
<trkpt lat="46.21381022" lon="6.10345337"><ele></ele><time>2016-6-18T17:34:20Z</time></trkpt>
<trkpt lat="46.21387023" lon="6.10349829"><ele></ele><time>2016-6-18T17:34:23Z</time></trkpt>
<trkpt lat="46.21392740" lon="6.10355772"><ele></ele><time>2016-6-18T17:34:26Z</time></trkpt>
<trkpt lat="46.21398792" lon="6.10363157"><ele></ele><time>2016-6-18T17:34:29Z</time></trkpt>
<trkpt lat="46.21404818" lon="6.10370290"><ele></ele><time>2016-6-18T17:34:32Z</time></trkpt>
<trkpt lat="46.21411214" lon="6.10376584"><ele></ele><time>2016-6-18T17:34:35Z</time></trkpt>
<trkpt lat="46.21417006" lon="6.10383416"><ele></ele><time>2016-6-18T17:34:38Z</time></trkpt>
<trkpt lat="46.21423585" lon="6.10389702"><ele></ele><time>2016-6-18T17:34:41Z</time></trkpt>
<trkpt lat="46.21430375" lon="6.10396056"><ele></ele><time>2016-6-18T17:34:44Z</time></trkpt>
<trkpt lat="46.21437198" lon="6.10402426"><ele></ele><time>2016-6-18T17:34:47Z</time></trkpt>
<trkpt lat="46.21444046" lon="6.10408880"><ele></ele><time>2016-6-18T17:34:50Z</time></trkpt>
<trkpt lat="46.21450852" lon="6.10415493"><ele></ele><time>2016-6-18T17:34:53Z</time></trkpt>
<trkpt lat="46.21457750" lon="6.10422065"><ele></ele><time>2016-6-18T17:34:56Z</time></trkpt>
<trkpt lat="46.21464766" lon="6.10428460"><ele></ele><time>2016-6-18T17:34:59Z</time></trkpt>
<trkpt lat="46.21471689" lon="6.10435057"><ele></ele><time>2016-6-18T17:35:2Z</time></trkpt>
<trkpt lat="46.21478629" lon="6.10441787"><ele></ele><time>2016-6-18T17:35:5Z</time></trkpt>
<trkpt lat="46.21485578" lon="6.10448794"><ele></ele><time>2016-6-18T17:35:8Z</time></trkpt>
<trkpt lat="46.21492518" lon="6.10456028"><ele></ele><time>2016-6-18T17:35:11Z</time></trkpt>
<trkpt lat="46.21499408" lon="6.10463865"><ele></ele><time>2016-6-18T17:35:14Z</time></trkpt>
<trkpt lat="46.21505493" lon="6.10472213"><ele></ele><time>2016-6-18T17:35:17Z</time></trkpt>
<trkpt lat="46.21511277" lon="6.10480637"><ele></ele><time>2016-6-18T17:35:20Z</time></trkpt>
<trkpt lat="46.21516583" lon="6.10489438"><ele></ele><time>2016-6-18T17:35:23Z</time></trkpt>
<trkpt lat="46.21522509" lon="6.10499455"><ele></ele><time>2016-6-18T17:35:26Z</time></trkpt>
<trkpt lat="46.21530765" lon="6.10501475"><ele></ele><time>2016-6-18T17:35:29Z</time></trkpt>
<trkpt lat="46.21536934" lon="6.10508968"><ele></ele><time>2016-6-18T17:35:32Z</time></trkpt>
<trkpt lat="46.21543229" lon="6.10519202"><ele></ele><time>2016-6-18T17:35:35Z</time></trkpt>
<trkpt lat="46.21547160" lon="6.10529806"><ele></ele><time>2016-6-18T17:35:38Z</time></trkpt>
<trkpt lat="46.21550538" lon="6.10539394"><ele></ele><time>2016-6-18T17:35:41Z</time></trkpt>
<trkpt lat="46.21553723" lon="6.10549863"><ele></ele><time>2016-6-18T17:35:44Z</time></trkpt>
<trkpt lat="46.21560764" lon="6.10556988"><ele></ele><time>2016-6-18T17:35:47Z</time></trkpt>
<trkpt lat="46.21566019" lon="6.10562143"><ele></ele><time>2016-6-18T17:35:50Z</time></trkpt>
<trkpt lat="46.21574518" lon="6.10560559"><ele></ele><time>2016-6-18T17:35:53Z</time></trkpt>
<trkpt lat="46.21580017" lon="6.10553979"><ele></ele><time>2016-6-18T17:35:56Z</time></trkpt>
<trkpt lat="46.21586639" lon="6.10544792"><ele></ele><time>2016-6-18T17:35:59Z</time></trkpt>
<trkpt lat="46.21593042" lon="6.10536293"><ele></ele><time>2016-6-18T17:36:2Z</time></trkpt>
<trkpt lat="46.21598247" lon="6.10528196"><ele></ele><time>2016-6-18T17:36:5Z</time></trkpt>
<trkpt lat="46.21604048" lon="6.10520292"><ele></ele><time>2016-6-18T17:36:8Z</time></trkpt>
<trkpt lat="46.21610854" lon="6.10512019"><ele></ele><time>2016-6-18T17:36:11Z</time></trkpt>
<trkpt lat="46.21617232" lon="6.10503822"><ele></ele><time>2016-6-18T17:36:14Z</time></trkpt>
<trkpt lat="46.21623427" lon="6.10495565"><ele></ele><time>2016-6-18T17:36:17Z</time></trkpt>
<trkpt lat="46.21630317" lon="6.10486714"><ele></ele><time>2016-6-18T17:36:20Z</time></trkpt>
<trkpt lat="46.21635874" lon="6.10479154"><ele></ele><time>2016-6-18T17:36:23Z</time></trkpt>
<trkpt lat="46.21641858" lon="6.10473027"><ele></ele><time>2016-6-18T17:36:26Z</time></trkpt>
<trkpt lat="46.21646703" lon="6.10463924"><ele></ele><time>2016-6-18T17:36:29Z</time></trkpt>
<trkpt lat="46.21652327" lon="6.10456657"><ele></ele><time>2016-6-18T17:36:32Z</time></trkpt>
<trkpt lat="46.21658765" lon="6.10449574"><ele></ele><time>2016-6-18T17:36:35Z</time></trkpt>
<trkpt lat="46.21664657" lon="6.10442659"><ele></ele><time>2016-6-18T17:36:38Z</time></trkpt>
<trkpt lat="46.21669997" lon="6.10435635"><ele></ele><time>2016-6-18T17:36:41Z</time></trkpt>
<trkpt lat="46.21675654" lon="6.10428695"><ele></ele><time>2016-6-18T17:36:44Z</time></trkpt>
<trkpt lat="46.21681312" lon="6.10421922"><ele></ele><time>2016-6-18T17:36:47Z</time></trkpt>
<trkpt lat="46.21687029" lon="6.10415225"><ele></ele><time>2016-6-18T17:36:50Z</time></trkpt>
<trkpt lat="46.21693566" lon="6.10408695"><ele></ele><time>2016-6-18T17:36:53Z</time></trkpt>
<trkpt lat="46.21700716" lon="6.10402174"><ele></ele><time>2016-6-18T17:36:56Z</time></trkpt>
<trkpt lat="46.21707539" lon="6.10395628"><ele></ele><time>2016-6-18T17:36:59Z</time></trkpt>
<trkpt lat="46.21714345" lon="6.10389182"><ele></ele><time>2016-6-18T17:37:2Z</time></trkpt>
<trkpt lat="46.21721118" lon="6.10382812"><ele></ele><time>2016-6-18T17:37:5Z</time></trkpt>
<trkpt lat="46.21727253" lon="6.10376459"><ele></ele><time>2016-6-18T17:37:8Z</time></trkpt>
<trkpt lat="46.21733037" lon="6.10370088"><ele></ele><time>2016-6-18T17:37:11Z</time></trkpt>
<trkpt lat="46.21738577" lon="6.10363618"><ele></ele><time>2016-6-18T17:37:14Z</time></trkpt>
<trkpt lat="46.21744545" lon="6.10357113"><ele></ele><time>2016-6-18T17:37:17Z</time></trkpt>
<trkpt lat="46.21749993" lon="6.10350533"><ele></ele><time>2016-6-18T17:37:20Z</time></trkpt>
<trkpt lat="46.21755660" lon="6.10343669"><ele></ele><time>2016-6-18T17:37:23Z</time></trkpt>
<trkpt lat="46.21761049" lon="6.10336846"><ele></ele><time>2016-6-18T17:37:26Z</time></trkpt>
<trkpt lat="46.21765735" lon="6.10329998"><ele></ele><time>2016-6-18T17:37:29Z</time></trkpt>
<trkpt lat="46.21770537" lon="6.10323418"><ele></ele><time>2016-6-18T17:37:32Z</time></trkpt>
<trkpt lat="46.21774779" lon="6.10316763"><ele></ele><time>2016-6-18T17:37:35Z</time></trkpt>
<trkpt lat="46.21779473" lon="6.10310694"><ele></ele><time>2016-6-18T17:37:38Z</time></trkpt>
<trkpt lat="46.21784887" lon="6.10304316"><ele></ele><time>2016-6-18T17:37:41Z</time></trkpt>
<trkpt lat="46.21789950" lon="6.10298088"><ele></ele><time>2016-6-18T17:37:44Z</time></trkpt>
<trkpt lat="46.21795046" lon="6.10291902"><ele></ele><time>2016-6-18T17:37:47Z</time></trkpt>
<trkpt lat="46.21802338" lon="6.10286035"><ele></ele><time>2016-6-18T17:37:50Z</time></trkpt>
<trkpt lat="46.21808625" lon="6.10280276"><ele></ele><time>2016-6-18T17:37:53Z</time></trkpt>
<trkpt lat="46.21814718" lon="6.10274887"><ele></ele><time>2016-6-18T17:37:56Z</time></trkpt>
<trkpt lat="46.21820779" lon="6.10270243"><ele></ele><time>2016-6-18T17:37:59Z</time></trkpt>
<trkpt lat="46.21827107" lon="6.10266496"><ele></ele><time>2016-6-18T17:38:2Z</time></trkpt>
<trkpt lat="46.21833796" lon="6.10263797"><ele></ele><time>2016-6-18T17:38:5Z</time></trkpt>
<trkpt lat="46.21841063" lon="6.10262607"><ele></ele><time>2016-6-18T17:38:8Z</time></trkpt>
<trkpt lat="46.21848246" lon="6.10263236"><ele></ele><time>2016-6-18T17:38:11Z</time></trkpt>
<trkpt lat="46.21855563" lon="6.10265264"><ele></ele><time>2016-6-18T17:38:14Z</time></trkpt>
<trkpt lat="46.21862839" lon="6.10268315"><ele></ele><time>2016-6-18T17:38:17Z</time></trkpt>
<trkpt lat="46.21870014" lon="6.10272263"><ele></ele><time>2016-6-18T17:38:20Z</time></trkpt>
<trkpt lat="46.21876912" lon="6.10277426"><ele></ele><time>2016-6-18T17:38:23Z</time></trkpt>
<trkpt lat="46.21883777" lon="6.10282112"><ele></ele><time>2016-6-18T17:38:26Z</time></trkpt>
<trkpt lat="46.21890583" lon="6.10286973"><ele></ele><time>2016-6-18T17:38:29Z</time></trkpt>
<trkpt lat="46.21897289" lon="6.10292019"><ele></ele><time>2016-6-18T17:38:32Z</time></trkpt>
<trkpt lat="46.21904070" lon="6.10297233"><ele></ele><time>2016-6-18T17:38:35Z</time></trkpt>
<trkpt lat="46.21910649" lon="6.10302857"><ele></ele><time>2016-6-18T17:38:38Z</time></trkpt>
<trkpt lat="46.21917338" lon="6.10308473"><ele></ele><time>2016-6-18T17:38:41Z</time></trkpt>
<trkpt lat="46.21923993" lon="6.10313988"><ele></ele><time>2016-6-18T17:38:44Z</time></trkpt>
<trkpt lat="46.21930665" lon="6.10319328"><ele></ele><time>2016-6-18T17:38:47Z</time></trkpt>
<trkpt lat="46.21937396" lon="6.10324726"><ele></ele><time>2016-6-18T17:38:50Z</time></trkpt>
<trkpt lat="46.21944244" lon="6.10330392"><ele></ele><time>2016-6-18T17:38:53Z</time></trkpt>
<trkpt lat="46.21951436" lon="6.10336343"><ele></ele><time>2016-6-18T17:38:56Z</time></trkpt>
<trkpt lat="46.21958569" lon="6.10342495"><ele></ele><time>2016-6-18T17:38:59Z</time></trkpt>
<trkpt lat="46.21965920" lon="6.10349008"><ele></ele><time>2016-6-18T17:39:2Z</time></trkpt>
<trkpt lat="46.21973212" lon="6.10355915"><ele></ele><time>2016-6-18T17:39:5Z</time></trkpt>
<trkpt lat="46.21980462" lon="6.10362989"><ele></ele><time>2016-6-18T17:39:8Z</time></trkpt>
<trkpt lat="46.21987386" lon="6.10369862"><ele></ele><time>2016-6-18T17:39:11Z</time></trkpt>
<trkpt lat="46.21994108" lon="6.10373609"><ele></ele><time>2016-6-18T17:39:14Z</time></trkpt>
<trkpt lat="46.22000386" lon="6.10377029"><ele></ele><time>2016-6-18T17:39:17Z</time></trkpt>
<trkpt lat="46.22008584" lon="6.10386685"><ele></ele><time>2016-6-18T17:39:20Z</time></trkpt>
<trkpt lat="46.22016488" lon="6.10397397"><ele></ele><time>2016-6-18T17:39:23Z</time></trkpt>
<trkpt lat="46.22025163" lon="6.10405846"><ele></ele><time>2016-6-18T17:39:26Z</time></trkpt>
<trkpt lat="46.22034073" lon="6.10410254"><ele></ele><time>2016-6-18T17:39:29Z</time></trkpt>
<trkpt lat="46.22042807" lon="6.10416465"><ele></ele><time>2016-6-18T17:39:32Z</time></trkpt>
<trkpt lat="46.22050309" lon="6.10426406"><ele></ele><time>2016-6-18T17:39:35Z</time></trkpt>
<trkpt lat="46.22057148" lon="6.10433313"><ele></ele><time>2016-6-18T17:39:38Z</time></trkpt>
<trkpt lat="46.22063837" lon="6.10435350"><ele></ele><time>2016-6-18T17:39:41Z</time></trkpt>
<trkpt lat="46.22068112" lon="6.10433456"><ele></ele><time>2016-6-18T17:39:44Z</time></trkpt>
<trkpt lat="46.22072789" lon="6.10424068"><ele></ele><time>2016-6-18T17:39:47Z</time></trkpt>
<trkpt lat="46.22080534" lon="6.10417656"><ele></ele><time>2016-6-18T17:39:50Z</time></trkpt>
<trkpt lat="46.22087306" lon="6.10410254"><ele></ele><time>2016-6-18T17:39:53Z</time></trkpt>
<trkpt lat="46.22090709" lon="6.10404245"><ele></ele><time>2016-6-18T17:39:56Z</time></trkpt>
<trkpt lat="46.22093685" lon="6.10398897"><ele></ele><time>2016-6-18T17:39:59Z</time></trkpt>
<trkpt lat="46.22096317" lon="6.10391554"><ele></ele><time>2016-6-18T17:40:2Z</time></trkpt>
<trkpt lat="46.22100139" lon="6.10386064"><ele></ele><time>2016-6-18T17:40:5Z</time></trkpt>
<trkpt lat="46.22104129" lon="6.10380339"><ele></ele><time>2016-6-18T17:40:8Z</time></trkpt>
<trkpt lat="46.22107624" lon="6.10374212"><ele></ele><time>2016-6-18T17:40:11Z</time></trkpt>
<trkpt lat="46.22111170" lon="6.10368060"><ele></ele><time>2016-6-18T17:40:14Z</time></trkpt>
<trkpt lat="46.22114883" lon="6.10362033"><ele></ele><time>2016-6-18T17:40:17Z</time></trkpt>
<trkpt lat="46.22119015" lon="6.10356233"><ele></ele><time>2016-6-18T17:40:20Z</time></trkpt>
<trkpt lat="46.22123256" lon="6.10350466"><ele></ele><time>2016-6-18T17:40:23Z</time></trkpt>
<trkpt lat="46.22127363" lon="6.10344549"><ele></ele><time>2016-6-18T17:40:26Z</time></trkpt>
<trkpt lat="46.22131513" lon="6.10338430"><ele></ele><time>2016-6-18T17:40:29Z</time></trkpt>
<trkpt lat="46.22135796" lon="6.10332043"><ele></ele><time>2016-6-18T17:40:32Z</time></trkpt>
<trkpt lat="46.22140196" lon="6.10325622"><ele></ele><time>2016-6-18T17:40:35Z</time></trkpt>
<trkpt lat="46.22144815" lon="6.10319428"><ele></ele><time>2016-6-18T17:40:38Z</time></trkpt>
<trkpt lat="46.22149684" lon="6.10313435"><ele></ele><time>2016-6-18T17:40:41Z</time></trkpt>
<trkpt lat="46.22155225" lon="6.10308347"><ele></ele><time>2016-6-18T17:40:44Z</time></trkpt>
<trkpt lat="46.22161495" lon="6.10305808"><ele></ele><time>2016-6-18T17:40:47Z</time></trkpt>
<trkpt lat="46.22168183" lon="6.10306629"><ele></ele><time>2016-6-18T17:40:50Z</time></trkpt>
<trkpt lat="46.22173975" lon="6.10310493"><ele></ele><time>2016-6-18T17:40:53Z</time></trkpt>
<trkpt lat="46.22178392" lon="6.10315103"><ele></ele><time>2016-6-18T17:40:56Z</time></trkpt>
<trkpt lat="46.22183153" lon="6.10320199"><ele></ele><time>2016-6-18T17:40:59Z</time></trkpt>
<trkpt lat="46.22186707" lon="6.10325078"><ele></ele><time>2016-6-18T17:41:2Z</time></trkpt>
<trkpt lat="46.22190488" lon="6.10329579"><ele></ele><time>2016-6-18T17:41:5Z</time></trkpt>
<trkpt lat="46.22194117" lon="6.10333820"><ele></ele><time>2016-6-18T17:41:8Z</time></trkpt>
<trkpt lat="46.22197872" lon="6.10338564"><ele></ele><time>2016-6-18T17:41:11Z</time></trkpt>
<trkpt lat="46.22201107" lon="6.10342755"><ele></ele><time>2016-6-18T17:41:14Z</time></trkpt>
<trkpt lat="46.22203790" lon="6.10347273"><ele></ele><time>2016-6-18T17:41:17Z</time></trkpt>
<trkpt lat="46.22206539" lon="6.10351707"><ele></ele><time>2016-6-18T17:41:20Z</time></trkpt>
<trkpt lat="46.22209556" lon="6.10356577"><ele></ele><time>2016-6-18T17:41:23Z</time></trkpt>
<trkpt lat="46.22212834" lon="6.10361120"><ele></ele><time>2016-6-18T17:41:26Z</time></trkpt>
<trkpt lat="46.22216254" lon="6.10365713"><ele></ele><time>2016-6-18T17:41:29Z</time></trkpt>
<trkpt lat="46.22219807" lon="6.10370667"><ele></ele><time>2016-6-18T17:41:32Z</time></trkpt>
<trkpt lat="46.22223797" lon="6.10375436"><ele></ele><time>2016-6-18T17:41:35Z</time></trkpt>
<trkpt lat="46.22227217" lon="6.10380423"><ele></ele><time>2016-6-18T17:41:38Z</time></trkpt>
<trkpt lat="46.22230913" lon="6.10385503"><ele></ele><time>2016-6-18T17:41:41Z</time></trkpt>
<trkpt lat="46.22234694" lon="6.10390532"><ele></ele><time>2016-6-18T17:41:44Z</time></trkpt>
<trkpt lat="46.22240209" lon="6.10394807"><ele></ele><time>2016-6-18T17:41:47Z</time></trkpt>
<trkpt lat="46.22246018" lon="6.10402292"><ele></ele><time>2016-6-18T17:41:50Z</time></trkpt>
<trkpt lat="46.22249580" lon="6.10407966"><ele></ele><time>2016-6-18T17:41:53Z</time></trkpt>
<trkpt lat="46.22252396" lon="6.10413599"><ele></ele><time>2016-6-18T17:41:56Z</time></trkpt>
<trkpt lat="46.22254852" lon="6.10419617"><ele></ele><time>2016-6-18T17:41:59Z</time></trkpt>
<trkpt lat="46.22258549" lon="6.10424386"><ele></ele><time>2016-6-18T17:42:2Z</time></trkpt>
<trkpt lat="46.22262748" lon="6.10429550"><ele></ele><time>2016-6-18T17:42:5Z</time></trkpt>
<trkpt lat="46.22266520" lon="6.10434906"><ele></ele><time>2016-6-18T17:42:8Z</time></trkpt>
<trkpt lat="46.22270267" lon="6.10440337"><ele></ele><time>2016-6-18T17:42:11Z</time></trkpt>
<trkpt lat="46.22273888" lon="6.10445919"><ele></ele><time>2016-6-18T17:42:14Z</time></trkpt>
<trkpt lat="46.22277148" lon="6.10450605"><ele></ele><time>2016-6-18T17:42:17Z</time></trkpt>
<trkpt lat="46.22281507" lon="6.10456472"><ele></ele><time>2016-6-18T17:42:20Z</time></trkpt>
<trkpt lat="46.22285823" lon="6.10462734"><ele></ele><time>2016-6-18T17:42:23Z</time></trkpt>
<trkpt lat="46.22290417" lon="6.10468660"><ele></ele><time>2016-6-18T17:42:26Z</time></trkpt>
<trkpt lat="46.22294390" lon="6.10474166"><ele></ele><time>2016-6-18T17:42:29Z</time></trkpt>
<trkpt lat="46.22298874" lon="6.10479950"><ele></ele><time>2016-6-18T17:42:32Z</time></trkpt>
<trkpt lat="46.22303534" lon="6.10486446"><ele></ele><time>2016-6-18T17:42:35Z</time></trkpt>
<trkpt lat="46.22308069" lon="6.10493034"><ele></ele><time>2016-6-18T17:42:38Z</time></trkpt>
<trkpt lat="46.22312486" lon="6.10499002"><ele></ele><time>2016-6-18T17:42:41Z</time></trkpt>
<trkpt lat="46.22316476" lon="6.10504718"><ele></ele><time>2016-6-18T17:42:44Z</time></trkpt>
<trkpt lat="46.22320214" lon="6.10511072"><ele></ele><time>2016-6-18T17:42:47Z</time></trkpt>
<trkpt lat="46.22323927" lon="6.10517727"><ele></ele><time>2016-6-18T17:42:50Z</time></trkpt>
<trkpt lat="46.22327113" lon="6.10524165"><ele></ele><time>2016-6-18T17:42:53Z</time></trkpt>
<trkpt lat="46.22330507" lon="6.10529797"><ele></ele><time>2016-6-18T17:42:56Z</time></trkpt>
<trkpt lat="46.22333952" lon="6.10534944"><ele></ele><time>2016-6-18T17:42:59Z</time></trkpt>
<trkpt lat="46.22337808" lon="6.10539797"><ele></ele><time>2016-6-18T17:43:2Z</time></trkpt>
<trkpt lat="46.22341848" lon="6.10545287"><ele></ele><time>2016-6-18T17:43:5Z</time></trkpt>
<trkpt lat="46.22345226" lon="6.10550727"><ele></ele><time>2016-6-18T17:43:8Z</time></trkpt>
<trkpt lat="46.22347330" lon="6.10556385"><ele></ele><time>2016-6-18T17:43:11Z</time></trkpt>
<trkpt lat="46.22351026" lon="6.10564683"><ele></ele><time>2016-6-18T17:43:14Z</time></trkpt>
<trkpt lat="46.22351303" lon="6.10569075"><ele></ele><time>2016-6-18T17:43:17Z</time></trkpt>
<trkpt lat="46.22348847" lon="6.10574347"><ele></ele><time>2016-6-18T17:43:20Z</time></trkpt>
<trkpt lat="46.22345989" lon="6.10580072"><ele></ele><time>2016-6-18T17:43:23Z</time></trkpt>
<trkpt lat="46.22342804" lon="6.10586107"><ele></ele><time>2016-6-18T17:43:26Z</time></trkpt>
<trkpt lat="46.22339048" lon="6.10591488"><ele></ele><time>2016-6-18T17:43:29Z</time></trkpt>
<trkpt lat="46.22335956" lon="6.10596928"><ele></ele><time>2016-6-18T17:43:32Z</time></trkpt>
<trkpt lat="46.22332360" lon="6.10602016"><ele></ele><time>2016-6-18T17:43:35Z</time></trkpt>
<trkpt lat="46.22328135" lon="6.10606785"><ele></ele><time>2016-6-18T17:43:38Z</time></trkpt>
<trkpt lat="46.22324975" lon="6.10612133"><ele></ele><time>2016-6-18T17:43:41Z</time></trkpt>
<trkpt lat="46.22322368" lon="6.10617799"><ele></ele><time>2016-6-18T17:43:44Z</time></trkpt>
<trkpt lat="46.22319996" lon="6.10623155"><ele></ele><time>2016-6-18T17:43:47Z</time></trkpt>
<trkpt lat="46.22317348" lon="6.10627656"><ele></ele><time>2016-6-18T17:43:50Z</time></trkpt>
<trkpt lat="46.22314054" lon="6.10631009"><ele></ele><time>2016-6-18T17:43:53Z</time></trkpt>
<trkpt lat="46.22310332" lon="6.10634504"><ele></ele><time>2016-6-18T17:43:56Z</time></trkpt>
<trkpt lat="46.22307155" lon="6.10638569"><ele></ele><time>2016-6-18T17:43:59Z</time></trkpt>
<trkpt lat="46.22304456" lon="6.10643514"><ele></ele><time>2016-6-18T17:44:2Z</time></trkpt>
<trkpt lat="46.22302822" lon="6.10649197"><ele></ele><time>2016-6-18T17:44:5Z</time></trkpt>
<trkpt lat="46.22302327" lon="6.10655249"><ele></ele><time>2016-6-18T17:44:8Z</time></trkpt>
<trkpt lat="46.22302897" lon="6.10660924"><ele></ele><time>2016-6-18T17:44:11Z</time></trkpt>
<trkpt lat="46.22304699" lon="6.10666246"><ele></ele><time>2016-6-18T17:44:14Z</time></trkpt>
<trkpt lat="46.22307432" lon="6.10671476"><ele></ele><time>2016-6-18T17:44:17Z</time></trkpt>
<trkpt lat="46.22310483" lon="6.10676246"><ele></ele><time>2016-6-18T17:44:20Z</time></trkpt>
<trkpt lat="46.22313819" lon="6.10681057"><ele></ele><time>2016-6-18T17:44:23Z</time></trkpt>
<trkpt lat="46.22316535" lon="6.10686053"><ele></ele><time>2016-6-18T17:44:26Z</time></trkpt>
<trkpt lat="46.22319032" lon="6.10692674"><ele></ele><time>2016-6-18T17:44:29Z</time></trkpt>
<trkpt lat="46.22320776" lon="6.10699120"><ele></ele><time>2016-6-18T17:44:32Z</time></trkpt>
<trkpt lat="46.22322964" lon="6.10705205"><ele></ele><time>2016-6-18T17:44:35Z</time></trkpt>
<trkpt lat="46.22326258" lon="6.10710779"><ele></ele><time>2016-6-18T17:44:38Z</time></trkpt>
<trkpt lat="46.22328437" lon="6.10716856"><ele></ele><time>2016-6-18T17:44:41Z</time></trkpt>
<trkpt lat="46.22330650" lon="6.10723260"><ele></ele><time>2016-6-18T17:44:44Z</time></trkpt>
<trkpt lat="46.22332108" lon="6.10730099"><ele></ele><time>2016-6-18T17:44:47Z</time></trkpt>
<trkpt lat="46.22333307" lon="6.10736403"><ele></ele><time>2016-6-18T17:44:50Z</time></trkpt>
<trkpt lat="46.22333500" lon="6.10742597"><ele></ele><time>2016-6-18T17:44:53Z</time></trkpt>
<trkpt lat="46.22332267" lon="6.10748523"><ele></ele><time>2016-6-18T17:44:56Z</time></trkpt>
<trkpt lat="46.22330625" lon="6.10753242"><ele></ele><time>2016-6-18T17:44:59Z</time></trkpt>
<trkpt lat="46.22327247" lon="6.10758095"><ele></ele><time>2016-6-18T17:45:2Z</time></trkpt>
<trkpt lat="46.22323919" lon="6.10762747"><ele></ele><time>2016-6-18T17:45:5Z</time></trkpt>
<trkpt lat="46.22320659" lon="6.10767256"><ele></ele><time>2016-6-18T17:45:8Z</time></trkpt>
<trkpt lat="46.22317532" lon="6.10771749"><ele></ele><time>2016-6-18T17:45:11Z</time></trkpt>
<trkpt lat="46.22314699" lon="6.10776359"><ele></ele><time>2016-6-18T17:45:14Z</time></trkpt>
<trkpt lat="46.22312042" lon="6.10780768"><ele></ele><time>2016-6-18T17:45:17Z</time></trkpt>
<trkpt lat="46.22309636" lon="6.10784984"><ele></ele><time>2016-6-18T17:45:20Z</time></trkpt>
<trkpt lat="46.22306535" lon="6.10789594"><ele></ele><time>2016-6-18T17:45:23Z</time></trkpt>
<trkpt lat="46.22303518" lon="6.10793609"><ele></ele><time>2016-6-18T17:45:26Z</time></trkpt>
<trkpt lat="46.22299863" lon="6.10797876"><ele></ele><time>2016-6-18T17:45:29Z</time></trkpt>
<trkpt lat="46.22296837" lon="6.10802050"><ele></ele><time>2016-6-18T17:45:32Z</time></trkpt>
<trkpt lat="46.22295152" lon="6.10805444"><ele></ele><time>2016-6-18T17:45:35Z</time></trkpt>
<trkpt lat="46.22293568" lon="6.10808680"><ele></ele><time>2016-6-18T17:45:38Z</time></trkpt>
<trkpt lat="46.22292336" lon="6.10811119"><ele></ele><time>2016-6-18T17:45:41Z</time></trkpt>
<trkpt lat="46.22291858" lon="6.10811706"><ele></ele><time>2016-6-18T17:45:44Z</time></trkpt>
<trkpt lat="46.22290660" lon="6.10811949"><ele></ele><time>2016-6-18T17:45:47Z</time></trkpt>
<trkpt lat="46.22288908" lon="6.10812703"><ele></ele><time>2016-6-18T17:45:50Z</time></trkpt>
<trkpt lat="46.22286729" lon="6.10814497"><ele></ele><time>2016-6-18T17:45:53Z</time></trkpt>
<trkpt lat="46.22283367" lon="6.10816869"><ele></ele><time>2016-6-18T17:45:56Z</time></trkpt>
<trkpt lat="46.22280057" lon="6.10820188"><ele></ele><time>2016-6-18T17:45:59Z</time></trkpt>
<trkpt lat="46.22278280" lon="6.10823264"><ele></ele><time>2016-6-18T17:46:2Z</time></trkpt>
<trkpt lat="46.22276863" lon="6.10827263"><ele></ele><time>2016-6-18T17:46:5Z</time></trkpt>
<trkpt lat="46.22274877" lon="6.10832149"><ele></ele><time>2016-6-18T17:46:8Z</time></trkpt>
<trkpt lat="46.22272873" lon="6.10836944"><ele></ele><time>2016-6-18T17:46:11Z</time></trkpt>
<trkpt lat="46.22271222" lon="6.10840598"><ele></ele><time>2016-6-18T17:46:14Z</time></trkpt>
<trkpt lat="46.22270359" lon="6.10842668"><ele></ele><time>2016-6-18T17:46:17Z</time></trkpt>
<trkpt lat="46.22268607" lon="6.10843582"><ele></ele><time>2016-6-18T17:46:20Z</time></trkpt>
<trkpt lat="46.22267199" lon="6.10844119"><ele></ele><time>2016-6-18T17:46:23Z</time></trkpt>
<trkpt lat="46.22264718" lon="6.10844898"><ele></ele><time>2016-6-18T17:46:26Z</time></trkpt>
<trkpt lat="46.22261407" lon="6.10845787"><ele></ele><time>2016-6-18T17:46:29Z</time></trkpt>
<trkpt lat="46.22257870" lon="6.10848234"><ele></ele><time>2016-6-18T17:46:32Z</time></trkpt>
<trkpt lat="46.22258247" lon="6.10847916"><ele></ele><time>2016-6-18T17:46:35Z</time></trkpt>
<trkpt lat="46.22257845" lon="6.10847413"><ele></ele><time>2016-6-18T17:46:38Z</time></trkpt>
<trkpt lat="46.22257962" lon="6.10847220"><ele></ele><time>2016-6-18T17:46:41Z</time></trkpt>
<trkpt lat="46.22257903" lon="6.10848217"><ele></ele><time>2016-6-18T17:46:44Z</time></trkpt>
<trkpt lat="46.22257199" lon="6.10848242"><ele></ele><time>2016-6-18T17:46:47Z</time></trkpt>
<trkpt lat="46.22256269" lon="6.10848167"><ele></ele><time>2016-6-18T17:46:50Z</time></trkpt>
<trkpt lat="46.22255389" lon="6.10848242"><ele></ele><time>2016-6-18T17:46:53Z</time></trkpt>
<trkpt lat="46.22254869" lon="6.10848343"><ele></ele><time>2016-6-18T17:46:56Z</time></trkpt>
<trkpt lat="46.22254400" lon="6.10848645"><ele></ele><time>2016-6-18T17:46:59Z</time></trkpt>
<trkpt lat="46.22253804" lon="6.10848779"><ele></ele><time>2016-6-18T17:47:2Z</time></trkpt>
<trkpt lat="46.22253285" lon="6.10848653"><ele></ele><time>2016-6-18T17:47:5Z</time></trkpt>
<trkpt lat="46.22252380" lon="6.10848527"><ele></ele><time>2016-6-18T17:47:8Z</time></trkpt>
<trkpt lat="46.22251357" lon="6.10848335"><ele></ele><time>2016-6-18T17:47:11Z</time></trkpt>
<trkpt lat="46.22249982" lon="6.10849139"><ele></ele><time>2016-6-18T17:47:14Z</time></trkpt>
<trkpt lat="46.22250259" lon="6.10849743"><ele></ele><time>2016-6-18T17:47:17Z</time></trkpt>
<trkpt lat="46.22250234" lon="6.10849642"><ele></ele><time>2016-6-18T17:47:20Z</time></trkpt>
<trkpt lat="46.22251240" lon="6.10849835"><ele></ele><time>2016-6-18T17:47:23Z</time></trkpt>
<trkpt lat="46.22252095" lon="6.10848905"><ele></ele><time>2016-6-18T17:47:26Z</time></trkpt>
<trkpt lat="46.22018147" lon="6.10626466"><ele></ele><time>2016-6-18T17:47:29Z</time></trkpt>
<trkpt lat="46.22020444" lon="6.10623482"><ele></ele><time>2016-6-18T17:47:32Z</time></trkpt>
<trkpt lat="46.22019354" lon="6.10620179"><ele></ele><time>2016-6-18T17:47:35Z</time></trkpt>
<trkpt lat="46.22019807" lon="6.10617916"><ele></ele><time>2016-6-18T17:47:38Z</time></trkpt>
<trkpt lat="46.22021475" lon="6.10615016"><ele></ele><time>2016-6-18T17:47:41Z</time></trkpt>
<trkpt lat="46.22024719" lon="6.10611822"><ele></ele><time>2016-6-18T17:47:44Z</time></trkpt>
<trkpt lat="46.22029136" lon="6.10609367"><ele></ele><time>2016-6-18T17:47:47Z</time></trkpt>
<trkpt lat="46.22033235" lon="6.10605444"><ele></ele><time>2016-6-18T17:47:50Z</time></trkpt>
<trkpt lat="46.22036487" lon="6.10601722"><ele></ele><time>2016-6-18T17:47:53Z</time></trkpt>
<trkpt lat="46.22037887" lon="6.10597230"><ele></ele><time>2016-6-18T17:47:56Z</time></trkpt>
<trkpt lat="46.22037099" lon="6.10592653"><ele></ele><time>2016-6-18T17:47:59Z</time></trkpt>
<trkpt lat="46.22036445" lon="6.10589627"><ele></ele><time>2016-6-18T17:48:2Z</time></trkpt>
<trkpt lat="46.22035397" lon="6.10586962"><ele></ele><time>2016-6-18T17:48:5Z</time></trkpt>
<trkpt lat="46.22036344" lon="6.10585487"><ele></ele><time>2016-6-18T17:48:8Z</time></trkpt>
<trkpt lat="46.22038758" lon="6.10583215"><ele></ele><time>2016-6-18T17:48:11Z</time></trkpt>
<trkpt lat="46.22041457" lon="6.10579192"><ele></ele><time>2016-6-18T17:48:14Z</time></trkpt>
<trkpt lat="46.22045338" lon="6.10574230"><ele></ele><time>2016-6-18T17:48:17Z</time></trkpt>
<trkpt lat="46.22049429" lon="6.10568983"><ele></ele><time>2016-6-18T17:48:20Z</time></trkpt>
<trkpt lat="46.22054055" lon="6.10564213"><ele></ele><time>2016-6-18T17:48:23Z</time></trkpt>
<trkpt lat="46.22057676" lon="6.10558488"><ele></ele><time>2016-6-18T17:48:26Z</time></trkpt>
<trkpt lat="46.22062085" lon="6.10554054"><ele></ele><time>2016-6-18T17:48:29Z</time></trkpt>
<trkpt lat="46.22067718" lon="6.10550945"><ele></ele><time>2016-6-18T17:48:32Z</time></trkpt>
<trkpt lat="46.22072906" lon="6.10546444"><ele></ele><time>2016-6-18T17:48:35Z</time></trkpt>
<trkpt lat="46.22076779" lon="6.10541054"><ele></ele><time>2016-6-18T17:48:38Z</time></trkpt>
<trkpt lat="46.22079997" lon="6.10534793"><ele></ele><time>2016-6-18T17:48:41Z</time></trkpt>
<trkpt lat="46.22083677" lon="6.10528984"><ele></ele><time>2016-6-18T17:48:44Z</time></trkpt>
<trkpt lat="46.22088044" lon="6.10523452"><ele></ele><time>2016-6-18T17:48:47Z</time></trkpt>
<trkpt lat="46.22092092" lon="6.10517099"><ele></ele><time>2016-6-18T17:48:50Z</time></trkpt>
<trkpt lat="46.22096434" lon="6.10510284"><ele></ele><time>2016-6-18T17:48:53Z</time></trkpt>
<trkpt lat="46.22099418" lon="6.10500813"><ele></ele><time>2016-6-18T17:48:56Z</time></trkpt>
<trkpt lat="46.22099997" lon="6.10488416"><ele></ele><time>2016-6-18T17:48:59Z</time></trkpt>
<trkpt lat="46.22099452" lon="6.10478064"><ele></ele><time>2016-6-18T17:49:2Z</time></trkpt>
<trkpt lat="46.22097130" lon="6.10465810"><ele></ele><time>2016-6-18T17:49:5Z</time></trkpt>
<trkpt lat="46.22093325" lon="6.10456699"><ele></ele><time>2016-6-18T17:49:8Z</time></trkpt>
<trkpt lat="46.22090282" lon="6.10448870"><ele></ele><time>2016-6-18T17:49:11Z</time></trkpt>
<trkpt lat="46.22084582" lon="6.10440102"><ele></ele><time>2016-6-18T17:49:14Z</time></trkpt>
<trkpt lat="46.22081129" lon="6.10436096"><ele></ele><time>2016-6-18T17:49:17Z</time></trkpt>
<trkpt lat="46.22076997" lon="6.10434344"><ele></ele><time>2016-6-18T17:49:20Z</time></trkpt>
<trkpt lat="46.22074935" lon="6.10432148"><ele></ele><time>2016-6-18T17:49:23Z</time></trkpt>
<trkpt lat="46.22074482" lon="6.10430103"><ele></ele><time>2016-6-18T17:49:26Z</time></trkpt>
<trkpt lat="46.22073996" lon="6.10427890"><ele></ele><time>2016-6-18T17:49:29Z</time></trkpt>
<trkpt lat="46.22072663" lon="6.10425845"><ele></ele><time>2016-6-18T17:49:32Z</time></trkpt>
<trkpt lat="46.22070383" lon="6.10422936"><ele></ele><time>2016-6-18T17:49:35Z</time></trkpt>
<trkpt lat="46.22067357" lon="6.10419349"><ele></ele><time>2016-6-18T17:49:38Z</time></trkpt>
<trkpt lat="46.22062865" lon="6.10417957"><ele></ele><time>2016-6-18T17:49:41Z</time></trkpt>
<trkpt lat="46.22057349" lon="6.10415795"><ele></ele><time>2016-6-18T17:49:44Z</time></trkpt>
<trkpt lat="46.22051599" lon="6.10412534"><ele></ele><time>2016-6-18T17:49:47Z</time></trkpt>
<trkpt lat="46.22045782" lon="6.10408218"><ele></ele><time>2016-6-18T17:49:50Z</time></trkpt>
<trkpt lat="46.22040728" lon="6.10403189"><ele></ele><time>2016-6-18T17:49:53Z</time></trkpt>
<trkpt lat="46.22035816" lon="6.10397547"><ele></ele><time>2016-6-18T17:49:56Z</time></trkpt>
<trkpt lat="46.22029639" lon="6.10389249"><ele></ele><time>2016-6-18T17:49:59Z</time></trkpt>
<trkpt lat="46.22024165" lon="6.10383877"><ele></ele><time>2016-6-18T17:50:2Z</time></trkpt>
<trkpt lat="46.22016706" lon="6.10377624"><ele></ele><time>2016-6-18T17:50:5Z</time></trkpt>
<trkpt lat="46.22013437" lon="6.10358563"><ele></ele><time>2016-6-18T17:50:8Z</time></trkpt>
<trkpt lat="46.22008164" lon="6.10355512"><ele></ele><time>2016-6-18T17:50:11Z</time></trkpt>
<trkpt lat="46.22003429" lon="6.10356560"><ele></ele><time>2016-6-18T17:50:14Z</time></trkpt>
<trkpt lat="46.21998718" lon="6.10354196"><ele></ele><time>2016-6-18T17:50:17Z</time></trkpt>
<trkpt lat="46.21993882" lon="6.10349745"><ele></ele><time>2016-6-18T17:50:20Z</time></trkpt>
<trkpt lat="46.21988157" lon="6.10346829"><ele></ele><time>2016-6-18T17:50:23Z</time></trkpt>
<trkpt lat="46.21982818" lon="6.10342956"><ele></ele><time>2016-6-18T17:50:26Z</time></trkpt>
<trkpt lat="46.21976749" lon="6.10339662"><ele></ele><time>2016-6-18T17:50:29Z</time></trkpt>
<trkpt lat="46.21971259" lon="6.10337122"><ele></ele><time>2016-6-18T17:50:32Z</time></trkpt>
<trkpt lat="46.21965878" lon="6.10334365"><ele></ele><time>2016-6-18T17:50:35Z</time></trkpt>
<trkpt lat="46.21961125" lon="6.10329889"><ele></ele><time>2016-6-18T17:50:38Z</time></trkpt>
<trkpt lat="46.21956582" lon="6.10324365"><ele></ele><time>2016-6-18T17:50:41Z</time></trkpt>
<trkpt lat="46.21952383" lon="6.10319747"><ele></ele><time>2016-6-18T17:50:44Z</time></trkpt>
<trkpt lat="46.21948326" lon="6.10314894"><ele></ele><time>2016-6-18T17:50:47Z</time></trkpt>
<trkpt lat="46.21944135" lon="6.10310200"><ele></ele><time>2016-6-18T17:50:50Z</time></trkpt>
<trkpt lat="46.21939760" lon="6.10305615"><ele></ele><time>2016-6-18T17:50:53Z</time></trkpt>
<trkpt lat="46.21935208" lon="6.10301223"><ele></ele><time>2016-6-18T17:50:56Z</time></trkpt>
<trkpt lat="46.21931034" lon="6.10296336"><ele></ele><time>2016-6-18T17:50:59Z</time></trkpt>
<trkpt lat="46.21926659" lon="6.10291508"><ele></ele><time>2016-6-18T17:51:2Z</time></trkpt>
<trkpt lat="46.21922057" lon="6.10286906"><ele></ele><time>2016-6-18T17:51:5Z</time></trkpt>
<trkpt lat="46.21917112" lon="6.10282606"><ele></ele><time>2016-6-18T17:51:8Z</time></trkpt>
<trkpt lat="46.21912074" lon="6.10278273"><ele></ele><time>2016-6-18T17:51:11Z</time></trkpt>
<trkpt lat="46.21906986" lon="6.10273973"><ele></ele><time>2016-6-18T17:51:14Z</time></trkpt>
<trkpt lat="46.21901840" lon="6.10269707"><ele></ele><time>2016-6-18T17:51:17Z</time></trkpt>
<trkpt lat="46.21896635" lon="6.10265608"><ele></ele><time>2016-6-18T17:51:20Z</time></trkpt>
<trkpt lat="46.21891388" lon="6.10261727"><ele></ele><time>2016-6-18T17:51:23Z</time></trkpt>
<trkpt lat="46.21885998" lon="6.10257964"><ele></ele><time>2016-6-18T17:51:26Z</time></trkpt>
<trkpt lat="46.21880475" lon="6.10254309"><ele></ele><time>2016-6-18T17:51:29Z</time></trkpt>
<trkpt lat="46.21874674" lon="6.10250806"><ele></ele><time>2016-6-18T17:51:32Z</time></trkpt>
<trkpt lat="46.21868614" lon="6.10247956"><ele></ele><time>2016-6-18T17:51:35Z</time></trkpt>
<trkpt lat="46.21862403" lon="6.10246137"><ele></ele><time>2016-6-18T17:51:38Z</time></trkpt>
<trkpt lat="46.21856033" lon="6.10245223"><ele></ele><time>2016-6-18T17:51:41Z</time></trkpt>
<trkpt lat="46.21849688" lon="6.10245315"><ele></ele><time>2016-6-18T17:51:44Z</time></trkpt>
<trkpt lat="46.21842957" lon="6.10246212"><ele></ele><time>2016-6-18T17:51:47Z</time></trkpt>
<trkpt lat="46.21836327" lon="6.10248559"><ele></ele><time>2016-6-18T17:51:50Z</time></trkpt>
<trkpt lat="46.21830049" lon="6.10252138"><ele></ele><time>2016-6-18T17:51:53Z</time></trkpt>
<trkpt lat="46.21824249" lon="6.10256572"><ele></ele><time>2016-6-18T17:51:56Z</time></trkpt>
<trkpt lat="46.21818708" lon="6.10261534"><ele></ele><time>2016-6-18T17:51:59Z</time></trkpt>
<trkpt lat="46.21813470" lon="6.10267008"><ele></ele><time>2016-6-18T17:52:2Z</time></trkpt>
<trkpt lat="46.21808273" lon="6.10272699"><ele></ele><time>2016-6-18T17:52:5Z</time></trkpt>
<trkpt lat="46.21803160" lon="6.10278575"><ele></ele><time>2016-6-18T17:52:8Z</time></trkpt>
<trkpt lat="46.21798047" lon="6.10284694"><ele></ele><time>2016-6-18T17:52:11Z</time></trkpt>
<trkpt lat="46.21793018" lon="6.10290812"><ele></ele><time>2016-6-18T17:52:14Z</time></trkpt>
<trkpt lat="46.21787930" lon="6.10296797"><ele></ele><time>2016-6-18T17:52:17Z</time></trkpt>
<trkpt lat="46.21782775" lon="6.10302723"><ele></ele><time>2016-6-18T17:52:20Z</time></trkpt>
<trkpt lat="46.21777603" lon="6.10308800"><ele></ele><time>2016-6-18T17:52:23Z</time></trkpt>
<trkpt lat="46.21772365" lon="6.10315053"><ele></ele><time>2016-6-18T17:52:26Z</time></trkpt>
<trkpt lat="46.21767797" lon="6.10323083"><ele></ele><time>2016-6-18T17:52:29Z</time></trkpt>
<trkpt lat="46.21763748" lon="6.10331037"><ele></ele><time>2016-6-18T17:52:32Z</time></trkpt>
<trkpt lat="46.21759197" lon="6.10337567"><ele></ele><time>2016-6-18T17:52:35Z</time></trkpt>
<trkpt lat="46.21752474" lon="6.10345638"><ele></ele><time>2016-6-18T17:52:38Z</time></trkpt>
<trkpt lat="46.21746515" lon="6.10351573"><ele></ele><time>2016-6-18T17:52:41Z</time></trkpt>
<trkpt lat="46.21740706" lon="6.10358136"><ele></ele><time>2016-6-18T17:52:44Z</time></trkpt>
<trkpt lat="46.21735082" lon="6.10364472"><ele></ele><time>2016-6-18T17:52:47Z</time></trkpt>
<trkpt lat="46.21729533" lon="6.10370608"><ele></ele><time>2016-6-18T17:52:50Z</time></trkpt>
<trkpt lat="46.21724035" lon="6.10376702"><ele></ele><time>2016-6-18T17:52:53Z</time></trkpt>
<trkpt lat="46.21718553" lon="6.10382762"><ele></ele><time>2016-6-18T17:52:56Z</time></trkpt>
<trkpt lat="46.21712727" lon="6.10387623"><ele></ele><time>2016-6-18T17:52:59Z</time></trkpt>
<trkpt lat="46.21706919" lon="6.10392803"><ele></ele><time>2016-6-18T17:53:2Z</time></trkpt>
<trkpt lat="46.21701395" lon="6.10400314"><ele></ele><time>2016-6-18T17:53:5Z</time></trkpt>
<trkpt lat="46.21695838" lon="6.10408117"><ele></ele><time>2016-6-18T17:53:8Z</time></trkpt>
<trkpt lat="46.21689945" lon="6.10415460"><ele></ele><time>2016-6-18T17:53:11Z</time></trkpt>
<trkpt lat="46.21685176" lon="6.10423774"><ele></ele><time>2016-6-18T17:53:14Z</time></trkpt>
<trkpt lat="46.21679208" lon="6.10430279"><ele></ele><time>2016-6-18T17:53:17Z</time></trkpt>
<trkpt lat="46.21673307" lon="6.10436699"><ele></ele><time>2016-6-18T17:53:20Z</time></trkpt>
<trkpt lat="46.21667448" lon="6.10443145"><ele></ele><time>2016-6-18T17:53:23Z</time></trkpt>
<trkpt lat="46.21661548" lon="6.10448535"><ele></ele><time>2016-6-18T17:53:26Z</time></trkpt>
<trkpt lat="46.21655747" lon="6.10454176"><ele></ele><time>2016-6-18T17:53:29Z</time></trkpt>
<trkpt lat="46.21650006" lon="6.10459984"><ele></ele><time>2016-6-18T17:53:32Z</time></trkpt>
<trkpt lat="46.21644314" lon="6.10465935"><ele></ele><time>2016-6-18T17:53:35Z</time></trkpt>
<trkpt lat="46.21637592" lon="6.10471459"><ele></ele><time>2016-6-18T17:53:38Z</time></trkpt>
<trkpt lat="46.21631792" lon="6.10477578"><ele></ele><time>2016-6-18T17:53:41Z</time></trkpt>
<trkpt lat="46.21626033" lon="6.10483856"><ele></ele><time>2016-6-18T17:53:44Z</time></trkpt>
<trkpt lat="46.21620552" lon="6.10487469"><ele></ele><time>2016-6-18T17:53:47Z</time></trkpt>
<trkpt lat="46.21614919" lon="6.10493763"><ele></ele><time>2016-6-18T17:53:50Z</time></trkpt>
<trkpt lat="46.21609488" lon="6.10498616"><ele></ele><time>2016-6-18T17:53:53Z</time></trkpt>
<trkpt lat="46.21604048" lon="6.10503947"><ele></ele><time>2016-6-18T17:53:56Z</time></trkpt>
<trkpt lat="46.21598499" lon="6.10509396"><ele></ele><time>2016-6-18T17:53:59Z</time></trkpt>
<trkpt lat="46.21593185" lon="6.10512765"><ele></ele><time>2016-6-18T17:54:2Z</time></trkpt>
<trkpt lat="46.21587837" lon="6.10518683"><ele></ele><time>2016-6-18T17:54:5Z</time></trkpt>
<trkpt lat="46.21582397" lon="6.10526428"><ele></ele><time>2016-6-18T17:54:8Z</time></trkpt>
<trkpt lat="46.21577259" lon="6.10532245"><ele></ele><time>2016-6-18T17:54:11Z</time></trkpt>
<trkpt lat="46.21571367" lon="6.10538305"><ele></ele><time>2016-6-18T17:54:14Z</time></trkpt>
<trkpt lat="46.21565214" lon="6.10539998"><ele></ele><time>2016-6-18T17:54:17Z</time></trkpt>
<trkpt lat="46.21560168" lon="6.10538288"><ele></ele><time>2016-6-18T17:54:20Z</time></trkpt>
<trkpt lat="46.21556095" lon="6.10532555"><ele></ele><time>2016-6-18T17:54:23Z</time></trkpt>
<trkpt lat="46.21553765" lon="6.10524458"><ele></ele><time>2016-6-18T17:54:26Z</time></trkpt>
<trkpt lat="46.21548945" lon="6.10517702"><ele></ele><time>2016-6-18T17:54:29Z</time></trkpt>
<trkpt lat="46.21544788" lon="6.10508029"><ele></ele><time>2016-6-18T17:54:32Z</time></trkpt>
<trkpt lat="46.21540178" lon="6.10498373"><ele></ele><time>2016-6-18T17:54:35Z</time></trkpt>
<trkpt lat="46.21535157" lon="6.10489983"><ele></ele><time>2016-6-18T17:54:38Z</time></trkpt>
<trkpt lat="46.21527580" lon="6.10486220"><ele></ele><time>2016-6-18T17:54:41Z</time></trkpt>
<trkpt lat="46.21523129" lon="6.10477653"><ele></ele><time>2016-6-18T17:54:44Z</time></trkpt>
<trkpt lat="46.21517639" lon="6.10467905"><ele></ele><time>2016-6-18T17:54:47Z</time></trkpt>
<trkpt lat="46.21512459" lon="6.10459942"><ele></ele><time>2016-6-18T17:54:50Z</time></trkpt>
<trkpt lat="46.21507740" lon="6.10452063"><ele></ele><time>2016-6-18T17:54:53Z</time></trkpt>
<trkpt lat="46.21502635" lon="6.10445475"><ele></ele><time>2016-6-18T17:54:56Z</time></trkpt>
<trkpt lat="46.21496843" lon="6.10440128"><ele></ele><time>2016-6-18T17:54:59Z</time></trkpt>
<trkpt lat="46.21490984" lon="6.10435258"><ele></ele><time>2016-6-18T17:55:2Z</time></trkpt>
<trkpt lat="46.21485058" lon="6.10430849"><ele></ele><time>2016-6-18T17:55:5Z</time></trkpt>
<trkpt lat="46.21479702" lon="6.10426222"><ele></ele><time>2016-6-18T17:55:8Z</time></trkpt>
<trkpt lat="46.21475369" lon="6.10420774"><ele></ele><time>2016-6-18T17:55:11Z</time></trkpt>
<trkpt lat="46.21471756" lon="6.10415275"><ele></ele><time>2016-6-18T17:55:14Z</time></trkpt>
<trkpt lat="46.21467859" lon="6.10409944"><ele></ele><time>2016-6-18T17:55:17Z</time></trkpt>
<trkpt lat="46.21463542" lon="6.10405644"><ele></ele><time>2016-6-18T17:55:20Z</time></trkpt>
<trkpt lat="46.21459292" lon="6.10401152"><ele></ele><time>2016-6-18T17:55:23Z</time></trkpt>
<trkpt lat="46.21454758" lon="6.10396408"><ele></ele><time>2016-6-18T17:55:26Z</time></trkpt>
<trkpt lat="46.21450215" lon="6.10391714"><ele></ele><time>2016-6-18T17:55:29Z</time></trkpt>
<trkpt lat="46.21445579" lon="6.10387154"><ele></ele><time>2016-6-18T17:55:32Z</time></trkpt>
<trkpt lat="46.21441246" lon="6.10382376"><ele></ele><time>2016-6-18T17:55:35Z</time></trkpt>
<trkpt lat="46.21437172" lon="6.10377456"><ele></ele><time>2016-6-18T17:55:38Z</time></trkpt>
<trkpt lat="46.21432923" lon="6.10372595"><ele></ele><time>2016-6-18T17:55:41Z</time></trkpt>
<trkpt lat="46.21428824" lon="6.10367867"><ele></ele><time>2016-6-18T17:55:44Z</time></trkpt>
<trkpt lat="46.21424776" lon="6.10363584"><ele></ele><time>2016-6-18T17:55:47Z</time></trkpt>
<trkpt lat="46.21420643" lon="6.10359787"><ele></ele><time>2016-6-18T17:55:50Z</time></trkpt>
<trkpt lat="46.21416628" lon="6.10356174"><ele></ele><time>2016-6-18T17:55:53Z</time></trkpt>
<trkpt lat="46.21412739" lon="6.10352654"><ele></ele><time>2016-6-18T17:55:56Z</time></trkpt>
<trkpt lat="46.21409453" lon="6.10349377"><ele></ele><time>2016-6-18T17:55:59Z</time></trkpt>
<trkpt lat="46.21406076" lon="6.10345907"><ele></ele><time>2016-6-18T17:56:2Z</time></trkpt>
<trkpt lat="46.21402622" lon="6.10342822"><ele></ele><time>2016-6-18T17:56:5Z</time></trkpt>
<trkpt lat="46.21399269" lon="6.10339830"><ele></ele><time>2016-6-18T17:56:8Z</time></trkpt>
<trkpt lat="46.21396059" lon="6.10336795"><ele></ele><time>2016-6-18T17:56:11Z</time></trkpt>
<trkpt lat="46.21392916" lon="6.10333879"><ele></ele><time>2016-6-18T17:56:14Z</time></trkpt>
<trkpt lat="46.21389873" lon="6.10331054"><ele></ele><time>2016-6-18T17:56:17Z</time></trkpt>
<trkpt lat="46.21386998" lon="6.10328238"><ele></ele><time>2016-6-18T17:56:20Z</time></trkpt>
<trkpt lat="46.21384777" lon="6.10326033"><ele></ele><time>2016-6-18T17:56:23Z</time></trkpt>
<trkpt lat="46.21383637" lon="6.10324876"><ele></ele><time>2016-6-18T17:56:26Z</time></trkpt>
<trkpt lat="46.21383294" lon="6.10324709"><ele></ele><time>2016-6-18T17:56:29Z</time></trkpt>
<trkpt lat="46.21383235" lon="6.10324793"><ele></ele><time>2016-6-18T17:56:32Z</time></trkpt>
<trkpt lat="46.21383126" lon="6.10324969"><ele></ele><time>2016-6-18T17:56:35Z</time></trkpt>
<trkpt lat="46.21382967" lon="6.10325019"><ele></ele><time>2016-6-18T17:56:38Z</time></trkpt>
<trkpt lat="46.21383092" lon="6.10324952"><ele></ele><time>2016-6-18T17:56:41Z</time></trkpt>
<trkpt lat="46.21383134" lon="6.10324834"><ele></ele><time>2016-6-18T17:56:44Z</time></trkpt>
<trkpt lat="46.21383042" lon="6.10324868"><ele></ele><time>2016-6-18T17:56:47Z</time></trkpt>
<trkpt lat="46.21382807" lon="6.10325044"><ele></ele><time>2016-6-18T17:56:50Z</time></trkpt>
<trkpt lat="46.21382615" lon="6.10325019"><ele></ele><time>2016-6-18T17:56:53Z</time></trkpt>
<trkpt lat="46.21382657" lon="6.10324969"><ele></ele><time>2016-6-18T17:56:56Z</time></trkpt>
<trkpt lat="46.21382128" lon="6.10324642"><ele></ele><time>2016-6-18T17:56:59Z</time></trkpt>
<trkpt lat="46.21380829" lon="6.10323644"><ele></ele><time>2016-6-18T17:57:2Z</time></trkpt>
<trkpt lat="46.21379195" lon="6.10322404"><ele></ele><time>2016-6-18T17:57:5Z</time></trkpt>
<trkpt lat="46.21377074" lon="6.10320610"><ele></ele><time>2016-6-18T17:57:8Z</time></trkpt>
<trkpt lat="46.21374208" lon="6.10318506"><ele></ele><time>2016-6-18T17:57:11Z</time></trkpt>
<trkpt lat="46.21370737" lon="6.10316830"><ele></ele><time>2016-6-18T17:57:14Z</time></trkpt>
<trkpt lat="46.21366840" lon="6.10316335"><ele></ele><time>2016-6-18T17:57:17Z</time></trkpt>
<trkpt lat="46.21362733" lon="6.10317299"><ele></ele><time>2016-6-18T17:57:20Z</time></trkpt>
<trkpt lat="46.21358508" lon="6.10319680"><ele></ele><time>2016-6-18T17:57:23Z</time></trkpt>
<trkpt lat="46.21354292" lon="6.10323217"><ele></ele><time>2016-6-18T17:57:26Z</time></trkpt>
<trkpt lat="46.21349959" lon="6.10327374"><ele></ele><time>2016-6-18T17:57:29Z</time></trkpt>
<trkpt lat="46.21345508" lon="6.10331699"><ele></ele><time>2016-6-18T17:57:32Z</time></trkpt>
<trkpt lat="46.21339196" lon="6.10335865"><ele></ele><time>2016-6-18T17:57:35Z</time></trkpt>
<trkpt lat="46.21333882" lon="6.10340366"><ele></ele><time>2016-6-18T17:57:38Z</time></trkpt>
<trkpt lat="46.21329599" lon="6.10345999"><ele></ele><time>2016-6-18T17:57:41Z</time></trkpt>
<trkpt lat="46.21325224" lon="6.10351975"><ele></ele><time>2016-6-18T17:57:44Z</time></trkpt>
<trkpt lat="46.21320899" lon="6.10358362"><ele></ele><time>2016-6-18T17:57:47Z</time></trkpt>
<trkpt lat="46.21316842" lon="6.10365093"><ele></ele><time>2016-6-18T17:57:50Z</time></trkpt>
<trkpt lat="46.21312626" lon="6.10371773"><ele></ele><time>2016-6-18T17:57:53Z</time></trkpt>
<trkpt lat="46.21308234" lon="6.10378236"><ele></ele><time>2016-6-18T17:57:56Z</time></trkpt>
<trkpt lat="46.21303724" lon="6.10384296"><ele></ele><time>2016-6-18T17:57:59Z</time></trkpt>
<trkpt lat="46.21299198" lon="6.10390473"><ele></ele><time>2016-6-18T17:58:2Z</time></trkpt>
<trkpt lat="46.21294823" lon="6.10396827"><ele></ele><time>2016-6-18T17:58:5Z</time></trkpt>
<trkpt lat="46.21290305" lon="6.10403004"><ele></ele><time>2016-6-18T17:58:8Z</time></trkpt>
<trkpt lat="46.21285644" lon="6.10408762"><ele></ele><time>2016-6-18T17:58:11Z</time></trkpt>
<trkpt lat="46.21281453" lon="6.10414554"><ele></ele><time>2016-6-18T17:58:14Z</time></trkpt>
<trkpt lat="46.21277363" lon="6.10420640"><ele></ele><time>2016-6-18T17:58:17Z</time></trkpt>
<trkpt lat="46.21273348" lon="6.10426784"><ele></ele><time>2016-6-18T17:58:20Z</time></trkpt>
<trkpt lat="46.21269149" lon="6.10432894"><ele></ele><time>2016-6-18T17:58:23Z</time></trkpt>
<trkpt lat="46.21264924" lon="6.10438954"><ele></ele><time>2016-6-18T17:58:26Z</time></trkpt>
<trkpt lat="46.21260650" lon="6.10444964"><ele></ele><time>2016-6-18T17:58:29Z</time></trkpt>
<trkpt lat="46.21256383" lon="6.10450974"><ele></ele><time>2016-6-18T17:58:32Z</time></trkpt>
<trkpt lat="46.21252058" lon="6.10456975"><ele></ele><time>2016-6-18T17:58:35Z</time></trkpt>
<trkpt lat="46.21247708" lon="6.10463236"><ele></ele><time>2016-6-18T17:58:38Z</time></trkpt>
<trkpt lat="46.21243483" lon="6.10469892"><ele></ele><time>2016-6-18T17:58:41Z</time></trkpt>
<trkpt lat="46.21239326" lon="6.10476798"><ele></ele><time>2016-6-18T17:58:44Z</time></trkpt>
<trkpt lat="46.21235370" lon="6.10484032"><ele></ele><time>2016-6-18T17:58:47Z</time></trkpt>
<trkpt lat="46.21231564" lon="6.10491676"><ele></ele><time>2016-6-18T17:58:50Z</time></trkpt>
<trkpt lat="46.21227985" lon="6.10499396"><ele></ele><time>2016-6-18T17:58:53Z</time></trkpt>
<trkpt lat="46.21224507" lon="6.10507208"><ele></ele><time>2016-6-18T17:58:56Z</time></trkpt>
<trkpt lat="46.21221154" lon="6.10515229"><ele></ele><time>2016-6-18T17:58:59Z</time></trkpt>
<trkpt lat="46.21217726" lon="6.10523343"><ele></ele><time>2016-6-18T17:59:2Z</time></trkpt>
<trkpt lat="46.21214289" lon="6.10531599"><ele></ele><time>2016-6-18T17:59:5Z</time></trkpt>
<trkpt lat="46.21210827" lon="6.10539864"><ele></ele><time>2016-6-18T17:59:8Z</time></trkpt>
<trkpt lat="46.21207274" lon="6.10548640"><ele></ele><time>2016-6-18T17:59:11Z</time></trkpt>
<trkpt lat="46.21204524" lon="6.10557843"><ele></ele><time>2016-6-18T17:59:14Z</time></trkpt>
<trkpt lat="46.21201088" lon="6.10567549"><ele></ele><time>2016-6-18T17:59:17Z</time></trkpt>
<trkpt lat="46.21199294" lon="6.10576635"><ele></ele><time>2016-6-18T17:59:20Z</time></trkpt>
<trkpt lat="46.21197022" lon="6.10585637"><ele></ele><time>2016-6-18T17:59:23Z</time></trkpt>
<trkpt lat="46.21194005" lon="6.10594958"><ele></ele><time>2016-6-18T17:59:26Z</time></trkpt>
<trkpt lat="46.21191700" lon="6.10603927"><ele></ele><time>2016-6-18T17:59:29Z</time></trkpt>
<trkpt lat="46.21189856" lon="6.10613373"><ele></ele><time>2016-6-18T17:59:32Z</time></trkpt>
<trkpt lat="46.21187878" lon="6.10622526"><ele></ele><time>2016-6-18T17:59:35Z</time></trkpt>
<trkpt lat="46.21186185" lon="6.10631369"><ele></ele><time>2016-6-18T17:59:38Z</time></trkpt>
<trkpt lat="46.21183813" lon="6.10640438"><ele></ele><time>2016-6-18T17:59:41Z</time></trkpt>
<trkpt lat="46.21181122" lon="6.10649248"><ele></ele><time>2016-6-18T17:59:44Z</time></trkpt>
<trkpt lat="46.21178666" lon="6.10657739"><ele></ele><time>2016-6-18T17:59:47Z</time></trkpt>
<trkpt lat="46.21176328" lon="6.10666087"><ele></ele><time>2016-6-18T17:59:50Z</time></trkpt>
<trkpt lat="46.21173536" lon="6.10674863"><ele></ele><time>2016-6-18T17:59:53Z</time></trkpt>
<trkpt lat="46.21171039" lon="6.10683639"><ele></ele><time>2016-6-18T17:59:56Z</time></trkpt>
<trkpt lat="46.21169027" lon="6.10692498"><ele></ele><time>2016-6-18T17:59:59Z</time></trkpt>
<trkpt lat="46.21166906" lon="6.10701073"><ele></ele><time>2016-6-18T18:0:2Z</time></trkpt>
<trkpt lat="46.21164559" lon="6.10709664"><ele></ele><time>2016-6-18T18:0:5Z</time></trkpt>
<trkpt lat="46.21162657" lon="6.10718784"><ele></ele><time>2016-6-18T18:0:8Z</time></trkpt>
<trkpt lat="46.21160737" lon="6.10727568"><ele></ele><time>2016-6-18T18:0:11Z</time></trkpt>
<trkpt lat="46.21157980" lon="6.10736746"><ele></ele><time>2016-6-18T18:0:14Z</time></trkpt>
<trkpt lat="46.21155222" lon="6.10746059"><ele></ele><time>2016-6-18T18:0:17Z</time></trkpt>
<trkpt lat="46.21152263" lon="6.10755664"><ele></ele><time>2016-6-18T18:0:20Z</time></trkpt>
<trkpt lat="46.21149405" lon="6.10765664"><ele></ele><time>2016-6-18T18:0:23Z</time></trkpt>
<trkpt lat="46.21147494" lon="6.10775747"><ele></ele><time>2016-6-18T18:0:26Z</time></trkpt>
<trkpt lat="46.21145876" lon="6.10785428"><ele></ele><time>2016-6-18T18:0:29Z</time></trkpt>
<trkpt lat="46.21143546" lon="6.10795193"><ele></ele><time>2016-6-18T18:0:32Z</time></trkpt>
<trkpt lat="46.21140998" lon="6.10805067"><ele></ele><time>2016-6-18T18:0:35Z</time></trkpt>
<trkpt lat="46.21138768" lon="6.10815142"><ele></ele><time>2016-6-18T18:0:38Z</time></trkpt>
<trkpt lat="46.21136966" lon="6.10825259"><ele></ele><time>2016-6-18T18:0:41Z</time></trkpt>
<trkpt lat="46.21135156" lon="6.10835368"><ele></ele><time>2016-6-18T18:0:44Z</time></trkpt>
<trkpt lat="46.21133915" lon="6.10844705"><ele></ele><time>2016-6-18T18:0:47Z</time></trkpt>
<trkpt lat="46.21132105" lon="6.10853515"><ele></ele><time>2016-6-18T18:0:50Z</time></trkpt>
<trkpt lat="46.21129313" lon="6.10861075"><ele></ele><time>2016-6-18T18:0:53Z</time></trkpt>
<trkpt lat="46.21125282" lon="6.10867085"><ele></ele><time>2016-6-18T18:0:56Z</time></trkpt>
<trkpt lat="46.21119674" lon="6.10871368"><ele></ele><time>2016-6-18T18:0:59Z</time></trkpt>
<trkpt lat="46.21113145" lon="6.10873858"><ele></ele><time>2016-6-18T18:1:2Z</time></trkpt>
<trkpt lat="46.21105970" lon="6.10875517"><ele></ele><time>2016-6-18T18:1:5Z</time></trkpt>
<trkpt lat="46.21097856" lon="6.10877244"><ele></ele><time>2016-6-18T18:1:8Z</time></trkpt>
<trkpt lat="46.21090706" lon="6.10879272"><ele></ele><time>2016-6-18T18:1:11Z</time></trkpt>
<trkpt lat="46.21083297" lon="6.10881108"><ele></ele><time>2016-6-18T18:1:14Z</time></trkpt>
<trkpt lat="46.21076692" lon="6.10883329"><ele></ele><time>2016-6-18T18:1:17Z</time></trkpt>
<trkpt lat="46.21070053" lon="6.10885869"><ele></ele><time>2016-6-18T18:1:20Z</time></trkpt>
<trkpt lat="46.21062074" lon="6.10888224"><ele></ele><time>2016-6-18T18:1:23Z</time></trkpt>
<trkpt lat="46.21052158" lon="6.10891116"><ele></ele><time>2016-6-18T18:1:26Z</time></trkpt>
<trkpt lat="46.21045939" lon="6.10893840"><ele></ele><time>2016-6-18T18:1:29Z</time></trkpt>
<trkpt lat="46.21038370" lon="6.10896019"><ele></ele><time>2016-6-18T18:1:32Z</time></trkpt>
<trkpt lat="46.21029837" lon="6.10897302"><ele></ele><time>2016-6-18T18:1:35Z</time></trkpt>
<trkpt lat="46.21021614" lon="6.10899095"><ele></ele><time>2016-6-18T18:1:38Z</time></trkpt>
<trkpt lat="46.21015135" lon="6.10901635"><ele></ele><time>2016-6-18T18:1:41Z</time></trkpt>
<trkpt lat="46.21007684" lon="6.10901727"><ele></ele><time>2016-6-18T18:1:44Z</time></trkpt>
<trkpt lat="46.20997500" lon="6.10903932"><ele></ele><time>2016-6-18T18:1:47Z</time></trkpt>
<trkpt lat="46.20988397" lon="6.10906857"><ele></ele><time>2016-6-18T18:1:50Z</time></trkpt>
<trkpt lat="46.20979588" lon="6.10908399"><ele></ele><time>2016-6-18T18:1:53Z</time></trkpt>
<trkpt lat="46.20972354" lon="6.10911023"><ele></ele><time>2016-6-18T18:1:56Z</time></trkpt>
<trkpt lat="46.20965238" lon="6.10913076"><ele></ele><time>2016-6-18T18:1:59Z</time></trkpt>
<trkpt lat="46.20956328" lon="6.10914686"><ele></ele><time>2016-6-18T18:2:2Z</time></trkpt>
<trkpt lat="46.20947007" lon="6.10916538"><ele></ele><time>2016-6-18T18:2:5Z</time></trkpt>
<trkpt lat="46.20939706" lon="6.10918843"><ele></ele><time>2016-6-18T18:2:8Z</time></trkpt>
<trkpt lat="46.20932573" lon="6.10920914"><ele></ele><time>2016-6-18T18:2:11Z</time></trkpt>
<trkpt lat="46.20925415" lon="6.10922934"><ele></ele><time>2016-6-18T18:2:14Z</time></trkpt>
<trkpt lat="46.20918048" lon="6.10924836"><ele></ele><time>2016-6-18T18:2:17Z</time></trkpt>
<trkpt lat="46.20910479" lon="6.10926630"><ele></ele><time>2016-6-18T18:2:20Z</time></trkpt>
<trkpt lat="46.20902767" lon="6.10928298"><ele></ele><time>2016-6-18T18:2:23Z</time></trkpt>
<trkpt lat="46.20895039" lon="6.10929916"><ele></ele><time>2016-6-18T18:2:26Z</time></trkpt>
<trkpt lat="46.20887353" lon="6.10931475"><ele></ele><time>2016-6-18T18:2:29Z</time></trkpt>
<trkpt lat="46.20879633" lon="6.10932874"><ele></ele><time>2016-6-18T18:2:32Z</time></trkpt>
<trkpt lat="46.20871847" lon="6.10934274"><ele></ele><time>2016-6-18T18:2:35Z</time></trkpt>
<trkpt lat="46.20864102" lon="6.10935682"><ele></ele><time>2016-6-18T18:2:38Z</time></trkpt>
<trkpt lat="46.20856374" lon="6.10937124"><ele></ele><time>2016-6-18T18:2:41Z</time></trkpt>
<trkpt lat="46.20848637" lon="6.10938608"><ele></ele><time>2016-6-18T18:2:44Z</time></trkpt>
<trkpt lat="46.20840875" lon="6.10940175"><ele></ele><time>2016-6-18T18:2:47Z</time></trkpt>
<trkpt lat="46.20833223" lon="6.10941416"><ele></ele><time>2016-6-18T18:2:50Z</time></trkpt>
<trkpt lat="46.20825578" lon="6.10942824"><ele></ele><time>2016-6-18T18:2:53Z</time></trkpt>
<trkpt lat="46.20817917" lon="6.10944282"><ele></ele><time>2016-6-18T18:2:56Z</time></trkpt>
<trkpt lat="46.20810298" lon="6.10945825"><ele></ele><time>2016-6-18T18:2:59Z</time></trkpt>
<trkpt lat="46.20802738" lon="6.10947199"><ele></ele><time>2016-6-18T18:3:2Z</time></trkpt>
<trkpt lat="46.20795152" lon="6.10948574"><ele></ele><time>2016-6-18T18:3:5Z</time></trkpt>
<trkpt lat="46.20787533" lon="6.10949915"><ele></ele><time>2016-6-18T18:3:8Z</time></trkpt>
<trkpt lat="46.20779729" lon="6.10951633"><ele></ele><time>2016-6-18T18:3:11Z</time></trkpt>
<trkpt lat="46.20771943" lon="6.10953259"><ele></ele><time>2016-6-18T18:3:14Z</time></trkpt>
<trkpt lat="46.20764055" lon="6.10954810"><ele></ele><time>2016-6-18T18:3:17Z</time></trkpt>
<trkpt lat="46.20755749" lon="6.10956034"><ele></ele><time>2016-6-18T18:3:20Z</time></trkpt>
<trkpt lat="46.20747794" lon="6.10957216"><ele></ele><time>2016-6-18T18:3:23Z</time></trkpt>
<trkpt lat="46.20739932" lon="6.10958406"><ele></ele><time>2016-6-18T18:3:26Z</time></trkpt>
<trkpt lat="46.20732162" lon="6.10959613"><ele></ele><time>2016-6-18T18:3:29Z</time></trkpt>
<trkpt lat="46.20724484" lon="6.10960778"><ele></ele><time>2016-6-18T18:3:32Z</time></trkpt>
<trkpt lat="46.20716857" lon="6.10961960"><ele></ele><time>2016-6-18T18:3:35Z</time></trkpt>
<trkpt lat="46.20709506" lon="6.10963259"><ele></ele><time>2016-6-18T18:3:38Z</time></trkpt>
<trkpt lat="46.20702138" lon="6.10964374"><ele></ele><time>2016-6-18T18:3:41Z</time></trkpt>
<trkpt lat="46.20694879" lon="6.10965329"><ele></ele><time>2016-6-18T18:3:44Z</time></trkpt>
<trkpt lat="46.20687579" lon="6.10966092"><ele></ele><time>2016-6-18T18:3:47Z</time></trkpt>
<trkpt lat="46.20679775" lon="6.10966612"><ele></ele><time>2016-6-18T18:3:50Z</time></trkpt>
<trkpt lat="46.20672835" lon="6.10967676"><ele></ele><time>2016-6-18T18:3:53Z</time></trkpt>
<trkpt lat="46.20666004" lon="6.10968732"><ele></ele><time>2016-6-18T18:3:56Z</time></trkpt>
<trkpt lat="46.20659290" lon="6.10969948"><ele></ele><time>2016-6-18T18:3:59Z</time></trkpt>
<trkpt lat="46.20652685" lon="6.10971306"><ele></ele><time>2016-6-18T18:4:2Z</time></trkpt>
<trkpt lat="46.20646315" lon="6.10972638"><ele></ele><time>2016-6-18T18:4:5Z</time></trkpt>
<trkpt lat="46.20639936" lon="6.10973535"><ele></ele><time>2016-6-18T18:4:8Z</time></trkpt>
<trkpt lat="46.20633407" lon="6.10973912"><ele></ele><time>2016-6-18T18:4:11Z</time></trkpt>
<trkpt lat="46.20626885" lon="6.10974088"><ele></ele><time>2016-6-18T18:4:14Z</time></trkpt>
<trkpt lat="46.20620482" lon="6.10973946"><ele></ele><time>2016-6-18T18:4:17Z</time></trkpt>
<trkpt lat="46.20613994" lon="6.10973896"><ele></ele><time>2016-6-18T18:4:20Z</time></trkpt>
<trkpt lat="46.20607448" lon="6.10974600"><ele></ele><time>2016-6-18T18:4:23Z</time></trkpt>
<trkpt lat="46.20601145" lon="6.10975865"><ele></ele><time>2016-6-18T18:4:26Z</time></trkpt>
<trkpt lat="46.20594783" lon="6.10977240"><ele></ele><time>2016-6-18T18:4:29Z</time></trkpt>
<trkpt lat="46.20588362" lon="6.10978539"><ele></ele><time>2016-6-18T18:4:32Z</time></trkpt>
<trkpt lat="46.20582118" lon="6.10980023"><ele></ele><time>2016-6-18T18:4:35Z</time></trkpt>
<trkpt lat="46.20576007" lon="6.10981858"><ele></ele><time>2016-6-18T18:4:38Z</time></trkpt>
<trkpt lat="46.20570056" lon="6.10983878"><ele></ele><time>2016-6-18T18:4:41Z</time></trkpt>
<trkpt lat="46.20564273" lon="6.10985504"><ele></ele><time>2016-6-18T18:4:44Z</time></trkpt>
<trkpt lat="46.20558246" lon="6.10986225"><ele></ele><time>2016-6-18T18:4:47Z</time></trkpt>
<trkpt lat="46.20552303" lon="6.10986720"><ele></ele><time>2016-6-18T18:4:50Z</time></trkpt>
<trkpt lat="46.20546143" lon="6.10987608"><ele></ele><time>2016-6-18T18:4:53Z</time></trkpt>
<trkpt lat="46.20539898" lon="6.10989318"><ele></ele><time>2016-6-18T18:4:56Z</time></trkpt>
<trkpt lat="46.20532975" lon="6.10991866"><ele></ele><time>2016-6-18T18:4:59Z</time></trkpt>
<trkpt lat="46.20524836" lon="6.10987768"><ele></ele><time>2016-6-18T18:5:2Z</time></trkpt>
<trkpt lat="46.20520368" lon="6.10989193"><ele></ele><time>2016-6-18T18:5:5Z</time></trkpt>
<trkpt lat="46.20514937" lon="6.10990215"><ele></ele><time>2016-6-18T18:5:8Z</time></trkpt>
<trkpt lat="46.20509589" lon="6.10990408"><ele></ele><time>2016-6-18T18:5:11Z</time></trkpt>
<trkpt lat="46.20505423" lon="6.10991196"><ele></ele><time>2016-6-18T18:5:14Z</time></trkpt>
<trkpt lat="46.20500696" lon="6.10992403"><ele></ele><time>2016-6-18T18:5:17Z</time></trkpt>
<trkpt lat="46.20495558" lon="6.10994725"><ele></ele><time>2016-6-18T18:5:20Z</time></trkpt>
<trkpt lat="46.20490126" lon="6.10997859"><ele></ele><time>2016-6-18T18:5:23Z</time></trkpt>
<trkpt lat="46.20483798" lon="6.11001539"><ele></ele><time>2016-6-18T18:5:26Z</time></trkpt>
<trkpt lat="46.20476447" lon="6.11004515"><ele></ele><time>2016-6-18T18:5:29Z</time></trkpt>
<trkpt lat="46.20468166" lon="6.11006065"><ele></ele><time>2016-6-18T18:5:32Z</time></trkpt>
<trkpt lat="46.20460873" lon="6.11007767"><ele></ele><time>2016-6-18T18:5:35Z</time></trkpt>
<trkpt lat="46.20452768" lon="6.11009837"><ele></ele><time>2016-6-18T18:5:38Z</time></trkpt>
<trkpt lat="46.20444462" lon="6.11011782"><ele></ele><time>2016-6-18T18:5:41Z</time></trkpt>
<trkpt lat="46.20436013" lon="6.11013450"><ele></ele><time>2016-6-18T18:5:44Z</time></trkpt>
<trkpt lat="46.20427346" lon="6.11014883"><ele></ele><time>2016-6-18T18:5:47Z</time></trkpt>
<trkpt lat="46.20418352" lon="6.11016350"><ele></ele><time>2016-6-18T18:5:50Z</time></trkpt>
<trkpt lat="46.20409015" lon="6.11017758"><ele></ele><time>2016-6-18T18:5:53Z</time></trkpt>
<trkpt lat="46.20399736" lon="6.11019183"><ele></ele><time>2016-6-18T18:5:56Z</time></trkpt>
<trkpt lat="46.20390248" lon="6.11020742"><ele></ele><time>2016-6-18T18:5:59Z</time></trkpt>
<trkpt lat="46.20380986" lon="6.11022452"><ele></ele><time>2016-6-18T18:6:2Z</time></trkpt>
<trkpt lat="46.20371313" lon="6.11023776"><ele></ele><time>2016-6-18T18:6:5Z</time></trkpt>
<trkpt lat="46.20361665" lon="6.11025302"><ele></ele><time>2016-6-18T18:6:8Z</time></trkpt>
<trkpt lat="46.20351573" lon="6.11026475"><ele></ele><time>2016-6-18T18:6:11Z</time></trkpt>
<trkpt lat="46.20341348" lon="6.11027800"><ele></ele><time>2016-6-18T18:6:14Z</time></trkpt>
<trkpt lat="46.20331147" lon="6.11029317"><ele></ele><time>2016-6-18T18:6:17Z</time></trkpt>
<trkpt lat="46.20320795" lon="6.11030825"><ele></ele><time>2016-6-18T18:6:20Z</time></trkpt>
<trkpt lat="46.20310712" lon="6.11032544"><ele></ele><time>2016-6-18T18:6:23Z</time></trkpt>
<trkpt lat="46.20300628" lon="6.11034312"><ele></ele><time>2016-6-18T18:6:26Z</time></trkpt>
<trkpt lat="46.20290788" lon="6.11035947"><ele></ele><time>2016-6-18T18:6:29Z</time></trkpt>
<trkpt lat="46.20280989" lon="6.11037514"><ele></ele><time>2016-6-18T18:6:32Z</time></trkpt>
<trkpt lat="46.20271199" lon="6.11039048"><ele></ele><time>2016-6-18T18:6:35Z</time></trkpt>
<trkpt lat="46.20261309" lon="6.11040708"><ele></ele><time>2016-6-18T18:6:38Z</time></trkpt>
<trkpt lat="46.20251452" lon="6.11042418"><ele></ele><time>2016-6-18T18:6:41Z</time></trkpt>
<trkpt lat="46.20241846" lon="6.11043977"><ele></ele><time>2016-6-18T18:6:44Z</time></trkpt>
<trkpt lat="46.20232358" lon="6.11045578"><ele></ele><time>2016-6-18T18:6:47Z</time></trkpt>
<trkpt lat="46.20222928" lon="6.11047187"><ele></ele><time>2016-6-18T18:6:50Z</time></trkpt>
<trkpt lat="46.20213473" lon="6.11048847"><ele></ele><time>2016-6-18T18:6:53Z</time></trkpt>
<trkpt lat="46.20203993" lon="6.11050473"><ele></ele><time>2016-6-18T18:6:56Z</time></trkpt>
<trkpt lat="46.20194513" lon="6.11052065"><ele></ele><time>2016-6-18T18:6:59Z</time></trkpt>
<trkpt lat="46.20185033" lon="6.11053574"><ele></ele><time>2016-6-18T18:7:2Z</time></trkpt>
<trkpt lat="46.20175646" lon="6.11055225"><ele></ele><time>2016-6-18T18:7:5Z</time></trkpt>
<trkpt lat="46.20166518" lon="6.11056809"><ele></ele><time>2016-6-18T18:7:8Z</time></trkpt>
<trkpt lat="46.20157306" lon="6.11058427"><ele></ele><time>2016-6-18T18:7:11Z</time></trkpt>
<trkpt lat="46.20148136" lon="6.11060137"><ele></ele><time>2016-6-18T18:7:14Z</time></trkpt>
<trkpt lat="46.20138816" lon="6.11061897"><ele></ele><time>2016-6-18T18:7:17Z</time></trkpt>
<trkpt lat="46.20129495" lon="6.11063766"><ele></ele><time>2016-6-18T18:7:20Z</time></trkpt>
<trkpt lat="46.20120107" lon="6.11065627"><ele></ele><time>2016-6-18T18:7:23Z</time></trkpt>
<trkpt lat="46.20110904" lon="6.11067303"><ele></ele><time>2016-6-18T18:7:26Z</time></trkpt>
<trkpt lat="46.20101726" lon="6.11068988"><ele></ele><time>2016-6-18T18:7:29Z</time></trkpt>
<trkpt lat="46.20092556" lon="6.11070748"><ele></ele><time>2016-6-18T18:7:32Z</time></trkpt>
<trkpt lat="46.20083579" lon="6.11072358"><ele></ele><time>2016-6-18T18:7:35Z</time></trkpt>
<trkpt lat="46.20074644" lon="6.11073942"><ele></ele><time>2016-6-18T18:7:38Z</time></trkpt>
<trkpt lat="46.20065709" lon="6.11075568"><ele></ele><time>2016-6-18T18:7:41Z</time></trkpt>
<trkpt lat="46.20056757" lon="6.11077228"><ele></ele><time>2016-6-18T18:7:44Z</time></trkpt>
<trkpt lat="46.20047813" lon="6.11078946"><ele></ele><time>2016-6-18T18:7:47Z</time></trkpt>
<trkpt lat="46.20038878" lon="6.11080597"><ele></ele><time>2016-6-18T18:7:50Z</time></trkpt>
<trkpt lat="46.20029977" lon="6.11082206"><ele></ele><time>2016-6-18T18:7:53Z</time></trkpt>
<trkpt lat="46.20021083" lon="6.11083816"><ele></ele><time>2016-6-18T18:7:56Z</time></trkpt>
<trkpt lat="46.20012249" lon="6.11085417"><ele></ele><time>2016-6-18T18:7:59Z</time></trkpt>
<trkpt lat="46.20003406" lon="6.11087068"><ele></ele><time>2016-6-18T18:8:2Z</time></trkpt>
<trkpt lat="46.19994546" lon="6.11088736"><ele></ele><time>2016-6-18T18:8:5Z</time></trkpt>
<trkpt lat="46.19985670" lon="6.11090379"><ele></ele><time>2016-6-18T18:8:8Z</time></trkpt>
<trkpt lat="46.19976819" lon="6.11091955"><ele></ele><time>2016-6-18T18:8:11Z</time></trkpt>
<trkpt lat="46.19967976" lon="6.11093455"><ele></ele><time>2016-6-18T18:8:14Z</time></trkpt>
<trkpt lat="46.19959108" lon="6.11094989"><ele></ele><time>2016-6-18T18:8:17Z</time></trkpt>
<trkpt lat="46.19950240" lon="6.11096615"><ele></ele><time>2016-6-18T18:8:20Z</time></trkpt>
<trkpt lat="46.19941279" lon="6.11098275"><ele></ele><time>2016-6-18T18:8:23Z</time></trkpt>
<trkpt lat="46.19932369" lon="6.11099984"><ele></ele><time>2016-6-18T18:8:26Z</time></trkpt>
<trkpt lat="46.19923510" lon="6.11101686"><ele></ele><time>2016-6-18T18:8:29Z</time></trkpt>
<trkpt lat="46.19914709" lon="6.11103295"><ele></ele><time>2016-6-18T18:8:32Z</time></trkpt>
<trkpt lat="46.19905950" lon="6.11104804"><ele></ele><time>2016-6-18T18:8:35Z</time></trkpt>
<trkpt lat="46.19897308" lon="6.11106279"><ele></ele><time>2016-6-18T18:8:38Z</time></trkpt>
<trkpt lat="46.19888708" lon="6.11107788"><ele></ele><time>2016-6-18T18:8:41Z</time></trkpt>
<trkpt lat="46.19880276" lon="6.11109322"><ele></ele><time>2016-6-18T18:8:44Z</time></trkpt>
<trkpt lat="46.19871936" lon="6.11110839"><ele></ele><time>2016-6-18T18:8:47Z</time></trkpt>
<trkpt lat="46.19863629" lon="6.11112348"><ele></ele><time>2016-6-18T18:8:50Z</time></trkpt>
<trkpt lat="46.19855356" lon="6.11113840"><ele></ele><time>2016-6-18T18:8:53Z</time></trkpt>
<trkpt lat="46.19847092" lon="6.11115315"><ele></ele><time>2016-6-18T18:8:56Z</time></trkpt>
<trkpt lat="46.19838802" lon="6.11116765"><ele></ele><time>2016-6-18T18:8:59Z</time></trkpt>
<trkpt lat="46.19830605" lon="6.11118198"><ele></ele><time>2016-6-18T18:9:2Z</time></trkpt>
<trkpt lat="46.19822474" lon="6.11119715"><ele></ele><time>2016-6-18T18:9:5Z</time></trkpt>
<trkpt lat="46.19814369" lon="6.11121275"><ele></ele><time>2016-6-18T18:9:8Z</time></trkpt>
<trkpt lat="46.19806322" lon="6.11122783"><ele></ele><time>2016-6-18T18:9:11Z</time></trkpt>
<trkpt lat="46.19798318" lon="6.11124267"><ele></ele><time>2016-6-18T18:9:14Z</time></trkpt>
<trkpt lat="46.19790355" lon="6.11125742"><ele></ele><time>2016-6-18T18:9:17Z</time></trkpt>
<trkpt lat="46.19782417" lon="6.11127226"><ele></ele><time>2016-6-18T18:9:20Z</time></trkpt>
<trkpt lat="46.19774496" lon="6.11128709"><ele></ele><time>2016-6-18T18:9:23Z</time></trkpt>
<trkpt lat="46.19766684" lon="6.11130184"><ele></ele><time>2016-6-18T18:9:26Z</time></trkpt>
<trkpt lat="46.19758939" lon="6.11131702"><ele></ele><time>2016-6-18T18:9:29Z</time></trkpt>
<trkpt lat="46.19751178" lon="6.11133529"><ele></ele><time>2016-6-18T18:9:32Z</time></trkpt>
<trkpt lat="46.19743416" lon="6.11135666"><ele></ele><time>2016-6-18T18:9:35Z</time></trkpt>
<trkpt lat="46.19735906" lon="6.11137854"><ele></ele><time>2016-6-18T18:9:38Z</time></trkpt>
<trkpt lat="46.19728412" lon="6.11140377"><ele></ele><time>2016-6-18T18:9:41Z</time></trkpt>
<trkpt lat="46.19720978" lon="6.11143126"><ele></ele><time>2016-6-18T18:9:44Z</time></trkpt>
<trkpt lat="46.19713476" lon="6.11146085"><ele></ele><time>2016-6-18T18:9:47Z</time></trkpt>
<trkpt lat="46.19706008" lon="6.11149496"><ele></ele><time>2016-6-18T18:9:50Z</time></trkpt>
<trkpt lat="46.19698673" lon="6.11153176"><ele></ele><time>2016-6-18T18:9:53Z</time></trkpt>
<trkpt lat="46.19691499" lon="6.11157132"><ele></ele><time>2016-6-18T18:9:56Z</time></trkpt>
<trkpt lat="46.19684424" lon="6.11161474"><ele></ele><time>2016-6-18T18:9:59Z</time></trkpt>
<trkpt lat="46.19677333" lon="6.11166143"><ele></ele><time>2016-6-18T18:10:2Z</time></trkpt>
<trkpt lat="46.19670234" lon="6.11170996"><ele></ele><time>2016-6-18T18:10:5Z</time></trkpt>
<trkpt lat="46.19663059" lon="6.11175807"><ele></ele><time>2016-6-18T18:10:8Z</time></trkpt>
<trkpt lat="46.19655934" lon="6.11180484"><ele></ele><time>2016-6-18T18:10:11Z</time></trkpt>
<trkpt lat="46.19648793" lon="6.11185002"><ele></ele><time>2016-6-18T18:10:14Z</time></trkpt>
<trkpt lat="46.19641643" lon="6.11189562"><ele></ele><time>2016-6-18T18:10:17Z</time></trkpt>
<trkpt lat="46.19633982" lon="6.11194390"><ele></ele><time>2016-6-18T18:10:20Z</time></trkpt>
<trkpt lat="46.19626338" lon="6.11199964"><ele></ele><time>2016-6-18T18:10:23Z</time></trkpt>
<trkpt lat="46.19620596" lon="6.11204104"><ele></ele><time>2016-6-18T18:10:26Z</time></trkpt>
<trkpt lat="46.19613220" lon="6.11206435"><ele></ele><time>2016-6-18T18:10:29Z</time></trkpt>
<trkpt lat="46.19605626" lon="6.11208639"><ele></ele><time>2016-6-18T18:10:32Z</time></trkpt>
<trkpt lat="46.19598367" lon="6.11210525"><ele></ele><time>2016-6-18T18:10:35Z</time></trkpt>
<trkpt lat="46.19591159" lon="6.11211975"><ele></ele><time>2016-6-18T18:10:38Z</time></trkpt>
<trkpt lat="46.19583875" lon="6.11213232"><ele></ele><time>2016-6-18T18:10:41Z</time></trkpt>
<trkpt lat="46.19576683" lon="6.11214607"><ele></ele><time>2016-6-18T18:10:44Z</time></trkpt>
<trkpt lat="46.19569374" lon="6.11215898"><ele></ele><time>2016-6-18T18:10:47Z</time></trkpt>
<trkpt lat="46.19561998" lon="6.11216879"><ele></ele><time>2016-6-18T18:10:50Z</time></trkpt>
<trkpt lat="46.19554656" lon="6.11217516"><ele></ele><time>2016-6-18T18:10:53Z</time></trkpt>
<trkpt lat="46.19547363" lon="6.11217700"><ele></ele><time>2016-6-18T18:10:56Z</time></trkpt>
<trkpt lat="46.19540105" lon="6.11217625"><ele></ele><time>2016-6-18T18:10:59Z</time></trkpt>
<trkpt lat="46.19532879" lon="6.11217599"><ele></ele><time>2016-6-18T18:11:2Z</time></trkpt>
<trkpt lat="46.19525604" lon="6.11217432"><ele></ele><time>2016-6-18T18:11:5Z</time></trkpt>
<trkpt lat="46.19518396" lon="6.11217189"><ele></ele><time>2016-6-18T18:11:8Z</time></trkpt>
<trkpt lat="46.19511254" lon="6.11216946"><ele></ele><time>2016-6-18T18:11:11Z</time></trkpt>
<trkpt lat="46.19504138" lon="6.11216895"><ele></ele><time>2016-6-18T18:11:14Z</time></trkpt>
<trkpt lat="46.19497332" lon="6.11216133"><ele></ele><time>2016-6-18T18:11:17Z</time></trkpt>
<trkpt lat="46.19491112" lon="6.11213350"><ele></ele><time>2016-6-18T18:11:20Z</time></trkpt>
<trkpt lat="46.19485547" lon="6.11208262"><ele></ele><time>2016-6-18T18:11:23Z</time></trkpt>
<trkpt lat="46.19481498" lon="6.11201230"><ele></ele><time>2016-6-18T18:11:26Z</time></trkpt>
<trkpt lat="46.19478808" lon="6.11192948"><ele></ele><time>2016-6-18T18:11:29Z</time></trkpt>
<trkpt lat="46.19478540" lon="6.11182496"><ele></ele><time>2016-6-18T18:11:32Z</time></trkpt>
<trkpt lat="46.19478112" lon="6.11172094"><ele></ele><time>2016-6-18T18:11:35Z</time></trkpt>
<trkpt lat="46.19477869" lon="6.11161600"><ele></ele><time>2016-6-18T18:11:38Z</time></trkpt>
<trkpt lat="46.19478196" lon="6.11151215"><ele></ele><time>2016-6-18T18:11:41Z</time></trkpt>
<trkpt lat="46.19478280" lon="6.11141039"><ele></ele><time>2016-6-18T18:11:44Z</time></trkpt>
<trkpt lat="46.19478263" lon="6.11130604"><ele></ele><time>2016-6-18T18:11:47Z</time></trkpt>
<trkpt lat="46.19477886" lon="6.11119992"><ele></ele><time>2016-6-18T18:11:50Z</time></trkpt>
<trkpt lat="46.19477006" lon="6.11109347"><ele></ele><time>2016-6-18T18:11:53Z</time></trkpt>
<trkpt lat="46.19476310" lon="6.11098375"><ele></ele><time>2016-6-18T18:11:56Z</time></trkpt>
<trkpt lat="46.19475463" lon="6.11087135"><ele></ele><time>2016-6-18T18:11:59Z</time></trkpt>
<trkpt lat="46.19474768" lon="6.11075769"><ele></ele><time>2016-6-18T18:12:2Z</time></trkpt>
<trkpt lat="46.19473133" lon="6.11064554"><ele></ele><time>2016-6-18T18:12:5Z</time></trkpt>
<trkpt lat="46.19472144" lon="6.11053105"><ele></ele><time>2016-6-18T18:12:8Z</time></trkpt>
<trkpt lat="46.19470677" lon="6.11042325"><ele></ele><time>2016-6-18T18:12:11Z</time></trkpt>
<trkpt lat="46.19469479" lon="6.11031136"><ele></ele><time>2016-6-18T18:12:14Z</time></trkpt>
<trkpt lat="46.19468297" lon="6.11020516"><ele></ele><time>2016-6-18T18:12:17Z</time></trkpt>
<trkpt lat="46.19466118" lon="6.11011807"><ele></ele><time>2016-6-18T18:12:20Z</time></trkpt>
<trkpt lat="46.19463905" lon="6.11002863"><ele></ele><time>2016-6-18T18:12:23Z</time></trkpt>
<trkpt lat="46.19461147" lon="6.10994088"><ele></ele><time>2016-6-18T18:12:26Z</time></trkpt>
<trkpt lat="46.19458096" lon="6.10985789"><ele></ele><time>2016-6-18T18:12:29Z</time></trkpt>
<trkpt lat="46.19454517" lon="6.10978447"><ele></ele><time>2016-6-18T18:12:32Z</time></trkpt>
<trkpt lat="46.19451508" lon="6.10971490"><ele></ele><time>2016-6-18T18:12:35Z</time></trkpt>
<trkpt lat="46.19449153" lon="6.10964256"><ele></ele><time>2016-6-18T18:12:38Z</time></trkpt>
<trkpt lat="46.19446957" lon="6.10957660"><ele></ele><time>2016-6-18T18:12:41Z</time></trkpt>
<trkpt lat="46.19444677" lon="6.10951298"><ele></ele><time>2016-6-18T18:12:44Z</time></trkpt>
<trkpt lat="46.19442196" lon="6.10945154"><ele></ele><time>2016-6-18T18:12:47Z</time></trkpt>
<trkpt lat="46.19439715" lon="6.10939387"><ele></ele><time>2016-6-18T18:12:50Z</time></trkpt>
<trkpt lat="46.19437384" lon="6.10933579"><ele></ele><time>2016-6-18T18:12:53Z</time></trkpt>
<trkpt lat="46.19435423" lon="6.10928264"><ele></ele><time>2016-6-18T18:12:56Z</time></trkpt>
<trkpt lat="46.19433705" lon="6.10923638"><ele></ele><time>2016-6-18T18:12:59Z</time></trkpt>
<trkpt lat="46.19431945" lon="6.10919656"><ele></ele><time>2016-6-18T18:13:2Z</time></trkpt>
<trkpt lat="46.19430327" lon="6.10916396"><ele></ele><time>2016-6-18T18:13:5Z</time></trkpt>
<trkpt lat="46.19429187" lon="6.10913646"><ele></ele><time>2016-6-18T18:13:8Z</time></trkpt>
<trkpt lat="46.19428667" lon="6.10911626"><ele></ele><time>2016-6-18T18:13:11Z</time></trkpt>
<trkpt lat="46.19428466" lon="6.10910730"><ele></ele><time>2016-6-18T18:13:14Z</time></trkpt>
<trkpt lat="46.19428533" lon="6.10910805"><ele></ele><time>2016-6-18T18:13:17Z</time></trkpt>
<trkpt lat="46.19429212" lon="6.10910822"><ele></ele><time>2016-6-18T18:13:20Z</time></trkpt>
<trkpt lat="46.19429849" lon="6.10910738"><ele></ele><time>2016-6-18T18:13:23Z</time></trkpt>
<trkpt lat="46.19429883" lon="6.10910797"><ele></ele><time>2016-6-18T18:13:26Z</time></trkpt>
<trkpt lat="46.19430520" lon="6.10910503"><ele></ele><time>2016-6-18T18:13:29Z</time></trkpt>
<trkpt lat="46.19430503" lon="6.10910445"><ele></ele><time>2016-6-18T18:13:32Z</time></trkpt>
<trkpt lat="46.19430436" lon="6.10910486"><ele></ele><time>2016-6-18T18:13:35Z</time></trkpt>
<trkpt lat="46.19430369" lon="6.10910553"><ele></ele><time>2016-6-18T18:13:38Z</time></trkpt>
<trkpt lat="46.19430436" lon="6.10910612"><ele></ele><time>2016-6-18T18:13:41Z</time></trkpt>
<trkpt lat="46.19430469" lon="6.10910746"><ele></ele><time>2016-6-18T18:13:44Z</time></trkpt>
<trkpt lat="46.19430553" lon="6.10910838"><ele></ele><time>2016-6-18T18:13:47Z</time></trkpt>
<trkpt lat="46.19430595" lon="6.10910922"><ele></ele><time>2016-6-18T18:13:50Z</time></trkpt>
<trkpt lat="46.19430578" lon="6.10910998"><ele></ele><time>2016-6-18T18:13:53Z</time></trkpt>
<trkpt lat="46.19430553" lon="6.10911048"><ele></ele><time>2016-6-18T18:13:56Z</time></trkpt>
<trkpt lat="46.19430536" lon="6.10911107"><ele></ele><time>2016-6-18T18:13:59Z</time></trkpt>
<trkpt lat="46.19430494" lon="6.10911199"><ele></ele><time>2016-6-18T18:14:2Z</time></trkpt>
<trkpt lat="46.19430503" lon="6.10911266"><ele></ele><time>2016-6-18T18:14:5Z</time></trkpt>
<trkpt lat="46.19430520" lon="6.10911325"><ele></ele><time>2016-6-18T18:14:8Z</time></trkpt>
<trkpt lat="46.19430536" lon="6.10911383"><ele></ele><time>2016-6-18T18:14:11Z</time></trkpt>
<trkpt lat="46.19430536" lon="6.10911442"><ele></ele><time>2016-6-18T18:14:14Z</time></trkpt>
<trkpt lat="46.19430545" lon="6.10911509"><ele></ele><time>2016-6-18T18:14:17Z</time></trkpt>
<trkpt lat="46.19430536" lon="6.10911543"><ele></ele><time>2016-6-18T18:14:20Z</time></trkpt>
<trkpt lat="46.19430553" lon="6.10911660"><ele></ele><time>2016-6-18T18:14:23Z</time></trkpt>
<trkpt lat="46.19430570" lon="6.10911777"><ele></ele><time>2016-6-18T18:14:26Z</time></trkpt>
<trkpt lat="46.19430603" lon="6.10911920"><ele></ele><time>2016-6-18T18:14:29Z</time></trkpt>
<trkpt lat="46.19430637" lon="6.10912045"><ele></ele><time>2016-6-18T18:14:32Z</time></trkpt>
<trkpt lat="46.19430612" lon="6.10912138"><ele></ele><time>2016-6-18T18:14:35Z</time></trkpt>
<trkpt lat="46.19430629" lon="6.10912247"><ele></ele><time>2016-6-18T18:14:38Z</time></trkpt>
<trkpt lat="46.19430629" lon="6.10912347"><ele></ele><time>2016-6-18T18:14:41Z</time></trkpt>
<trkpt lat="46.19430629" lon="6.10912456"><ele></ele><time>2016-6-18T18:14:44Z</time></trkpt>
<trkpt lat="46.19430612" lon="6.10912557"><ele></ele><time>2016-6-18T18:14:47Z</time></trkpt>
<trkpt lat="46.19430603" lon="6.10912666"><ele></ele><time>2016-6-18T18:14:50Z</time></trkpt>
<trkpt lat="46.19430629" lon="6.10912750"><ele></ele><time>2016-6-18T18:14:53Z</time></trkpt>
<trkpt lat="46.19430662" lon="6.10912842"><ele></ele><time>2016-6-18T18:14:56Z</time></trkpt>
<trkpt lat="46.19430679" lon="6.10912942"><ele></ele><time>2016-6-18T18:14:59Z</time></trkpt>
<trkpt lat="46.19430654" lon="6.10913018"><ele></ele><time>2016-6-18T18:15:2Z</time></trkpt>
<trkpt lat="46.19430679" lon="6.10913093"><ele></ele><time>2016-6-18T18:15:5Z</time></trkpt>
<trkpt lat="46.19430662" lon="6.10913143"><ele></ele><time>2016-6-18T18:15:8Z</time></trkpt>
<trkpt lat="46.19430939" lon="6.10913085"><ele></ele><time>2016-6-18T18:15:11Z</time></trkpt>
<trkpt lat="46.19431232" lon="6.10912993"><ele></ele><time>2016-6-18T18:15:14Z</time></trkpt>
<trkpt lat="46.19431467" lon="6.10912917"><ele></ele><time>2016-6-18T18:15:17Z</time></trkpt>
<trkpt lat="46.19431660" lon="6.10912817"><ele></ele><time>2016-6-18T18:15:20Z</time></trkpt>
<trkpt lat="46.19431827" lon="6.10912724"><ele></ele><time>2016-6-18T18:15:23Z</time></trkpt>
<trkpt lat="46.19431970" lon="6.10912632"><ele></ele><time>2016-6-18T18:15:26Z</time></trkpt>
<trkpt lat="46.19432062" lon="6.10912548"><ele></ele><time>2016-6-18T18:15:29Z</time></trkpt>
<trkpt lat="46.19432179" lon="6.10912465"><ele></ele><time>2016-6-18T18:15:32Z</time></trkpt>
<trkpt lat="46.19432305" lon="6.10912423"><ele></ele><time>2016-6-18T18:15:35Z</time></trkpt>
<trkpt lat="46.19432976" lon="6.10912154"><ele></ele><time>2016-6-18T18:15:38Z</time></trkpt>
<trkpt lat="46.19433680" lon="6.10911886"><ele></ele><time>2016-6-18T18:15:41Z</time></trkpt>
<trkpt lat="46.19433755" lon="6.10911174"><ele></ele><time>2016-6-18T18:15:44Z</time></trkpt>
<trkpt lat="46.19433872" lon="6.10910612"><ele></ele><time>2016-6-18T18:15:47Z</time></trkpt>
<trkpt lat="46.19434996" lon="6.10909774"><ele></ele><time>2016-6-18T18:15:50Z</time></trkpt>
<trkpt lat="46.19435222" lon="6.10909263"><ele></ele><time>2016-6-18T18:15:53Z</time></trkpt>
<trkpt lat="46.19435825" lon="6.10909145"><ele></ele><time>2016-6-18T18:15:56Z</time></trkpt>
<trkpt lat="46.19435884" lon="6.10909129"><ele></ele><time>2016-6-18T18:15:59Z</time></trkpt>
<trkpt lat="46.19436379" lon="6.10909028"><ele></ele><time>2016-6-18T18:16:2Z</time></trkpt>
<trkpt lat="46.19436462" lon="6.10908986"><ele></ele><time>2016-6-18T18:16:5Z</time></trkpt>
<trkpt lat="46.19436957" lon="6.10908869"><ele></ele><time>2016-6-18T18:16:8Z</time></trkpt>
<trkpt lat="46.19437309" lon="6.10908802"><ele></ele><time>2016-6-18T18:16:11Z</time></trkpt>
<trkpt lat="46.19437619" lon="6.10908743"><ele></ele><time>2016-6-18T18:16:14Z</time></trkpt>
<trkpt lat="46.19437879" lon="6.10908709"><ele></ele><time>2016-6-18T18:16:17Z</time></trkpt>
<trkpt lat="46.19438097" lon="6.10908718"><ele></ele><time>2016-6-18T18:16:20Z</time></trkpt>
<trkpt lat="46.19438265" lon="6.10908760"><ele></ele><time>2016-6-18T18:16:23Z</time></trkpt>
<trkpt lat="46.19438415" lon="6.10908802"><ele></ele><time>2016-6-18T18:16:26Z</time></trkpt>
<trkpt lat="46.19438558" lon="6.10908869"><ele></ele><time>2016-6-18T18:16:29Z</time></trkpt>
<trkpt lat="46.19438667" lon="6.10908936"><ele></ele><time>2016-6-18T18:16:32Z</time></trkpt>
<trkpt lat="46.19438767" lon="6.10909020"><ele></ele><time>2016-6-18T18:16:35Z</time></trkpt>
<trkpt lat="46.19438843" lon="6.10909103"><ele></ele><time>2016-6-18T18:16:38Z</time></trkpt>
<trkpt lat="46.19438927" lon="6.10909187"><ele></ele><time>2016-6-18T18:16:41Z</time></trkpt>
<trkpt lat="46.19438969" lon="6.10909313"><ele></ele><time>2016-6-18T18:16:44Z</time></trkpt>
<trkpt lat="46.19438994" lon="6.10909439"><ele></ele><time>2016-6-18T18:16:47Z</time></trkpt>
<trkpt lat="46.19439002" lon="6.10909573"><ele></ele><time>2016-6-18T18:16:50Z</time></trkpt>
<trkpt lat="46.19438340" lon="6.10910084"><ele></ele><time>2016-6-18T18:16:53Z</time></trkpt>
<trkpt lat="46.19437317" lon="6.10910746"><ele></ele><time>2016-6-18T18:16:56Z</time></trkpt>
<trkpt lat="46.19436387" lon="6.10911157"><ele></ele><time>2016-6-18T18:16:59Z</time></trkpt>
<trkpt lat="46.19436236" lon="6.10910595"><ele></ele><time>2016-6-18T18:17:2Z</time></trkpt>
<trkpt lat="46.19435532" lon="6.10910176"><ele></ele><time>2016-6-18T18:17:5Z</time></trkpt>
<trkpt lat="46.19435934" lon="6.10909246"><ele></ele><time>2016-6-18T18:17:8Z</time></trkpt>
<trkpt lat="46.19435272" lon="6.10908953"><ele></ele><time>2016-6-18T18:17:11Z</time></trkpt>
<trkpt lat="46.19434576" lon="6.10908684"><ele></ele><time>2016-6-18T18:17:14Z</time></trkpt>
<trkpt lat="46.19434442" lon="6.10908114"><ele></ele><time>2016-6-18T18:17:17Z</time></trkpt>
<trkpt lat="46.19434786" lon="6.10907913"><ele></ele><time>2016-6-18T18:17:20Z</time></trkpt>
<trkpt lat="46.19434937" lon="6.10907880"><ele></ele><time>2016-6-18T18:17:23Z</time></trkpt>
<trkpt lat="46.19434836" lon="6.10907326"><ele></ele><time>2016-6-18T18:17:26Z</time></trkpt>
<trkpt lat="46.19434736" lon="6.10906748"><ele></ele><time>2016-6-18T18:17:29Z</time></trkpt>
<trkpt lat="46.19434132" lon="6.10906446"><ele></ele><time>2016-6-18T18:17:32Z</time></trkpt>
<trkpt lat="46.19434149" lon="6.10906094"><ele></ele><time>2016-6-18T18:17:35Z</time></trkpt>
<trkpt lat="46.19434099" lon="6.10905918"><ele></ele><time>2016-6-18T18:17:38Z</time></trkpt>
<trkpt lat="46.19434007" lon="6.10905818"><ele></ele><time>2016-6-18T18:17:41Z</time></trkpt>
<trkpt lat="46.19433763" lon="6.10906027"><ele></ele><time>2016-6-18T18:17:44Z</time></trkpt>
<trkpt lat="46.19433554" lon="6.10906237"><ele></ele><time>2016-6-18T18:17:47Z</time></trkpt>
<trkpt lat="46.19433369" lon="6.10906455"><ele></ele><time>2016-6-18T18:17:50Z</time></trkpt>
<trkpt lat="46.19433185" lon="6.10905793"><ele></ele><time>2016-6-18T18:17:53Z</time></trkpt>
<trkpt lat="46.19433277" lon="6.10905675"><ele></ele><time>2016-6-18T18:17:56Z</time></trkpt>
<trkpt lat="46.19433302" lon="6.10905600"><ele></ele><time>2016-6-18T18:17:59Z</time></trkpt>
<trkpt lat="46.19433369" lon="6.10905524"><ele></ele><time>2016-6-18T18:18:2Z</time></trkpt>
<trkpt lat="46.19433478" lon="6.10905399"><ele></ele><time>2016-6-18T18:18:5Z</time></trkpt>
<trkpt lat="46.19433587" lon="6.10905214"><ele></ele><time>2016-6-18T18:18:8Z</time></trkpt>
<trkpt lat="46.19433663" lon="6.10905072"><ele></ele><time>2016-6-18T18:18:11Z</time></trkpt>
<trkpt lat="46.19433730" lon="6.10904963"><ele></ele><time>2016-6-18T18:18:14Z</time></trkpt>
<trkpt lat="46.19433755" lon="6.10904879"><ele></ele><time>2016-6-18T18:18:17Z</time></trkpt>
<trkpt lat="46.19433789" lon="6.10904812"><ele></ele><time>2016-6-18T18:18:20Z</time></trkpt>
<trkpt lat="46.19433805" lon="6.10904770"><ele></ele><time>2016-6-18T18:18:23Z</time></trkpt>
<trkpt lat="46.19433814" lon="6.10904720"><ele></ele><time>2016-6-18T18:18:26Z</time></trkpt>
<trkpt lat="46.19433839" lon="6.10904686"><ele></ele><time>2016-6-18T18:18:29Z</time></trkpt>
<trkpt lat="46.19433847" lon="6.10904669"><ele></ele><time>2016-6-18T18:18:32Z</time></trkpt>
<trkpt lat="46.19433856" lon="6.10904669"><ele></ele><time>2016-6-18T18:18:35Z</time></trkpt>
<trkpt lat="46.19433872" lon="6.10904678"><ele></ele><time>2016-6-18T18:18:38Z</time></trkpt>
<trkpt lat="46.19433889" lon="6.10904703"><ele></ele><time>2016-6-18T18:18:41Z</time></trkpt>
<trkpt lat="46.19433864" lon="6.10904812"><ele></ele><time>2016-6-18T18:18:44Z</time></trkpt>
<trkpt lat="46.19433646" lon="6.10904963"><ele></ele><time>2016-6-18T18:18:47Z</time></trkpt>
<trkpt lat="46.19433235" lon="6.10904829"><ele></ele><time>2016-6-18T18:18:50Z</time></trkpt>
<trkpt lat="46.19432548" lon="6.10903689"><ele></ele><time>2016-6-18T18:18:53Z</time></trkpt>
<trkpt lat="46.19431458" lon="6.10901132"><ele></ele><time>2016-6-18T18:18:56Z</time></trkpt>
<trkpt lat="46.19429849" lon="6.10897888"><ele></ele><time>2016-6-18T18:18:59Z</time></trkpt>
<trkpt lat="46.19427603" lon="6.10894050"><ele></ele><time>2016-6-18T18:19:2Z</time></trkpt>
<trkpt lat="46.19425113" lon="6.10889565"><ele></ele><time>2016-6-18T18:19:5Z</time></trkpt>
<trkpt lat="46.19422523" lon="6.10884343"><ele></ele><time>2016-6-18T18:19:8Z</time></trkpt>
<trkpt lat="46.19419958" lon="6.10878283"><ele></ele><time>2016-6-18T18:19:11Z</time></trkpt>
<trkpt lat="46.19417419" lon="6.10872039"><ele></ele><time>2016-6-18T18:19:14Z</time></trkpt>
<trkpt lat="46.19414644" lon="6.10865492"><ele></ele><time>2016-6-18T18:19:17Z</time></trkpt>
<trkpt lat="46.19411803" lon="6.10858368"><ele></ele><time>2016-6-18T18:19:20Z</time></trkpt>
<trkpt lat="46.19408987" lon="6.10850774"><ele></ele><time>2016-6-18T18:19:23Z</time></trkpt>
<trkpt lat="46.19405986" lon="6.10842945"><ele></ele><time>2016-6-18T18:19:26Z</time></trkpt>
<trkpt lat="46.19402926" lon="6.10834312"><ele></ele><time>2016-6-18T18:19:29Z</time></trkpt>
<trkpt lat="46.19399666" lon="6.10825393"><ele></ele><time>2016-6-18T18:19:32Z</time></trkpt>
<trkpt lat="46.19396045" lon="6.10816274"><ele></ele><time>2016-6-18T18:19:35Z</time></trkpt>
<trkpt lat="46.19392860" lon="6.10807607"><ele></ele><time>2016-6-18T18:19:38Z</time></trkpt>
<trkpt lat="46.19389876" lon="6.10799829"><ele></ele><time>2016-6-18T18:19:41Z</time></trkpt>
<trkpt lat="46.19387076" lon="6.10792536"><ele></ele><time>2016-6-18T18:19:44Z</time></trkpt>
<trkpt lat="46.19384428" lon="6.10785546"><ele></ele><time>2016-6-18T18:19:47Z</time></trkpt>
<trkpt lat="46.19381997" lon="6.10779310"><ele></ele><time>2016-6-18T18:19:50Z</time></trkpt>
<trkpt lat="46.19379725" lon="6.10773459"><ele></ele><time>2016-6-18T18:19:53Z</time></trkpt>
<trkpt lat="46.19377764" lon="6.10768153"><ele></ele><time>2016-6-18T18:19:56Z</time></trkpt>
<trkpt lat="46.19375492" lon="6.10763049"><ele></ele><time>2016-6-18T18:19:59Z</time></trkpt>
<trkpt lat="46.19372852" lon="6.10757919"><ele></ele><time>2016-6-18T18:20:2Z</time></trkpt>
<trkpt lat="46.19370312" lon="6.10752152"><ele></ele><time>2016-6-18T18:20:5Z</time></trkpt>
<trkpt lat="46.19368024" lon="6.10745832"><ele></ele><time>2016-6-18T18:20:8Z</time></trkpt>
<trkpt lat="46.19365149" lon="6.10738976"><ele></ele><time>2016-6-18T18:20:11Z</time></trkpt>
<trkpt lat="46.19362199" lon="6.10731617"><ele></ele><time>2016-6-18T18:20:14Z</time></trkpt>
<trkpt lat="46.19359190" lon="6.10723687"><ele></ele><time>2016-6-18T18:20:17Z</time></trkpt>
<trkpt lat="46.19355694" lon="6.10715406"><ele></ele><time>2016-6-18T18:20:20Z</time></trkpt>
<trkpt lat="46.19351973" lon="6.10706236"><ele></ele><time>2016-6-18T18:20:23Z</time></trkpt>
<trkpt lat="46.19348377" lon="6.10696413"><ele></ele><time>2016-6-18T18:20:26Z</time></trkpt>
<trkpt lat="46.19344270" lon="6.10686078"><ele></ele><time>2016-6-18T18:20:29Z</time></trkpt>
<trkpt lat="46.19340255" lon="6.10675433"><ele></ele><time>2016-6-18T18:20:32Z</time></trkpt>
<trkpt lat="46.19336533" lon="6.10664285"><ele></ele><time>2016-6-18T18:20:35Z</time></trkpt>
<trkpt lat="46.19332979" lon="6.10652843"><ele></ele><time>2016-6-18T18:20:38Z</time></trkpt>
<trkpt lat="46.19328143" lon="6.10642014"><ele></ele><time>2016-6-18T18:20:41Z</time></trkpt>
<trkpt lat="46.19323793" lon="6.10630573"><ele></ele><time>2016-6-18T18:20:44Z</time></trkpt>
<trkpt lat="46.19319409" lon="6.10619048"><ele></ele><time>2016-6-18T18:20:47Z</time></trkpt>
<trkpt lat="46.19314983" lon="6.10607397"><ele></ele><time>2016-6-18T18:20:50Z</time></trkpt>
<trkpt lat="46.19310658" lon="6.10595402"><ele></ele><time>2016-6-18T18:20:53Z</time></trkpt>
<trkpt lat="46.19306392" lon="6.10583316"><ele></ele><time>2016-6-18T18:20:56Z</time></trkpt>
<trkpt lat="46.19302000" lon="6.10571128"><ele></ele><time>2016-6-18T18:20:59Z</time></trkpt>
<trkpt lat="46.19297507" lon="6.10559025"><ele></ele><time>2016-6-18T18:21:2Z</time></trkpt>
<trkpt lat="46.19292688" lon="6.10547156"><ele></ele><time>2016-6-18T18:21:5Z</time></trkpt>
<trkpt lat="46.19288212" lon="6.10535229"><ele></ele><time>2016-6-18T18:21:8Z</time></trkpt>
<trkpt lat="46.19283300" lon="6.10523712"><ele></ele><time>2016-6-18T18:21:11Z</time></trkpt>
<trkpt lat="46.19278816" lon="6.10511843"><ele></ele><time>2016-6-18T18:21:14Z</time></trkpt>
<trkpt lat="46.19274616" lon="6.10499958"><ele></ele><time>2016-6-18T18:21:17Z</time></trkpt>
<trkpt lat="46.19270744" lon="6.10488072"><ele></ele><time>2016-6-18T18:21:20Z</time></trkpt>
<trkpt lat="46.19266964" lon="6.10476572"><ele></ele><time>2016-6-18T18:21:23Z</time></trkpt>
<trkpt lat="46.19263996" lon="6.10464754"><ele></ele><time>2016-6-18T18:21:26Z</time></trkpt>
<trkpt lat="46.19261096" lon="6.10452315"><ele></ele><time>2016-6-18T18:21:29Z</time></trkpt>
<trkpt lat="46.19255732" lon="6.10446037"><ele></ele><time>2016-6-18T18:21:32Z</time></trkpt>
<trkpt lat="46.19251348" lon="6.10438175"><ele></ele><time>2016-6-18T18:21:35Z</time></trkpt>
<trkpt lat="46.19248465" lon="6.10430664"><ele></ele><time>2016-6-18T18:21:38Z</time></trkpt>
<trkpt lat="46.19246528" lon="6.10422743"><ele></ele><time>2016-6-18T18:21:41Z</time></trkpt>
<trkpt lat="46.19244223" lon="6.10416633"><ele></ele><time>2016-6-18T18:21:44Z</time></trkpt>
<trkpt lat="46.19241985" lon="6.10410942"><ele></ele><time>2016-6-18T18:21:47Z</time></trkpt>
<trkpt lat="46.19239429" lon="6.10405577"><ele></ele><time>2016-6-18T18:21:50Z</time></trkpt>
<trkpt lat="46.19236277" lon="6.10400448"><ele></ele><time>2016-6-18T18:21:53Z</time></trkpt>
<trkpt lat="46.19233168" lon="6.10395159"><ele></ele><time>2016-6-18T18:21:56Z</time></trkpt>
<trkpt lat="46.19231978" lon="6.10387590"><ele></ele><time>2016-6-18T18:21:59Z</time></trkpt>
<trkpt lat="46.19231475" lon="6.10379308"><ele></ele><time>2016-6-18T18:22:2Z</time></trkpt>
<trkpt lat="46.19228600" lon="6.10372016"><ele></ele><time>2016-6-18T18:22:5Z</time></trkpt>
<trkpt lat="46.19225389" lon="6.10364925"><ele></ele><time>2016-6-18T18:22:8Z</time></trkpt>
<trkpt lat="46.19223218" lon="6.10356996"><ele></ele><time>2016-6-18T18:22:11Z</time></trkpt>
<trkpt lat="46.19219983" lon="6.10349796"><ele></ele><time>2016-6-18T18:22:14Z</time></trkpt>
<trkpt lat="46.19215909" lon="6.10342470"><ele></ele><time>2016-6-18T18:22:17Z</time></trkpt>
<trkpt lat="46.19212288" lon="6.10333895"><ele></ele><time>2016-6-18T18:22:20Z</time></trkpt>
<trkpt lat="46.19208894" lon="6.10324566"><ele></ele><time>2016-6-18T18:22:23Z</time></trkpt>
<trkpt lat="46.19203328" lon="6.10318062"><ele></ele><time>2016-6-18T18:22:26Z</time></trkpt>
<trkpt lat="46.19200118" lon="6.10306964"><ele></ele><time>2016-6-18T18:22:29Z</time></trkpt>
<trkpt lat="46.19196095" lon="6.10299035"><ele></ele><time>2016-6-18T18:22:32Z</time></trkpt>
<trkpt lat="46.19192515" lon="6.10286596"><ele></ele><time>2016-6-18T18:22:35Z</time></trkpt>
<trkpt lat="46.19188434" lon="6.10274468"><ele></ele><time>2016-6-18T18:22:38Z</time></trkpt>
<trkpt lat="46.19184217" lon="6.10263320"><ele></ele><time>2016-6-18T18:22:41Z</time></trkpt>
<trkpt lat="46.19178308" lon="6.10254887"><ele></ele><time>2016-6-18T18:22:44Z</time></trkpt>
<trkpt lat="46.19173472" lon="6.10245575"><ele></ele><time>2016-6-18T18:22:47Z</time></trkpt>
<trkpt lat="46.19169130" lon="6.10236137"><ele></ele><time>2016-6-18T18:22:50Z</time></trkpt>
<trkpt lat="46.19167764" lon="6.10222810"><ele></ele><time>2016-6-18T18:22:53Z</time></trkpt>
<trkpt lat="46.19163648" lon="6.10212257"><ele></ele><time>2016-6-18T18:22:56Z</time></trkpt>
<trkpt lat="46.19159340" lon="6.10201377"><ele></ele><time>2016-6-18T18:22:59Z</time></trkpt>
<trkpt lat="46.19155903" lon="6.10189056"><ele></ele><time>2016-6-18T18:23:2Z</time></trkpt>
<trkpt lat="46.19151905" lon="6.10177229"><ele></ele><time>2016-6-18T18:23:5Z</time></trkpt>
<trkpt lat="46.19148578" lon="6.10165503"><ele></ele><time>2016-6-18T18:23:8Z</time></trkpt>
<trkpt lat="46.19146138" lon="6.10152813"><ele></ele><time>2016-6-18T18:23:11Z</time></trkpt>
<trkpt lat="46.19143423" lon="6.10140072"><ele></ele><time>2016-6-18T18:23:14Z</time></trkpt>
<trkpt lat="46.19139684" lon="6.10128363"><ele></ele><time>2016-6-18T18:23:17Z</time></trkpt>
<trkpt lat="46.19135577" lon="6.10117215"><ele></ele><time>2016-6-18T18:23:20Z</time></trkpt>
<trkpt lat="46.19128553" lon="6.10110300"><ele></ele><time>2016-6-18T18:23:23Z</time></trkpt>
<trkpt lat="46.19123918" lon="6.10099697"><ele></ele><time>2016-6-18T18:23:26Z</time></trkpt>
<trkpt lat="46.19121663" lon="6.10086529"><ele></ele><time>2016-6-18T18:23:29Z</time></trkpt>
<trkpt lat="46.19117598" lon="6.10074643"><ele></ele><time>2016-6-18T18:23:32Z</time></trkpt>
<trkpt lat="46.19115394" lon="6.10061358"><ele></ele><time>2016-6-18T18:23:35Z</time></trkpt>
<trkpt lat="46.19114304" lon="6.10047368"><ele></ele><time>2016-6-18T18:23:38Z</time></trkpt>
<trkpt lat="46.19109828" lon="6.10036874"><ele></ele><time>2016-6-18T18:23:41Z</time></trkpt>
<trkpt lat="46.19105478" lon="6.10026900"><ele></ele><time>2016-6-18T18:23:44Z</time></trkpt>
<trkpt lat="46.19103818" lon="6.10015157"><ele></ele><time>2016-6-18T18:23:47Z</time></trkpt>
<trkpt lat="46.19100868" lon="6.10005207"><ele></ele><time>2016-6-18T18:23:50Z</time></trkpt>
<trkpt lat="46.19097406" lon="6.09996063"><ele></ele><time>2016-6-18T18:23:53Z</time></trkpt>
<trkpt lat="46.19094095" lon="6.09987262"><ele></ele><time>2016-6-18T18:23:56Z</time></trkpt>
<trkpt lat="46.19091438" lon="6.09979936"><ele></ele><time>2016-6-18T18:23:59Z</time></trkpt>
<trkpt lat="46.19089049" lon="6.09972057"><ele></ele><time>2016-6-18T18:24:2Z</time></trkpt>
<trkpt lat="46.19086510" lon="6.09962602"><ele></ele><time>2016-6-18T18:24:5Z</time></trkpt>
<trkpt lat="46.19085713" lon="6.09950549"><ele></ele><time>2016-6-18T18:24:8Z</time></trkpt>
<trkpt lat="46.19082998" lon="6.09940080"><ele></ele><time>2016-6-18T18:24:11Z</time></trkpt>
<trkpt lat="46.19080324" lon="6.09929427"><ele></ele><time>2016-6-18T18:24:14Z</time></trkpt>
<trkpt lat="46.19076183" lon="6.09920424"><ele></ele><time>2016-6-18T18:24:17Z</time></trkpt>
<trkpt lat="46.19072285" lon="6.09911255"><ele></ele><time>2016-6-18T18:24:20Z</time></trkpt>
<trkpt lat="46.19068388" lon="6.09901976"><ele></ele><time>2016-6-18T18:24:23Z</time></trkpt>
<trkpt lat="46.19064725" lon="6.09892798"><ele></ele><time>2016-6-18T18:24:26Z</time></trkpt>
<trkpt lat="46.19061573" lon="6.09883100"><ele></ele><time>2016-6-18T18:24:29Z</time></trkpt>
<trkpt lat="46.19057709" lon="6.09874357"><ele></ele><time>2016-6-18T18:24:32Z</time></trkpt>
<trkpt lat="46.19052018" lon="6.09867979"><ele></ele><time>2016-6-18T18:24:35Z</time></trkpt>
<trkpt lat="46.19044952" lon="6.09866344"><ele></ele><time>2016-6-18T18:24:38Z</time></trkpt>
<trkpt lat="46.19040878" lon="6.09860192"><ele></ele><time>2016-6-18T18:24:41Z</time></trkpt>
<trkpt lat="46.19034676" lon="6.09860812"><ele></ele><time>2016-6-18T18:24:44Z</time></trkpt>
<trkpt lat="46.19028272" lon="6.09863696"><ele></ele><time>2016-6-18T18:24:47Z</time></trkpt>
<trkpt lat="46.19021592" lon="6.09866898"><ele></ele><time>2016-6-18T18:24:50Z</time></trkpt>
<trkpt lat="46.19015548" lon="6.09871943"><ele></ele><time>2016-6-18T18:24:53Z</time></trkpt>
<trkpt lat="46.19008935" lon="6.09876696"><ele></ele><time>2016-6-18T18:24:56Z</time></trkpt>
<trkpt lat="46.18999187" lon="6.09881742"><ele></ele><time>2016-6-18T18:24:59Z</time></trkpt>
<trkpt lat="46.18991568" lon="6.09887199"><ele></ele><time>2016-6-18T18:25:2Z</time></trkpt>
<trkpt lat="46.18984477" lon="6.09892412"><ele></ele><time>2016-6-18T18:25:5Z</time></trkpt>
<trkpt lat="46.18977193" lon="6.09898355"><ele></ele><time>2016-6-18T18:25:8Z</time></trkpt>
<trkpt lat="46.18969473" lon="6.09902948"><ele></ele><time>2016-6-18T18:25:11Z</time></trkpt>
<trkpt lat="46.18961519" lon="6.09907592"><ele></ele><time>2016-6-18T18:25:14Z</time></trkpt>
<trkpt lat="46.18953506" lon="6.09912638"><ele></ele><time>2016-6-18T18:25:17Z</time></trkpt>
<trkpt lat="46.18944637" lon="6.09918086"><ele></ele><time>2016-6-18T18:25:20Z</time></trkpt>
<trkpt lat="46.18938468" lon="6.09929217"><ele></ele><time>2016-6-18T18:25:23Z</time></trkpt>
<trkpt lat="46.18930422" lon="6.09937750"><ele></ele><time>2016-6-18T18:25:26Z</time></trkpt>
<trkpt lat="46.18922903" lon="6.09934959"><ele></ele><time>2016-6-18T18:25:29Z</time></trkpt>
<trkpt lat="46.18917120" lon="6.09931103"><ele></ele><time>2016-6-18T18:25:32Z</time></trkpt>
<trkpt lat="46.18912702" lon="6.09927113"><ele></ele><time>2016-6-18T18:25:35Z</time></trkpt>
<trkpt lat="46.18911169" lon="6.09921053"><ele></ele><time>2016-6-18T18:25:38Z</time></trkpt>
<trkpt lat="46.18909526" lon="6.09914565"><ele></ele><time>2016-6-18T18:25:41Z</time></trkpt>
<trkpt lat="46.18908025" lon="6.09906368"><ele></ele><time>2016-6-18T18:25:44Z</time></trkpt>
<trkpt lat="46.18905544" lon="6.09898548"><ele></ele><time>2016-6-18T18:25:47Z</time></trkpt>
<trkpt lat="46.18902837" lon="6.09891205"><ele></ele><time>2016-6-18T18:25:50Z</time></trkpt>
<trkpt lat="46.18899769" lon="6.09883904"><ele></ele><time>2016-6-18T18:25:53Z</time></trkpt>
<trkpt lat="46.18894966" lon="6.09877132"><ele></ele><time>2016-6-18T18:25:56Z</time></trkpt>
<trkpt lat="46.18889987" lon="6.09873385"><ele></ele><time>2016-6-18T18:25:59Z</time></trkpt>
<trkpt lat="46.18887129" lon="6.09870242"><ele></ele><time>2016-6-18T18:26:2Z</time></trkpt>
<trkpt lat="46.18887163" lon="6.09864232"><ele></ele><time>2016-6-18T18:26:5Z</time></trkpt>
<trkpt lat="46.18889183" lon="6.09858817"><ele></ele><time>2016-6-18T18:26:8Z</time></trkpt>
<trkpt lat="46.18892904" lon="6.09852908"><ele></ele><time>2016-6-18T18:26:11Z</time></trkpt>
<trkpt lat="46.18896425" lon="6.09848089"><ele></ele><time>2016-6-18T18:26:14Z</time></trkpt>
<trkpt lat="46.18901387" lon="6.09845038"><ele></ele><time>2016-6-18T18:26:17Z</time></trkpt>
<trkpt lat="46.18904522" lon="6.09841936"><ele></ele><time>2016-6-18T18:26:20Z</time></trkpt>
<trkpt lat="46.18909568" lon="6.09838366"><ele></ele><time>2016-6-18T18:26:23Z</time></trkpt>
<trkpt lat="46.18912342" lon="6.09835164"><ele></ele><time>2016-6-18T18:26:26Z</time></trkpt>
<trkpt lat="46.18915670" lon="6.09831325"><ele></ele><time>2016-6-18T18:26:29Z</time></trkpt>
<trkpt lat="46.18918997" lon="6.09825692"><ele></ele><time>2016-6-18T18:26:32Z</time></trkpt>
<trkpt lat="46.18923113" lon="6.09820856"><ele></ele><time>2016-6-18T18:26:35Z</time></trkpt>
<trkpt lat="46.18925275" lon="6.09815458"><ele></ele><time>2016-6-18T18:26:38Z</time></trkpt>
<trkpt lat="46.18926013" lon="6.09810404"><ele></ele><time>2016-6-18T18:26:41Z</time></trkpt>
<trkpt lat="46.18925443" lon="6.09805332"><ele></ele><time>2016-6-18T18:26:44Z</time></trkpt>
<trkpt lat="46.18924756" lon="6.09800513"><ele></ele><time>2016-6-18T18:26:47Z</time></trkpt>
<trkpt lat="46.18922903" lon="6.09793975"><ele></ele><time>2016-6-18T18:26:50Z</time></trkpt>
<trkpt lat="46.18922509" lon="6.09787932"><ele></ele><time>2016-6-18T18:26:53Z</time></trkpt>
<trkpt lat="46.18921604" lon="6.09782148"><ele></ele><time>2016-6-18T18:26:56Z</time></trkpt>
<trkpt lat="46.18920959" lon="6.09776289"><ele></ele><time>2016-6-18T18:26:59Z</time></trkpt>
<trkpt lat="46.18918645" lon="6.09770522"><ele></ele><time>2016-6-18T18:27:2Z</time></trkpt>
<trkpt lat="46.18917002" lon="6.09764756"><ele></ele><time>2016-6-18T18:27:5Z</time></trkpt>
<trkpt lat="46.18916047" lon="6.09758880"><ele></ele><time>2016-6-18T18:27:8Z</time></trkpt>
<trkpt lat="46.18914530" lon="6.09753164"><ele></ele><time>2016-6-18T18:27:11Z</time></trkpt>
<trkpt lat="46.18912308" lon="6.09746709"><ele></ele><time>2016-6-18T18:27:14Z</time></trkpt>
<trkpt lat="46.18911495" lon="6.09739409"><ele></ele><time>2016-6-18T18:27:17Z</time></trkpt>
<trkpt lat="46.18909685" lon="6.09733516"><ele></ele><time>2016-6-18T18:27:20Z</time></trkpt>
<trkpt lat="46.18907506" lon="6.09726903"><ele></ele><time>2016-6-18T18:27:23Z</time></trkpt>
<trkpt lat="46.18904924" lon="6.09720449"><ele></ele><time>2016-6-18T18:27:26Z</time></trkpt>
<trkpt lat="46.18903650" lon="6.09714104"><ele></ele><time>2016-6-18T18:27:29Z</time></trkpt>
<trkpt lat="46.18902728" lon="6.09708203"><ele></ele><time>2016-6-18T18:27:32Z</time></trkpt>
<trkpt lat="46.18899945" lon="6.09702302"><ele></ele><time>2016-6-18T18:27:35Z</time></trkpt>
<trkpt lat="46.18897900" lon="6.09695815"><ele></ele><time>2016-6-18T18:27:38Z</time></trkpt>
<trkpt lat="46.18895553" lon="6.09689084"><ele></ele><time>2016-6-18T18:27:41Z</time></trkpt>
<trkpt lat="46.18893642" lon="6.09682638"><ele></ele><time>2016-6-18T18:27:44Z</time></trkpt>
<trkpt lat="46.18891597" lon="6.09677458"><ele></ele><time>2016-6-18T18:27:47Z</time></trkpt>
<trkpt lat="46.18890029" lon="6.09672513"><ele></ele><time>2016-6-18T18:27:50Z</time></trkpt>
<trkpt lat="46.18888638" lon="6.09667039"><ele></ele><time>2016-6-18T18:27:53Z</time></trkpt>
<trkpt lat="46.18887205" lon="6.09661809"><ele></ele><time>2016-6-18T18:27:56Z</time></trkpt>
<trkpt lat="46.18884623" lon="6.09657518"><ele></ele><time>2016-6-18T18:27:59Z</time></trkpt>
<trkpt lat="46.18882108" lon="6.09653913"><ele></ele><time>2016-6-18T18:28:2Z</time></trkpt>
<trkpt lat="46.18880910" lon="6.09651483"><ele></ele><time>2016-6-18T18:28:5Z</time></trkpt>
<trkpt lat="46.18881547" lon="6.09649329"><ele></ele><time>2016-6-18T18:28:8Z</time></trkpt>
<trkpt lat="46.18882947" lon="6.09646554"><ele></ele><time>2016-6-18T18:28:11Z</time></trkpt>
<trkpt lat="46.18884179" lon="6.09643176"><ele></ele><time>2016-6-18T18:28:14Z</time></trkpt>
<trkpt lat="46.18885059" lon="6.09638818"><ele></ele><time>2016-6-18T18:28:17Z</time></trkpt>
<trkpt lat="46.18885864" lon="6.09634903"><ele></ele><time>2016-6-18T18:28:20Z</time></trkpt>
<trkpt lat="46.18884330" lon="6.09628868"><ele></ele><time>2016-6-18T18:28:23Z</time></trkpt>
<trkpt lat="46.18881555" lon="6.09620947"><ele></ele><time>2016-6-18T18:28:26Z</time></trkpt>
<trkpt lat="46.18877792" lon="6.09614292"><ele></ele><time>2016-6-18T18:28:29Z</time></trkpt>
<trkpt lat="46.18875445" lon="6.09608618"><ele></ele><time>2016-6-18T18:28:32Z</time></trkpt>
<trkpt lat="46.18873115" lon="6.09602557"><ele></ele><time>2016-6-18T18:28:35Z</time></trkpt>
<trkpt lat="46.18870223" lon="6.09596724"><ele></ele><time>2016-6-18T18:28:38Z</time></trkpt>
<trkpt lat="46.18866946" lon="6.09591058"><ele></ele><time>2016-6-18T18:28:41Z</time></trkpt>
<trkpt lat="46.18864247" lon="6.09585056"><ele></ele><time>2016-6-18T18:28:44Z</time></trkpt>
<trkpt lat="46.18862637" lon="6.09579004"><ele></ele><time>2016-6-18T18:28:47Z</time></trkpt>
<trkpt lat="46.18860592" lon="6.09573078"><ele></ele><time>2016-6-18T18:28:50Z</time></trkpt>
<trkpt lat="46.18858522" lon="6.09567010"><ele></ele><time>2016-6-18T18:28:53Z</time></trkpt>
<trkpt lat="46.18855848" lon="6.09561143"><ele></ele><time>2016-6-18T18:28:56Z</time></trkpt>
<trkpt lat="46.18852688" lon="6.09555242"><ele></ele><time>2016-6-18T18:28:59Z</time></trkpt>
<trkpt lat="46.18850509" lon="6.09549064"><ele></ele><time>2016-6-18T18:29:2Z</time></trkpt>
<trkpt lat="46.18848103" lon="6.09542895"><ele></ele><time>2016-6-18T18:29:5Z</time></trkpt>
<trkpt lat="46.18845077" lon="6.09536634"><ele></ele><time>2016-6-18T18:29:8Z</time></trkpt>
<trkpt lat="46.18841138" lon="6.09529736"><ele></ele><time>2016-6-18T18:29:11Z</time></trkpt>
<trkpt lat="46.18838028" lon="6.09523206"><ele></ele><time>2016-6-18T18:29:14Z</time></trkpt>
<trkpt lat="46.18834927" lon="6.09516383"><ele></ele><time>2016-6-18T18:29:17Z</time></trkpt>
<trkpt lat="46.18831105" lon="6.09509233"><ele></ele><time>2016-6-18T18:29:20Z</time></trkpt>
<trkpt lat="46.18827743" lon="6.09501916"><ele></ele><time>2016-6-18T18:29:23Z</time></trkpt>
<trkpt lat="46.18825044" lon="6.09494724"><ele></ele><time>2016-6-18T18:29:26Z</time></trkpt>
<trkpt lat="46.18821524" lon="6.09486929"><ele></ele><time>2016-6-18T18:29:29Z</time></trkpt>
<trkpt lat="46.18817803" lon="6.09478824"><ele></ele><time>2016-6-18T18:29:32Z</time></trkpt>
<trkpt lat="46.18813595" lon="6.09470467"><ele></ele><time>2016-6-18T18:29:35Z</time></trkpt>
<trkpt lat="46.18810502" lon="6.09461448"><ele></ele><time>2016-6-18T18:29:38Z</time></trkpt>
<trkpt lat="46.18806613" lon="6.09452547"><ele></ele><time>2016-6-18T18:29:41Z</time></trkpt>
<trkpt lat="46.18803419" lon="6.09443226"><ele></ele><time>2016-6-18T18:29:44Z</time></trkpt>
<trkpt lat="46.18801005" lon="6.09433696"><ele></ele><time>2016-6-18T18:29:47Z</time></trkpt>
<trkpt lat="46.18798994" lon="6.09424174"><ele></ele><time>2016-6-18T18:29:50Z</time></trkpt>
<trkpt lat="46.18796705" lon="6.09414820"><ele></ele><time>2016-6-18T18:29:53Z</time></trkpt>
<trkpt lat="46.18794065" lon="6.09405910"><ele></ele><time>2016-6-18T18:29:56Z</time></trkpt>
<trkpt lat="46.18791299" lon="6.09397226"><ele></ele><time>2016-6-18T18:29:59Z</time></trkpt>
<trkpt lat="46.18788407" lon="6.09389062"><ele></ele><time>2016-6-18T18:30:2Z</time></trkpt>
<trkpt lat="46.18787150" lon="6.09381594"><ele></ele><time>2016-6-18T18:30:5Z</time></trkpt>
<trkpt lat="46.18786069" lon="6.09373773"><ele></ele><time>2016-6-18T18:30:8Z</time></trkpt>
<trkpt lat="46.18784593" lon="6.09365869"><ele></ele><time>2016-6-18T18:30:11Z</time></trkpt>
<trkpt lat="46.18781894" lon="6.09357705"><ele></ele><time>2016-6-18T18:30:14Z</time></trkpt>
<trkpt lat="46.18779782" lon="6.09349382"><ele></ele><time>2016-6-18T18:30:17Z</time></trkpt>
<trkpt lat="46.18778776" lon="6.09341503"><ele></ele><time>2016-6-18T18:30:20Z</time></trkpt>
<trkpt lat="46.18779187" lon="6.09333163"><ele></ele><time>2016-6-18T18:30:23Z</time></trkpt>
<trkpt lat="46.18781484" lon="6.09325762"><ele></ele><time>2016-6-18T18:30:26Z</time></trkpt>
<trkpt lat="46.18784434" lon="6.09319459"><ele></ele><time>2016-6-18T18:30:29Z</time></trkpt>
<trkpt lat="46.18787385" lon="6.09313675"><ele></ele><time>2016-6-18T18:30:32Z</time></trkpt>
<trkpt lat="46.18790897" lon="6.09308705"><ele></ele><time>2016-6-18T18:30:35Z</time></trkpt>
<trkpt lat="46.18794492" lon="6.09303919"><ele></ele><time>2016-6-18T18:30:38Z</time></trkpt>
<trkpt lat="46.18797812" lon="6.09298688"><ele></ele><time>2016-6-18T18:30:41Z</time></trkpt>
<trkpt lat="46.18801206" lon="6.09293567"><ele></ele><time>2016-6-18T18:30:44Z</time></trkpt>
<trkpt lat="46.18803629" lon="6.09288488"><ele></ele><time>2016-6-18T18:30:47Z</time></trkpt>
<trkpt lat="46.18804727" lon="6.09283584"><ele></ele><time>2016-6-18T18:30:50Z</time></trkpt>
<trkpt lat="46.18804953" lon="6.09279267"><ele></ele><time>2016-6-18T18:30:53Z</time></trkpt>
<trkpt lat="46.18803419" lon="6.09275739"><ele></ele><time>2016-6-18T18:30:56Z</time></trkpt>
<trkpt lat="46.18802246" lon="6.09273283"><ele></ele><time>2016-6-18T18:30:59Z</time></trkpt>
<trkpt lat="46.18801332" lon="6.09271464"><ele></ele><time>2016-6-18T18:31:2Z</time></trkpt>
<trkpt lat="46.18800066" lon="6.09269704"><ele></ele><time>2016-6-18T18:31:5Z</time></trkpt>
<trkpt lat="46.18798633" lon="6.09268983"><ele></ele><time>2016-6-18T18:31:8Z</time></trkpt>
<trkpt lat="46.18796973" lon="6.09268966"><ele></ele><time>2016-6-18T18:31:11Z</time></trkpt>
<trkpt lat="46.18795079" lon="6.09269310"><ele></ele><time>2016-6-18T18:31:14Z</time></trkpt>
<trkpt lat="46.18793587" lon="6.09269477"><ele></ele><time>2016-6-18T18:31:17Z</time></trkpt>
<trkpt lat="46.18792975" lon="6.09269268"><ele></ele><time>2016-6-18T18:31:20Z</time></trkpt>
<trkpt lat="46.18792590" lon="6.09268287"><ele></ele><time>2016-6-18T18:31:23Z</time></trkpt>
<trkpt lat="46.18792657" lon="6.09267407"><ele></ele><time>2016-6-18T18:31:26Z</time></trkpt>
<trkpt lat="46.18792053" lon="6.09266686"><ele></ele><time>2016-6-18T18:31:29Z</time></trkpt>
<trkpt lat="46.18791894" lon="6.09266125"><ele></ele><time>2016-6-18T18:31:32Z</time></trkpt>
<trkpt lat="46.18791634" lon="6.09266183"><ele></ele><time>2016-6-18T18:31:35Z</time></trkpt>
<trkpt lat="46.18791165" lon="6.09266569"><ele></ele><time>2016-6-18T18:31:38Z</time></trkpt>
<trkpt lat="46.18790117" lon="6.09266904"><ele></ele><time>2016-6-18T18:31:41Z</time></trkpt>
<trkpt lat="46.18788952" lon="6.09266426"><ele></ele><time>2016-6-18T18:31:44Z</time></trkpt>
<trkpt lat="46.18787812" lon="6.09265907"><ele></ele><time>2016-6-18T18:31:47Z</time></trkpt>
<trkpt lat="46.18786924" lon="6.09266443"><ele></ele><time>2016-6-18T18:31:50Z</time></trkpt>
<trkpt lat="46.18786488" lon="6.09267617"><ele></ele><time>2016-6-18T18:31:53Z</time></trkpt>
<trkpt lat="46.18786555" lon="6.09268899"><ele></ele><time>2016-6-18T18:31:56Z</time></trkpt>
<trkpt lat="46.18786396" lon="6.09270005"><ele></ele><time>2016-6-18T18:31:59Z</time></trkpt>
<trkpt lat="46.18785926" lon="6.09270894"><ele></ele><time>2016-6-18T18:32:2Z</time></trkpt>
<trkpt lat="46.18785239" lon="6.09270886"><ele></ele><time>2016-6-18T18:32:5Z</time></trkpt>
<trkpt lat="46.18783923" lon="6.09271313"><ele></ele><time>2016-6-18T18:32:8Z</time></trkpt>
<trkpt lat="46.18783177" lon="6.09272026"><ele></ele><time>2016-6-18T18:32:11Z</time></trkpt>
<trkpt lat="46.18782892" lon="6.09272403"><ele></ele><time>2016-6-18T18:32:14Z</time></trkpt>
<trkpt lat="46.18782959" lon="6.09272419"><ele></ele><time>2016-6-18T18:32:17Z</time></trkpt>
<trkpt lat="46.18782582" lon="6.09273132"><ele></ele><time>2016-6-18T18:32:20Z</time></trkpt>
<trkpt lat="46.18782188" lon="6.09273534"><ele></ele><time>2016-6-18T18:32:23Z</time></trkpt>
<trkpt lat="46.18781827" lon="6.09273878"><ele></ele><time>2016-6-18T18:32:26Z</time></trkpt>
<trkpt lat="46.18781542" lon="6.09274155"><ele></ele><time>2016-6-18T18:32:29Z</time></trkpt>
<trkpt lat="46.18781358" lon="6.09274389"><ele></ele><time>2016-6-18T18:32:32Z</time></trkpt>
<trkpt lat="46.18781165" lon="6.09274565"><ele></ele><time>2016-6-18T18:32:35Z</time></trkpt>
<trkpt lat="46.18781006" lon="6.09274674"><ele></ele><time>2016-6-18T18:32:38Z</time></trkpt>
<trkpt lat="46.18780905" lon="6.09274758"><ele></ele><time>2016-6-18T18:32:41Z</time></trkpt>
<trkpt lat="46.18780855" lon="6.09274833"><ele></ele><time>2016-6-18T18:32:44Z</time></trkpt>
<trkpt lat="46.18780830" lon="6.09274917"><ele></ele><time>2016-6-18T18:32:47Z</time></trkpt>
<trkpt lat="46.18781484" lon="6.09274766"><ele></ele><time>2016-6-18T18:32:50Z</time></trkpt>
<trkpt lat="46.18781475" lon="6.09274825"><ele></ele><time>2016-6-18T18:32:53Z</time></trkpt>
<trkpt lat="46.18781459" lon="6.09274909"><ele></ele><time>2016-6-18T18:32:56Z</time></trkpt>
<trkpt lat="46.18781400" lon="6.09274993"><ele></ele><time>2016-6-18T18:32:59Z</time></trkpt>
<trkpt lat="46.18781283" lon="6.09275085"><ele></ele><time>2016-6-18T18:33:2Z</time></trkpt>
<trkpt lat="46.18781165" lon="6.09275177"><ele></ele><time>2016-6-18T18:33:5Z</time></trkpt>
<trkpt lat="46.18781039" lon="6.09275294"><ele></ele><time>2016-6-18T18:33:8Z</time></trkpt>
<trkpt lat="46.18780838" lon="6.09275395"><ele></ele><time>2016-6-18T18:33:11Z</time></trkpt>
<trkpt lat="46.18780696" lon="6.09275504"><ele></ele><time>2016-6-18T18:33:14Z</time></trkpt>
<trkpt lat="46.18780553" lon="6.09275630"><ele></ele><time>2016-6-18T18:33:17Z</time></trkpt>
<trkpt lat="46.18780436" lon="6.09275755"><ele></ele><time>2016-6-18T18:33:20Z</time></trkpt>
<trkpt lat="46.18780243" lon="6.09275839"><ele></ele><time>2016-6-18T18:33:23Z</time></trkpt>
<trkpt lat="46.18780034" lon="6.09275890"><ele></ele><time>2016-6-18T18:33:26Z</time></trkpt>
<trkpt lat="46.18779874" lon="6.09275940"><ele></ele><time>2016-6-18T18:33:29Z</time></trkpt>
<trkpt lat="46.18779673" lon="6.09275965"><ele></ele><time>2016-6-18T18:33:32Z</time></trkpt>
<trkpt lat="46.18780268" lon="6.09275856"><ele></ele><time>2016-6-18T18:33:35Z</time></trkpt>
<trkpt lat="46.18780788" lon="6.09275797"><ele></ele><time>2016-6-18T18:33:38Z</time></trkpt>
<trkpt lat="46.18781157" lon="6.09275747"><ele></ele><time>2016-6-18T18:33:41Z</time></trkpt>
<trkpt lat="46.18781593" lon="6.09275630"><ele></ele><time>2016-6-18T18:33:44Z</time></trkpt>
<trkpt lat="46.18782003" lon="6.09275563"><ele></ele><time>2016-6-18T18:33:47Z</time></trkpt>
<trkpt lat="46.18782423" lon="6.09275554"><ele></ele><time>2016-6-18T18:33:50Z</time></trkpt>
<trkpt lat="46.18782682" lon="6.09275479"><ele></ele><time>2016-6-18T18:33:53Z</time></trkpt>
<trkpt lat="46.18783018" lon="6.09275403"><ele></ele><time>2016-6-18T18:33:56Z</time></trkpt>
<trkpt lat="46.18783286" lon="6.09275328"><ele></ele><time>2016-6-18T18:33:59Z</time></trkpt>
<trkpt lat="46.18783596" lon="6.09275328"><ele></ele><time>2016-6-18T18:34:2Z</time></trkpt>
<trkpt lat="46.18783940" lon="6.09275043"><ele></ele><time>2016-6-18T18:34:5Z</time></trkpt>
<trkpt lat="46.18784132" lon="6.09275077"><ele></ele><time>2016-6-18T18:34:8Z</time></trkpt>
<trkpt lat="46.18784225" lon="6.09275035"><ele></ele><time>2016-6-18T18:34:11Z</time></trkpt>
<trkpt lat="46.18784317" lon="6.09275035"><ele></ele><time>2016-6-18T18:34:14Z</time></trkpt>
<trkpt lat="46.18784359" lon="6.09275018"><ele></ele><time>2016-6-18T18:34:17Z</time></trkpt>
<trkpt lat="46.18784417" lon="6.09275035"><ele></ele><time>2016-6-18T18:34:20Z</time></trkpt>
<trkpt lat="46.18784417" lon="6.09275035"><ele></ele><time>2016-6-18T18:34:23Z</time></trkpt>
<trkpt lat="46.18784434" lon="6.09275068"><ele></ele><time>2016-6-18T18:34:26Z</time></trkpt>
<trkpt lat="46.18784225" lon="6.09275169"><ele></ele><time>2016-6-18T18:34:29Z</time></trkpt>
<trkpt lat="46.18784317" lon="6.09275873"><ele></ele><time>2016-6-18T18:34:32Z</time></trkpt>
<trkpt lat="46.18783847" lon="6.09276476"><ele></ele><time>2016-6-18T18:34:35Z</time></trkpt>
<trkpt lat="46.18784065" lon="6.09276946"><ele></ele><time>2016-6-18T18:34:38Z</time></trkpt>
<trkpt lat="46.18784183" lon="6.09277172"><ele></ele><time>2016-6-18T18:34:41Z</time></trkpt>
<trkpt lat="46.18784627" lon="6.09278027"><ele></ele><time>2016-6-18T18:34:44Z</time></trkpt>
<trkpt lat="46.18784887" lon="6.09279385"><ele></ele><time>2016-6-18T18:34:47Z</time></trkpt>
<trkpt lat="46.18785029" lon="6.09280877"><ele></ele><time>2016-6-18T18:34:50Z</time></trkpt>
<trkpt lat="46.18784828" lon="6.09283098"><ele></ele><time>2016-6-18T18:34:53Z</time></trkpt>
<trkpt lat="46.18784359" lon="6.09286107"><ele></ele><time>2016-6-18T18:34:56Z</time></trkpt>
<trkpt lat="46.18783655" lon="6.09289058"><ele></ele><time>2016-6-18T18:34:59Z</time></trkpt>
<trkpt lat="46.18783487" lon="6.09291983"><ele></ele><time>2016-6-18T18:35:2Z</time></trkpt>
<trkpt lat="46.18784342" lon="6.09293844"><ele></ele><time>2016-6-18T18:35:5Z</time></trkpt>
<trkpt lat="46.18786580" lon="6.09294875"><ele></ele><time>2016-6-18T18:35:8Z</time></trkpt>
<trkpt lat="46.18788918" lon="6.09293802"><ele></ele><time>2016-6-18T18:35:11Z</time></trkpt>
<trkpt lat="46.18791282" lon="6.09291203"><ele></ele><time>2016-6-18T18:35:14Z</time></trkpt>
<trkpt lat="46.18794182" lon="6.09287867"><ele></ele><time>2016-6-18T18:35:17Z</time></trkpt>
<trkpt lat="46.18797326" lon="6.09284732"><ele></ele><time>2016-6-18T18:35:20Z</time></trkpt>
<trkpt lat="46.18800905" lon="6.09281665"><ele></ele><time>2016-6-18T18:35:23Z</time></trkpt>
<trkpt lat="46.18803637" lon="6.09277809"><ele></ele><time>2016-6-18T18:35:26Z</time></trkpt>
<trkpt lat="46.18806562" lon="6.09273794"><ele></ele><time>2016-6-18T18:35:29Z</time></trkpt>
<trkpt lat="46.18809555" lon="6.09269888"><ele></ele><time>2016-6-18T18:35:32Z</time></trkpt>
<trkpt lat="46.18812304" lon="6.09265773"><ele></ele><time>2016-6-18T18:35:35Z</time></trkpt>
<trkpt lat="46.18814986" lon="6.09261674"><ele></ele><time>2016-6-18T18:35:38Z</time></trkpt>
<trkpt lat="46.18818029" lon="6.09257776"><ele></ele><time>2016-6-18T18:35:41Z</time></trkpt>
<trkpt lat="46.18820770" lon="6.09254097"><ele></ele><time>2016-6-18T18:35:44Z</time></trkpt>
<trkpt lat="46.18823318" lon="6.09250476"><ele></ele><time>2016-6-18T18:35:47Z</time></trkpt>
<trkpt lat="46.18825782" lon="6.09247223"><ele></ele><time>2016-6-18T18:35:50Z</time></trkpt>
<trkpt lat="46.18827936" lon="6.09244038"><ele></ele><time>2016-6-18T18:35:53Z</time></trkpt>
<trkpt lat="46.18829420" lon="6.09240619"><ele></ele><time>2016-6-18T18:35:56Z</time></trkpt>
<trkpt lat="46.18830476" lon="6.09237090"><ele></ele><time>2016-6-18T18:35:59Z</time></trkpt>
<trkpt lat="46.18831524" lon="6.09233452"><ele></ele><time>2016-6-18T18:36:2Z</time></trkpt>
<trkpt lat="46.18832798" lon="6.09230225"><ele></ele><time>2016-6-18T18:36:5Z</time></trkpt>
<trkpt lat="46.18834332" lon="6.09227325"><ele></ele><time>2016-6-18T18:36:8Z</time></trkpt>
<trkpt lat="46.18835782" lon="6.09224307"><ele></ele><time>2016-6-18T18:36:11Z</time></trkpt>
<trkpt lat="46.18837416" lon="6.09221407"><ele></ele><time>2016-6-18T18:36:14Z</time></trkpt>
<trkpt lat="46.18838925" lon="6.09217887"><ele></ele><time>2016-6-18T18:36:17Z</time></trkpt>
<trkpt lat="46.18840576" lon="6.09214182"><ele></ele><time>2016-6-18T18:36:20Z</time></trkpt>
<trkpt lat="46.18842278" lon="6.09210268"><ele></ele><time>2016-6-18T18:36:23Z</time></trkpt>
<trkpt lat="46.18843786" lon="6.09206127"><ele></ele><time>2016-6-18T18:36:26Z</time></trkpt>
<trkpt lat="46.18844985" lon="6.09202188"><ele></ele><time>2016-6-18T18:36:29Z</time></trkpt>
<trkpt lat="46.18845806" lon="6.09198097"><ele></ele><time>2016-6-18T18:36:32Z</time></trkpt>
<trkpt lat="46.18846687" lon="6.09194309"><ele></ele><time>2016-6-18T18:36:35Z</time></trkpt>
<trkpt lat="46.18847458" lon="6.09190344"><ele></ele><time>2016-6-18T18:36:38Z</time></trkpt>
<trkpt lat="46.18848103" lon="6.09186664"><ele></ele><time>2016-6-18T18:36:41Z</time></trkpt>
<trkpt lat="46.18848623" lon="6.09183278"><ele></ele><time>2016-6-18T18:36:44Z</time></trkpt>
<trkpt lat="46.18849285" lon="6.09179934"><ele></ele><time>2016-6-18T18:36:47Z</time></trkpt>
<trkpt lat="46.18849830" lon="6.09176782"><ele></ele><time>2016-6-18T18:36:50Z</time></trkpt>
<trkpt lat="46.18850282" lon="6.09173077"><ele></ele><time>2016-6-18T18:36:53Z</time></trkpt>
<trkpt lat="46.18851054" lon="6.09169037"><ele></ele><time>2016-6-18T18:36:56Z</time></trkpt>
<trkpt lat="46.18851766" lon="6.09165232"><ele></ele><time>2016-6-18T18:36:59Z</time></trkpt>
<trkpt lat="46.18851892" lon="6.09161275"><ele></ele><time>2016-6-18T18:37:2Z</time></trkpt>
<trkpt lat="46.18851758" lon="6.09156674"><ele></ele><time>2016-6-18T18:37:5Z</time></trkpt>
<trkpt lat="46.18851682" lon="6.09151100"><ele></ele><time>2016-6-18T18:37:8Z</time></trkpt>
<trkpt lat="46.18850593" lon="6.09145392"><ele></ele><time>2016-6-18T18:37:11Z</time></trkpt>
<trkpt lat="46.18849679" lon="6.09139876"><ele></ele><time>2016-6-18T18:37:14Z</time></trkpt>
<trkpt lat="46.18849260" lon="6.09134403"><ele></ele><time>2016-6-18T18:37:17Z</time></trkpt>
<trkpt lat="46.18847894" lon="6.09128670"><ele></ele><time>2016-6-18T18:37:20Z</time></trkpt>
<trkpt lat="46.18847315" lon="6.09123674"><ele></ele><time>2016-6-18T18:37:23Z</time></trkpt>
<trkpt lat="46.18848380" lon="6.09118352"><ele></ele><time>2016-6-18T18:37:26Z</time></trkpt>
<trkpt lat="46.18850048" lon="6.09113155"><ele></ele><time>2016-6-18T18:37:29Z</time></trkpt>
<trkpt lat="46.18852135" lon="6.09109023"><ele></ele><time>2016-6-18T18:37:32Z</time></trkpt>
<trkpt lat="46.18854834" lon="6.09105553"><ele></ele><time>2016-6-18T18:37:35Z</time></trkpt>
<trkpt lat="46.18857809" lon="6.09103038"><ele></ele><time>2016-6-18T18:37:38Z</time></trkpt>
<trkpt lat="46.18861204" lon="6.09101387"><ele></ele><time>2016-6-18T18:37:41Z</time></trkpt>
<trkpt lat="46.18864532" lon="6.09099953"><ele></ele><time>2016-6-18T18:37:44Z</time></trkpt>
<trkpt lat="46.18868019" lon="6.09098554"><ele></ele><time>2016-6-18T18:37:47Z</time></trkpt>
<trkpt lat="46.18870835" lon="6.09096198"><ele></ele><time>2016-6-18T18:37:50Z</time></trkpt>
<trkpt lat="46.18872922" lon="6.09092594"><ele></ele><time>2016-6-18T18:37:53Z</time></trkpt>
<trkpt lat="46.18873743" lon="6.09087959"><ele></ele><time>2016-6-18T18:37:56Z</time></trkpt>
<trkpt lat="46.18873173" lon="6.09083064"><ele></ele><time>2016-6-18T18:37:59Z</time></trkpt>
<trkpt lat="46.18871648" lon="6.09078135"><ele></ele><time>2016-6-18T18:38:2Z</time></trkpt>
<trkpt lat="46.18869795" lon="6.09072763"><ele></ele><time>2016-6-18T18:38:5Z</time></trkpt>
<trkpt lat="46.18867524" lon="6.09067054"><ele></ele><time>2016-6-18T18:38:8Z</time></trkpt>
<trkpt lat="46.18865227" lon="6.09061128"><ele></ele><time>2016-6-18T18:38:11Z</time></trkpt>
<trkpt lat="46.18862838" lon="6.09055135"><ele></ele><time>2016-6-18T18:38:14Z</time></trkpt>
<trkpt lat="46.18860676" lon="6.09048757"><ele></ele><time>2016-6-18T18:38:17Z</time></trkpt>
<trkpt lat="46.18858446" lon="6.09042135"><ele></ele><time>2016-6-18T18:38:20Z</time></trkpt>
<trkpt lat="46.18856460" lon="6.09035932"><ele></ele><time>2016-6-18T18:38:23Z</time></trkpt>
<trkpt lat="46.18854557" lon="6.09029587"><ele></ele><time>2016-6-18T18:38:26Z</time></trkpt>
<trkpt lat="46.18852302" lon="6.09023175"><ele></ele><time>2016-6-18T18:38:29Z</time></trkpt>
<trkpt lat="46.18850308" lon="6.09017467"><ele></ele><time>2016-6-18T18:38:32Z</time></trkpt>
<trkpt lat="46.18847868" lon="6.09011566"><ele></ele><time>2016-6-18T18:38:35Z</time></trkpt>
<trkpt lat="46.18844658" lon="6.09006294"><ele></ele><time>2016-6-18T18:38:38Z</time></trkpt>
<trkpt lat="46.18841490" lon="6.09000779"><ele></ele><time>2016-6-18T18:38:41Z</time></trkpt>
<trkpt lat="46.18839210" lon="6.08994626"><ele></ele><time>2016-6-18T18:38:44Z</time></trkpt>
<trkpt lat="46.18837877" lon="6.08988164"><ele></ele><time>2016-6-18T18:38:47Z</time></trkpt>
<trkpt lat="46.18835522" lon="6.08982112"><ele></ele><time>2016-6-18T18:38:50Z</time></trkpt>
<trkpt lat="46.18833946" lon="6.08975926"><ele></ele><time>2016-6-18T18:38:53Z</time></trkpt>
<trkpt lat="46.18831465" lon="6.08969992"><ele></ele><time>2016-6-18T18:38:56Z</time></trkpt>
<trkpt lat="46.18829235" lon="6.08964737"><ele></ele><time>2016-6-18T18:38:59Z</time></trkpt>
<trkpt lat="46.18826964" lon="6.08959313"><ele></ele><time>2016-6-18T18:39:2Z</time></trkpt>
<trkpt lat="46.18824852" lon="6.08954033"><ele></ele><time>2016-6-18T18:39:5Z</time></trkpt>
<trkpt lat="46.18823192" lon="6.08949993"><ele></ele><time>2016-6-18T18:39:8Z</time></trkpt>
<trkpt lat="46.18820686" lon="6.08948149"><ele></ele><time>2016-6-18T18:39:11Z</time></trkpt>
<trkpt lat="46.18817274" lon="6.08947487"><ele></ele><time>2016-6-18T18:39:14Z</time></trkpt>
<trkpt lat="46.18813578" lon="6.08947353"><ele></ele><time>2016-6-18T18:39:17Z</time></trkpt>
<trkpt lat="46.18809823" lon="6.08948157"><ele></ele><time>2016-6-18T18:39:20Z</time></trkpt>
<trkpt lat="46.18805632" lon="6.08949792"><ele></ele><time>2016-6-18T18:39:23Z</time></trkpt>
<trkpt lat="46.18802078" lon="6.08951292"><ele></ele><time>2016-6-18T18:39:26Z</time></trkpt>
<trkpt lat="46.18798692" lon="6.08951912"><ele></ele><time>2016-6-18T18:39:29Z</time></trkpt>
<trkpt lat="46.18795515" lon="6.08951208"><ele></ele><time>2016-6-18T18:39:32Z</time></trkpt>
<trkpt lat="46.18792305" lon="6.08949549"><ele></ele><time>2016-6-18T18:39:35Z</time></trkpt>
<trkpt lat="46.18789036" lon="6.08947420"><ele></ele><time>2016-6-18T18:39:38Z</time></trkpt>
<trkpt lat="46.18785876" lon="6.08944377"><ele></ele><time>2016-6-18T18:39:41Z</time></trkpt>
<trkpt lat="46.18782800" lon="6.08940144"><ele></ele><time>2016-6-18T18:39:44Z</time></trkpt>
<trkpt lat="46.18779908" lon="6.08935475"><ele></ele><time>2016-6-18T18:39:47Z</time></trkpt>
<trkpt lat="46.18777318" lon="6.08930396"><ele></ele><time>2016-6-18T18:39:50Z</time></trkpt>
<trkpt lat="46.18774636" lon="6.08924713"><ele></ele><time>2016-6-18T18:39:53Z</time></trkpt>
<trkpt lat="46.18772079" lon="6.08918410"><ele></ele><time>2016-6-18T18:39:56Z</time></trkpt>
<trkpt lat="46.18769590" lon="6.08911855"><ele></ele><time>2016-6-18T18:39:59Z</time></trkpt>
<trkpt lat="46.18766983" lon="6.08905133"><ele></ele><time>2016-6-18T18:40:2Z</time></trkpt>
<trkpt lat="46.18764133" lon="6.08898285"><ele></ele><time>2016-6-18T18:40:5Z</time></trkpt>
<trkpt lat="46.18761107" lon="6.08891437"><ele></ele><time>2016-6-18T18:40:8Z</time></trkpt>
<trkpt lat="46.18758308" lon="6.08884044"><ele></ele><time>2016-6-18T18:40:11Z</time></trkpt>
<trkpt lat="46.18754477" lon="6.08877020"><ele></ele><time>2016-6-18T18:40:14Z</time></trkpt>
<trkpt lat="46.18751116" lon="6.08869652"><ele></ele><time>2016-6-18T18:40:17Z</time></trkpt>
<trkpt lat="46.18748392" lon="6.08862159"><ele></ele><time>2016-6-18T18:40:20Z</time></trkpt>
<trkpt lat="46.18747319" lon="6.08854196"><ele></ele><time>2016-6-18T18:40:23Z</time></trkpt>
<trkpt lat="46.18745433" lon="6.08847558"><ele></ele><time>2016-6-18T18:40:26Z</time></trkpt>
<trkpt lat="46.18742357" lon="6.08843132"><ele></ele><time>2016-6-18T18:40:29Z</time></trkpt>
<trkpt lat="46.18737546" lon="6.08840802"><ele></ele><time>2016-6-18T18:40:32Z</time></trkpt>
<trkpt lat="46.18732483" lon="6.08840693"><ele></ele><time>2016-6-18T18:40:35Z</time></trkpt>
<trkpt lat="46.18727605" lon="6.08842478"><ele></ele><time>2016-6-18T18:40:38Z</time></trkpt>
<trkpt lat="46.18723129" lon="6.08845487"><ele></ele><time>2016-6-18T18:40:41Z</time></trkpt>
<trkpt lat="46.18718762" lon="6.08849125"><ele></ele><time>2016-6-18T18:40:44Z</time></trkpt>
<trkpt lat="46.18715275" lon="6.08853425"><ele></ele><time>2016-6-18T18:40:47Z</time></trkpt>
<trkpt lat="46.18711520" lon="6.08858429"><ele></ele><time>2016-6-18T18:40:50Z</time></trkpt>
<trkpt lat="46.18708167" lon="6.08863919"><ele></ele><time>2016-6-18T18:40:53Z</time></trkpt>
<trkpt lat="46.18705359" lon="6.08869719"><ele></ele><time>2016-6-18T18:40:56Z</time></trkpt>
<trkpt lat="46.18702669" lon="6.08875805"><ele></ele><time>2016-6-18T18:40:59Z</time></trkpt>
<trkpt lat="46.18700095" lon="6.08882150"><ele></ele><time>2016-6-18T18:41:2Z</time></trkpt>
<trkpt lat="46.18697765" lon="6.08888612"><ele></ele><time>2016-6-18T18:41:5Z</time></trkpt>
<trkpt lat="46.18695519" lon="6.08895142"><ele></ele><time>2016-6-18T18:41:8Z</time></trkpt>
<trkpt lat="46.18693314" lon="6.08901713"><ele></ele><time>2016-6-18T18:41:11Z</time></trkpt>
<trkpt lat="46.18690649" lon="6.08908016"><ele></ele><time>2016-6-18T18:41:14Z</time></trkpt>
<trkpt lat="46.18687707" lon="6.08913842"><ele></ele><time>2016-6-18T18:41:17Z</time></trkpt>
<trkpt lat="46.18684438" lon="6.08919332"><ele></ele><time>2016-6-18T18:41:20Z</time></trkpt>
<trkpt lat="46.18681077" lon="6.08923900"><ele></ele><time>2016-6-18T18:41:23Z</time></trkpt>
<trkpt lat="46.18677523" lon="6.08928124"><ele></ele><time>2016-6-18T18:41:26Z</time></trkpt>
<trkpt lat="46.18673835" lon="6.08932273"><ele></ele><time>2016-6-18T18:41:29Z</time></trkpt>
<trkpt lat="46.18669669" lon="6.08935978"><ele></ele><time>2016-6-18T18:41:32Z</time></trkpt>
<trkpt lat="46.18665185" lon="6.08939457"><ele></ele><time>2016-6-18T18:41:35Z</time></trkpt>
<trkpt lat="46.18660868" lon="6.08942675"><ele></ele><time>2016-6-18T18:41:38Z</time></trkpt>
<trkpt lat="46.18656635" lon="6.08946087"><ele></ele><time>2016-6-18T18:41:41Z</time></trkpt>
<trkpt lat="46.18652428" lon="6.08949523"><ele></ele><time>2016-6-18T18:41:44Z</time></trkpt>
<trkpt lat="46.18648647" lon="6.08953178"><ele></ele><time>2016-6-18T18:41:47Z</time></trkpt>
<trkpt lat="46.18645135" lon="6.08956698"><ele></ele><time>2016-6-18T18:41:50Z</time></trkpt>
<trkpt lat="46.18641783" lon="6.08959875"><ele></ele><time>2016-6-18T18:41:53Z</time></trkpt>
<trkpt lat="46.18638572" lon="6.08962473"><ele></ele><time>2016-6-18T18:41:56Z</time></trkpt>
<trkpt lat="46.18635362" lon="6.08963865"><ele></ele><time>2016-6-18T18:41:59Z</time></trkpt>
<trkpt lat="46.18632135" lon="6.08964083"><ele></ele><time>2016-6-18T18:42:2Z</time></trkpt>
<trkpt lat="46.18629084" lon="6.08963446"><ele></ele><time>2016-6-18T18:42:5Z</time></trkpt>
<trkpt lat="46.18626477" lon="6.08961476"><ele></ele><time>2016-6-18T18:42:8Z</time></trkpt>
<trkpt lat="46.18624030" lon="6.08959137"><ele></ele><time>2016-6-18T18:42:11Z</time></trkpt>
<trkpt lat="46.18621959" lon="6.08956606"><ele></ele><time>2016-6-18T18:42:14Z</time></trkpt>
<trkpt lat="46.18619654" lon="6.08954762"><ele></ele><time>2016-6-18T18:42:17Z</time></trkpt>
<trkpt lat="46.18617048" lon="6.08953932"><ele></ele><time>2016-6-18T18:42:20Z</time></trkpt>
<trkpt lat="46.18614575" lon="6.08953505"><ele></ele><time>2016-6-18T18:42:23Z</time></trkpt>
<trkpt lat="46.18612479" lon="6.08953102"><ele></ele><time>2016-6-18T18:42:26Z</time></trkpt>
<trkpt lat="46.18610585" lon="6.08952759"><ele></ele><time>2016-6-18T18:42:29Z</time></trkpt>
<trkpt lat="46.18608808" lon="6.08952910"><ele></ele><time>2016-6-18T18:42:32Z</time></trkpt>
<trkpt lat="46.18606444" lon="6.08953798"><ele></ele><time>2016-6-18T18:42:35Z</time></trkpt>
<trkpt lat="46.18603896" lon="6.08955634"><ele></ele><time>2016-6-18T18:42:38Z</time></trkpt>
<trkpt lat="46.18600887" lon="6.08957939"><ele></ele><time>2016-6-18T18:42:41Z</time></trkpt>
<trkpt lat="46.18597794" lon="6.08960789"><ele></ele><time>2016-6-18T18:42:44Z</time></trkpt>
<trkpt lat="46.18594634" lon="6.08963965"><ele></ele><time>2016-6-18T18:42:47Z</time></trkpt>
<trkpt lat="46.18591189" lon="6.08967075"><ele></ele><time>2016-6-18T18:42:50Z</time></trkpt>
<trkpt lat="46.18587116" lon="6.08970227"><ele></ele><time>2016-6-18T18:42:53Z</time></trkpt>
<trkpt lat="46.18582782" lon="6.08973253"><ele></ele><time>2016-6-18T18:42:56Z</time></trkpt>
<trkpt lat="46.18577803" lon="6.08975817"><ele></ele><time>2016-6-18T18:42:59Z</time></trkpt>
<trkpt lat="46.18573168" lon="6.08978609"><ele></ele><time>2016-6-18T18:43:2Z</time></trkpt>
<trkpt lat="46.18568935" lon="6.08981668"><ele></ele><time>2016-6-18T18:43:5Z</time></trkpt>
<trkpt lat="46.18564585" lon="6.08984694"><ele></ele><time>2016-6-18T18:43:8Z</time></trkpt>
<trkpt lat="46.18560118" lon="6.08987737"><ele></ele><time>2016-6-18T18:43:11Z</time></trkpt>
<trkpt lat="46.18555273" lon="6.08990503"><ele></ele><time>2016-6-18T18:43:14Z</time></trkpt>
<trkpt lat="46.18550445" lon="6.08993378"><ele></ele><time>2016-6-18T18:43:17Z</time></trkpt>
<trkpt lat="46.18545592" lon="6.08996278"><ele></ele><time>2016-6-18T18:43:20Z</time></trkpt>
<trkpt lat="46.18540722" lon="6.08999002"><ele></ele><time>2016-6-18T18:43:23Z</time></trkpt>
<trkpt lat="46.18536338" lon="6.09001969"><ele></ele><time>2016-6-18T18:43:26Z</time></trkpt>
<trkpt lat="46.18532097" lon="6.09004894"><ele></ele><time>2016-6-18T18:43:29Z</time></trkpt>
<trkpt lat="46.18527713" lon="6.09007727"><ele></ele><time>2016-6-18T18:43:32Z</time></trkpt>
<trkpt lat="46.18523262" lon="6.09010619"><ele></ele><time>2016-6-18T18:43:35Z</time></trkpt>
<trkpt lat="46.18518703" lon="6.09013435"><ele></ele><time>2016-6-18T18:43:38Z</time></trkpt>
<trkpt lat="46.18514352" lon="6.09016294"><ele></ele><time>2016-6-18T18:43:41Z</time></trkpt>
<trkpt lat="46.18509944" lon="6.09018708"><ele></ele><time>2016-6-18T18:43:44Z</time></trkpt>
<trkpt lat="46.18505484" lon="6.09019688"><ele></ele><time>2016-6-18T18:43:47Z</time></trkpt>
<trkpt lat="46.18501134" lon="6.09018582"><ele></ele><time>2016-6-18T18:43:50Z</time></trkpt>
<trkpt lat="46.18497404" lon="6.09015397"><ele></ele><time>2016-6-18T18:43:53Z</time></trkpt>
<trkpt lat="46.18493892" lon="6.09010804"><ele></ele><time>2016-6-18T18:43:56Z</time></trkpt>
<trkpt lat="46.18490255" lon="6.09005850"><ele></ele><time>2016-6-18T18:43:59Z</time></trkpt>
<trkpt lat="46.18486156" lon="6.09001625"><ele></ele><time>2016-6-18T18:44:2Z</time></trkpt>
<trkpt lat="46.18481705" lon="6.08998499"><ele></ele><time>2016-6-18T18:44:5Z</time></trkpt>
<trkpt lat="46.18476718" lon="6.08997049"><ele></ele><time>2016-6-18T18:44:8Z</time></trkpt>
<trkpt lat="46.18471102" lon="6.08997250"><ele></ele><time>2016-6-18T18:44:11Z</time></trkpt>
<trkpt lat="46.18465897" lon="6.08998465"><ele></ele><time>2016-6-18T18:44:14Z</time></trkpt>
<trkpt lat="46.18460742" lon="6.09000435"><ele></ele><time>2016-6-18T18:44:17Z</time></trkpt>
<trkpt lat="46.18454883" lon="6.09002723"><ele></ele><time>2016-6-18T18:44:20Z</time></trkpt>
<trkpt lat="46.18449787" lon="6.09005204"><ele></ele><time>2016-6-18T18:44:23Z</time></trkpt>
<trkpt lat="46.18445235" lon="6.09007962"><ele></ele><time>2016-6-18T18:44:26Z</time></trkpt>
<trkpt lat="46.18440508" lon="6.09010912"><ele></ele><time>2016-6-18T18:44:29Z</time></trkpt>
<trkpt lat="46.18435353" lon="6.09013662"><ele></ele><time>2016-6-18T18:44:32Z</time></trkpt>
<trkpt lat="46.18429963" lon="6.09016327"><ele></ele><time>2016-6-18T18:44:35Z</time></trkpt>
<trkpt lat="46.18424792" lon="6.09019009"><ele></ele><time>2016-6-18T18:44:38Z</time></trkpt>
<trkpt lat="46.18419687" lon="6.09021876"><ele></ele><time>2016-6-18T18:44:41Z</time></trkpt>
<trkpt lat="46.18413954" lon="6.09024139"><ele></ele><time>2016-6-18T18:44:44Z</time></trkpt>
<trkpt lat="46.18410367" lon="6.09027986"><ele></ele><time>2016-6-18T18:44:47Z</time></trkpt>
<trkpt lat="46.18407760" lon="6.09032580"><ele></ele><time>2016-6-18T18:44:50Z</time></trkpt>
<trkpt lat="46.18402999" lon="6.09036796"><ele></ele><time>2016-6-18T18:44:53Z</time></trkpt>
<trkpt lat="46.18398045" lon="6.09041506"><ele></ele><time>2016-6-18T18:44:56Z</time></trkpt>
<trkpt lat="46.18392496" lon="6.09046309"><ele></ele><time>2016-6-18T18:44:59Z</time></trkpt>
<trkpt lat="46.18387442" lon="6.09049913"><ele></ele><time>2016-6-18T18:45:2Z</time></trkpt>
<trkpt lat="46.18382622" lon="6.09053476"><ele></ele><time>2016-6-18T18:45:5Z</time></trkpt>
<trkpt lat="46.18377426" lon="6.09057357"><ele></ele><time>2016-6-18T18:45:8Z</time></trkpt>
<trkpt lat="46.18372128" lon="6.09061196"><ele></ele><time>2016-6-18T18:45:11Z</time></trkpt>
<trkpt lat="46.18366663" lon="6.09064942"><ele></ele><time>2016-6-18T18:45:14Z</time></trkpt>
<trkpt lat="46.18361559" lon="6.09069083"><ele></ele><time>2016-6-18T18:45:17Z</time></trkpt>
<trkpt lat="46.18356169" lon="6.09072318"><ele></ele><time>2016-6-18T18:45:20Z</time></trkpt>
<trkpt lat="46.18349547" lon="6.09074632"><ele></ele><time>2016-6-18T18:45:23Z</time></trkpt>
<trkpt lat="46.18343085" lon="6.09077180"><ele></ele><time>2016-6-18T18:45:26Z</time></trkpt>
<trkpt lat="46.18337444" lon="6.09080038"><ele></ele><time>2016-6-18T18:45:29Z</time></trkpt>
<trkpt lat="46.18331954" lon="6.09082603"><ele></ele><time>2016-6-18T18:45:32Z</time></trkpt>
<trkpt lat="46.18325542" lon="6.09084522"><ele></ele><time>2016-6-18T18:45:35Z</time></trkpt>
<trkpt lat="46.18319373" lon="6.09086568"><ele></ele><time>2016-6-18T18:45:38Z</time></trkpt>
<trkpt lat="46.18313765" lon="6.09088856"><ele></ele><time>2016-6-18T18:45:41Z</time></trkpt>
<trkpt lat="46.18308744" lon="6.09091102"><ele></ele><time>2016-6-18T18:45:44Z</time></trkpt>
<trkpt lat="46.18303908" lon="6.09093240"><ele></ele><time>2016-6-18T18:45:47Z</time></trkpt>
<trkpt lat="46.18299013" lon="6.09095620"><ele></ele><time>2016-6-18T18:45:50Z</time></trkpt>
<trkpt lat="46.18293808" lon="6.09098218"><ele></ele><time>2016-6-18T18:45:53Z</time></trkpt>
<trkpt lat="46.18288225" lon="6.09100716"><ele></ele><time>2016-6-18T18:45:56Z</time></trkpt>
<trkpt lat="46.18282593" lon="6.09103088"><ele></ele><time>2016-6-18T18:45:59Z</time></trkpt>
<trkpt lat="46.18277002" lon="6.09105494"><ele></ele><time>2016-6-18T18:46:2Z</time></trkpt>
<trkpt lat="46.18271629" lon="6.09108109"><ele></ele><time>2016-6-18T18:46:5Z</time></trkpt>
<trkpt lat="46.18266433" lon="6.09110800"><ele></ele><time>2016-6-18T18:46:8Z</time></trkpt>
<trkpt lat="46.18261009" lon="6.09113247"><ele></ele><time>2016-6-18T18:46:11Z</time></trkpt>
<trkpt lat="46.18256047" lon="6.09115217"><ele></ele><time>2016-6-18T18:46:14Z</time></trkpt>
<trkpt lat="46.18251479" lon="6.09115343"><ele></ele><time>2016-6-18T18:46:17Z</time></trkpt>
<trkpt lat="46.18248428" lon="6.09109333"><ele></ele><time>2016-6-18T18:46:20Z</time></trkpt>
<trkpt lat="46.18245017" lon="6.09104312"><ele></ele><time>2016-6-18T18:46:23Z</time></trkpt>
<trkpt lat="46.18242946" lon="6.09097799"><ele></ele><time>2016-6-18T18:46:26Z</time></trkpt>
<trkpt lat="46.18239686" lon="6.09091932"><ele></ele><time>2016-6-18T18:46:29Z</time></trkpt>
<trkpt lat="46.18237758" lon="6.09085034"><ele></ele><time>2016-6-18T18:46:32Z</time></trkpt>
<trkpt lat="46.18234967" lon="6.09079678"><ele></ele><time>2016-6-18T18:46:35Z</time></trkpt>
<trkpt lat="46.18231966" lon="6.09074330"><ele></ele><time>2016-6-18T18:46:38Z</time></trkpt>
<trkpt lat="46.18229368" lon="6.09068647"><ele></ele><time>2016-6-18T18:46:41Z</time></trkpt>
<trkpt lat="46.18227415" lon="6.09062595"><ele></ele><time>2016-6-18T18:46:44Z</time></trkpt>
<trkpt lat="46.18225956" lon="6.09056678"><ele></ele><time>2016-6-18T18:46:47Z</time></trkpt>
<trkpt lat="46.18223224" lon="6.09051498"><ele></ele><time>2016-6-18T18:46:50Z</time></trkpt>
<trkpt lat="46.18220734" lon="6.09045932"><ele></ele><time>2016-6-18T18:46:53Z</time></trkpt>
<trkpt lat="46.18219636" lon="6.09039084"><ele></ele><time>2016-6-18T18:46:56Z</time></trkpt>
<trkpt lat="46.18218329" lon="6.09032253"><ele></ele><time>2016-6-18T18:46:59Z</time></trkpt>
<trkpt lat="46.18217633" lon="6.09025070"><ele></ele><time>2016-6-18T18:47:2Z</time></trkpt>
<trkpt lat="46.18216736" lon="6.09018029"><ele></ele><time>2016-6-18T18:47:5Z</time></trkpt>
<trkpt lat="46.18215739" lon="6.09011189"><ele></ele><time>2016-6-18T18:47:8Z</time></trkpt>
<trkpt lat="46.18214733" lon="6.09004366"><ele></ele><time>2016-6-18T18:47:11Z</time></trkpt>
<trkpt lat="46.18213216" lon="6.08997669"><ele></ele><time>2016-6-18T18:47:14Z</time></trkpt>
<trkpt lat="46.18211045" lon="6.08991743"><ele></ele><time>2016-6-18T18:47:17Z</time></trkpt>
<trkpt lat="46.18208782" lon="6.08986010"><ele></ele><time>2016-6-18T18:47:20Z</time></trkpt>
<trkpt lat="46.18206829" lon="6.08980025"><ele></ele><time>2016-6-18T18:47:23Z</time></trkpt>
<trkpt lat="46.18204633" lon="6.08974468"><ele></ele><time>2016-6-18T18:47:26Z</time></trkpt>
<trkpt lat="46.18202269" lon="6.08969254"><ele></ele><time>2016-6-18T18:47:29Z</time></trkpt>
<trkpt lat="46.18201624" lon="6.08962817"><ele></ele><time>2016-6-18T18:47:32Z</time></trkpt>
<trkpt lat="46.18200978" lon="6.08956925"><ele></ele><time>2016-6-18T18:47:35Z</time></trkpt>
<trkpt lat="46.18200785" lon="6.08950915"><ele></ele><time>2016-6-18T18:47:38Z</time></trkpt>
<trkpt lat="46.18200702" lon="6.08944260"><ele></ele><time>2016-6-18T18:47:41Z</time></trkpt>
<trkpt lat="46.18200769" lon="6.08937588"><ele></ele><time>2016-6-18T18:47:44Z</time></trkpt>
<trkpt lat="46.18200794" lon="6.08930849"><ele></ele><time>2016-6-18T18:47:47Z</time></trkpt>
<trkpt lat="46.18200894" lon="6.08924286"><ele></ele><time>2016-6-18T18:47:50Z</time></trkpt>
<trkpt lat="46.18201213" lon="6.08917513"><ele></ele><time>2016-6-18T18:47:53Z</time></trkpt>
<trkpt lat="46.18201674" lon="6.08911562"><ele></ele><time>2016-6-18T18:47:56Z</time></trkpt>
<trkpt lat="46.18202797" lon="6.08905845"><ele></ele><time>2016-6-18T18:47:59Z</time></trkpt>
<trkpt lat="46.18203895" lon="6.08899509"><ele></ele><time>2016-6-18T18:48:2Z</time></trkpt>
<trkpt lat="46.18204985" lon="6.08893306"><ele></ele><time>2016-6-18T18:48:5Z</time></trkpt>
<trkpt lat="46.18205220" lon="6.08887439"><ele></ele><time>2016-6-18T18:48:8Z</time></trkpt>
<trkpt lat="46.18205035" lon="6.08881513"><ele></ele><time>2016-6-18T18:48:11Z</time></trkpt>
<trkpt lat="46.18204767" lon="6.08875746"><ele></ele><time>2016-6-18T18:48:14Z</time></trkpt>
<trkpt lat="46.18204306" lon="6.08870147"><ele></ele><time>2016-6-18T18:48:17Z</time></trkpt>
<trkpt lat="46.18202663" lon="6.08865386"><ele></ele><time>2016-6-18T18:48:20Z</time></trkpt>
<trkpt lat="46.18200157" lon="6.08862083"><ele></ele><time>2016-6-18T18:48:23Z</time></trkpt>
<trkpt lat="46.18196326" lon="6.08860466"><ele></ele><time>2016-6-18T18:48:26Z</time></trkpt>
<trkpt lat="46.18191406" lon="6.08860223"><ele></ele><time>2016-6-18T18:48:29Z</time></trkpt>
<trkpt lat="46.18185866" lon="6.08860323"><ele></ele><time>2016-6-18T18:48:32Z</time></trkpt>
<trkpt lat="46.18180443" lon="6.08860239"><ele></ele><time>2016-6-18T18:48:35Z</time></trkpt>
<trkpt lat="46.18174684" lon="6.08860097"><ele></ele><time>2016-6-18T18:48:38Z</time></trkpt>
<trkpt lat="46.18168976" lon="6.08859326"><ele></ele><time>2016-6-18T18:48:41Z</time></trkpt>
<trkpt lat="46.18163427" lon="6.08858328"><ele></ele><time>2016-6-18T18:48:44Z</time></trkpt>
<trkpt lat="46.18158205" lon="6.08857163"><ele></ele><time>2016-6-18T18:48:47Z</time></trkpt>
<trkpt lat="46.18152673" lon="6.08855705"><ele></ele><time>2016-6-18T18:48:50Z</time></trkpt>
<trkpt lat="46.18147686" lon="6.08854565"><ele></ele><time>2016-6-18T18:48:53Z</time></trkpt>
<trkpt lat="46.18143244" lon="6.08853559"><ele></ele><time>2016-6-18T18:48:56Z</time></trkpt>
<trkpt lat="46.18139346" lon="6.08852243"><ele></ele><time>2016-6-18T18:48:59Z</time></trkpt>
<trkpt lat="46.18135340" lon="6.08851304"><ele></ele><time>2016-6-18T18:49:2Z</time></trkpt>
<trkpt lat="46.18131752" lon="6.08850500"><ele></ele><time>2016-6-18T18:49:5Z</time></trkpt>
<trkpt lat="46.18128676" lon="6.08848865"><ele></ele><time>2016-6-18T18:49:8Z</time></trkpt>
<trkpt lat="46.18126480" lon="6.08846602"><ele></ele><time>2016-6-18T18:49:11Z</time></trkpt>
<trkpt lat="46.18125658" lon="6.08843509"><ele></ele><time>2016-6-18T18:49:14Z</time></trkpt>
<trkpt lat="46.18125793" lon="6.08839620"><ele></ele><time>2016-6-18T18:49:17Z</time></trkpt>
<trkpt lat="46.18126664" lon="6.08835345"><ele></ele><time>2016-6-18T18:49:20Z</time></trkpt>
<trkpt lat="46.18127762" lon="6.08830668"><ele></ele><time>2016-6-18T18:49:23Z</time></trkpt>
<trkpt lat="46.18128886" lon="6.08824935"><ele></ele><time>2016-6-18T18:49:26Z</time></trkpt>
<trkpt lat="46.18129916" lon="6.08818246"><ele></ele><time>2016-6-18T18:49:29Z</time></trkpt>
<trkpt lat="46.18131132" lon="6.08811205"><ele></ele><time>2016-6-18T18:49:32Z</time></trkpt>
<trkpt lat="46.18132356" lon="6.08804265"><ele></ele><time>2016-6-18T18:49:35Z</time></trkpt>
<trkpt lat="46.18133252" lon="6.08797107"><ele></ele><time>2016-6-18T18:49:38Z</time></trkpt>
<trkpt lat="46.18133998" lon="6.08789203"><ele></ele><time>2016-6-18T18:49:41Z</time></trkpt>
<trkpt lat="46.18134619" lon="6.08780452"><ele></ele><time>2016-6-18T18:49:44Z</time></trkpt>
<trkpt lat="46.18135164" lon="6.08770964"><ele></ele><time>2016-6-18T18:49:47Z</time></trkpt>
<trkpt lat="46.18135792" lon="6.08760579"><ele></ele><time>2016-6-18T18:49:50Z</time></trkpt>
<trkpt lat="46.18136253" lon="6.08749607"><ele></ele><time>2016-6-18T18:49:53Z</time></trkpt>
<trkpt lat="46.18136647" lon="6.08738056"><ele></ele><time>2016-6-18T18:49:56Z</time></trkpt>
<trkpt lat="46.18136287" lon="6.08726129"><ele></ele><time>2016-6-18T18:49:59Z</time></trkpt>
<trkpt lat="46.18135449" lon="6.08713933"><ele></ele><time>2016-6-18T18:50:2Z</time></trkpt>
<trkpt lat="46.18134443" lon="6.08701520"><ele></ele><time>2016-6-18T18:50:5Z</time></trkpt>
<trkpt lat="46.18133454" lon="6.08688737"><ele></ele><time>2016-6-18T18:50:8Z</time></trkpt>
<trkpt lat="46.18132926" lon="6.08675620"><ele></ele><time>2016-6-18T18:50:11Z</time></trkpt>
<trkpt lat="46.18132255" lon="6.08662477"><ele></ele><time>2016-6-18T18:50:14Z</time></trkpt>
<trkpt lat="46.18131802" lon="6.08649426"><ele></ele><time>2016-6-18T18:50:17Z</time></trkpt>
<trkpt lat="46.18131333" lon="6.08636585"><ele></ele><time>2016-6-18T18:50:20Z</time></trkpt>
<trkpt lat="46.18130612" lon="6.08624063"><ele></ele><time>2016-6-18T18:50:23Z</time></trkpt>
<trkpt lat="46.18129824" lon="6.08611817"><ele></ele><time>2016-6-18T18:50:26Z</time></trkpt>
<trkpt lat="46.18129020" lon="6.08599814"><ele></ele><time>2016-6-18T18:50:29Z</time></trkpt>
<trkpt lat="46.18128324" lon="6.08587987"><ele></ele><time>2016-6-18T18:50:32Z</time></trkpt>
<trkpt lat="46.18128064" lon="6.08576906"><ele></ele><time>2016-6-18T18:50:35Z</time></trkpt>
<trkpt lat="46.18128248" lon="6.08566403"><ele></ele><time>2016-6-18T18:50:38Z</time></trkpt>
<trkpt lat="46.18128366" lon="6.08556236"><ele></ele><time>2016-6-18T18:50:41Z</time></trkpt>
<trkpt lat="46.18128324" lon="6.08546304"><ele></ele><time>2016-6-18T18:50:44Z</time></trkpt>
<trkpt lat="46.18128156" lon="6.08536656"><ele></ele><time>2016-6-18T18:50:47Z</time></trkpt>
<trkpt lat="46.18128140" lon="6.08527428"><ele></ele><time>2016-6-18T18:50:50Z</time></trkpt>
<trkpt lat="46.18128114" lon="6.08518618"><ele></ele><time>2016-6-18T18:50:53Z</time></trkpt>
<trkpt lat="46.18128047" lon="6.08510094"><ele></ele><time>2016-6-18T18:50:56Z</time></trkpt>
<trkpt lat="46.18128056" lon="6.08501678"><ele></ele><time>2016-6-18T18:50:59Z</time></trkpt>
<trkpt lat="46.18128114" lon="6.08493179"><ele></ele><time>2016-6-18T18:51:2Z</time></trkpt>
<trkpt lat="46.18128114" lon="6.08484655"><ele></ele><time>2016-6-18T18:51:5Z</time></trkpt>
<trkpt lat="46.18128072" lon="6.08476290"><ele></ele><time>2016-6-18T18:51:8Z</time></trkpt>
<trkpt lat="46.18127938" lon="6.08468067"><ele></ele><time>2016-6-18T18:51:11Z</time></trkpt>
<trkpt lat="46.18127855" lon="6.08460037"><ele></ele><time>2016-6-18T18:51:14Z</time></trkpt>
<trkpt lat="46.18127855" lon="6.08452166"><ele></ele><time>2016-6-18T18:51:17Z</time></trkpt>
<trkpt lat="46.18127712" lon="6.08444204"><ele></ele><time>2016-6-18T18:51:20Z</time></trkpt>
<trkpt lat="46.18127352" lon="6.08436367"><ele></ele><time>2016-6-18T18:51:23Z</time></trkpt>
<trkpt lat="46.18127318" lon="6.08428588"><ele></ele><time>2016-6-18T18:51:26Z</time></trkpt>
<trkpt lat="46.18127536" lon="6.08420919"><ele></ele><time>2016-6-18T18:51:29Z</time></trkpt>
<trkpt lat="46.18127419" lon="6.08413224"><ele></ele><time>2016-6-18T18:51:32Z</time></trkpt>
<trkpt lat="46.18127184" lon="6.08405429"><ele></ele><time>2016-6-18T18:51:35Z</time></trkpt>
<trkpt lat="46.18126974" lon="6.08397550"><ele></ele><time>2016-6-18T18:51:38Z</time></trkpt>
<trkpt lat="46.18126916" lon="6.08389579"><ele></ele><time>2016-6-18T18:51:41Z</time></trkpt>
<trkpt lat="46.18126924" lon="6.08381373"><ele></ele><time>2016-6-18T18:51:44Z</time></trkpt>
<trkpt lat="46.18126949" lon="6.08373100"><ele></ele><time>2016-6-18T18:51:47Z</time></trkpt>
<trkpt lat="46.18126882" lon="6.08364718"><ele></ele><time>2016-6-18T18:51:50Z</time></trkpt>
<trkpt lat="46.18126807" lon="6.08356286"><ele></ele><time>2016-6-18T18:51:53Z</time></trkpt>
<trkpt lat="46.18126798" lon="6.08347795"><ele></ele><time>2016-6-18T18:51:56Z</time></trkpt>
<trkpt lat="46.18126622" lon="6.08339170"><ele></ele><time>2016-6-18T18:51:59Z</time></trkpt>
<trkpt lat="46.18126388" lon="6.08330394"><ele></ele><time>2016-6-18T18:52:2Z</time></trkpt>
<trkpt lat="46.18126178" lon="6.08321576"><ele></ele><time>2016-6-18T18:52:5Z</time></trkpt>
<trkpt lat="46.18125927" lon="6.08312742"><ele></ele><time>2016-6-18T18:52:8Z</time></trkpt>
<trkpt lat="46.18125625" lon="6.08303924"><ele></ele><time>2016-6-18T18:52:11Z</time></trkpt>
<trkpt lat="46.18125382" lon="6.08295106"><ele></ele><time>2016-6-18T18:52:14Z</time></trkpt>
<trkpt lat="46.18125055" lon="6.08286289"><ele></ele><time>2016-6-18T18:52:17Z</time></trkpt>
<trkpt lat="46.18124653" lon="6.08277328"><ele></ele><time>2016-6-18T18:52:20Z</time></trkpt>
<trkpt lat="46.18124183" lon="6.08268393"><ele></ele><time>2016-6-18T18:52:23Z</time></trkpt>
<trkpt lat="46.18123638" lon="6.08259684"><ele></ele><time>2016-6-18T18:52:26Z</time></trkpt>
<trkpt lat="46.18123136" lon="6.08251437"><ele></ele><time>2016-6-18T18:52:29Z</time></trkpt>
<trkpt lat="46.18122825" lon="6.08243432"><ele></ele><time>2016-6-18T18:52:32Z</time></trkpt>
<trkpt lat="46.18122649" lon="6.08235494"><ele></ele><time>2016-6-18T18:52:35Z</time></trkpt>
<trkpt lat="46.18122146" lon="6.08227716"><ele></ele><time>2016-6-18T18:52:38Z</time></trkpt>
<trkpt lat="46.18121878" lon="6.08220147"><ele></ele><time>2016-6-18T18:52:41Z</time></trkpt>
<trkpt lat="46.18121677" lon="6.08212729"><ele></ele><time>2016-6-18T18:52:44Z</time></trkpt>
<trkpt lat="46.18121468" lon="6.08205579"><ele></ele><time>2016-6-18T18:52:47Z</time></trkpt>
<trkpt lat="46.18121769" lon="6.08198656"><ele></ele><time>2016-6-18T18:52:50Z</time></trkpt>
<trkpt lat="46.18122322" lon="6.08191665"><ele></ele><time>2016-6-18T18:52:53Z</time></trkpt>
<trkpt lat="46.18122247" lon="6.08184968"><ele></ele><time>2016-6-18T18:52:56Z</time></trkpt>
<trkpt lat="46.18122482" lon="6.08178623"><ele></ele><time>2016-6-18T18:52:59Z</time></trkpt>
<trkpt lat="46.18122507" lon="6.08171876"><ele></ele><time>2016-6-18T18:53:2Z</time></trkpt>
<trkpt lat="46.18122867" lon="6.08165053"><ele></ele><time>2016-6-18T18:53:5Z</time></trkpt>
<trkpt lat="46.18124728" lon="6.08158439"><ele></ele><time>2016-6-18T18:53:8Z</time></trkpt>
<trkpt lat="46.18127662" lon="6.08151977"><ele></ele><time>2016-6-18T18:53:11Z</time></trkpt>
<trkpt lat="46.18131375" lon="6.08145816"><ele></ele><time>2016-6-18T18:53:14Z</time></trkpt>
<trkpt lat="46.18134602" lon="6.08139144"><ele></ele><time>2016-6-18T18:53:17Z</time></trkpt>
<trkpt lat="46.18138449" lon="6.08133646"><ele></ele><time>2016-6-18T18:53:20Z</time></trkpt>
<trkpt lat="46.18142204" lon="6.08126840"><ele></ele><time>2016-6-18T18:53:23Z</time></trkpt>
<trkpt lat="46.18145029" lon="6.08117293"><ele></ele><time>2016-6-18T18:53:26Z</time></trkpt>
<trkpt lat="46.18146722" lon="6.08109539"><ele></ele><time>2016-6-18T18:53:29Z</time></trkpt>
<trkpt lat="46.18148223" lon="6.08100462"><ele></ele><time>2016-6-18T18:53:32Z</time></trkpt>
<trkpt lat="46.18148357" lon="6.08091007"><ele></ele><time>2016-6-18T18:53:35Z</time></trkpt>
<trkpt lat="46.18147007" lon="6.08080563"><ele></ele><time>2016-6-18T18:53:38Z</time></trkpt>
<trkpt lat="46.18144820" lon="6.08072969"><ele></ele><time>2016-6-18T18:53:41Z</time></trkpt>
<trkpt lat="46.18145205" lon="6.08062685"><ele></ele><time>2016-6-18T18:53:44Z</time></trkpt>
<trkpt lat="46.18144685" lon="6.08058485"><ele></ele><time>2016-6-18T18:53:47Z</time></trkpt>
<trkpt lat="46.18144928" lon="6.08055099"><ele></ele><time>2016-6-18T18:53:50Z</time></trkpt>
<trkpt lat="46.18145457" lon="6.08051528"><ele></ele><time>2016-6-18T18:53:53Z</time></trkpt>
<trkpt lat="46.18145046" lon="6.08046834"><ele></ele><time>2016-6-18T18:53:56Z</time></trkpt>
<trkpt lat="46.18144786" lon="6.08040942"><ele></ele><time>2016-6-18T18:53:59Z</time></trkpt>
<trkpt lat="46.18143344" lon="6.08035225"><ele></ele><time>2016-6-18T18:54:2Z</time></trkpt>
<trkpt lat="46.18141282" lon="6.08029266"><ele></ele><time>2016-6-18T18:54:5Z</time></trkpt>
<trkpt lat="46.18138047" lon="6.08023256"><ele></ele><time>2016-6-18T18:54:8Z</time></trkpt>
<trkpt lat="46.18134636" lon="6.08016777"><ele></ele><time>2016-6-18T18:54:11Z</time></trkpt>
<trkpt lat="46.18131392" lon="6.08010038"><ele></ele><time>2016-6-18T18:54:14Z</time></trkpt>
<trkpt lat="46.18129598" lon="6.08003533"><ele></ele><time>2016-6-18T18:54:17Z</time></trkpt>
<trkpt lat="46.18127326" lon="6.07996493"><ele></ele><time>2016-6-18T18:54:20Z</time></trkpt>
<trkpt lat="46.18123446" lon="6.07990718"><ele></ele><time>2016-6-18T18:54:23Z</time></trkpt>
<trkpt lat="46.18120235" lon="6.07983660"><ele></ele><time>2016-6-18T18:54:26Z</time></trkpt>
<trkpt lat="46.18117947" lon="6.07975136"><ele></ele><time>2016-6-18T18:54:29Z</time></trkpt>
<trkpt lat="46.18116162" lon="6.07966762"><ele></ele><time>2016-6-18T18:54:32Z</time></trkpt>
<trkpt lat="46.18115072" lon="6.07958053"><ele></ele><time>2016-6-18T18:54:35Z</time></trkpt>
<trkpt lat="46.18113966" lon="6.07949319"><ele></ele><time>2016-6-18T18:54:38Z</time></trkpt>
<trkpt lat="46.18112834" lon="6.07940636"><ele></ele><time>2016-6-18T18:54:41Z</time></trkpt>
<trkpt lat="46.18111795" lon="6.07932229"><ele></ele><time>2016-6-18T18:54:44Z</time></trkpt>
<trkpt lat="46.18110806" lon="6.07924148"><ele></ele><time>2016-6-18T18:54:47Z</time></trkpt>
<trkpt lat="46.18109766" lon="6.07916462"><ele></ele><time>2016-6-18T18:54:50Z</time></trkpt>
<trkpt lat="46.18108668" lon="6.07909229"><ele></ele><time>2016-6-18T18:54:53Z</time></trkpt>
<trkpt lat="46.18107009" lon="6.07902389"><ele></ele><time>2016-6-18T18:54:56Z</time></trkpt>
<trkpt lat="46.18105785" lon="6.07895197"><ele></ele><time>2016-6-18T18:54:59Z</time></trkpt>
<trkpt lat="46.18103145" lon="6.07888919"><ele></ele><time>2016-6-18T18:55:2Z</time></trkpt>
<trkpt lat="46.18099356" lon="6.07884385"><ele></ele><time>2016-6-18T18:55:5Z</time></trkpt>
<trkpt lat="46.18094293" lon="6.07881024"><ele></ele><time>2016-6-18T18:55:8Z</time></trkpt>
<trkpt lat="46.18089004" lon="6.07878978"><ele></ele><time>2016-6-18T18:55:11Z</time></trkpt>
<trkpt lat="46.18083422" lon="6.07877746"><ele></ele><time>2016-6-18T18:55:14Z</time></trkpt>
<trkpt lat="46.18077773" lon="6.07877344"><ele></ele><time>2016-6-18T18:55:17Z</time></trkpt>
<trkpt lat="46.18072023" lon="6.07877503"><ele></ele><time>2016-6-18T18:55:20Z</time></trkpt>
<trkpt lat="46.18066147" lon="6.07877646"><ele></ele><time>2016-6-18T18:55:23Z</time></trkpt>
<trkpt lat="46.18060338" lon="6.07877470"><ele></ele><time>2016-6-18T18:55:26Z</time></trkpt>
<trkpt lat="46.18054588" lon="6.07877159"><ele></ele><time>2016-6-18T18:55:29Z</time></trkpt>
<trkpt lat="46.18048830" lon="6.07877185"><ele></ele><time>2016-6-18T18:55:32Z</time></trkpt>
<trkpt lat="46.18043088" lon="6.07877193"><ele></ele><time>2016-6-18T18:55:35Z</time></trkpt>
<trkpt lat="46.18037498" lon="6.07876799"><ele></ele><time>2016-6-18T18:55:38Z</time></trkpt>
<trkpt lat="46.18032058" lon="6.07876145"><ele></ele><time>2016-6-18T18:55:41Z</time></trkpt>
<trkpt lat="46.18026794" lon="6.07875383"><ele></ele><time>2016-6-18T18:55:44Z</time></trkpt>
<trkpt lat="46.18021790" lon="6.07874628"><ele></ele><time>2016-6-18T18:55:47Z</time></trkpt>
<trkpt lat="46.18017054" lon="6.07873790"><ele></ele><time>2016-6-18T18:55:50Z</time></trkpt>
<trkpt lat="46.18011924" lon="6.07872457"><ele></ele><time>2016-6-18T18:55:53Z</time></trkpt>
<trkpt lat="46.18007365" lon="6.07871493"><ele></ele><time>2016-6-18T18:55:56Z</time></trkpt>
<trkpt lat="46.18002897" lon="6.07870546"><ele></ele><time>2016-6-18T18:55:59Z</time></trkpt>
<trkpt lat="46.17998547" lon="6.07869683"><ele></ele><time>2016-6-18T18:56:2Z</time></trkpt>
<trkpt lat="46.17994524" lon="6.07868434"><ele></ele><time>2016-6-18T18:56:5Z</time></trkpt>
<trkpt lat="46.17991028" lon="6.07866959"><ele></ele><time>2016-6-18T18:56:8Z</time></trkpt>
<trkpt lat="46.17987676" lon="6.07866062"><ele></ele><time>2016-6-18T18:56:11Z</time></trkpt>
<trkpt lat="46.17984742" lon="6.07865433"><ele></ele><time>2016-6-18T18:56:14Z</time></trkpt>
<trkpt lat="46.17982253" lon="6.07864553"><ele></ele><time>2016-6-18T18:56:17Z</time></trkpt>
<trkpt lat="46.17980149" lon="6.07862642"><ele></ele><time>2016-6-18T18:56:20Z</time></trkpt>
<trkpt lat="46.17977953" lon="6.07859884"><ele></ele><time>2016-6-18T18:56:23Z</time></trkpt>
<trkpt lat="46.17975488" lon="6.07856674"><ele></ele><time>2016-6-18T18:56:26Z</time></trkpt>
<trkpt lat="46.17973049" lon="6.07852718"><ele></ele><time>2016-6-18T18:56:29Z</time></trkpt>
<trkpt lat="46.17971297" lon="6.07848058"><ele></ele><time>2016-6-18T18:56:32Z</time></trkpt>
<trkpt lat="46.17969872" lon="6.07842785"><ele></ele><time>2016-6-18T18:56:35Z</time></trkpt>
<trkpt lat="46.17968917" lon="6.07837144"><ele></ele><time>2016-6-18T18:56:38Z</time></trkpt>
<trkpt lat="46.17967727" lon="6.07831193"><ele></ele><time>2016-6-18T18:56:41Z</time></trkpt>
<trkpt lat="46.17966603" lon="6.07825007"><ele></ele><time>2016-6-18T18:56:44Z</time></trkpt>
<trkpt lat="46.17965866" lon="6.07818369"><ele></ele><time>2016-6-18T18:56:47Z</time></trkpt>
<trkpt lat="46.17964986" lon="6.07811605"><ele></ele><time>2016-6-18T18:56:50Z</time></trkpt>
<trkpt lat="46.17964558" lon="6.07804396"><ele></ele><time>2016-6-18T18:56:53Z</time></trkpt>
<trkpt lat="46.17964324" lon="6.07796920"><ele></ele><time>2016-6-18T18:56:56Z</time></trkpt>
<trkpt lat="46.17963896" lon="6.07789393"><ele></ele><time>2016-6-18T18:56:59Z</time></trkpt>
<trkpt lat="46.17963435" lon="6.07781740"><ele></ele><time>2016-6-18T18:57:2Z</time></trkpt>
<trkpt lat="46.17963385" lon="6.07773827"><ele></ele><time>2016-6-18T18:57:5Z</time></trkpt>
<trkpt lat="46.17963142" lon="6.07765915"><ele></ele><time>2016-6-18T18:57:8Z</time></trkpt>
<trkpt lat="46.17962815" lon="6.07757969"><ele></ele><time>2016-6-18T18:57:11Z</time></trkpt>
<trkpt lat="46.17962438" lon="6.07749939"><ele></ele><time>2016-6-18T18:57:14Z</time></trkpt>
<trkpt lat="46.17961926" lon="6.07741783"><ele></ele><time>2016-6-18T18:57:17Z</time></trkpt>
<trkpt lat="46.17961315" lon="6.07733586"><ele></ele><time>2016-6-18T18:57:20Z</time></trkpt>
<trkpt lat="46.17960669" lon="6.07725447"><ele></ele><time>2016-6-18T18:57:23Z</time></trkpt>
<trkpt lat="46.17960015" lon="6.07717300"><ele></ele><time>2016-6-18T18:57:26Z</time></trkpt>
<trkpt lat="46.17959194" lon="6.07709186"><ele></ele><time>2016-6-18T18:57:29Z</time></trkpt>
<trkpt lat="46.17958247" lon="6.07701148"><ele></ele><time>2016-6-18T18:57:32Z</time></trkpt>
<trkpt lat="46.17957283" lon="6.07693126"><ele></ele><time>2016-6-18T18:57:35Z</time></trkpt>
<trkpt lat="46.17956294" lon="6.07685113"><ele></ele><time>2016-6-18T18:57:38Z</time></trkpt>
<trkpt lat="46.17955196" lon="6.07677176"><ele></ele><time>2016-6-18T18:57:41Z</time></trkpt>
<trkpt lat="46.17953955" lon="6.07669397"><ele></ele><time>2016-6-18T18:57:44Z</time></trkpt>
<trkpt lat="46.17952622" lon="6.07661669"><ele></ele><time>2016-6-18T18:57:47Z</time></trkpt>
<trkpt lat="46.17951156" lon="6.07653949"><ele></ele><time>2016-6-18T18:57:50Z</time></trkpt>
<trkpt lat="46.17949613" lon="6.07646154"><ele></ele><time>2016-6-18T18:57:53Z</time></trkpt>
<trkpt lat="46.17947853" lon="6.07638342"><ele></ele><time>2016-6-18T18:57:56Z</time></trkpt>
<trkpt lat="46.17945925" lon="6.07630488"><ele></ele><time>2016-6-18T18:57:59Z</time></trkpt>
<trkpt lat="46.17943897" lon="6.07622375"><ele></ele><time>2016-6-18T18:58:2Z</time></trkpt>
<trkpt lat="46.17941684" lon="6.07614303"><ele></ele><time>2016-6-18T18:58:5Z</time></trkpt>
<trkpt lat="46.17939337" lon="6.07606198"><ele></ele><time>2016-6-18T18:58:8Z</time></trkpt>
<trkpt lat="46.17936906" lon="6.07597849"><ele></ele><time>2016-6-18T18:58:11Z</time></trkpt>
<trkpt lat="46.17934249" lon="6.07589526"><ele></ele><time>2016-6-18T18:58:14Z</time></trkpt>
<trkpt lat="46.17931844" lon="6.07581278"><ele></ele><time>2016-6-18T18:58:17Z</time></trkpt>
<trkpt lat="46.17929346" lon="6.07573165"><ele></ele><time>2016-6-18T18:58:20Z</time></trkpt>
<trkpt lat="46.17926915" lon="6.07565076"><ele></ele><time>2016-6-18T18:58:23Z</time></trkpt>
<trkpt lat="46.17924367" lon="6.07557097"><ele></ele><time>2016-6-18T18:58:26Z</time></trkpt>
<trkpt lat="46.17922213" lon="6.07549075"><ele></ele><time>2016-6-18T18:58:29Z</time></trkpt>
<trkpt lat="46.17919589" lon="6.07541045"><ele></ele><time>2016-6-18T18:58:32Z</time></trkpt>
<trkpt lat="46.17917326" lon="6.07533183"><ele></ele><time>2016-6-18T18:58:35Z</time></trkpt>
<trkpt lat="46.17915289" lon="6.07525170"><ele></ele><time>2016-6-18T18:58:38Z</time></trkpt>
<trkpt lat="46.17913186" lon="6.07517140"><ele></ele><time>2016-6-18T18:58:41Z</time></trkpt>
<trkpt lat="46.17911132" lon="6.07509010"><ele></ele><time>2016-6-18T18:58:44Z</time></trkpt>
<trkpt lat="46.17908349" lon="6.07501063"><ele></ele><time>2016-6-18T18:58:47Z</time></trkpt>
<trkpt lat="46.17905617" lon="6.07493168"><ele></ele><time>2016-6-18T18:58:50Z</time></trkpt>
<trkpt lat="46.17902775" lon="6.07485213"><ele></ele><time>2016-6-18T18:58:53Z</time></trkpt>
<trkpt lat="46.17899967" lon="6.07477276"><ele></ele><time>2016-6-18T18:58:56Z</time></trkpt>
<trkpt lat="46.17896967" lon="6.07469263"><ele></ele><time>2016-6-18T18:58:59Z</time></trkpt>
<trkpt lat="46.17893899" lon="6.07461249"><ele></ele><time>2016-6-18T18:59:2Z</time></trkpt>
<trkpt lat="46.17890806" lon="6.07453438"><ele></ele><time>2016-6-18T18:59:5Z</time></trkpt>
<trkpt lat="46.17888015" lon="6.07445332"><ele></ele><time>2016-6-18T18:59:8Z</time></trkpt>
<trkpt lat="46.17885366" lon="6.07437328"><ele></ele><time>2016-6-18T18:59:11Z</time></trkpt>
<trkpt lat="46.17882005" lon="6.07429742"><ele></ele><time>2016-6-18T18:59:14Z</time></trkpt>
<trkpt lat="46.17878702" lon="6.07422190"><ele></ele><time>2016-6-18T18:59:17Z</time></trkpt>
<trkpt lat="46.17875526" lon="6.07414646"><ele></ele><time>2016-6-18T18:59:20Z</time></trkpt>
<trkpt lat="46.17872626" lon="6.07406926"><ele></ele><time>2016-6-18T18:59:23Z</time></trkpt>
<trkpt lat="46.17869969" lon="6.07399425"><ele></ele><time>2016-6-18T18:59:26Z</time></trkpt>
<trkpt lat="46.17867605" lon="6.07391738"><ele></ele><time>2016-6-18T18:59:29Z</time></trkpt>
<trkpt lat="46.17864478" lon="6.07384614"><ele></ele><time>2016-6-18T18:59:32Z</time></trkpt>
<trkpt lat="46.17862450" lon="6.07376944"><ele></ele><time>2016-6-18T18:59:35Z</time></trkpt>
<trkpt lat="46.17859902" lon="6.07369702"><ele></ele><time>2016-6-18T18:59:38Z</time></trkpt>
<trkpt lat="46.17857153" lon="6.07362427"><ele></ele><time>2016-6-18T18:59:41Z</time></trkpt>
<trkpt lat="46.17854462" lon="6.07354808"><ele></ele><time>2016-6-18T18:59:44Z</time></trkpt>
<trkpt lat="46.17851780" lon="6.07347155"><ele></ele><time>2016-6-18T18:59:47Z</time></trkpt>
<trkpt lat="46.17849089" lon="6.07339578"><ele></ele><time>2016-6-18T18:59:50Z</time></trkpt>
<trkpt lat="46.17846290" lon="6.07332009"><ele></ele><time>2016-6-18T18:59:53Z</time></trkpt>
<trkpt lat="46.17843398" lon="6.07324465"><ele></ele><time>2016-6-18T18:59:56Z</time></trkpt>
<trkpt lat="46.17840540" lon="6.07317198"><ele></ele><time>2016-6-18T18:59:59Z</time></trkpt>
<trkpt lat="46.17837983" lon="6.07309872"><ele></ele><time>2016-6-18T19:0:2Z</time></trkpt>
<trkpt lat="46.17835586" lon="6.07302547"><ele></ele><time>2016-6-18T19:0:5Z</time></trkpt>
<trkpt lat="46.17833172" lon="6.07295447"><ele></ele><time>2016-6-18T19:0:8Z</time></trkpt>
<trkpt lat="46.17830607" lon="6.07288532"><ele></ele><time>2016-6-18T19:0:11Z</time></trkpt>
<trkpt lat="46.17828503" lon="6.07281634"><ele></ele><time>2016-6-18T19:0:14Z</time></trkpt>
<trkpt lat="46.17826944" lon="6.07274584"><ele></ele><time>2016-6-18T19:0:17Z</time></trkpt>
<trkpt lat="46.17825477" lon="6.07267552"><ele></ele><time>2016-6-18T19:0:20Z</time></trkpt>
<trkpt lat="46.17824882" lon="6.07260386"><ele></ele><time>2016-6-18T19:0:23Z</time></trkpt>
<trkpt lat="46.17825209" lon="6.07253303"><ele></ele><time>2016-6-18T19:0:26Z</time></trkpt>
<trkpt lat="46.17825117" lon="6.07247134"><ele></ele><time>2016-6-18T19:0:29Z</time></trkpt>
<trkpt lat="46.17823382" lon="6.07242222"><ele></ele><time>2016-6-18T19:0:32Z</time></trkpt>
<trkpt lat="46.17820448" lon="6.07238509"><ele></ele><time>2016-6-18T19:0:35Z</time></trkpt>
<trkpt lat="46.17817364" lon="6.07234980"><ele></ele><time>2016-6-18T19:0:38Z</time></trkpt>
<trkpt lat="46.17814640" lon="6.07230722"><ele></ele><time>2016-6-18T19:0:41Z</time></trkpt>
<trkpt lat="46.17812762" lon="6.07225592"><ele></ele><time>2016-6-18T19:0:44Z</time></trkpt>
<trkpt lat="46.17810918" lon="6.07220136"><ele></ele><time>2016-6-18T19:0:47Z</time></trkpt>
<trkpt lat="46.17808035" lon="6.07215132"><ele></ele><time>2016-6-18T19:0:50Z</time></trkpt>
<trkpt lat="46.17804900" lon="6.07209759"><ele></ele><time>2016-6-18T19:0:53Z</time></trkpt>
<trkpt lat="46.17801824" lon="6.07203615"><ele></ele><time>2016-6-18T19:0:56Z</time></trkpt>
<trkpt lat="46.17799074" lon="6.07196935"><ele></ele><time>2016-6-18T19:0:59Z</time></trkpt>
<trkpt lat="46.17796342" lon="6.07189894"><ele></ele><time>2016-6-18T19:1:2Z</time></trkpt>
<trkpt lat="46.17793408" lon="6.07182794"><ele></ele><time>2016-6-18T19:1:5Z</time></trkpt>
<trkpt lat="46.17790449" lon="6.07175175"><ele></ele><time>2016-6-18T19:1:8Z</time></trkpt>
<trkpt lat="46.17787499" lon="6.07167346"><ele></ele><time>2016-6-18T19:1:11Z</time></trkpt>
<trkpt lat="46.17784616" lon="6.07159610"><ele></ele><time>2016-6-18T19:1:14Z</time></trkpt>
<trkpt lat="46.17781674" lon="6.07151840"><ele></ele><time>2016-6-18T19:1:17Z</time></trkpt>
<trkpt lat="46.17778706" lon="6.07143894"><ele></ele><time>2016-6-18T19:1:20Z</time></trkpt>
<trkpt lat="46.17775764" lon="6.07135965"><ele></ele><time>2016-6-18T19:1:23Z</time></trkpt>
<trkpt lat="46.17772923" lon="6.07128019"><ele></ele><time>2016-6-18T19:1:26Z</time></trkpt>
<trkpt lat="46.17770148" lon="6.07119964"><ele></ele><time>2016-6-18T19:1:29Z</time></trkpt>
<trkpt lat="46.17767374" lon="6.07111883"><ele></ele><time>2016-6-18T19:1:32Z</time></trkpt>
<trkpt lat="46.17764466" lon="6.07103912"><ele></ele><time>2016-6-18T19:1:35Z</time></trkpt>
<trkpt lat="46.17761565" lon="6.07095966"><ele></ele><time>2016-6-18T19:1:38Z</time></trkpt>
<trkpt lat="46.17758799" lon="6.07087936"><ele></ele><time>2016-6-18T19:1:41Z</time></trkpt>
<trkpt lat="46.17756067" lon="6.07079906"><ele></ele><time>2016-6-18T19:1:44Z</time></trkpt>
<trkpt lat="46.17753284" lon="6.07071918"><ele></ele><time>2016-6-18T19:1:47Z</time></trkpt>
<trkpt lat="46.17750560" lon="6.07063889"><ele></ele><time>2016-6-18T19:1:50Z</time></trkpt>
<trkpt lat="46.17747844" lon="6.07055867"><ele></ele><time>2016-6-18T19:1:53Z</time></trkpt>
<trkpt lat="46.17745112" lon="6.07047862"><ele></ele><time>2016-6-18T19:1:56Z</time></trkpt>
<trkpt lat="46.17742354" lon="6.07039799"><ele></ele><time>2016-6-18T19:1:59Z</time></trkpt>
<trkpt lat="46.17739613" lon="6.07031669"><ele></ele><time>2016-6-18T19:2:2Z</time></trkpt>
<trkpt lat="46.17736964" lon="6.07023555"><ele></ele><time>2016-6-18T19:2:5Z</time></trkpt>
<trkpt lat="46.17734249" lon="6.07015483"><ele></ele><time>2016-6-18T19:2:8Z</time></trkpt>
<trkpt lat="46.17731533" lon="6.07007478"><ele></ele><time>2016-6-18T19:2:11Z</time></trkpt>
<trkpt lat="46.17728809" lon="6.06999524"><ele></ele><time>2016-6-18T19:2:14Z</time></trkpt>
<trkpt lat="46.17725976" lon="6.06991586"><ele></ele><time>2016-6-18T19:2:17Z</time></trkpt>
<trkpt lat="46.17722916" lon="6.06983615"><ele></ele><time>2016-6-18T19:2:20Z</time></trkpt>
<trkpt lat="46.17719555" lon="6.06975820"><ele></ele><time>2016-6-18T19:2:23Z</time></trkpt>
<trkpt lat="46.17716479" lon="6.06967815"><ele></ele><time>2016-6-18T19:2:26Z</time></trkpt>
<trkpt lat="46.17714333" lon="6.06959199"><ele></ele><time>2016-6-18T19:2:29Z</time></trkpt>
<trkpt lat="46.17711282" lon="6.06951118"><ele></ele><time>2016-6-18T19:2:32Z</time></trkpt>
<trkpt lat="46.17708659" lon="6.06942787"><ele></ele><time>2016-6-18T19:2:35Z</time></trkpt>
<trkpt lat="46.17705742" lon="6.06934606"><ele></ele><time>2016-6-18T19:2:38Z</time></trkpt>
<trkpt lat="46.17702808" lon="6.06926685"><ele></ele><time>2016-6-18T19:2:41Z</time></trkpt>
<trkpt lat="46.17699673" lon="6.06918949"><ele></ele><time>2016-6-18T19:2:44Z</time></trkpt>
<trkpt lat="46.17696899" lon="6.06911204"><ele></ele><time>2016-6-18T19:2:47Z</time></trkpt>
<trkpt lat="46.17694602" lon="6.06903275"><ele></ele><time>2016-6-18T19:2:50Z</time></trkpt>
<trkpt lat="46.17692188" lon="6.06895488"><ele></ele><time>2016-6-18T19:2:53Z</time></trkpt>
<trkpt lat="46.17689724" lon="6.06887835"><ele></ele><time>2016-6-18T19:2:56Z</time></trkpt>
<trkpt lat="46.17687235" lon="6.06880266"><ele></ele><time>2016-6-18T19:2:59Z</time></trkpt>
<trkpt lat="46.17684594" lon="6.06872672"><ele></ele><time>2016-6-18T19:3:2Z</time></trkpt>
<trkpt lat="46.17682273" lon="6.06864969"><ele></ele><time>2016-6-18T19:3:5Z</time></trkpt>
<trkpt lat="46.17679942" lon="6.06857082"><ele></ele><time>2016-6-18T19:3:8Z</time></trkpt>
<trkpt lat="46.17677528" lon="6.06849102"><ele></ele><time>2016-6-18T19:3:11Z</time></trkpt>
<trkpt lat="46.17675014" lon="6.06841047"><ele></ele><time>2016-6-18T19:3:14Z</time></trkpt>
<trkpt lat="46.17672474" lon="6.06833009"><ele></ele><time>2016-6-18T19:3:17Z</time></trkpt>
<trkpt lat="46.17669960" lon="6.06824962"><ele></ele><time>2016-6-18T19:3:20Z</time></trkpt>
<trkpt lat="46.17667353" lon="6.06816983"><ele></ele><time>2016-6-18T19:3:23Z</time></trkpt>
<trkpt lat="46.17664805" lon="6.06809045"><ele></ele><time>2016-6-18T19:3:26Z</time></trkpt>
<trkpt lat="46.17662324" lon="6.06801133"><ele></ele><time>2016-6-18T19:3:29Z</time></trkpt>
<trkpt lat="46.17659910" lon="6.06793187"><ele></ele><time>2016-6-18T19:3:32Z</time></trkpt>
<trkpt lat="46.17657454" lon="6.06785207"><ele></ele><time>2016-6-18T19:3:35Z</time></trkpt>
<trkpt lat="46.17654973" lon="6.06777227"><ele></ele><time>2016-6-18T19:3:38Z</time></trkpt>
<trkpt lat="46.17652567" lon="6.06769214"><ele></ele><time>2016-6-18T19:3:41Z</time></trkpt>
<trkpt lat="46.17650187" lon="6.06761143"><ele></ele><time>2016-6-18T19:3:44Z</time></trkpt>
<trkpt lat="46.17647748" lon="6.06753062"><ele></ele><time>2016-6-18T19:3:47Z</time></trkpt>
<trkpt lat="46.17645250" lon="6.06744982"><ele></ele><time>2016-6-18T19:3:50Z</time></trkpt>
<trkpt lat="46.17642777" lon="6.06736793"><ele></ele><time>2016-6-18T19:3:53Z</time></trkpt>
<trkpt lat="46.17640464" lon="6.06728428"><ele></ele><time>2016-6-18T19:3:56Z</time></trkpt>
<trkpt lat="46.17638242" lon="6.06719954"><ele></ele><time>2016-6-18T19:3:59Z</time></trkpt>
<trkpt lat="46.17635686" lon="6.06711505"><ele></ele><time>2016-6-18T19:4:2Z</time></trkpt>
<trkpt lat="46.17632995" lon="6.06702922"><ele></ele><time>2016-6-18T19:4:5Z</time></trkpt>
<trkpt lat="46.17630355" lon="6.06694188"><ele></ele><time>2016-6-18T19:4:8Z</time></trkpt>
<trkpt lat="46.17627715" lon="6.06685286"><ele></ele><time>2016-6-18T19:4:11Z</time></trkpt>
<trkpt lat="46.17624999" lon="6.06676284"><ele></ele><time>2016-6-18T19:4:14Z</time></trkpt>
<trkpt lat="46.17622233" lon="6.06667173"><ele></ele><time>2016-6-18T19:4:17Z</time></trkpt>
<trkpt lat="46.17619475" lon="6.06658003"><ele></ele><time>2016-6-18T19:4:20Z</time></trkpt>
<trkpt lat="46.17616517" lon="6.06648666"><ele></ele><time>2016-6-18T19:4:23Z</time></trkpt>
<trkpt lat="46.17613759" lon="6.06639387"><ele></ele><time>2016-6-18T19:4:26Z</time></trkpt>
<trkpt lat="46.17610976" lon="6.06630050"><ele></ele><time>2016-6-18T19:4:29Z</time></trkpt>
<trkpt lat="46.17608244" lon="6.06620628"><ele></ele><time>2016-6-18T19:4:32Z</time></trkpt>
<trkpt lat="46.17605570" lon="6.06611115"><ele></ele><time>2016-6-18T19:4:35Z</time></trkpt>
<trkpt lat="46.17602804" lon="6.06601576"><ele></ele><time>2016-6-18T19:4:38Z</time></trkpt>
<trkpt lat="46.17599912" lon="6.06591778"><ele></ele><time>2016-6-18T19:4:41Z</time></trkpt>
<trkpt lat="46.17597003" lon="6.06581954"><ele></ele><time>2016-6-18T19:4:44Z</time></trkpt>
<trkpt lat="46.17594070" lon="6.06572215"><ele></ele><time>2016-6-18T19:4:47Z</time></trkpt>
<trkpt lat="46.17591455" lon="6.06562315"><ele></ele><time>2016-6-18T19:4:50Z</time></trkpt>
<trkpt lat="46.17588948" lon="6.06552333"><ele></ele><time>2016-6-18T19:4:53Z</time></trkpt>
<trkpt lat="46.17586442" lon="6.06542367"><ele></ele><time>2016-6-18T19:4:56Z</time></trkpt>
<trkpt lat="46.17583978" lon="6.06532434"><ele></ele><time>2016-6-18T19:4:59Z</time></trkpt>
<trkpt lat="46.17581648" lon="6.06522510"><ele></ele><time>2016-6-18T19:5:2Z</time></trkpt>
<trkpt lat="46.17579368" lon="6.06512569"><ele></ele><time>2016-6-18T19:5:5Z</time></trkpt>
<trkpt lat="46.17576946" lon="6.06502553"><ele></ele><time>2016-6-18T19:5:8Z</time></trkpt>
<trkpt lat="46.17574674" lon="6.06492737"><ele></ele><time>2016-6-18T19:5:11Z</time></trkpt>
<trkpt lat="46.17572470" lon="6.06483056"><ele></ele><time>2016-6-18T19:5:14Z</time></trkpt>
<trkpt lat="46.17570282" lon="6.06473459"><ele></ele><time>2016-6-18T19:5:17Z</time></trkpt>
<trkpt lat="46.17568178" lon="6.06463887"><ele></ele><time>2016-6-18T19:5:20Z</time></trkpt>
<trkpt lat="46.17565949" lon="6.06454365"><ele></ele><time>2016-6-18T19:5:23Z</time></trkpt>
<trkpt lat="46.17563752" lon="6.06444726"><ele></ele><time>2016-6-18T19:5:26Z</time></trkpt>
<trkpt lat="46.17561615" lon="6.06435070"><ele></ele><time>2016-6-18T19:5:29Z</time></trkpt>
<trkpt lat="46.17559427" lon="6.06425523"><ele></ele><time>2016-6-18T19:5:32Z</time></trkpt>
<trkpt lat="46.17557223" lon="6.06416093"><ele></ele><time>2016-6-18T19:5:35Z</time></trkpt>
<trkpt lat="46.17555077" lon="6.06406764"><ele></ele><time>2016-6-18T19:5:38Z</time></trkpt>
<trkpt lat="46.17553057" lon="6.06397242"><ele></ele><time>2016-6-18T19:5:41Z</time></trkpt>
<trkpt lat="46.17551372" lon="6.06387486"><ele></ele><time>2016-6-18T19:5:44Z</time></trkpt>
<trkpt lat="46.17549654" lon="6.06377780"><ele></ele><time>2016-6-18T19:5:47Z</time></trkpt>
<trkpt lat="46.17547894" lon="6.06368132"><ele></ele><time>2016-6-18T19:5:50Z</time></trkpt>
<trkpt lat="46.17546218" lon="6.06358426"><ele></ele><time>2016-6-18T19:5:53Z</time></trkpt>
<trkpt lat="46.17544583" lon="6.06348678"><ele></ele><time>2016-6-18T19:5:56Z</time></trkpt>
<trkpt lat="46.17542898" lon="6.06339047"><ele></ele><time>2016-6-18T19:5:59Z</time></trkpt>
<trkpt lat="46.17541348" lon="6.06329382"><ele></ele><time>2016-6-18T19:6:2Z</time></trkpt>
<trkpt lat="46.17539914" lon="6.06319693"><ele></ele><time>2016-6-18T19:6:5Z</time></trkpt>
<trkpt lat="46.17538447" lon="6.06310054"><ele></ele><time>2016-6-18T19:6:8Z</time></trkpt>
<trkpt lat="46.17536956" lon="6.06300524"><ele></ele><time>2016-6-18T19:6:11Z</time></trkpt>
<trkpt lat="46.17535606" lon="6.06291102"><ele></ele><time>2016-6-18T19:6:14Z</time></trkpt>
<trkpt lat="46.17534248" lon="6.06281849"><ele></ele><time>2016-6-18T19:6:17Z</time></trkpt>
<trkpt lat="46.17532798" lon="6.06272779"><ele></ele><time>2016-6-18T19:6:20Z</time></trkpt>
<trkpt lat="46.17531507" lon="6.06263752"><ele></ele><time>2016-6-18T19:6:23Z</time></trkpt>
<trkpt lat="46.17530292" lon="6.06254842"><ele></ele><time>2016-6-18T19:6:26Z</time></trkpt>
<trkpt lat="46.17529026" lon="6.06246083"><ele></ele><time>2016-6-18T19:6:29Z</time></trkpt>
<trkpt lat="46.17527987" lon="6.06237332"><ele></ele><time>2016-6-18T19:6:32Z</time></trkpt>
<trkpt lat="46.17526872" lon="6.06228615"><ele></ele><time>2016-6-18T19:6:35Z</time></trkpt>
<trkpt lat="46.17525774" lon="6.06219655"><ele></ele><time>2016-6-18T19:6:38Z</time></trkpt>
<trkpt lat="46.17524676" lon="6.06210477"><ele></ele><time>2016-6-18T19:6:41Z</time></trkpt>
<trkpt lat="46.17523595" lon="6.06201148"><ele></ele><time>2016-6-18T19:6:44Z</time></trkpt>
<trkpt lat="46.17522480" lon="6.06191668"><ele></ele><time>2016-6-18T19:6:47Z</time></trkpt>
<trkpt lat="46.17521323" lon="6.06182096"><ele></ele><time>2016-6-18T19:6:50Z</time></trkpt>
<trkpt lat="46.17520150" lon="6.06172473"><ele></ele><time>2016-6-18T19:6:53Z</time></trkpt>
<trkpt lat="46.17518985" lon="6.06162759"><ele></ele><time>2016-6-18T19:6:56Z</time></trkpt>
<trkpt lat="46.17517853" lon="6.06153002"><ele></ele><time>2016-6-18T19:6:59Z</time></trkpt>
<trkpt lat="46.17516445" lon="6.06143296"><ele></ele><time>2016-6-18T19:7:2Z</time></trkpt>
<trkpt lat="46.17515037" lon="6.06133506"><ele></ele><time>2016-6-18T19:7:5Z</time></trkpt>
<trkpt lat="46.17513914" lon="6.06123590"><ele></ele><time>2016-6-18T19:7:8Z</time></trkpt>
<trkpt lat="46.17512866" lon="6.06113565"><ele></ele><time>2016-6-18T19:7:11Z</time></trkpt>
<trkpt lat="46.17511776" lon="6.06103515"><ele></ele><time>2016-6-18T19:7:14Z</time></trkpt>
<trkpt lat="46.17510628" lon="6.06093348"><ele></ele><time>2016-6-18T19:7:17Z</time></trkpt>
<trkpt lat="46.17509362" lon="6.06083047"><ele></ele><time>2016-6-18T19:7:20Z</time></trkpt>
<trkpt lat="46.17508147" lon="6.06072687"><ele></ele><time>2016-6-18T19:7:23Z</time></trkpt>
<trkpt lat="46.17506898" lon="6.06062276"><ele></ele><time>2016-6-18T19:7:26Z</time></trkpt>
<trkpt lat="46.17505599" lon="6.06051866"><ele></ele><time>2016-6-18T19:7:29Z</time></trkpt>
<trkpt lat="46.17504325" lon="6.06041514"><ele></ele><time>2016-6-18T19:7:32Z</time></trkpt>
<trkpt lat="46.17503017" lon="6.06031305"><ele></ele><time>2016-6-18T19:7:35Z</time></trkpt>
<trkpt lat="46.17501525" lon="6.06021205"><ele></ele><time>2016-6-18T19:7:38Z</time></trkpt>
<trkpt lat="46.17500075" lon="6.06011172"><ele></ele><time>2016-6-18T19:7:41Z</time></trkpt>
<trkpt lat="46.17498826" lon="6.06001256"><ele></ele><time>2016-6-18T19:7:44Z</time></trkpt>
<trkpt lat="46.17497737" lon="6.05991407"><ele></ele><time>2016-6-18T19:7:47Z</time></trkpt>
<trkpt lat="46.17496664" lon="6.05981517"><ele></ele><time>2016-6-18T19:7:50Z</time></trkpt>
<trkpt lat="46.17495683" lon="6.05971517"><ele></ele><time>2016-6-18T19:7:53Z</time></trkpt>
<trkpt lat="46.17494727" lon="6.05961375"><ele></ele><time>2016-6-18T19:7:56Z</time></trkpt>
<trkpt lat="46.17493663" lon="6.05951115"><ele></ele><time>2016-6-18T19:7:59Z</time></trkpt>
<trkpt lat="46.17492548" lon="6.05940823"><ele></ele><time>2016-6-18T19:8:2Z</time></trkpt>
<trkpt lat="46.17491400" lon="6.05930546"><ele></ele><time>2016-6-18T19:8:5Z</time></trkpt>
<trkpt lat="46.17490235" lon="6.05920253"><ele></ele><time>2016-6-18T19:8:8Z</time></trkpt>
<trkpt lat="46.17489078" lon="6.05909952"><ele></ele><time>2016-6-18T19:8:11Z</time></trkpt>
<trkpt lat="46.17487888" lon="6.05899634"><ele></ele><time>2016-6-18T19:8:14Z</time></trkpt>
<trkpt lat="46.17486656" lon="6.05889224"><ele></ele><time>2016-6-18T19:8:17Z</time></trkpt>
<trkpt lat="46.17485382" lon="6.05878847"><ele></ele><time>2016-6-18T19:8:20Z</time></trkpt>
<trkpt lat="46.17484099" lon="6.05868453"><ele></ele><time>2016-6-18T19:8:23Z</time></trkpt>
<trkpt lat="46.17482926" lon="6.05857934"><ele></ele><time>2016-6-18T19:8:26Z</time></trkpt>
<trkpt lat="46.17481819" lon="6.05847322"><ele></ele><time>2016-6-18T19:8:29Z</time></trkpt>
<trkpt lat="46.17480604" lon="6.05836703"><ele></ele><time>2016-6-18T19:8:32Z</time></trkpt>
<trkpt lat="46.17479280" lon="6.05825957"><ele></ele><time>2016-6-18T19:8:35Z</time></trkpt>
<trkpt lat="46.17477838" lon="6.05815228"><ele></ele><time>2016-6-18T19:8:38Z</time></trkpt>
<trkpt lat="46.17476354" lon="6.05804432"><ele></ele><time>2016-6-18T19:8:41Z</time></trkpt>
<trkpt lat="46.17474955" lon="6.05793544"><ele></ele><time>2016-6-18T19:8:44Z</time></trkpt>
<trkpt lat="46.17473538" lon="6.05782673"><ele></ele><time>2016-6-18T19:8:47Z</time></trkpt>
<trkpt lat="46.17471937" lon="6.05771936"><ele></ele><time>2016-6-18T19:8:50Z</time></trkpt>
<trkpt lat="46.17471116" lon="6.05761232"><ele></ele><time>2016-6-18T19:8:53Z</time></trkpt>
<trkpt lat="46.17472029" lon="6.05750654"><ele></ele><time>2016-6-18T19:8:56Z</time></trkpt>
<trkpt lat="46.17474217" lon="6.05740160"><ele></ele><time>2016-6-18T19:8:59Z</time></trkpt>
<trkpt lat="46.17475315" lon="6.05729263"><ele></ele><time>2016-6-18T19:9:2Z</time></trkpt>
<trkpt lat="46.17474100" lon="6.05718300"><ele></ele><time>2016-6-18T19:9:5Z</time></trkpt>
<trkpt lat="46.17470395" lon="6.05708015"><ele></ele><time>2016-6-18T19:9:8Z</time></trkpt>
<trkpt lat="46.17465584" lon="6.05697337"><ele></ele><time>2016-6-18T19:9:11Z</time></trkpt>
<trkpt lat="46.17461720" lon="6.05685828"><ele></ele><time>2016-6-18T19:9:14Z</time></trkpt>
<trkpt lat="46.17459012" lon="6.05673222"><ele></ele><time>2016-6-18T19:9:17Z</time></trkpt>
<trkpt lat="46.17456833" lon="6.05660146"><ele></ele><time>2016-6-18T19:9:20Z</time></trkpt>
<trkpt lat="46.17454888" lon="6.05646718"><ele></ele><time>2016-6-18T19:9:23Z</time></trkpt>
<trkpt lat="46.17452893" lon="6.05633123"><ele></ele><time>2016-6-18T19:9:26Z</time></trkpt>
<trkpt lat="46.17450966" lon="6.05619393"><ele></ele><time>2016-6-18T19:9:29Z</time></trkpt>
<trkpt lat="46.17449013" lon="6.05605639"><ele></ele><time>2016-6-18T19:9:32Z</time></trkpt>
<trkpt lat="46.17447034" lon="6.05591834"><ele></ele><time>2016-6-18T19:9:35Z</time></trkpt>
<trkpt lat="46.17445006" lon="6.05578037"><ele></ele><time>2016-6-18T19:9:38Z</time></trkpt>
<trkpt lat="46.17442978" lon="6.05564274"><ele></ele><time>2016-6-18T19:9:41Z</time></trkpt>
<trkpt lat="46.17440958" lon="6.05550595"><ele></ele><time>2016-6-18T19:9:44Z</time></trkpt>
<trkpt lat="46.17438887" lon="6.05537075"><ele></ele><time>2016-6-18T19:9:47Z</time></trkpt>
<trkpt lat="46.17436792" lon="6.05523705"><ele></ele><time>2016-6-18T19:9:50Z</time></trkpt>
<trkpt lat="46.17434629" lon="6.05510630"><ele></ele><time>2016-6-18T19:9:53Z</time></trkpt>
<trkpt lat="46.17432425" lon="6.05497705"><ele></ele><time>2016-6-18T19:9:56Z</time></trkpt>
<trkpt lat="46.17430212" lon="6.05484864"><ele></ele><time>2016-6-18T19:9:59Z</time></trkpt>
<trkpt lat="46.17428108" lon="6.05471972"><ele></ele><time>2016-6-18T19:10:2Z</time></trkpt>
<trkpt lat="46.17425987" lon="6.05459198"><ele></ele><time>2016-6-18T19:10:5Z</time></trkpt>
<trkpt lat="46.17423817" lon="6.05446500"><ele></ele><time>2016-6-18T19:10:8Z</time></trkpt>
<trkpt lat="46.17421637" lon="6.05433877"><ele></ele><time>2016-6-18T19:10:11Z</time></trkpt>
<trkpt lat="46.17419542" lon="6.05421312"><ele></ele><time>2016-6-18T19:10:14Z</time></trkpt>
<trkpt lat="46.17417522" lon="6.05408873"><ele></ele><time>2016-6-18T19:10:17Z</time></trkpt>
<trkpt lat="46.17415435" lon="6.05396619"><ele></ele><time>2016-6-18T19:10:20Z</time></trkpt>
<trkpt lat="46.17413306" lon="6.05384474"><ele></ele><time>2016-6-18T19:10:23Z</time></trkpt>
<trkpt lat="46.17411160" lon="6.05372412"><ele></ele><time>2016-6-18T19:10:26Z</time></trkpt>
<trkpt lat="46.17408947" lon="6.05360434"><ele></ele><time>2016-6-18T19:10:29Z</time></trkpt>
<trkpt lat="46.17406726" lon="6.05348608"><ele></ele><time>2016-6-18T19:10:32Z</time></trkpt>
<trkpt lat="46.17404429" lon="6.05336982"><ele></ele><time>2016-6-18T19:10:35Z</time></trkpt>
<trkpt lat="46.17402233" lon="6.05325457"><ele></ele><time>2016-6-18T19:10:38Z</time></trkpt>
<trkpt lat="46.17400029" lon="6.05313982"><ele></ele><time>2016-6-18T19:10:41Z</time></trkpt>
<trkpt lat="46.17397732" lon="6.05302574"><ele></ele><time>2016-6-18T19:10:44Z</time></trkpt>
<trkpt lat="46.17395452" lon="6.05291200"><ele></ele><time>2016-6-18T19:10:47Z</time></trkpt>
<trkpt lat="46.17393164" lon="6.05279893"><ele></ele><time>2016-6-18T19:10:50Z</time></trkpt>
<trkpt lat="46.17390834" lon="6.05268694"><ele></ele><time>2016-6-18T19:10:53Z</time></trkpt>
<trkpt lat="46.17388554" lon="6.05257538"><ele></ele><time>2016-6-18T19:10:56Z</time></trkpt>
<trkpt lat="46.17386308" lon="6.05246407"><ele></ele><time>2016-6-18T19:10:59Z</time></trkpt>
<trkpt lat="46.17384078" lon="6.05235276"><ele></ele><time>2016-6-18T19:11:2Z</time></trkpt>
<trkpt lat="46.17381798" lon="6.05224136"><ele></ele><time>2016-6-18T19:11:5Z</time></trkpt>
<trkpt lat="46.17379392" lon="6.05212997"><ele></ele><time>2016-6-18T19:11:8Z</time></trkpt>
<trkpt lat="46.17376953" lon="6.05201882"><ele></ele><time>2016-6-18T19:11:11Z</time></trkpt>
<trkpt lat="46.17374590" lon="6.05190810"><ele></ele><time>2016-6-18T19:11:14Z</time></trkpt>
<trkpt lat="46.17372218" lon="6.05179779"><ele></ele><time>2016-6-18T19:11:17Z</time></trkpt>
<trkpt lat="46.17369787" lon="6.05168807"><ele></ele><time>2016-6-18T19:11:20Z</time></trkpt>
<trkpt lat="46.17367398" lon="6.05157869"><ele></ele><time>2016-6-18T19:11:23Z</time></trkpt>
<trkpt lat="46.17365034" lon="6.05146998"><ele></ele><time>2016-6-18T19:11:26Z</time></trkpt>
<trkpt lat="46.17362637" lon="6.05136185"><ele></ele><time>2016-6-18T19:11:29Z</time></trkpt>
<trkpt lat="46.17360173" lon="6.05125498"><ele></ele><time>2016-6-18T19:11:32Z</time></trkpt>
<trkpt lat="46.17357692" lon="6.05114853"><ele></ele><time>2016-6-18T19:11:35Z</time></trkpt>
<trkpt lat="46.17355278" lon="6.05104225"><ele></ele><time>2016-6-18T19:11:38Z</time></trkpt>
<trkpt lat="46.17352847" lon="6.05093622"><ele></ele><time>2016-6-18T19:11:41Z</time></trkpt>
<trkpt lat="46.17350416" lon="6.05083094"><ele></ele><time>2016-6-18T19:11:44Z</time></trkpt>
<trkpt lat="46.17347986" lon="6.05072583"><ele></ele><time>2016-6-18T19:11:47Z</time></trkpt>
<trkpt lat="46.17345613" lon="6.05062114"><ele></ele><time>2016-6-18T19:11:50Z</time></trkpt>
<trkpt lat="46.17343208" lon="6.05051729"><ele></ele><time>2016-6-18T19:11:53Z</time></trkpt>
<trkpt lat="46.17340744" lon="6.05041428"><ele></ele><time>2016-6-18T19:11:56Z</time></trkpt>
<trkpt lat="46.17338330" lon="6.05031135"><ele></ele><time>2016-6-18T19:11:59Z</time></trkpt>
<trkpt lat="46.17335949" lon="6.05020850"><ele></ele><time>2016-6-18T19:12:2Z</time></trkpt>
<trkpt lat="46.17333510" lon="6.05010549"><ele></ele><time>2016-6-18T19:12:5Z</time></trkpt>
<trkpt lat="46.17331088" lon="6.05000239"><ele></ele><time>2016-6-18T19:12:8Z</time></trkpt>
<trkpt lat="46.17328674" lon="6.04989938"><ele></ele><time>2016-6-18T19:12:11Z</time></trkpt>
<trkpt lat="46.17326243" lon="6.04979695"><ele></ele><time>2016-6-18T19:12:14Z</time></trkpt>
<trkpt lat="46.17323837" lon="6.04969486"><ele></ele><time>2016-6-18T19:12:17Z</time></trkpt>
<trkpt lat="46.17321432" lon="6.04959302"><ele></ele><time>2016-6-18T19:12:20Z</time></trkpt>
<trkpt lat="46.17318993" lon="6.04949218"><ele></ele><time>2016-6-18T19:12:23Z</time></trkpt>
<trkpt lat="46.17316537" lon="6.04939160"><ele></ele><time>2016-6-18T19:12:26Z</time></trkpt>
<trkpt lat="46.17314123" lon="6.04929068"><ele></ele><time>2016-6-18T19:12:29Z</time></trkpt>
<trkpt lat="46.17311767" lon="6.04918926"><ele></ele><time>2016-6-18T19:12:32Z</time></trkpt>
<trkpt lat="46.17309412" lon="6.04908817"><ele></ele><time>2016-6-18T19:12:35Z</time></trkpt>
<trkpt lat="46.17307082" lon="6.04898776"><ele></ele><time>2016-6-18T19:12:38Z</time></trkpt>
<trkpt lat="46.17304727" lon="6.04888827"><ele></ele><time>2016-6-18T19:12:41Z</time></trkpt>
<trkpt lat="46.17302388" lon="6.04878919"><ele></ele><time>2016-6-18T19:12:44Z</time></trkpt>
<trkpt lat="46.17300125" lon="6.04868995"><ele></ele><time>2016-6-18T19:12:47Z</time></trkpt>
<trkpt lat="46.17297946" lon="6.04859104"><ele></ele><time>2016-6-18T19:12:50Z</time></trkpt>
<trkpt lat="46.17295775" lon="6.04849247"><ele></ele><time>2016-6-18T19:12:53Z</time></trkpt>
<trkpt lat="46.17293688" lon="6.04839407"><ele></ele><time>2016-6-18T19:12:56Z</time></trkpt>
<trkpt lat="46.17291667" lon="6.04829508"><ele></ele><time>2016-6-18T19:12:59Z</time></trkpt>
<trkpt lat="46.17289723" lon="6.04819617"><ele></ele><time>2016-6-18T19:13:2Z</time></trkpt>
<trkpt lat="46.17287787" lon="6.04809802"><ele></ele><time>2016-6-18T19:13:5Z</time></trkpt>
<trkpt lat="46.17285926" lon="6.04800096"><ele></ele><time>2016-6-18T19:13:8Z</time></trkpt>
<trkpt lat="46.17284258" lon="6.04790415"><ele></ele><time>2016-6-18T19:13:11Z</time></trkpt>
<trkpt lat="46.17282699" lon="6.04780734"><ele></ele><time>2016-6-18T19:13:14Z</time></trkpt>
<trkpt lat="46.17281215" lon="6.04771094"><ele></ele><time>2016-6-18T19:13:17Z</time></trkpt>
<trkpt lat="46.17279757" lon="6.04761564"><ele></ele><time>2016-6-18T19:13:20Z</time></trkpt>
<trkpt lat="46.17278349" lon="6.04752093"><ele></ele><time>2016-6-18T19:13:23Z</time></trkpt>
<trkpt lat="46.17277016" lon="6.04742697"><ele></ele><time>2016-6-18T19:13:26Z</time></trkpt>
<trkpt lat="46.17275817" lon="6.04733284"><ele></ele><time>2016-6-18T19:13:29Z</time></trkpt>
<trkpt lat="46.17274719" lon="6.04723846"><ele></ele><time>2016-6-18T19:13:32Z</time></trkpt>
<trkpt lat="46.17273680" lon="6.04714416"><ele></ele><time>2016-6-18T19:13:35Z</time></trkpt>
<trkpt lat="46.17272649" lon="6.04704995"><ele></ele><time>2016-6-18T19:13:38Z</time></trkpt>
<trkpt lat="46.17271677" lon="6.04695557"><ele></ele><time>2016-6-18T19:13:41Z</time></trkpt>
<trkpt lat="46.17270797" lon="6.04686119"><ele></ele><time>2016-6-18T19:13:44Z</time></trkpt>
<trkpt lat="46.17270034" lon="6.04676714"><ele></ele><time>2016-6-18T19:13:47Z</time></trkpt>
<trkpt lat="46.17269363" lon="6.04667393"><ele></ele><time>2016-6-18T19:13:50Z</time></trkpt>
<trkpt lat="46.17268760" lon="6.04658182"><ele></ele><time>2016-6-18T19:13:53Z</time></trkpt>
<trkpt lat="46.17268148" lon="6.04649062"><ele></ele><time>2016-6-18T19:13:56Z</time></trkpt>
<trkpt lat="46.17267528" lon="6.04639985"><ele></ele><time>2016-6-18T19:13:59Z</time></trkpt>
<trkpt lat="46.17266958" lon="6.04630848"><ele></ele><time>2016-6-18T19:14:2Z</time></trkpt>
<trkpt lat="46.17266363" lon="6.04621695"><ele></ele><time>2016-6-18T19:14:5Z</time></trkpt>
<trkpt lat="46.17265734" lon="6.04612618"><ele></ele><time>2016-6-18T19:14:8Z</time></trkpt>
<trkpt lat="46.17265239" lon="6.04603498"><ele></ele><time>2016-6-18T19:14:11Z</time></trkpt>
<trkpt lat="46.17264519" lon="6.04594488"><ele></ele><time>2016-6-18T19:14:14Z</time></trkpt>
<trkpt lat="46.17263856" lon="6.04585427"><ele></ele><time>2016-6-18T19:14:17Z</time></trkpt>
<trkpt lat="46.17263203" lon="6.04576332"><ele></ele><time>2016-6-18T19:14:20Z</time></trkpt>
<trkpt lat="46.17262566" lon="6.04567247"><ele></ele><time>2016-6-18T19:14:23Z</time></trkpt>
<trkpt lat="46.17262012" lon="6.04558152"><ele></ele><time>2016-6-18T19:14:26Z</time></trkpt>
<trkpt lat="46.17261493" lon="6.04549116"><ele></ele><time>2016-6-18T19:14:29Z</time></trkpt>
<trkpt lat="46.17260889" lon="6.04540299"><ele></ele><time>2016-6-18T19:14:32Z</time></trkpt>
<trkpt lat="46.17260328" lon="6.04531447"><ele></ele><time>2016-6-18T19:14:35Z</time></trkpt>
<trkpt lat="46.17259707" lon="6.04522504"><ele></ele><time>2016-6-18T19:14:38Z</time></trkpt>
<trkpt lat="46.17259062" lon="6.04513552"><ele></ele><time>2016-6-18T19:14:41Z</time></trkpt>
<trkpt lat="46.17258517" lon="6.04504667"><ele></ele><time>2016-6-18T19:14:44Z</time></trkpt>
<trkpt lat="46.17258148" lon="6.04495623"><ele></ele><time>2016-6-18T19:14:47Z</time></trkpt>
<trkpt lat="46.17257855" lon="6.04486487"><ele></ele><time>2016-6-18T19:14:50Z</time></trkpt>
<trkpt lat="46.17257478" lon="6.04477367"><ele></ele><time>2016-6-18T19:14:53Z</time></trkpt>
<trkpt lat="46.17257059" lon="6.04468323"><ele></ele><time>2016-6-18T19:14:56Z</time></trkpt>
<trkpt lat="46.17256707" lon="6.04459338"><ele></ele><time>2016-6-18T19:14:59Z</time></trkpt>
<trkpt lat="46.17256204" lon="6.04450369"><ele></ele><time>2016-6-18T19:15:2Z</time></trkpt>
<trkpt lat="46.17255642" lon="6.04441283"><ele></ele><time>2016-6-18T19:15:5Z</time></trkpt>
<trkpt lat="46.17254980" lon="6.04432298"><ele></ele><time>2016-6-18T19:15:8Z</time></trkpt>
<trkpt lat="46.17254209" lon="6.04423338"><ele></ele><time>2016-6-18T19:15:11Z</time></trkpt>
<trkpt lat="46.17253387" lon="6.04414453"><ele></ele><time>2016-6-18T19:15:14Z</time></trkpt>
<trkpt lat="46.17252516" lon="6.04405786"><ele></ele><time>2016-6-18T19:15:17Z</time></trkpt>
<trkpt lat="46.17251568" lon="6.04397295"><ele></ele><time>2016-6-18T19:15:20Z</time></trkpt>
<trkpt lat="46.17250546" lon="6.04388938"><ele></ele><time>2016-6-18T19:15:23Z</time></trkpt>
<trkpt lat="46.17249624" lon="6.04380674"><ele></ele><time>2016-6-18T19:15:26Z</time></trkpt>
<trkpt lat="46.17248836" lon="6.04372619"><ele></ele><time>2016-6-18T19:15:29Z</time></trkpt>
<trkpt lat="46.17248752" lon="6.04364958"><ele></ele><time>2016-6-18T19:15:32Z</time></trkpt>
<trkpt lat="46.17250294" lon="6.04357925"><ele></ele><time>2016-6-18T19:15:35Z</time></trkpt>
<trkpt lat="46.17253153" lon="6.04351915"><ele></ele><time>2016-6-18T19:15:38Z</time></trkpt>
<trkpt lat="46.17256606" lon="6.04346417"><ele></ele><time>2016-6-18T19:15:41Z</time></trkpt>
<trkpt lat="46.17260286" lon="6.04340717"><ele></ele><time>2016-6-18T19:15:44Z</time></trkpt>
<trkpt lat="46.17264208" lon="6.04334665"><ele></ele><time>2016-6-18T19:15:47Z</time></trkpt>
<trkpt lat="46.17268257" lon="6.04328429"><ele></ele><time>2016-6-18T19:15:50Z</time></trkpt>
<trkpt lat="46.17272297" lon="6.04322026"><ele></ele><time>2016-6-18T19:15:53Z</time></trkpt>
<trkpt lat="46.17276127" lon="6.04315488"><ele></ele><time>2016-6-18T19:15:56Z</time></trkpt>
<trkpt lat="46.17279966" lon="6.04309017"><ele></ele><time>2016-6-18T19:15:59Z</time></trkpt>
<trkpt lat="46.17283805" lon="6.04302345"><ele></ele><time>2016-6-18T19:16:2Z</time></trkpt>
<trkpt lat="46.17287803" lon="6.04295874"><ele></ele><time>2016-6-18T19:16:5Z</time></trkpt>
<trkpt lat="46.17291835" lon="6.04289604"><ele></ele><time>2016-6-18T19:16:8Z</time></trkpt>
<trkpt lat="46.17295875" lon="6.04283494"><ele></ele><time>2016-6-18T19:16:11Z</time></trkpt>
<trkpt lat="46.17299806" lon="6.04277543"><ele></ele><time>2016-6-18T19:16:14Z</time></trkpt>
<trkpt lat="46.17303654" lon="6.04271625"><ele></ele><time>2016-6-18T19:16:17Z</time></trkpt>
<trkpt lat="46.17307367" lon="6.04265548"><ele></ele><time>2016-6-18T19:16:20Z</time></trkpt>
<trkpt lat="46.17310937" lon="6.04259312"><ele></ele><time>2016-6-18T19:16:23Z</time></trkpt>
<trkpt lat="46.17314500" lon="6.04252925"><ele></ele><time>2016-6-18T19:16:26Z</time></trkpt>
<trkpt lat="46.17318079" lon="6.04246479"><ele></ele><time>2016-6-18T19:16:29Z</time></trkpt>
<trkpt lat="46.17321876" lon="6.04240176"><ele></ele><time>2016-6-18T19:16:32Z</time></trkpt>
<trkpt lat="46.17325539" lon="6.04233714"><ele></ele><time>2016-6-18T19:16:35Z</time></trkpt>
<trkpt lat="46.17328883" lon="6.04227033"><ele></ele><time>2016-6-18T19:16:38Z</time></trkpt>
<trkpt lat="46.17332035" lon="6.04220227"><ele></ele><time>2016-6-18T19:16:41Z</time></trkpt>
<trkpt lat="46.17335086" lon="6.04213396"><ele></ele><time>2016-6-18T19:16:44Z</time></trkpt>
<trkpt lat="46.17337978" lon="6.04206414"><ele></ele><time>2016-6-18T19:16:47Z</time></trkpt>
<trkpt lat="46.17340685" lon="6.04199348"><ele></ele><time>2016-6-18T19:16:50Z</time></trkpt>
<trkpt lat="46.17343023" lon="6.04192165"><ele></ele><time>2016-6-18T19:16:53Z</time></trkpt>
<trkpt lat="46.17345613" lon="6.04185166"><ele></ele><time>2016-6-18T19:16:56Z</time></trkpt>
<trkpt lat="46.17348027" lon="6.04177974"><ele></ele><time>2016-6-18T19:16:59Z</time></trkpt>
<trkpt lat="46.17350584" lon="6.04170782"><ele></ele><time>2016-6-18T19:17:2Z</time></trkpt>
<trkpt lat="46.17353132" lon="6.04163624"><ele></ele><time>2016-6-18T19:17:5Z</time></trkpt>
<trkpt lat="46.17355672" lon="6.04156500"><ele></ele><time>2016-6-18T19:17:8Z</time></trkpt>
<trkpt lat="46.17358128" lon="6.04149719"><ele></ele><time>2016-6-18T19:17:11Z</time></trkpt>
<trkpt lat="46.17360324" lon="6.04142963"><ele></ele><time>2016-6-18T19:17:14Z</time></trkpt>
<trkpt lat="46.17362176" lon="6.04136090"><ele></ele><time>2016-6-18T19:17:17Z</time></trkpt>
<trkpt lat="46.17363635" lon="6.04128932"><ele></ele><time>2016-6-18T19:17:20Z</time></trkpt>
<trkpt lat="46.17364422" lon="6.04121514"><ele></ele><time>2016-6-18T19:17:23Z</time></trkpt>
<trkpt lat="46.17364607" lon="6.04114699"><ele></ele><time>2016-6-18T19:17:26Z</time></trkpt>
<trkpt lat="46.17364422" lon="6.04108882"><ele></ele><time>2016-6-18T19:17:29Z</time></trkpt>
<trkpt lat="46.17364062" lon="6.04104046"><ele></ele><time>2016-6-18T19:17:32Z</time></trkpt>
<trkpt lat="46.17364833" lon="6.04100458"><ele></ele><time>2016-6-18T19:17:35Z</time></trkpt>
<trkpt lat="46.17365428" lon="6.04098413"><ele></ele><time>2016-6-18T19:17:38Z</time></trkpt>
<trkpt lat="46.17365395" lon="6.04097885"><ele></ele><time>2016-6-18T19:17:41Z</time></trkpt>
<trkpt lat="46.17365185" lon="6.04097508"><ele></ele><time>2016-6-18T19:17:44Z</time></trkpt>
<trkpt lat="46.17365068" lon="6.04096795"><ele></ele><time>2016-6-18T19:17:47Z</time></trkpt>
<trkpt lat="46.17364942" lon="6.04096452"><ele></ele><time>2016-6-18T19:17:50Z</time></trkpt>
<trkpt lat="46.17365085" lon="6.04096854"><ele></ele><time>2016-6-18T19:17:53Z</time></trkpt>
<trkpt lat="46.17365479" lon="6.04097215"><ele></ele><time>2016-6-18T19:17:56Z</time></trkpt>
<trkpt lat="46.17365990" lon="6.04097198"><ele></ele><time>2016-6-18T19:17:59Z</time></trkpt>
<trkpt lat="46.17366333" lon="6.04096745"><ele></ele><time>2016-6-18T19:18:2Z</time></trkpt>
<trkpt lat="46.17366744" lon="6.04096385"><ele></ele><time>2016-6-18T19:18:5Z</time></trkpt>
<trkpt lat="46.17367029" lon="6.04096234"><ele></ele><time>2016-6-18T19:18:8Z</time></trkpt>
<trkpt lat="46.17367314" lon="6.04096217"><ele></ele><time>2016-6-18T19:18:11Z</time></trkpt>
<trkpt lat="46.17367658" lon="6.04096167"><ele></ele><time>2016-6-18T19:18:14Z</time></trkpt>
<trkpt lat="46.17368018" lon="6.04096108"><ele></ele><time>2016-6-18T19:18:17Z</time></trkpt>
<trkpt lat="46.17368387" lon="6.04096049"><ele></ele><time>2016-6-18T19:18:20Z</time></trkpt>
<trkpt lat="46.17368773" lon="6.04095974"><ele></ele><time>2016-6-18T19:18:23Z</time></trkpt>
<trkpt lat="46.17369158" lon="6.04095899"><ele></ele><time>2016-6-18T19:18:26Z</time></trkpt>
<trkpt lat="46.17369527" lon="6.04095815"><ele></ele><time>2016-6-18T19:18:29Z</time></trkpt>
<trkpt lat="46.17369879" lon="6.04095748"><ele></ele><time>2016-6-18T19:18:32Z</time></trkpt>
<trkpt lat="46.17370265" lon="6.04095655"><ele></ele><time>2016-6-18T19:18:35Z</time></trkpt>
<trkpt lat="46.17370625" lon="6.04095555"><ele></ele><time>2016-6-18T19:18:38Z</time></trkpt>
<trkpt lat="46.17370944" lon="6.04095479"><ele></ele><time>2016-6-18T19:18:41Z</time></trkpt>
<trkpt lat="46.17371254" lon="6.04095387"><ele></ele><time>2016-6-18T19:18:44Z</time></trkpt>
<trkpt lat="46.17371572" lon="6.04095278"><ele></ele><time>2016-6-18T19:18:47Z</time></trkpt>
<trkpt lat="46.17371849" lon="6.04095169"><ele></ele><time>2016-6-18T19:18:50Z</time></trkpt>
<trkpt lat="46.17372117" lon="6.04095069"><ele></ele><time>2016-6-18T19:18:53Z</time></trkpt>
<trkpt lat="46.17372352" lon="6.04094968"><ele></ele><time>2016-6-18T19:18:56Z</time></trkpt>
<trkpt lat="46.17372578" lon="6.04094859"><ele></ele><time>2016-6-18T19:18:59Z</time></trkpt>
<trkpt lat="46.17372788" lon="6.04094742"><ele></ele><time>2016-6-18T19:19:2Z</time></trkpt>
<trkpt lat="46.17372989" lon="6.04094633"><ele></ele><time>2016-6-18T19:19:5Z</time></trkpt>
<trkpt lat="46.17373198" lon="6.04094516"><ele></ele><time>2016-6-18T19:19:8Z</time></trkpt>
<trkpt lat="46.17373425" lon="6.04094373"><ele></ele><time>2016-6-18T19:19:11Z</time></trkpt>
<trkpt lat="46.17373710" lon="6.04094222"><ele></ele><time>2016-6-18T19:19:14Z</time></trkpt>
<trkpt lat="46.17373919" lon="6.04094088"><ele></ele><time>2016-6-18T19:19:17Z</time></trkpt>
<trkpt lat="46.17374137" lon="6.04093962"><ele></ele><time>2016-6-18T19:19:20Z</time></trkpt>
<trkpt lat="46.17374355" lon="6.04093837"><ele></ele><time>2016-6-18T19:19:23Z</time></trkpt>
<trkpt lat="46.17374556" lon="6.04093703"><ele></ele><time>2016-6-18T19:19:26Z</time></trkpt>
<trkpt lat="46.17374808" lon="6.04093577"><ele></ele><time>2016-6-18T19:19:29Z</time></trkpt>
<trkpt lat="46.17375009" lon="6.04093443"><ele></ele><time>2016-6-18T19:19:32Z</time></trkpt>
<trkpt lat="46.17375269" lon="6.04093309"><ele></ele><time>2016-6-18T19:19:35Z</time></trkpt>
<trkpt lat="46.17375503" lon="6.04093166"><ele></ele><time>2016-6-18T19:19:38Z</time></trkpt>
<trkpt lat="46.17375713" lon="6.04093049"><ele></ele><time>2016-6-18T19:19:41Z</time></trkpt>
<trkpt lat="46.17375956" lon="6.04092906"><ele></ele><time>2016-6-18T19:19:44Z</time></trkpt>
<trkpt lat="46.17376182" lon="6.04092772"><ele></ele><time>2016-6-18T19:19:47Z</time></trkpt>
<trkpt lat="46.17376417" lon="6.04092638"><ele></ele><time>2016-6-18T19:19:50Z</time></trkpt>
<trkpt lat="46.17376626" lon="6.04092512"><ele></ele><time>2016-6-18T19:19:53Z</time></trkpt>
<trkpt lat="46.17376828" lon="6.04092395"><ele></ele><time>2016-6-18T19:19:56Z</time></trkpt>
<trkpt lat="46.17377029" lon="6.04092278"><ele></ele><time>2016-6-18T19:19:59Z</time></trkpt>
<trkpt lat="46.17377205" lon="6.04092169"><ele></ele><time>2016-6-18T19:20:2Z</time></trkpt>
<trkpt lat="46.17377389" lon="6.04092060"><ele></ele><time>2016-6-18T19:20:5Z</time></trkpt>
<trkpt lat="46.17377557" lon="6.04091942"><ele></ele><time>2016-6-18T19:20:8Z</time></trkpt>
<trkpt lat="46.17377716" lon="6.04091833"><ele></ele><time>2016-6-18T19:20:11Z</time></trkpt>
<trkpt lat="46.17377859" lon="6.04091733"><ele></ele><time>2016-6-18T19:20:14Z</time></trkpt>
<trkpt lat="46.17377993" lon="6.04091649"><ele></ele><time>2016-6-18T19:20:17Z</time></trkpt>
<trkpt lat="46.17378118" lon="6.04091548"><ele></ele><time>2016-6-18T19:20:20Z</time></trkpt>
<trkpt lat="46.17378227" lon="6.04091456"><ele></ele><time>2016-6-18T19:20:23Z</time></trkpt>
<trkpt lat="46.17378336" lon="6.04091289"><ele></ele><time>2016-6-18T19:20:26Z</time></trkpt>
<trkpt lat="46.17378429" lon="6.04091129"><ele></ele><time>2016-6-18T19:20:29Z</time></trkpt>
<trkpt lat="46.17378504" lon="6.04090945"><ele></ele><time>2016-6-18T19:20:32Z</time></trkpt>
<trkpt lat="46.17378588" lon="6.04090819"><ele></ele><time>2016-6-18T19:20:35Z</time></trkpt>
<trkpt lat="46.17378663" lon="6.04090668"><ele></ele><time>2016-6-18T19:20:38Z</time></trkpt>
<trkpt lat="46.17378739" lon="6.04090517"><ele></ele><time>2016-6-18T19:20:41Z</time></trkpt>
<trkpt lat="46.17378806" lon="6.04090358"><ele></ele><time>2016-6-18T19:20:44Z</time></trkpt>
<trkpt lat="46.17378856" lon="6.04090199"><ele></ele><time>2016-6-18T19:20:47Z</time></trkpt>
<trkpt lat="46.17378898" lon="6.04090056"><ele></ele><time>2016-6-18T19:20:50Z</time></trkpt>
<trkpt lat="46.17378923" lon="6.04089922"><ele></ele><time>2016-6-18T19:20:53Z</time></trkpt>
<trkpt lat="46.17378948" lon="6.04089797"><ele></ele><time>2016-6-18T19:20:56Z</time></trkpt>
<trkpt lat="46.17378957" lon="6.04089679"><ele></ele><time>2016-6-18T19:20:59Z</time></trkpt>
<trkpt lat="46.17378957" lon="6.04089553"><ele></ele><time>2016-6-18T19:21:2Z</time></trkpt>
<trkpt lat="46.17378957" lon="6.04089436"><ele></ele><time>2016-6-18T19:21:5Z</time></trkpt>
<trkpt lat="46.17378948" lon="6.04089327"><ele></ele><time>2016-6-18T19:21:8Z</time></trkpt>
<trkpt lat="46.17378940" lon="6.04089210"><ele></ele><time>2016-6-18T19:21:11Z</time></trkpt>
<trkpt lat="46.17378915" lon="6.04089092"><ele></ele><time>2016-6-18T19:21:14Z</time></trkpt>
<trkpt lat="46.17378890" lon="6.04088992"><ele></ele><time>2016-6-18T19:21:17Z</time></trkpt>
<trkpt lat="46.17378864" lon="6.04088883"><ele></ele><time>2016-6-18T19:21:20Z</time></trkpt>
<trkpt lat="46.17378848" lon="6.04088782"><ele></ele><time>2016-6-18T19:21:23Z</time></trkpt>
<trkpt lat="46.17378814" lon="6.04088682"><ele></ele><time>2016-6-18T19:21:26Z</time></trkpt>
<trkpt lat="46.17378772" lon="6.04088598"><ele></ele><time>2016-6-18T19:21:29Z</time></trkpt>
<trkpt lat="46.17378739" lon="6.04088497"><ele></ele><time>2016-6-18T19:21:32Z</time></trkpt>
<trkpt lat="46.17378705" lon="6.04088405"><ele></ele><time>2016-6-18T19:21:35Z</time></trkpt>
<trkpt lat="46.17378663" lon="6.04088313"><ele></ele><time>2016-6-18T19:21:38Z</time></trkpt>
<trkpt lat="46.17378613" lon="6.04088238"><ele></ele><time>2016-6-18T19:21:41Z</time></trkpt>
<trkpt lat="46.17378588" lon="6.04088154"><ele></ele><time>2016-6-18T19:21:44Z</time></trkpt>
<trkpt lat="46.17378487" lon="6.04088263"><ele></ele><time>2016-6-18T19:21:47Z</time></trkpt>
<trkpt lat="46.17378353" lon="6.04088372"><ele></ele><time>2016-6-18T19:21:50Z</time></trkpt>
<trkpt lat="46.17378194" lon="6.04088497"><ele></ele><time>2016-6-18T19:21:53Z</time></trkpt>
<trkpt lat="46.17378085" lon="6.04088606"><ele></ele><time>2016-6-18T19:21:56Z</time></trkpt>
<trkpt lat="46.17377984" lon="6.04088699"><ele></ele><time>2016-6-18T19:21:59Z</time></trkpt>
<trkpt lat="46.17377842" lon="6.04088807"><ele></ele><time>2016-6-18T19:22:2Z</time></trkpt>
<trkpt lat="46.17377314" lon="6.04088807"><ele></ele><time>2016-6-18T19:22:5Z</time></trkpt>
<trkpt lat="46.17376828" lon="6.04088816"><ele></ele><time>2016-6-18T19:22:8Z</time></trkpt>
<trkpt lat="46.17376350" lon="6.04088858"><ele></ele><time>2016-6-18T19:22:11Z</time></trkpt>
<trkpt lat="46.17375889" lon="6.04088883"><ele></ele><time>2016-6-18T19:22:14Z</time></trkpt>
<trkpt lat="46.17375495" lon="6.04088908"><ele></ele><time>2016-6-18T19:22:17Z</time></trkpt>
<trkpt lat="46.17375143" lon="6.04088925"><ele></ele><time>2016-6-18T19:22:20Z</time></trkpt>
<trkpt lat="46.17374808" lon="6.04088933"><ele></ele><time>2016-6-18T19:22:23Z</time></trkpt>
<trkpt lat="46.17374464" lon="6.04088958"><ele></ele><time>2016-6-18T19:22:26Z</time></trkpt>
<trkpt lat="46.17374145" lon="6.04088975"><ele></ele><time>2016-6-18T19:22:29Z</time></trkpt>
<trkpt lat="46.17373852" lon="6.04088992"><ele></ele><time>2016-6-18T19:22:32Z</time></trkpt>
<trkpt lat="46.17373584" lon="6.04089017"><ele></ele><time>2016-6-18T19:22:35Z</time></trkpt>
<trkpt lat="46.17373307" lon="6.04089042"><ele></ele><time>2016-6-18T19:22:38Z</time></trkpt>
<trkpt lat="46.17373039" lon="6.04089076"><ele></ele><time>2016-6-18T19:22:41Z</time></trkpt>
<trkpt lat="46.17372788" lon="6.04089092"><ele></ele><time>2016-6-18T19:22:44Z</time></trkpt>
<trkpt lat="46.17372544" lon="6.04089126"><ele></ele><time>2016-6-18T19:22:47Z</time></trkpt>
<trkpt lat="46.17372335" lon="6.04089160"><ele></ele><time>2016-6-18T19:22:50Z</time></trkpt>
<trkpt lat="46.17372125" lon="6.04089176"><ele></ele><time>2016-6-18T19:22:53Z</time></trkpt>
<trkpt lat="46.17371933" lon="6.04089193"><ele></ele><time>2016-6-18T19:22:56Z</time></trkpt>
<trkpt lat="46.17371748" lon="6.04089218"><ele></ele><time>2016-6-18T19:22:59Z</time></trkpt>
<trkpt lat="46.17371564" lon="6.04089235"><ele></ele><time>2016-6-18T19:23:2Z</time></trkpt>
<trkpt lat="46.17371396" lon="6.04089252"><ele></ele><time>2016-6-18T19:23:5Z</time></trkpt>
<trkpt lat="46.17371237" lon="6.04089268"><ele></ele><time>2016-6-18T19:23:8Z</time></trkpt>
<trkpt lat="46.17371086" lon="6.04089285"><ele></ele><time>2016-6-18T19:23:11Z</time></trkpt>
<trkpt lat="46.17370944" lon="6.04089294"><ele></ele><time>2016-6-18T19:23:14Z</time></trkpt>
<trkpt lat="46.17370793" lon="6.04089294"><ele></ele><time>2016-6-18T19:23:17Z</time></trkpt>
<trkpt lat="46.17370659" lon="6.04089302"><ele></ele><time>2016-6-18T19:23:20Z</time></trkpt>
<trkpt lat="46.17370524" lon="6.04089319"><ele></ele><time>2016-6-18T19:23:23Z</time></trkpt>
<trkpt lat="46.17370382" lon="6.04089327"><ele></ele><time>2016-6-18T19:23:26Z</time></trkpt>
<trkpt lat="46.17370265" lon="6.04089327"><ele></ele><time>2016-6-18T19:23:29Z</time></trkpt>
<trkpt lat="46.17370147" lon="6.04089327"><ele></ele><time>2016-6-18T19:23:32Z</time></trkpt>
<trkpt lat="46.17370030" lon="6.04089336"><ele></ele><time>2016-6-18T19:23:35Z</time></trkpt>
<trkpt lat="46.17369913" lon="6.04089344"><ele></ele><time>2016-6-18T19:23:38Z</time></trkpt>
<trkpt lat="46.17369812" lon="6.04089344"><ele></ele><time>2016-6-18T19:23:41Z</time></trkpt>
<trkpt lat="46.17369720" lon="6.04089352"><ele></ele><time>2016-6-18T19:23:44Z</time></trkpt>
<trkpt lat="46.17369586" lon="6.04089369"><ele></ele><time>2016-6-18T19:23:47Z</time></trkpt>
<trkpt lat="46.17369460" lon="6.04089352"><ele></ele><time>2016-6-18T19:23:50Z</time></trkpt>
<trkpt lat="46.17369359" lon="6.04089344"><ele></ele><time>2016-6-18T19:23:53Z</time></trkpt>
<trkpt lat="46.17369284" lon="6.04089344"><ele></ele><time>2016-6-18T19:23:56Z</time></trkpt>
<trkpt lat="46.17369359" lon="6.04089344"><ele></ele><time>2016-6-18T19:23:59Z</time></trkpt>
<trkpt lat="46.17369410" lon="6.04089352"><ele></ele><time>2016-6-18T19:24:2Z</time></trkpt>
<trkpt lat="46.17369234" lon="6.04089528"><ele></ele><time>2016-6-18T19:24:5Z</time></trkpt>
<trkpt lat="46.17368647" lon="6.04089545"><ele></ele><time>2016-6-18T19:24:8Z</time></trkpt>
<trkpt lat="46.17368236" lon="6.04088799"><ele></ele><time>2016-6-18T19:24:11Z</time></trkpt>
<trkpt lat="46.17367499" lon="6.04087927"><ele></ele><time>2016-6-18T19:24:14Z</time></trkpt>
<trkpt lat="46.17366845" lon="6.04087475"><ele></ele><time>2016-6-18T19:24:17Z</time></trkpt>
<trkpt lat="46.17366702" lon="6.04087282"><ele></ele><time>2016-6-18T19:24:20Z</time></trkpt>
<trkpt lat="46.17366786" lon="6.04087106"><ele></ele><time>2016-6-18T19:24:23Z</time></trkpt>
<trkpt lat="46.17366618" lon="6.04086452"><ele></ele><time>2016-6-18T19:24:26Z</time></trkpt>
<trkpt lat="46.17366593" lon="6.04085497"><ele></ele><time>2016-6-18T19:24:29Z</time></trkpt>
<trkpt lat="46.17366166" lon="6.04083745"><ele></ele><time>2016-6-18T19:24:32Z</time></trkpt>
<trkpt lat="46.17365152" lon="6.04081549"><ele></ele><time>2016-6-18T19:24:35Z</time></trkpt>
<trkpt lat="46.17363970" lon="6.04079227"><ele></ele><time>2016-6-18T19:24:38Z</time></trkpt>
<trkpt lat="46.17363073" lon="6.04076260"><ele></ele><time>2016-6-18T19:24:41Z</time></trkpt>
<trkpt lat="46.17361983" lon="6.04072530"><ele></ele><time>2016-6-18T19:24:44Z</time></trkpt>
<trkpt lat="46.17360642" lon="6.04068213"><ele></ele><time>2016-6-18T19:24:47Z</time></trkpt>
<trkpt lat="46.17358622" lon="6.04063628"><ele></ele><time>2016-6-18T19:24:50Z</time></trkpt>
<trkpt lat="46.17356510" lon="6.04058733"><ele></ele><time>2016-6-18T19:24:53Z</time></trkpt>
<trkpt lat="46.17354037" lon="6.04053956"><ele></ele><time>2016-6-18T19:24:56Z</time></trkpt>
<trkpt lat="46.17351866" lon="6.04048725"><ele></ele><time>2016-6-18T19:24:59Z</time></trkpt>
<trkpt lat="46.17349067" lon="6.04043134"><ele></ele><time>2016-6-18T19:25:2Z</time></trkpt>
<trkpt lat="46.17346494" lon="6.04037133"><ele></ele><time>2016-6-18T19:25:5Z</time></trkpt>
<trkpt lat="46.17343828" lon="6.04031274"><ele></ele><time>2016-6-18T19:25:8Z</time></trkpt>
<trkpt lat="46.17341305" lon="6.04025273"><ele></ele><time>2016-6-18T19:25:11Z</time></trkpt>
<trkpt lat="46.17338908" lon="6.04019229"><ele></ele><time>2016-6-18T19:25:14Z</time></trkpt>
<trkpt lat="46.17336486" lon="6.04012784"><ele></ele><time>2016-6-18T19:25:17Z</time></trkpt>
<trkpt lat="46.17334298" lon="6.04006053"><ele></ele><time>2016-6-18T19:25:20Z</time></trkpt>
<trkpt lat="46.17332387" lon="6.03999197"><ele></ele><time>2016-6-18T19:25:23Z</time></trkpt>
<trkpt lat="46.17330534" lon="6.03992315"><ele></ele><time>2016-6-18T19:25:26Z</time></trkpt>
<trkpt lat="46.17328933" lon="6.03985316"><ele></ele><time>2016-6-18T19:25:29Z</time></trkpt>
<trkpt lat="46.17327626" lon="6.03978166"><ele></ele><time>2016-6-18T19:25:32Z</time></trkpt>
<trkpt lat="46.17326327" lon="6.03971142"><ele></ele><time>2016-6-18T19:25:35Z</time></trkpt>
<trkpt lat="46.17325153" lon="6.03964319"><ele></ele><time>2016-6-18T19:25:38Z</time></trkpt>
<trkpt lat="46.17324064" lon="6.03957606"><ele></ele><time>2016-6-18T19:25:41Z</time></trkpt>
<trkpt lat="46.17322974" lon="6.03950934"><ele></ele><time>2016-6-18T19:25:44Z</time></trkpt>
<trkpt lat="46.17321943" lon="6.03944354"><ele></ele><time>2016-6-18T19:25:47Z</time></trkpt>
<trkpt lat="46.17321482" lon="6.03937472"><ele></ele><time>2016-6-18T19:25:50Z</time></trkpt>
<trkpt lat="46.17321088" lon="6.03930607"><ele></ele><time>2016-6-18T19:25:53Z</time></trkpt>
<trkpt lat="46.17320945" lon="6.03923642"><ele></ele><time>2016-6-18T19:25:56Z</time></trkpt>
<trkpt lat="46.17320736" lon="6.03916593"><ele></ele><time>2016-6-18T19:25:59Z</time></trkpt>
<trkpt lat="46.17320635" lon="6.03909468"><ele></ele><time>2016-6-18T19:26:2Z</time></trkpt>
<trkpt lat="46.17320208" lon="6.03902603"><ele></ele><time>2016-6-18T19:26:5Z</time></trkpt>
<trkpt lat="46.17318733" lon="6.03896703"><ele></ele><time>2016-6-18T19:26:8Z</time></trkpt>
<trkpt lat="46.17315858" lon="6.03892294"><ele></ele><time>2016-6-18T19:26:11Z</time></trkpt>
<trkpt lat="46.17311792" lon="6.03889746"><ele></ele><time>2016-6-18T19:26:14Z</time></trkpt>
<trkpt lat="46.17307065" lon="6.03889419"><ele></ele><time>2016-6-18T19:26:17Z</time></trkpt>
<trkpt lat="46.17301893" lon="6.03890995"><ele></ele><time>2016-6-18T19:26:20Z</time></trkpt>
<trkpt lat="46.17296563" lon="6.03893509"><ele></ele><time>2016-6-18T19:26:23Z</time></trkpt>
<trkpt lat="46.17291248" lon="6.03896485"><ele></ele><time>2016-6-18T19:26:26Z</time></trkpt>
<trkpt lat="46.17285909" lon="6.03899519"><ele></ele><time>2016-6-18T19:26:29Z</time></trkpt>
<trkpt lat="46.17280553" lon="6.03902503"><ele></ele><time>2016-6-18T19:26:32Z</time></trkpt>
<trkpt lat="46.17275205" lon="6.03905512"><ele></ele><time>2016-6-18T19:26:35Z</time></trkpt>
<trkpt lat="46.17269883" lon="6.03908655"><ele></ele><time>2016-6-18T19:26:38Z</time></trkpt>
<trkpt lat="46.17264619" lon="6.03911824"><ele></ele><time>2016-6-18T19:26:41Z</time></trkpt>
<trkpt lat="46.17259389" lon="6.03914925"><ele></ele><time>2016-6-18T19:26:44Z</time></trkpt>
<trkpt lat="46.17254259" lon="6.03917934"><ele></ele><time>2016-6-18T19:26:47Z</time></trkpt>
<trkpt lat="46.17249238" lon="6.03920834"><ele></ele><time>2016-6-18T19:26:50Z</time></trkpt>
<trkpt lat="46.17244327" lon="6.03923667"><ele></ele><time>2016-6-18T19:26:53Z</time></trkpt>
<trkpt lat="46.17239448" lon="6.03926484"><ele></ele><time>2016-6-18T19:26:56Z</time></trkpt>
<trkpt lat="46.17234604" lon="6.03929375"><ele></ele><time>2016-6-18T19:26:59Z</time></trkpt>
<trkpt lat="46.17229717" lon="6.03932284"><ele></ele><time>2016-6-18T19:27:2Z</time></trkpt>
<trkpt lat="46.17224780" lon="6.03935117"><ele></ele><time>2016-6-18T19:27:5Z</time></trkpt>
<trkpt lat="46.17219809" lon="6.03938084"><ele></ele><time>2016-6-18T19:27:8Z</time></trkpt>
<trkpt lat="46.17214847" lon="6.03941152"><ele></ele><time>2016-6-18T19:27:11Z</time></trkpt>
<trkpt lat="46.17209877" lon="6.03944169"><ele></ele><time>2016-6-18T19:27:14Z</time></trkpt>
<trkpt lat="46.17204948" lon="6.03947153"><ele></ele><time>2016-6-18T19:27:17Z</time></trkpt>
<trkpt lat="46.17200045" lon="6.03950146"><ele></ele><time>2016-6-18T19:27:20Z</time></trkpt>
<trkpt lat="46.17195192" lon="6.03953130"><ele></ele><time>2016-6-18T19:27:23Z</time></trkpt>
<trkpt lat="46.17190397" lon="6.03956047"><ele></ele><time>2016-6-18T19:27:26Z</time></trkpt>
<trkpt lat="46.17185695" lon="6.03958997"><ele></ele><time>2016-6-18T19:27:29Z</time></trkpt>
<trkpt lat="46.17181060" lon="6.03961973"><ele></ele><time>2016-6-18T19:27:32Z</time></trkpt>
<trkpt lat="46.17176374" lon="6.03964680"><ele></ele><time>2016-6-18T19:27:35Z</time></trkpt>
<trkpt lat="46.17171706" lon="6.03967270"><ele></ele><time>2016-6-18T19:27:38Z</time></trkpt>
<trkpt lat="46.17167163" lon="6.03969935"><ele></ele><time>2016-6-18T19:27:41Z</time></trkpt>
<trkpt lat="46.17162813" lon="6.03972567"><ele></ele><time>2016-6-18T19:27:44Z</time></trkpt>
<trkpt lat="46.17158655" lon="6.03975115"><ele></ele><time>2016-6-18T19:27:47Z</time></trkpt>
<trkpt lat="46.17154766" lon="6.03977697"><ele></ele><time>2016-6-18T19:27:50Z</time></trkpt>
<trkpt lat="46.17151128" lon="6.03980170"><ele></ele><time>2016-6-18T19:27:53Z</time></trkpt>
<trkpt lat="46.17147708" lon="6.03982626"><ele></ele><time>2016-6-18T19:27:56Z</time></trkpt>
<trkpt lat="46.17144414" lon="6.03984386"><ele></ele><time>2016-6-18T19:27:59Z</time></trkpt>
<trkpt lat="46.17141497" lon="6.03984763"><ele></ele><time>2016-6-18T19:28:2Z</time></trkpt>
<trkpt lat="46.17138849" lon="6.03983464"><ele></ele><time>2016-6-18T19:28:5Z</time></trkpt>
<trkpt lat="46.17136812" lon="6.03979952"><ele></ele><time>2016-6-18T19:28:8Z</time></trkpt>
<trkpt lat="46.17135052" lon="6.03975115"><ele></ele><time>2016-6-18T19:28:11Z</time></trkpt>
<trkpt lat="46.17132889" lon="6.03969826"><ele></ele><time>2016-6-18T19:28:14Z</time></trkpt>
<trkpt lat="46.17130458" lon="6.03964177"><ele></ele><time>2016-6-18T19:28:17Z</time></trkpt>
<trkpt lat="46.17127793" lon="6.03958377"><ele></ele><time>2016-6-18T19:28:20Z</time></trkpt>
<trkpt lat="46.17125295" lon="6.03952124"><ele></ele><time>2016-6-18T19:28:23Z</time></trkpt>
<trkpt lat="46.17122588" lon="6.03945519"><ele></ele><time>2016-6-18T19:28:26Z</time></trkpt>
<trkpt lat="46.17119797" lon="6.03938629"><ele></ele><time>2016-6-18T19:28:29Z</time></trkpt>
<trkpt lat="46.17116880" lon="6.03931672"><ele></ele><time>2016-6-18T19:28:32Z</time></trkpt>
<trkpt lat="46.17113904" lon="6.03924614"><ele></ele><time>2016-6-18T19:28:35Z</time></trkpt>
<trkpt lat="46.17110937" lon="6.03917414"><ele></ele><time>2016-6-18T19:28:38Z</time></trkpt>
<trkpt lat="46.17108012" lon="6.03910147"><ele></ele><time>2016-6-18T19:28:41Z</time></trkpt>
<trkpt lat="46.17105019" lon="6.03902847"><ele></ele><time>2016-6-18T19:28:44Z</time></trkpt>
<trkpt lat="46.17101968" lon="6.03895605"><ele></ele><time>2016-6-18T19:28:47Z</time></trkpt>
<trkpt lat="46.17098917" lon="6.03888329"><ele></ele><time>2016-6-18T19:28:50Z</time></trkpt>
<trkpt lat="46.17095866" lon="6.03881062"><ele></ele><time>2016-6-18T19:28:53Z</time></trkpt>
<trkpt lat="46.17092966" lon="6.03873854"><ele></ele><time>2016-6-18T19:28:56Z</time></trkpt>
<trkpt lat="46.17090468" lon="6.03866578"><ele></ele><time>2016-6-18T19:28:59Z</time></trkpt>
<trkpt lat="46.17088775" lon="6.03859403"><ele></ele><time>2016-6-18T19:29:2Z</time></trkpt>
<trkpt lat="46.17088314" lon="6.03852673"><ele></ele><time>2016-6-18T19:29:5Z</time></trkpt>
<trkpt lat="46.17087996" lon="6.03846369"><ele></ele><time>2016-6-18T19:29:8Z</time></trkpt>
<trkpt lat="46.17087333" lon="6.03840083"><ele></ele><time>2016-6-18T19:29:11Z</time></trkpt>
<trkpt lat="46.17086076" lon="6.03833947"><ele></ele><time>2016-6-18T19:29:14Z</time></trkpt>
<trkpt lat="46.17083629" lon="6.03828147"><ele></ele><time>2016-6-18T19:29:17Z</time></trkpt>
<trkpt lat="46.17080058" lon="6.03823252"><ele></ele><time>2016-6-18T19:29:20Z</time></trkpt>
<trkpt lat="46.17075473" lon="6.03819807"><ele></ele><time>2016-6-18T19:29:23Z</time></trkpt>
<trkpt lat="46.17070536" lon="6.03816622"><ele></ele><time>2016-6-18T19:29:26Z</time></trkpt>
<trkpt lat="46.17065934" lon="6.03811978"><ele></ele><time>2016-6-18T19:29:29Z</time></trkpt>
<trkpt lat="46.17062054" lon="6.03805734"><ele></ele><time>2016-6-18T19:29:32Z</time></trkpt>
<trkpt lat="46.17058525" lon="6.03798693"><ele></ele><time>2016-6-18T19:29:35Z</time></trkpt>
<trkpt lat="46.17055206" lon="6.03791317"><ele></ele><time>2016-6-18T19:29:38Z</time></trkpt>
<trkpt lat="46.17051937" lon="6.03783782"><ele></ele><time>2016-6-18T19:29:41Z</time></trkpt>
<trkpt lat="46.17048659" lon="6.03776238"><ele></ele><time>2016-6-18T19:29:44Z</time></trkpt>
<trkpt lat="46.17045265" lon="6.03768652"><ele></ele><time>2016-6-18T19:29:47Z</time></trkpt>
<trkpt lat="46.17041820" lon="6.03761092"><ele></ele><time>2016-6-18T19:29:50Z</time></trkpt>
<trkpt lat="46.17038350" lon="6.03753506"><ele></ele><time>2016-6-18T19:29:53Z</time></trkpt>
<trkpt lat="46.17034930" lon="6.03745803"><ele></ele><time>2016-6-18T19:29:56Z</time></trkpt>
<trkpt lat="46.17031527" lon="6.03738050"><ele></ele><time>2016-6-18T19:29:59Z</time></trkpt>
<trkpt lat="46.17028216" lon="6.03730188"><ele></ele><time>2016-6-18T19:30:2Z</time></trkpt>
<trkpt lat="46.17024830" lon="6.03722292"><ele></ele><time>2016-6-18T19:30:5Z</time></trkpt>
<trkpt lat="46.17021418" lon="6.03714254"><ele></ele><time>2016-6-18T19:30:8Z</time></trkpt>
<trkpt lat="46.17018032" lon="6.03706107"><ele></ele><time>2016-6-18T19:30:11Z</time></trkpt>
<trkpt lat="46.17014629" lon="6.03697876"><ele></ele><time>2016-6-18T19:30:14Z</time></trkpt>
<trkpt lat="46.17010966" lon="6.03689854"><ele></ele><time>2016-6-18T19:30:17Z</time></trkpt>
<trkpt lat="46.17007035" lon="6.03682067"><ele></ele><time>2016-6-18T19:30:20Z</time></trkpt>
<trkpt lat="46.17003447" lon="6.03673962"><ele></ele><time>2016-6-18T19:30:23Z</time></trkpt>
<trkpt lat="46.16999860" lon="6.03665848"><ele></ele><time>2016-6-18T19:30:26Z</time></trkpt>
<trkpt lat="46.16996272" lon="6.03657642"><ele></ele><time>2016-6-18T19:30:29Z</time></trkpt>
<trkpt lat="46.16992677" lon="6.03649420"><ele></ele><time>2016-6-18T19:30:32Z</time></trkpt>
<trkpt lat="46.16989089" lon="6.03641147"><ele></ele><time>2016-6-18T19:30:35Z</time></trkpt>
<trkpt lat="46.16985552" lon="6.03632824"><ele></ele><time>2016-6-18T19:30:38Z</time></trkpt>
<trkpt lat="46.16982040" lon="6.03624517"><ele></ele><time>2016-6-18T19:30:41Z</time></trkpt>
<trkpt lat="46.16978629" lon="6.03616152"><ele></ele><time>2016-6-18T19:30:44Z</time></trkpt>
<trkpt lat="46.16975175" lon="6.03607678"><ele></ele><time>2016-6-18T19:30:47Z</time></trkpt>
<trkpt lat="46.16971697" lon="6.03599288"><ele></ele><time>2016-6-18T19:30:50Z</time></trkpt>
<trkpt lat="46.16968176" lon="6.03590989"><ele></ele><time>2016-6-18T19:30:53Z</time></trkpt>
<trkpt lat="46.16964715" lon="6.03582616"><ele></ele><time>2016-6-18T19:30:56Z</time></trkpt>
<trkpt lat="46.16961328" lon="6.03574184"><ele></ele><time>2016-6-18T19:30:59Z</time></trkpt>
<trkpt lat="46.16957917" lon="6.03565802"><ele></ele><time>2016-6-18T19:31:2Z</time></trkpt>
<trkpt lat="46.16954464" lon="6.03557479"><ele></ele><time>2016-6-18T19:31:5Z</time></trkpt>
<trkpt lat="46.16951019" lon="6.03549139"><ele></ele><time>2016-6-18T19:31:8Z</time></trkpt>
<trkpt lat="46.16947632" lon="6.03540748"><ele></ele><time>2016-6-18T19:31:11Z</time></trkpt>
<trkpt lat="46.16944229" lon="6.03532375"><ele></ele><time>2016-6-18T19:31:14Z</time></trkpt>
<trkpt lat="46.16940910" lon="6.03523876"><ele></ele><time>2016-6-18T19:31:17Z</time></trkpt>
<trkpt lat="46.16937465" lon="6.03515410"><ele></ele><time>2016-6-18T19:31:20Z</time></trkpt>
<trkpt lat="46.16934079" lon="6.03506827"><ele></ele><time>2016-6-18T19:31:23Z</time></trkpt>
<trkpt lat="46.16930743" lon="6.03498126"><ele></ele><time>2016-6-18T19:31:26Z</time></trkpt>
<trkpt lat="46.16927356" lon="6.03489342"><ele></ele><time>2016-6-18T19:31:29Z</time></trkpt>
<trkpt lat="46.16923928" lon="6.03480516"><ele></ele><time>2016-6-18T19:31:32Z</time></trkpt>
<trkpt lat="46.16920517" lon="6.03471698"><ele></ele><time>2016-6-18T19:31:35Z</time></trkpt>
<trkpt lat="46.16917114" lon="6.03462872"><ele></ele><time>2016-6-18T19:31:38Z</time></trkpt>
<trkpt lat="46.16913945" lon="6.03453878"><ele></ele><time>2016-6-18T19:31:41Z</time></trkpt>
<trkpt lat="46.16910635" lon="6.03444985"><ele></ele><time>2016-6-18T19:31:44Z</time></trkpt>
<trkpt lat="46.16907332" lon="6.03436058"><ele></ele><time>2016-6-18T19:31:47Z</time></trkpt>
<trkpt lat="46.16903937" lon="6.03427123"><ele></ele><time>2016-6-18T19:31:50Z</time></trkpt>
<trkpt lat="46.16900585" lon="6.03418129"><ele></ele><time>2016-6-18T19:31:53Z</time></trkpt>
<trkpt lat="46.16897249" lon="6.03409035"><ele></ele><time>2016-6-18T19:31:56Z</time></trkpt>
<trkpt lat="46.16893955" lon="6.03399865"><ele></ele><time>2016-6-18T19:31:59Z</time></trkpt>
<trkpt lat="46.16890702" lon="6.03390645"><ele></ele><time>2016-6-18T19:32:2Z</time></trkpt>
<trkpt lat="46.16887442" lon="6.03381417"><ele></ele><time>2016-6-18T19:32:5Z</time></trkpt>
<trkpt lat="46.16884165" lon="6.03372188"><ele></ele><time>2016-6-18T19:32:8Z</time></trkpt>
<trkpt lat="46.16880937" lon="6.03362935"><ele></ele><time>2016-6-18T19:32:11Z</time></trkpt>
<trkpt lat="46.16877752" lon="6.03353622"><ele></ele><time>2016-6-18T19:32:14Z</time></trkpt>
<trkpt lat="46.16874576" lon="6.03344293"><ele></ele><time>2016-6-18T19:32:17Z</time></trkpt>
<trkpt lat="46.16871365" lon="6.03334947"><ele></ele><time>2016-6-18T19:32:20Z</time></trkpt>
<trkpt lat="46.16868163" lon="6.03325627"><ele></ele><time>2016-6-18T19:32:23Z</time></trkpt>
<trkpt lat="46.16864978" lon="6.03316356"><ele></ele><time>2016-6-18T19:32:26Z</time></trkpt>
<trkpt lat="46.16861810" lon="6.03307103"><ele></ele><time>2016-6-18T19:32:29Z</time></trkpt>
<trkpt lat="46.16858667" lon="6.03297874"><ele></ele><time>2016-6-18T19:32:32Z</time></trkpt>
<trkpt lat="46.16855532" lon="6.03288646"><ele></ele><time>2016-6-18T19:32:35Z</time></trkpt>
<trkpt lat="46.16852464" lon="6.03279392"><ele></ele><time>2016-6-18T19:32:38Z</time></trkpt>
<trkpt lat="46.16849338" lon="6.03270197"><ele></ele><time>2016-6-18T19:32:41Z</time></trkpt>
<trkpt lat="46.16846203" lon="6.03261019"><ele></ele><time>2016-6-18T19:32:44Z</time></trkpt>
<trkpt lat="46.16843118" lon="6.03251724"><ele></ele><time>2016-6-18T19:32:47Z</time></trkpt>
<trkpt lat="46.16840042" lon="6.03242369"><ele></ele><time>2016-6-18T19:32:50Z</time></trkpt>
<trkpt lat="46.16836924" lon="6.03233024"><ele></ele><time>2016-6-18T19:32:53Z</time></trkpt>
<trkpt lat="46.16833789" lon="6.03223703"><ele></ele><time>2016-6-18T19:32:56Z</time></trkpt>
<trkpt lat="46.16830789" lon="6.03214374"><ele></ele><time>2016-6-18T19:32:59Z</time></trkpt>
<trkpt lat="46.16827855" lon="6.03205028"><ele></ele><time>2016-6-18T19:33:2Z</time></trkpt>
<trkpt lat="46.16824904" lon="6.03195665"><ele></ele><time>2016-6-18T19:33:5Z</time></trkpt>
<trkpt lat="46.16821996" lon="6.03186294"><ele></ele><time>2016-6-18T19:33:8Z</time></trkpt>
<trkpt lat="46.16819012" lon="6.03176965"><ele></ele><time>2016-6-18T19:33:11Z</time></trkpt>
<trkpt lat="46.16815986" lon="6.03167703"><ele></ele><time>2016-6-18T19:33:14Z</time></trkpt>
<trkpt lat="46.16812969" lon="6.03158467"><ele></ele><time>2016-6-18T19:33:17Z</time></trkpt>
<trkpt lat="46.16809993" lon="6.03149179"><ele></ele><time>2016-6-18T19:33:20Z</time></trkpt>
<trkpt lat="46.16807034" lon="6.03139867"><ele></ele><time>2016-6-18T19:33:23Z</time></trkpt>
<trkpt lat="46.16804025" lon="6.03130563"><ele></ele><time>2016-6-18T19:33:26Z</time></trkpt>
<trkpt lat="46.16801108" lon="6.03121242"><ele></ele><time>2016-6-18T19:33:29Z</time></trkpt>
<trkpt lat="46.16798183" lon="6.03111947"><ele></ele><time>2016-6-18T19:33:32Z</time></trkpt>
<trkpt lat="46.16795182" lon="6.03102618"><ele></ele><time>2016-6-18T19:33:35Z</time></trkpt>
<trkpt lat="46.16791972" lon="6.03093322"><ele></ele><time>2016-6-18T19:33:38Z</time></trkpt>
<trkpt lat="46.16788778" lon="6.03084018"><ele></ele><time>2016-6-18T19:33:41Z</time></trkpt>
<trkpt lat="46.16785686" lon="6.03074614"><ele></ele><time>2016-6-18T19:33:44Z</time></trkpt>
<trkpt lat="46.16782920" lon="6.03064908"><ele></ele><time>2016-6-18T19:33:47Z</time></trkpt>
<trkpt lat="46.16780045" lon="6.03055277"><ele></ele><time>2016-6-18T19:33:50Z</time></trkpt>
<trkpt lat="46.16777019" lon="6.03045814"><ele></ele><time>2016-6-18T19:33:53Z</time></trkpt>
<trkpt lat="46.16773942" lon="6.03036409"><ele></ele><time>2016-6-18T19:33:56Z</time></trkpt>
<trkpt lat="46.16770875" lon="6.03027047"><ele></ele><time>2016-6-18T19:33:59Z</time></trkpt>
<trkpt lat="46.16767740" lon="6.03017692"><ele></ele><time>2016-6-18T19:34:2Z</time></trkpt>
<trkpt lat="46.16764588" lon="6.03008355"><ele></ele><time>2016-6-18T19:34:5Z</time></trkpt>
<trkpt lat="46.16761487" lon="6.02999026"><ele></ele><time>2016-6-18T19:34:8Z</time></trkpt>
<trkpt lat="46.16758486" lon="6.02989663"><ele></ele><time>2016-6-18T19:34:11Z</time></trkpt>
<trkpt lat="46.16755435" lon="6.02980376"><ele></ele><time>2016-6-18T19:34:14Z</time></trkpt>
<trkpt lat="46.16752342" lon="6.02971156"><ele></ele><time>2016-6-18T19:34:17Z</time></trkpt>
<trkpt lat="46.16749258" lon="6.02961953"><ele></ele><time>2016-6-18T19:34:20Z</time></trkpt>
<trkpt lat="46.16746140" lon="6.02952758"><ele></ele><time>2016-6-18T19:34:23Z</time></trkpt>
<trkpt lat="46.16743038" lon="6.02943546"><ele></ele><time>2016-6-18T19:34:26Z</time></trkpt>
<trkpt lat="46.16739904" lon="6.02934385"><ele></ele><time>2016-6-18T19:34:29Z</time></trkpt>
<trkpt lat="46.16736819" lon="6.02925257"><ele></ele><time>2016-6-18T19:34:32Z</time></trkpt>
<trkpt lat="46.16733818" lon="6.02916087"><ele></ele><time>2016-6-18T19:34:35Z</time></trkpt>
<trkpt lat="46.16730767" lon="6.02906884"><ele></ele><time>2016-6-18T19:34:38Z</time></trkpt>
<trkpt lat="46.16727674" lon="6.02897647"><ele></ele><time>2016-6-18T19:34:41Z</time></trkpt>
<trkpt lat="46.16724615" lon="6.02888376"><ele></ele><time>2016-6-18T19:34:44Z</time></trkpt>
<trkpt lat="46.16721514" lon="6.02879106"><ele></ele><time>2016-6-18T19:34:47Z</time></trkpt>
<trkpt lat="46.16718396" lon="6.02869878"><ele></ele><time>2016-6-18T19:34:50Z</time></trkpt>
<trkpt lat="46.16715278" lon="6.02860657"><ele></ele><time>2016-6-18T19:34:53Z</time></trkpt>
<trkpt lat="46.16712168" lon="6.02851404"><ele></ele><time>2016-6-18T19:34:56Z</time></trkpt>
<trkpt lat="46.16709058" lon="6.02842167"><ele></ele><time>2016-6-18T19:34:59Z</time></trkpt>
<trkpt lat="46.16705932" lon="6.02832922"><ele></ele><time>2016-6-18T19:35:2Z</time></trkpt>
<trkpt lat="46.16702805" lon="6.02823718"><ele></ele><time>2016-6-18T19:35:5Z</time></trkpt>
<trkpt lat="46.16699704" lon="6.02814490"><ele></ele><time>2016-6-18T19:35:8Z</time></trkpt>
<trkpt lat="46.16696653" lon="6.02805220"><ele></ele><time>2016-6-18T19:35:11Z</time></trkpt>
<trkpt lat="46.16693535" lon="6.02795999"><ele></ele><time>2016-6-18T19:35:14Z</time></trkpt>
<trkpt lat="46.16690367" lon="6.02786863"><ele></ele><time>2016-6-18T19:35:17Z</time></trkpt>
<trkpt lat="46.16687207" lon="6.02777794"><ele></ele><time>2016-6-18T19:35:20Z</time></trkpt>
<trkpt lat="46.16684105" lon="6.02768716"><ele></ele><time>2016-6-18T19:35:23Z</time></trkpt>
<trkpt lat="46.16680929" lon="6.02759614"><ele></ele><time>2016-6-18T19:35:26Z</time></trkpt>
<trkpt lat="46.16677727" lon="6.02750578"><ele></ele><time>2016-6-18T19:35:29Z</time></trkpt>
<trkpt lat="46.16674516" lon="6.02741643"><ele></ele><time>2016-6-18T19:35:32Z</time></trkpt>
<trkpt lat="46.16671340" lon="6.02732775"><ele></ele><time>2016-6-18T19:35:35Z</time></trkpt>
<trkpt lat="46.16668289" lon="6.02723965"><ele></ele><time>2016-6-18T19:35:38Z</time></trkpt>
<trkpt lat="46.16665305" lon="6.02715198"><ele></ele><time>2016-6-18T19:35:41Z</time></trkpt>
<trkpt lat="46.16662312" lon="6.02706489"><ele></ele><time>2016-6-18T19:35:44Z</time></trkpt>
<trkpt lat="46.16659555" lon="6.02697537"><ele></ele><time>2016-6-18T19:35:47Z</time></trkpt>
<trkpt lat="46.16656738" lon="6.02688569"><ele></ele><time>2016-6-18T19:35:50Z</time></trkpt>
<trkpt lat="46.16653847" lon="6.02679592"><ele></ele><time>2016-6-18T19:35:53Z</time></trkpt>
<trkpt lat="46.16650913" lon="6.02670657"><ele></ele><time>2016-6-18T19:35:56Z</time></trkpt>
<trkpt lat="46.16647602" lon="6.02661948"><ele></ele><time>2016-6-18T19:35:59Z</time></trkpt>
<trkpt lat="46.16644300" lon="6.02653407"><ele></ele><time>2016-6-18T19:36:2Z</time></trkpt>
<trkpt lat="46.16640779" lon="6.02645167"><ele></ele><time>2016-6-18T19:36:5Z</time></trkpt>
<trkpt lat="46.16637887" lon="6.02636953"><ele></ele><time>2016-6-18T19:36:8Z</time></trkpt>
<trkpt lat="46.16635105" lon="6.02628915"><ele></ele><time>2016-6-18T19:36:11Z</time></trkpt>
<trkpt lat="46.16632347" lon="6.02621237"><ele></ele><time>2016-6-18T19:36:14Z</time></trkpt>
<trkpt lat="46.16629656" lon="6.02613777"><ele></ele><time>2016-6-18T19:36:17Z</time></trkpt>
<trkpt lat="46.16626798" lon="6.02606334"><ele></ele><time>2016-6-18T19:36:20Z</time></trkpt>
<trkpt lat="46.16623915" lon="6.02598782"><ele></ele><time>2016-6-18T19:36:23Z</time></trkpt>
<trkpt lat="46.16621132" lon="6.02591179"><ele></ele><time>2016-6-18T19:36:26Z</time></trkpt>
<trkpt lat="46.16618450" lon="6.02583770"><ele></ele><time>2016-6-18T19:36:29Z</time></trkpt>
<trkpt lat="46.16615784" lon="6.02576352"><ele></ele><time>2016-6-18T19:36:32Z</time></trkpt>
<trkpt lat="46.16612968" lon="6.02569328"><ele></ele><time>2016-6-18T19:36:35Z</time></trkpt>
<trkpt lat="46.16610613" lon="6.02562245"><ele></ele><time>2016-6-18T19:36:38Z</time></trkpt>
<trkpt lat="46.16608232" lon="6.02555506"><ele></ele><time>2016-6-18T19:36:41Z</time></trkpt>
<trkpt lat="46.16607243" lon="6.02548474"><ele></ele><time>2016-6-18T19:36:44Z</time></trkpt>
<trkpt lat="46.16607805" lon="6.02541466"><ele></ele><time>2016-6-18T19:36:47Z</time></trkpt>
<trkpt lat="46.16608266" lon="6.02534534"><ele></ele><time>2016-6-18T19:36:50Z</time></trkpt>
<trkpt lat="46.16607729" lon="6.02527527"><ele></ele><time>2016-6-18T19:36:53Z</time></trkpt>
<trkpt lat="46.16605684" lon="6.02521014"><ele></ele><time>2016-6-18T19:36:56Z</time></trkpt>
<trkpt lat="46.16602155" lon="6.02515575"><ele></ele><time>2016-6-18T19:36:59Z</time></trkpt>
<trkpt lat="46.16597872" lon="6.02511853"><ele></ele><time>2016-6-18T19:37:2Z</time></trkpt>
<trkpt lat="46.16593354" lon="6.02509162"><ele></ele><time>2016-6-18T19:37:5Z</time></trkpt>
<trkpt lat="46.16589214" lon="6.02504879"><ele></ele><time>2016-6-18T19:37:8Z</time></trkpt>
<trkpt lat="46.16586288" lon="6.02498584"><ele></ele><time>2016-6-18T19:37:11Z</time></trkpt>
<trkpt lat="46.16583682" lon="6.02491393"><ele></ele><time>2016-6-18T19:37:14Z</time></trkpt>
<trkpt lat="46.16580907" lon="6.02484067"><ele></ele><time>2016-6-18T19:37:17Z</time></trkpt>
<trkpt lat="46.16577999" lon="6.02476724"><ele></ele><time>2016-6-18T19:37:20Z</time></trkpt>
<trkpt lat="46.16575166" lon="6.02469214"><ele></ele><time>2016-6-18T19:37:23Z</time></trkpt>
<trkpt lat="46.16572282" lon="6.02461595"><ele></ele><time>2016-6-18T19:37:26Z</time></trkpt>
<trkpt lat="46.16569365" lon="6.02453892"><ele></ele><time>2016-6-18T19:37:29Z</time></trkpt>
<trkpt lat="46.16566289" lon="6.02445879"><ele></ele><time>2016-6-18T19:37:32Z</time></trkpt>
<trkpt lat="46.16563096" lon="6.02437774"><ele></ele><time>2016-6-18T19:37:35Z</time></trkpt>
<trkpt lat="46.16559676" lon="6.02429593"><ele></ele><time>2016-6-18T19:37:38Z</time></trkpt>
<trkpt lat="46.16556357" lon="6.02421446"><ele></ele><time>2016-6-18T19:37:41Z</time></trkpt>
<trkpt lat="46.16553012" lon="6.02413139"><ele></ele><time>2016-6-18T19:37:44Z</time></trkpt>
<trkpt lat="46.16549634" lon="6.02404615"><ele></ele><time>2016-6-18T19:37:47Z</time></trkpt>
<trkpt lat="46.16546215" lon="6.02395906"><ele></ele><time>2016-6-18T19:37:50Z</time></trkpt>
<trkpt lat="46.16542778" lon="6.02387030"><ele></ele><time>2016-6-18T19:37:53Z</time></trkpt>
<trkpt lat="46.16539358" lon="6.02377734"><ele></ele><time>2016-6-18T19:37:56Z</time></trkpt>
<trkpt lat="46.16535544" lon="6.02368640"><ele></ele><time>2016-6-18T19:37:59Z</time></trkpt>
<trkpt lat="46.16531898" lon="6.02359696"><ele></ele><time>2016-6-18T19:38:2Z</time></trkpt>
<trkpt lat="46.16527942" lon="6.02350468"><ele></ele><time>2016-6-18T19:38:5Z</time></trkpt>
<trkpt lat="46.16524003" lon="6.02341047"><ele></ele><time>2016-6-18T19:38:8Z</time></trkpt>
<trkpt lat="46.16520013" lon="6.02331567"><ele></ele><time>2016-6-18T19:38:11Z</time></trkpt>
<trkpt lat="46.16515973" lon="6.02322028"><ele></ele><time>2016-6-18T19:38:14Z</time></trkpt>
<trkpt lat="46.16511849" lon="6.02312397"><ele></ele><time>2016-6-18T19:38:17Z</time></trkpt>
<trkpt lat="46.16507767" lon="6.02302683"><ele></ele><time>2016-6-18T19:38:20Z</time></trkpt>
<trkpt lat="46.16503626" lon="6.02293010"><ele></ele><time>2016-6-18T19:38:23Z</time></trkpt>
<trkpt lat="46.16499343" lon="6.02283304"><ele></ele><time>2016-6-18T19:38:26Z</time></trkpt>
<trkpt lat="46.16495135" lon="6.02273505"><ele></ele><time>2016-6-18T19:38:29Z</time></trkpt>
<trkpt lat="46.16490902" lon="6.02263615"><ele></ele><time>2016-6-18T19:38:32Z</time></trkpt>
<trkpt lat="46.16486602" lon="6.02253716"><ele></ele><time>2016-6-18T19:38:35Z</time></trkpt>
<trkpt lat="46.16482294" lon="6.02243816"><ele></ele><time>2016-6-18T19:38:38Z</time></trkpt>
<trkpt lat="46.16478019" lon="6.02233867"><ele></ele><time>2016-6-18T19:38:41Z</time></trkpt>
<trkpt lat="46.16473979" lon="6.02223893"><ele></ele><time>2016-6-18T19:38:44Z</time></trkpt>
<trkpt lat="46.16469906" lon="6.02213952"><ele></ele><time>2016-6-18T19:38:47Z</time></trkpt>
<trkpt lat="46.16465773" lon="6.02204103"><ele></ele><time>2016-6-18T19:38:50Z</time></trkpt>
<trkpt lat="46.16461666" lon="6.02194279"><ele></ele><time>2016-6-18T19:38:53Z</time></trkpt>
<trkpt lat="46.16457559" lon="6.02184489"><ele></ele><time>2016-6-18T19:38:56Z</time></trkpt>
<trkpt lat="46.16453435" lon="6.02174800"><ele></ele><time>2016-6-18T19:38:59Z</time></trkpt>
<trkpt lat="46.16449395" lon="6.02164750"><ele></ele><time>2016-6-18T19:39:2Z</time></trkpt>
<trkpt lat="46.16445565" lon="6.02154767"><ele></ele><time>2016-6-18T19:39:5Z</time></trkpt>
<trkpt lat="46.16441533" lon="6.02144969"><ele></ele><time>2016-6-18T19:39:8Z</time></trkpt>
<trkpt lat="46.16437627" lon="6.02135279"><ele></ele><time>2016-6-18T19:39:11Z</time></trkpt>
<trkpt lat="46.16433662" lon="6.02125850"><ele></ele><time>2016-6-18T19:39:14Z</time></trkpt>
<trkpt lat="46.16429815" lon="6.02116420"><ele></ele><time>2016-6-18T19:39:17Z</time></trkpt>
<trkpt lat="46.16425683" lon="6.02107468"><ele></ele><time>2016-6-18T19:39:20Z</time></trkpt>
<trkpt lat="46.16421425" lon="6.02098449"><ele></ele><time>2016-6-18T19:39:23Z</time></trkpt>
<trkpt lat="46.16417326" lon="6.02089405"><ele></ele><time>2016-6-18T19:39:26Z</time></trkpt>
<trkpt lat="46.16413345" lon="6.02080302"><ele></ele><time>2016-6-18T19:39:29Z</time></trkpt>
<trkpt lat="46.16409237" lon="6.02071233"><ele></ele><time>2016-6-18T19:39:32Z</time></trkpt>
<trkpt lat="46.16404963" lon="6.02062466"><ele></ele><time>2016-6-18T19:39:35Z</time></trkpt>
<trkpt lat="46.16400680" lon="6.02053665"><ele></ele><time>2016-6-18T19:39:38Z</time></trkpt>
<trkpt lat="46.16396656" lon="6.02044746"><ele></ele><time>2016-6-18T19:39:41Z</time></trkpt>
<trkpt lat="46.16392616" lon="6.02036079"><ele></ele><time>2016-6-18T19:39:44Z</time></trkpt>
<trkpt lat="46.16388668" lon="6.02027488"><ele></ele><time>2016-6-18T19:39:47Z</time></trkpt>
<trkpt lat="46.16385349" lon="6.02018486"><ele></ele><time>2016-6-18T19:39:50Z</time></trkpt>
<trkpt lat="46.16381787" lon="6.02009618"><ele></ele><time>2016-6-18T19:39:53Z</time></trkpt>
<trkpt lat="46.16378124" lon="6.02000842"><ele></ele><time>2016-6-18T19:39:56Z</time></trkpt>
<trkpt lat="46.16374629" lon="6.01991957"><ele></ele><time>2016-6-18T19:39:59Z</time></trkpt>
<trkpt lat="46.16370572" lon="6.01983449"><ele></ele><time>2016-6-18T19:40:2Z</time></trkpt>
<trkpt lat="46.16366666" lon="6.01975026"><ele></ele><time>2016-6-18T19:40:5Z</time></trkpt>
<trkpt lat="46.16362986" lon="6.01966677"><ele></ele><time>2016-6-18T19:40:8Z</time></trkpt>
<trkpt lat="46.16360036" lon="6.01958170"><ele></ele><time>2016-6-18T19:40:11Z</time></trkpt>
<trkpt lat="46.16356767" lon="6.01950182"><ele></ele><time>2016-6-18T19:40:14Z</time></trkpt>
<trkpt lat="46.16353230" lon="6.01942370"><ele></ele><time>2016-6-18T19:40:17Z</time></trkpt>
<trkpt lat="46.16350296" lon="6.01931959"><ele></ele><time>2016-6-18T19:40:20Z</time></trkpt>
<trkpt lat="46.16347253" lon="6.01923686"><ele></ele><time>2016-6-18T19:40:23Z</time></trkpt>
<trkpt lat="46.16344806" lon="6.01913419"><ele></ele><time>2016-6-18T19:40:26Z</time></trkpt>
<trkpt lat="46.16342149" lon="6.01905397"><ele></ele><time>2016-6-18T19:40:29Z</time></trkpt>
<trkpt lat="46.16337673" lon="6.01899848"><ele></ele><time>2016-6-18T19:40:32Z</time></trkpt>
<trkpt lat="46.16335913" lon="6.01890930"><ele></ele><time>2016-6-18T19:40:35Z</time></trkpt>
<trkpt lat="46.16333440" lon="6.01882624"><ele></ele><time>2016-6-18T19:40:38Z</time></trkpt>
<trkpt lat="46.16330733" lon="6.01874979"><ele></ele><time>2016-6-18T19:40:41Z</time></trkpt>
<trkpt lat="46.16327933" lon="6.01867528"><ele></ele><time>2016-6-18T19:40:44Z</time></trkpt>
<trkpt lat="46.16325050" lon="6.01860143"><ele></ele><time>2016-6-18T19:40:47Z</time></trkpt>
<trkpt lat="46.16322049" lon="6.01853069"><ele></ele><time>2016-6-18T19:40:50Z</time></trkpt>
<trkpt lat="46.16319249" lon="6.01845802"><ele></ele><time>2016-6-18T19:40:53Z</time></trkpt>
<trkpt lat="46.16316374" lon="6.01838912"><ele></ele><time>2016-6-18T19:40:56Z</time></trkpt>
<trkpt lat="46.16313525" lon="6.01832366"><ele></ele><time>2016-6-18T19:40:59Z</time></trkpt>
<trkpt lat="46.16310742" lon="6.01826163"><ele></ele><time>2016-6-18T19:41:2Z</time></trkpt>
<trkpt lat="46.16308169" lon="6.01820237"><ele></ele><time>2016-6-18T19:41:5Z</time></trkpt>
<trkpt lat="46.16305956" lon="6.01814613"><ele></ele><time>2016-6-18T19:41:8Z</time></trkpt>
<trkpt lat="46.16303206" lon="6.01809994"><ele></ele><time>2016-6-18T19:41:11Z</time></trkpt>
<trkpt lat="46.16301538" lon="6.01805015"><ele></ele><time>2016-6-18T19:41:14Z</time></trkpt>
<trkpt lat="46.16301186" lon="6.01799986"><ele></ele><time>2016-6-18T19:41:17Z</time></trkpt>
<trkpt lat="46.16300792" lon="6.01794966"><ele></ele><time>2016-6-18T19:41:20Z</time></trkpt>
<trkpt lat="46.16300667" lon="6.01789325"><ele></ele><time>2016-6-18T19:41:23Z</time></trkpt>
<trkpt lat="46.16299326" lon="6.01783910"><ele></ele><time>2016-6-18T19:41:26Z</time></trkpt>
<trkpt lat="46.16296316" lon="6.01780892"><ele></ele><time>2016-6-18T19:41:29Z</time></trkpt>
<trkpt lat="46.16292628" lon="6.01776525"><ele></ele><time>2016-6-18T19:41:32Z</time></trkpt>
<trkpt lat="46.16288102" lon="6.01773039"><ele></ele><time>2016-6-18T19:41:35Z</time></trkpt>
<trkpt lat="46.16284397" lon="6.01771228"><ele></ele><time>2016-6-18T19:41:38Z</time></trkpt>
<trkpt lat="46.16280399" lon="6.01769116"><ele></ele><time>2016-6-18T19:41:41Z</time></trkpt>
<trkpt lat="46.16276066" lon="6.01764824"><ele></ele><time>2016-6-18T19:41:44Z</time></trkpt>
<trkpt lat="46.16272638" lon="6.01759032"><ele></ele><time>2016-6-18T19:41:47Z</time></trkpt>
<trkpt lat="46.16269888" lon="6.01751916"><ele></ele><time>2016-6-18T19:41:50Z</time></trkpt>
<trkpt lat="46.16266854" lon="6.01744356"><ele></ele><time>2016-6-18T19:41:53Z</time></trkpt>
<trkpt lat="46.16263803" lon="6.01736460"><ele></ele><time>2016-6-18T19:41:56Z</time></trkpt>
<trkpt lat="46.16260610" lon="6.01728539"><ele></ele><time>2016-6-18T19:41:59Z</time></trkpt>
<trkpt lat="46.16257592" lon="6.01720124"><ele></ele><time>2016-6-18T19:42:2Z</time></trkpt>
<trkpt lat="46.16254558" lon="6.01711398"><ele></ele><time>2016-6-18T19:42:5Z</time></trkpt>
<trkpt lat="46.16251222" lon="6.01702723"><ele></ele><time>2016-6-18T19:42:8Z</time></trkpt>
<trkpt lat="46.16247978" lon="6.01693888"><ele></ele><time>2016-6-18T19:42:11Z</time></trkpt>
<trkpt lat="46.16244634" lon="6.01684836"><ele></ele><time>2016-6-18T19:42:14Z</time></trkpt>
<trkpt lat="46.16241029" lon="6.01675817"><ele></ele><time>2016-6-18T19:42:17Z</time></trkpt>
<trkpt lat="46.16237258" lon="6.01666840"><ele></ele><time>2016-6-18T19:42:20Z</time></trkpt>
<trkpt lat="46.16233335" lon="6.01657745"><ele></ele><time>2016-6-18T19:42:23Z</time></trkpt>
<trkpt lat="46.16229479" lon="6.01648525"><ele></ele><time>2016-6-18T19:42:26Z</time></trkpt>
<trkpt lat="46.16225556" lon="6.01639288"><ele></ele><time>2016-6-18T19:42:29Z</time></trkpt>
<trkpt lat="46.16221550" lon="6.01630052"><ele></ele><time>2016-6-18T19:42:32Z</time></trkpt>
<trkpt lat="46.16217485" lon="6.01620806"><ele></ele><time>2016-6-18T19:42:35Z</time></trkpt>
<trkpt lat="46.16213470" lon="6.01611502"><ele></ele><time>2016-6-18T19:42:38Z</time></trkpt>
<trkpt lat="46.16209463" lon="6.01602224"><ele></ele><time>2016-6-18T19:42:41Z</time></trkpt>
<trkpt lat="46.16205457" lon="6.01592978"><ele></ele><time>2016-6-18T19:42:44Z</time></trkpt>
<trkpt lat="46.16201442" lon="6.01583725"><ele></ele><time>2016-6-18T19:42:47Z</time></trkpt>
<trkpt lat="46.16197485" lon="6.01574438"><ele></ele><time>2016-6-18T19:42:50Z</time></trkpt>
<trkpt lat="46.16193496" lon="6.01565092"><ele></ele><time>2016-6-18T19:42:53Z</time></trkpt>
<trkpt lat="46.16189464" lon="6.01555813"><ele></ele><time>2016-6-18T19:42:56Z</time></trkpt>
<trkpt lat="46.16185399" lon="6.01546559"><ele></ele><time>2016-6-18T19:42:59Z</time></trkpt>
<trkpt lat="46.16181359" lon="6.01537297"><ele></ele><time>2016-6-18T19:43:2Z</time></trkpt>
<trkpt lat="46.16177352" lon="6.01528027"><ele></ele><time>2016-6-18T19:43:5Z</time></trkpt>
<trkpt lat="46.16173404" lon="6.01518723"><ele></ele><time>2016-6-18T19:43:8Z</time></trkpt>
<trkpt lat="46.16169456" lon="6.01509403"><ele></ele><time>2016-6-18T19:43:11Z</time></trkpt>
<trkpt lat="46.16165475" lon="6.01500115"><ele></ele><time>2016-6-18T19:43:14Z</time></trkpt>
<trkpt lat="46.16161477" lon="6.01490828"><ele></ele><time>2016-6-18T19:43:17Z</time></trkpt>
<trkpt lat="46.16157479" lon="6.01481499"><ele></ele><time>2016-6-18T19:43:20Z</time></trkpt>
<trkpt lat="46.16153514" lon="6.01472145"><ele></ele><time>2016-6-18T19:43:23Z</time></trkpt>
<trkpt lat="46.16149516" lon="6.01462858"><ele></ele><time>2016-6-18T19:43:26Z</time></trkpt>
<trkpt lat="46.16145467" lon="6.01453587"><ele></ele><time>2016-6-18T19:43:29Z</time></trkpt>
<trkpt lat="46.16141452" lon="6.01444275"><ele></ele><time>2016-6-18T19:43:32Z</time></trkpt>
<trkpt lat="46.16137454" lon="6.01434963"><ele></ele><time>2016-6-18T19:43:35Z</time></trkpt>
<trkpt lat="46.16133473" lon="6.01425625"><ele></ele><time>2016-6-18T19:43:38Z</time></trkpt>
<trkpt lat="46.16129500" lon="6.01416305"><ele></ele><time>2016-6-18T19:43:41Z</time></trkpt>
<trkpt lat="46.16125460" lon="6.01407009"><ele></ele><time>2016-6-18T19:43:44Z</time></trkpt>
<trkpt lat="46.16121428" lon="6.01397689"><ele></ele><time>2016-6-18T19:43:47Z</time></trkpt>
<trkpt lat="46.16117430" lon="6.01388343"><ele></ele><time>2016-6-18T19:43:50Z</time></trkpt>
<trkpt lat="46.16113423" lon="6.01378972"><ele></ele><time>2016-6-18T19:43:53Z</time></trkpt>
<trkpt lat="46.16109434" lon="6.01369618"><ele></ele><time>2016-6-18T19:43:56Z</time></trkpt>
<trkpt lat="46.16105477" lon="6.01360205"><ele></ele><time>2016-6-18T19:43:59Z</time></trkpt>
<trkpt lat="46.16101513" lon="6.01350792"><ele></ele><time>2016-6-18T19:44:2Z</time></trkpt>
<trkpt lat="46.16097489" lon="6.01341446"><ele></ele><time>2016-6-18T19:44:5Z</time></trkpt>
<trkpt lat="46.16093399" lon="6.01332167"><ele></ele><time>2016-6-18T19:44:8Z</time></trkpt>
<trkpt lat="46.16089342" lon="6.01322888"><ele></ele><time>2016-6-18T19:44:11Z</time></trkpt>
<trkpt lat="46.16085378" lon="6.01313576"><ele></ele><time>2016-6-18T19:44:14Z</time></trkpt>
<trkpt lat="46.16081438" lon="6.01304272"><ele></ele><time>2016-6-18T19:44:17Z</time></trkpt>
<trkpt lat="46.16077440" lon="6.01295052"><ele></ele><time>2016-6-18T19:44:20Z</time></trkpt>
<trkpt lat="46.16073458" lon="6.01285815"><ele></ele><time>2016-6-18T19:44:23Z</time></trkpt>
<trkpt lat="46.16069485" lon="6.01276570"><ele></ele><time>2016-6-18T19:44:26Z</time></trkpt>
<trkpt lat="46.16065479" lon="6.01267350"><ele></ele><time>2016-6-18T19:44:29Z</time></trkpt>
<trkpt lat="46.16061497" lon="6.01258105"><ele></ele><time>2016-6-18T19:44:32Z</time></trkpt>
<trkpt lat="46.16057550" lon="6.01248809"><ele></ele><time>2016-6-18T19:44:35Z</time></trkpt>
<trkpt lat="46.16053568" lon="6.01239514"><ele></ele><time>2016-6-18T19:44:38Z</time></trkpt>
<trkpt lat="46.16049143" lon="6.01230662"><ele></ele><time>2016-6-18T19:44:41Z</time></trkpt>
<trkpt lat="46.16044910" lon="6.01221560"><ele></ele><time>2016-6-18T19:44:44Z</time></trkpt>
<trkpt lat="46.16041004" lon="6.01212105"><ele></ele><time>2016-6-18T19:44:47Z</time></trkpt>
<trkpt lat="46.16037064" lon="6.01202658"><ele></ele><time>2016-6-18T19:44:50Z</time></trkpt>
<trkpt lat="46.16033183" lon="6.01193145"><ele></ele><time>2016-6-18T19:44:53Z</time></trkpt>
<trkpt lat="46.16029236" lon="6.01183598"><ele></ele><time>2016-6-18T19:44:56Z</time></trkpt>
<trkpt lat="46.16025154" lon="6.01174076"><ele></ele><time>2016-6-18T19:44:59Z</time></trkpt>
<trkpt lat="46.16021105" lon="6.01164529"><ele></ele><time>2016-6-18T19:45:2Z</time></trkpt>
<trkpt lat="46.16017132" lon="6.01154957"><ele></ele><time>2016-6-18T19:45:5Z</time></trkpt>
<trkpt lat="46.16013234" lon="6.01145418"><ele></ele><time>2016-6-18T19:45:8Z</time></trkpt>
<trkpt lat="46.16009203" lon="6.01135897"><ele></ele><time>2016-6-18T19:45:11Z</time></trkpt>
<trkpt lat="46.16005079" lon="6.01126383"><ele></ele><time>2016-6-18T19:45:14Z</time></trkpt>
<trkpt lat="46.16000930" lon="6.01116836"><ele></ele><time>2016-6-18T19:45:17Z</time></trkpt>
<trkpt lat="46.15996789" lon="6.01107264"><ele></ele><time>2016-6-18T19:45:20Z</time></trkpt>
<trkpt lat="46.15992540" lon="6.01097683"><ele></ele><time>2016-6-18T19:45:23Z</time></trkpt>
<trkpt lat="46.15988256" lon="6.01088053"><ele></ele><time>2016-6-18T19:45:26Z</time></trkpt>
<trkpt lat="46.15984049" lon="6.01078296"><ele></ele><time>2016-6-18T19:45:29Z</time></trkpt>
<trkpt lat="46.15979925" lon="6.01068456"><ele></ele><time>2016-6-18T19:45:32Z</time></trkpt>
<trkpt lat="46.15975793" lon="6.01058607"><ele></ele><time>2016-6-18T19:45:35Z</time></trkpt>
<trkpt lat="46.15971669" lon="6.01048716"><ele></ele><time>2016-6-18T19:45:38Z</time></trkpt>
<trkpt lat="46.15967486" lon="6.01038817"><ele></ele><time>2016-6-18T19:45:41Z</time></trkpt>
<trkpt lat="46.15963303" lon="6.01028885"><ele></ele><time>2016-6-18T19:45:44Z</time></trkpt>
<trkpt lat="46.15959138" lon="6.01018919"><ele></ele><time>2016-6-18T19:45:47Z</time></trkpt>
<trkpt lat="46.15954955" lon="6.01008953"><ele></ele><time>2016-6-18T19:45:50Z</time></trkpt>
<trkpt lat="46.15950773" lon="6.00999012"><ele></ele><time>2016-6-18T19:45:53Z</time></trkpt>
<trkpt lat="46.15946548" lon="6.00989079"><ele></ele><time>2016-6-18T19:45:56Z</time></trkpt>
<trkpt lat="46.15942273" lon="6.00979147"><ele></ele><time>2016-6-18T19:45:59Z</time></trkpt>
<trkpt lat="46.15938057" lon="6.00969256"><ele></ele><time>2016-6-18T19:46:2Z</time></trkpt>
<trkpt lat="46.15933833" lon="6.00959432"><ele></ele><time>2016-6-18T19:46:5Z</time></trkpt>
<trkpt lat="46.15929558" lon="6.00949709"><ele></ele><time>2016-6-18T19:46:8Z</time></trkpt>
<trkpt lat="46.15925258" lon="6.00939995"><ele></ele><time>2016-6-18T19:46:11Z</time></trkpt>
<trkpt lat="46.15921008" lon="6.00930205"><ele></ele><time>2016-6-18T19:46:14Z</time></trkpt>
<trkpt lat="46.15916809" lon="6.00920364"><ele></ele><time>2016-6-18T19:46:17Z</time></trkpt>
<trkpt lat="46.15912677" lon="6.00910499"><ele></ele><time>2016-6-18T19:46:20Z</time></trkpt>
<trkpt lat="46.15908519" lon="6.00900667"><ele></ele><time>2016-6-18T19:46:23Z</time></trkpt>
<trkpt lat="46.15904295" lon="6.00890893"><ele></ele><time>2016-6-18T19:46:26Z</time></trkpt>
<trkpt lat="46.15900079" lon="6.00881078"><ele></ele><time>2016-6-18T19:46:29Z</time></trkpt>
<trkpt lat="46.15895879" lon="6.00871204"><ele></ele><time>2016-6-18T19:46:32Z</time></trkpt>
<trkpt lat="46.15891689" lon="6.00861297"><ele></ele><time>2016-6-18T19:46:35Z</time></trkpt>
<trkpt lat="46.15887447" lon="6.00851406"><ele></ele><time>2016-6-18T19:46:38Z</time></trkpt>
<trkpt lat="46.15883147" lon="6.00841558"><ele></ele><time>2016-6-18T19:46:41Z</time></trkpt>
<trkpt lat="46.15878847" lon="6.00831734"><ele></ele><time>2016-6-18T19:46:44Z</time></trkpt>
<trkpt lat="46.15874623" lon="6.00821843"><ele></ele><time>2016-6-18T19:46:47Z</time></trkpt>
<trkpt lat="46.15870415" lon="6.00811919"><ele></ele><time>2016-6-18T19:46:50Z</time></trkpt>
<trkpt lat="46.15866182" lon="6.00802003"><ele></ele><time>2016-6-18T19:46:53Z</time></trkpt>
<trkpt lat="46.15861924" lon="6.00792138"><ele></ele><time>2016-6-18T19:46:56Z</time></trkpt>
<trkpt lat="46.15857666" lon="6.00782306"><ele></ele><time>2016-6-18T19:46:59Z</time></trkpt>
<trkpt lat="46.15853459" lon="6.00772424"><ele></ele><time>2016-6-18T19:47:2Z</time></trkpt>
<trkpt lat="46.15849226" lon="6.00762550"><ele></ele><time>2016-6-18T19:47:5Z</time></trkpt>
<trkpt lat="46.15844943" lon="6.00752676"><ele></ele><time>2016-6-18T19:47:8Z</time></trkpt>
<trkpt lat="46.15840718" lon="6.00742768"><ele></ele><time>2016-6-18T19:47:11Z</time></trkpt>
<trkpt lat="46.15836494" lon="6.00732853"><ele></ele><time>2016-6-18T19:47:14Z</time></trkpt>
<trkpt lat="46.15832227" lon="6.00722954"><ele></ele><time>2016-6-18T19:47:17Z</time></trkpt>
<trkpt lat="46.15827978" lon="6.00713097"><ele></ele><time>2016-6-18T19:47:20Z</time></trkpt>
<trkpt lat="46.15823686" lon="6.00703298"><ele></ele><time>2016-6-18T19:47:23Z</time></trkpt>
<trkpt lat="46.15819428" lon="6.00693475"><ele></ele><time>2016-6-18T19:47:26Z</time></trkpt>
<trkpt lat="46.15815212" lon="6.00683584"><ele></ele><time>2016-6-18T19:47:29Z</time></trkpt>
<trkpt lat="46.15811038" lon="6.00673609"><ele></ele><time>2016-6-18T19:47:32Z</time></trkpt>
<trkpt lat="46.15806864" lon="6.00663635"><ele></ele><time>2016-6-18T19:47:35Z</time></trkpt>
<trkpt lat="46.15802614" lon="6.00653744"><ele></ele><time>2016-6-18T19:47:38Z</time></trkpt>
<trkpt lat="46.15798373" lon="6.00643862"><ele></ele><time>2016-6-18T19:47:41Z</time></trkpt>
<trkpt lat="46.15794140" lon="6.00633946"><ele></ele><time>2016-6-18T19:47:44Z</time></trkpt>
<trkpt lat="46.15790016" lon="6.00623913"><ele></ele><time>2016-6-18T19:47:47Z</time></trkpt>
<trkpt lat="46.15785917" lon="6.00613788"><ele></ele><time>2016-6-18T19:47:50Z</time></trkpt>
<trkpt lat="46.15781844" lon="6.00603595"><ele></ele><time>2016-6-18T19:47:53Z</time></trkpt>
<trkpt lat="46.15777778" lon="6.00593453"><ele></ele><time>2016-6-18T19:47:56Z</time></trkpt>
<trkpt lat="46.15773655" lon="6.00583395"><ele></ele><time>2016-6-18T19:47:59Z</time></trkpt>
<trkpt lat="46.15769556" lon="6.00573353"><ele></ele><time>2016-6-18T19:48:2Z</time></trkpt>
<trkpt lat="46.15765365" lon="6.00563387"><ele></ele><time>2016-6-18T19:48:5Z</time></trkpt>
<trkpt lat="46.15761166" lon="6.00553405"><ele></ele><time>2016-6-18T19:48:8Z</time></trkpt>
<trkpt lat="46.15756899" lon="6.00543539"><ele></ele><time>2016-6-18T19:48:11Z</time></trkpt>
<trkpt lat="46.15752742" lon="6.00533615"><ele></ele><time>2016-6-18T19:48:14Z</time></trkpt>
<trkpt lat="46.15748115" lon="6.00524152"><ele></ele><time>2016-6-18T19:48:17Z</time></trkpt>
<trkpt lat="46.15743899" lon="6.00514303"><ele></ele><time>2016-6-18T19:48:20Z</time></trkpt>
<trkpt lat="46.15739029" lon="6.00505066"><ele></ele><time>2016-6-18T19:48:23Z</time></trkpt>
<trkpt lat="46.15734260" lon="6.00495678"><ele></ele><time>2016-6-18T19:48:26Z</time></trkpt>
<trkpt lat="46.15730052" lon="6.00485704"><ele></ele><time>2016-6-18T19:48:29Z</time></trkpt>
<trkpt lat="46.15725526" lon="6.00475755"><ele></ele><time>2016-6-18T19:48:32Z</time></trkpt>
<trkpt lat="46.15721175" lon="6.00465998"><ele></ele><time>2016-6-18T19:48:35Z</time></trkpt>
<trkpt lat="46.15716842" lon="6.00456200"><ele></ele><time>2016-6-18T19:48:38Z</time></trkpt>
<trkpt lat="46.15712542" lon="6.00446334"><ele></ele><time>2016-6-18T19:48:41Z</time></trkpt>
<trkpt lat="46.15708267" lon="6.00436443"><ele></ele><time>2016-6-18T19:48:44Z</time></trkpt>
<trkpt lat="46.15704076" lon="6.00426519"><ele></ele><time>2016-6-18T19:48:47Z</time></trkpt>
<trkpt lat="46.15700087" lon="6.00416352"><ele></ele><time>2016-6-18T19:48:50Z</time></trkpt>
<trkpt lat="46.15696088" lon="6.00406193"><ele></ele><time>2016-6-18T19:48:53Z</time></trkpt>
<trkpt lat="46.15691990" lon="6.00396185"><ele></ele><time>2016-6-18T19:48:56Z</time></trkpt>
<trkpt lat="46.15687774" lon="6.00386378"><ele></ele><time>2016-6-18T19:48:59Z</time></trkpt>
<trkpt lat="46.15683650" lon="6.00376530"><ele></ele><time>2016-6-18T19:49:2Z</time></trkpt>
<trkpt lat="46.15679509" lon="6.00366740"><ele></ele><time>2016-6-18T19:49:5Z</time></trkpt>
<trkpt lat="46.15675393" lon="6.00357084"><ele></ele><time>2016-6-18T19:49:8Z</time></trkpt>
<trkpt lat="46.15671596" lon="6.00347369"><ele></ele><time>2016-6-18T19:49:11Z</time></trkpt>
<trkpt lat="46.15667883" lon="6.00337814"><ele></ele><time>2016-6-18T19:49:14Z</time></trkpt>
<trkpt lat="46.15664195" lon="6.00328526"><ele></ele><time>2016-6-18T19:49:17Z</time></trkpt>
<trkpt lat="46.15660633" lon="6.00319524"><ele></ele><time>2016-6-18T19:49:20Z</time></trkpt>
<trkpt lat="46.15657515" lon="6.00310539"><ele></ele><time>2016-6-18T19:49:23Z</time></trkpt>
<trkpt lat="46.15654523" lon="6.00301704"><ele></ele><time>2016-6-18T19:49:26Z</time></trkpt>
<trkpt lat="46.15651572" lon="6.00293012"><ele></ele><time>2016-6-18T19:49:29Z</time></trkpt>
<trkpt lat="46.15648949" lon="6.00284119"><ele></ele><time>2016-6-18T19:49:32Z</time></trkpt>
<trkpt lat="46.15645705" lon="6.00275536"><ele></ele><time>2016-6-18T19:49:35Z</time></trkpt>
<trkpt lat="46.15641522" lon="6.00267230"><ele></ele><time>2016-6-18T19:49:38Z</time></trkpt>
<trkpt lat="46.15637214" lon="6.00258764"><ele></ele><time>2016-6-18T19:49:41Z</time></trkpt>
<trkpt lat="46.15633434" lon="6.00249678"><ele></ele><time>2016-6-18T19:49:44Z</time></trkpt>
<trkpt lat="46.15629402" lon="6.00240525"><ele></ele><time>2016-6-18T19:49:47Z</time></trkpt>
<trkpt lat="46.15625714" lon="6.00230835"><ele></ele><time>2016-6-18T19:49:50Z</time></trkpt>
<trkpt lat="46.15621439" lon="6.00221314"><ele></ele><time>2016-6-18T19:49:53Z</time></trkpt>
<trkpt lat="46.15616888" lon="6.00211825"><ele></ele><time>2016-6-18T19:49:56Z</time></trkpt>
<trkpt lat="46.15612789" lon="6.00201717"><ele></ele><time>2016-6-18T19:49:59Z</time></trkpt>
<trkpt lat="46.15608707" lon="6.00191533"><ele></ele><time>2016-6-18T19:50:2Z</time></trkpt>
<trkpt lat="46.15604717" lon="6.00181189"><ele></ele><time>2016-6-18T19:50:5Z</time></trkpt>
<trkpt lat="46.15600828" lon="6.00170712"><ele></ele><time>2016-6-18T19:50:8Z</time></trkpt>
<trkpt lat="46.15596914" lon="6.00160142"><ele></ele><time>2016-6-18T19:50:11Z</time></trkpt>
<trkpt lat="46.15593008" lon="6.00149497"><ele></ele><time>2016-6-18T19:50:14Z</time></trkpt>
<trkpt lat="46.15589010" lon="6.00138878"><ele></ele><time>2016-6-18T19:50:17Z</time></trkpt>
<trkpt lat="46.15584416" lon="6.00128719"><ele></ele><time>2016-6-18T19:50:20Z</time></trkpt>
<trkpt lat="46.15579907" lon="6.00118384"><ele></ele><time>2016-6-18T19:50:23Z</time></trkpt>
<trkpt lat="46.15575490" lon="6.00107890"><ele></ele><time>2016-6-18T19:50:26Z</time></trkpt>
<trkpt lat="46.15571156" lon="6.00097236"><ele></ele><time>2016-6-18T19:50:29Z</time></trkpt>
<trkpt lat="46.15566814" lon="6.00086616"><ele></ele><time>2016-6-18T19:50:32Z</time></trkpt>
<trkpt lat="46.15562749" lon="6.00075804"><ele></ele><time>2016-6-18T19:50:35Z</time></trkpt>
<trkpt lat="46.15558608" lon="6.00065092"><ele></ele><time>2016-6-18T19:50:38Z</time></trkpt>
<trkpt lat="46.15554996" lon="6.00053969"><ele></ele><time>2016-6-18T19:50:41Z</time></trkpt>
<trkpt lat="46.15551333" lon="6.00042854"><ele></ele><time>2016-6-18T19:50:44Z</time></trkpt>
<trkpt lat="46.15547268" lon="6.00032075"><ele></ele><time>2016-6-18T19:50:47Z</time></trkpt>
<trkpt lat="46.15543320" lon="6.00021179"><ele></ele><time>2016-6-18T19:50:50Z</time></trkpt>
<trkpt lat="46.15539447" lon="6.00010182"><ele></ele><time>2016-6-18T19:50:53Z</time></trkpt>
<trkpt lat="46.15536162" lon="5.99998732"><ele></ele><time>2016-6-18T19:50:56Z</time></trkpt>
<trkpt lat="46.15532842" lon="5.99987333"><ele></ele><time>2016-6-18T19:50:59Z</time></trkpt>
<trkpt lat="46.15529414" lon="5.99975975"><ele></ele><time>2016-6-18T19:51:2Z</time></trkpt>
<trkpt lat="46.15525877" lon="5.99964693"><ele></ele><time>2016-6-18T19:51:5Z</time></trkpt>
<trkpt lat="46.15521829" lon="5.99953654"><ele></ele><time>2016-6-18T19:51:8Z</time></trkpt>
<trkpt lat="46.15518099" lon="5.99942347"><ele></ele><time>2016-6-18T19:51:11Z</time></trkpt>
<trkpt lat="46.15514838" lon="5.99930638"><ele></ele><time>2016-6-18T19:51:14Z</time></trkpt>
<trkpt lat="46.15511678" lon="5.99918827"><ele></ele><time>2016-6-18T19:51:17Z</time></trkpt>
<trkpt lat="46.15508283" lon="5.99907135"><ele></ele><time>2016-6-18T19:51:20Z</time></trkpt>
<trkpt lat="46.15504763" lon="5.99895568"><ele></ele><time>2016-6-18T19:51:23Z</time></trkpt>
<trkpt lat="46.15501234" lon="5.99884017"><ele></ele><time>2016-6-18T19:51:26Z</time></trkpt>
<trkpt lat="46.15497789" lon="5.99872442"><ele></ele><time>2016-6-18T19:51:29Z</time></trkpt>
<trkpt lat="46.15494386" lon="5.99860816"><ele></ele><time>2016-6-18T19:51:32Z</time></trkpt>
<trkpt lat="46.15490958" lon="5.99849207"><ele></ele><time>2016-6-18T19:51:35Z</time></trkpt>
<trkpt lat="46.15487530" lon="5.99837808"><ele></ele><time>2016-6-18T19:51:38Z</time></trkpt>
<trkpt lat="46.15484320" lon="5.99826459"><ele></ele><time>2016-6-18T19:51:41Z</time></trkpt>
<trkpt lat="46.15481126" lon="5.99815118"><ele></ele><time>2016-6-18T19:51:44Z</time></trkpt>
<trkpt lat="46.15478083" lon="5.99803652"><ele></ele><time>2016-6-18T19:51:47Z</time></trkpt>
<trkpt lat="46.15475049" lon="5.99792076"><ele></ele><time>2016-6-18T19:51:50Z</time></trkpt>
<trkpt lat="46.15471906" lon="5.99780476"><ele></ele><time>2016-6-18T19:51:53Z</time></trkpt>
<trkpt lat="46.15468419" lon="5.99769060"><ele></ele><time>2016-6-18T19:51:56Z</time></trkpt>
<trkpt lat="46.15465050" lon="5.99757493"><ele></ele><time>2016-6-18T19:51:59Z</time></trkpt>
<trkpt lat="46.15462015" lon="5.99745724"><ele></ele><time>2016-6-18T19:52:2Z</time></trkpt>
<trkpt lat="46.15459526" lon="5.99733646"><ele></ele><time>2016-6-18T19:52:5Z</time></trkpt>
<trkpt lat="46.15457539" lon="5.99721350"><ele></ele><time>2016-6-18T19:52:8Z</time></trkpt>
<trkpt lat="46.15455989" lon="5.99708878"><ele></ele><time>2016-6-18T19:52:11Z</time></trkpt>
<trkpt lat="46.15454857" lon="5.99696238"><ele></ele><time>2016-6-18T19:52:14Z</time></trkpt>
<trkpt lat="46.15454212" lon="5.99683405"><ele></ele><time>2016-6-18T19:52:17Z</time></trkpt>
<trkpt lat="46.15454136" lon="5.99670438"><ele></ele><time>2016-6-18T19:52:20Z</time></trkpt>
<trkpt lat="46.15455067" lon="5.99657362"><ele></ele><time>2016-6-18T19:52:23Z</time></trkpt>
<trkpt lat="46.15456525" lon="5.99644152"><ele></ele><time>2016-6-18T19:52:26Z</time></trkpt>
<trkpt lat="46.15458369" lon="5.99630792"><ele></ele><time>2016-6-18T19:52:29Z</time></trkpt>
<trkpt lat="46.15460398" lon="5.99617213"><ele></ele><time>2016-6-18T19:52:32Z</time></trkpt>
<trkpt lat="46.15462669" lon="5.99603408"><ele></ele><time>2016-6-18T19:52:35Z</time></trkpt>
<trkpt lat="46.15465234" lon="5.99589569"><ele></ele><time>2016-6-18T19:52:38Z</time></trkpt>
<trkpt lat="46.15467992" lon="5.99575614"><ele></ele><time>2016-6-18T19:52:41Z</time></trkpt>
<trkpt lat="46.15470850" lon="5.99561457"><ele></ele><time>2016-6-18T19:52:44Z</time></trkpt>
<trkpt lat="46.15473666" lon="5.99547015"><ele></ele><time>2016-6-18T19:52:47Z</time></trkpt>
<trkpt lat="46.15476382" lon="5.99532313"><ele></ele><time>2016-6-18T19:52:50Z</time></trkpt>
<trkpt lat="46.15478846" lon="5.99517292"><ele></ele><time>2016-6-18T19:52:53Z</time></trkpt>
<trkpt lat="46.15481445" lon="5.99502079"><ele></ele><time>2016-6-18T19:52:56Z</time></trkpt>
<trkpt lat="46.15484605" lon="5.99487537"><ele></ele><time>2016-6-18T19:52:59Z</time></trkpt>
<trkpt lat="46.15487547" lon="5.99472483"><ele></ele><time>2016-6-18T19:53:2Z</time></trkpt>
<trkpt lat="46.15490656" lon="5.99457454"><ele></ele><time>2016-6-18T19:53:5Z</time></trkpt>
<trkpt lat="46.15493867" lon="5.99442350"><ele></ele><time>2016-6-18T19:53:8Z</time></trkpt>
<trkpt lat="46.15496960" lon="5.99426969"><ele></ele><time>2016-6-18T19:53:11Z</time></trkpt>
<trkpt lat="46.15499885" lon="5.99411337"><ele></ele><time>2016-6-18T19:53:14Z</time></trkpt>
<trkpt lat="46.15502852" lon="5.99395562"><ele></ele><time>2016-6-18T19:53:17Z</time></trkpt>
<trkpt lat="46.15506012" lon="5.99379846"><ele></ele><time>2016-6-18T19:53:20Z</time></trkpt>
<trkpt lat="46.15509423" lon="5.99364272"><ele></ele><time>2016-6-18T19:53:23Z</time></trkpt>
<trkpt lat="46.15513489" lon="5.99348883"><ele></ele><time>2016-6-18T19:53:26Z</time></trkpt>
<trkpt lat="46.15518535" lon="5.99334056"><ele></ele><time>2016-6-18T19:53:29Z</time></trkpt>
<trkpt lat="46.15524578" lon="5.99319957"><ele></ele><time>2016-6-18T19:53:32Z</time></trkpt>
<trkpt lat="46.15531476" lon="5.99306529"><ele></ele><time>2016-6-18T19:53:35Z</time></trkpt>
<trkpt lat="46.15539104" lon="5.99293739"><ele></ele><time>2016-6-18T19:53:38Z</time></trkpt>
<trkpt lat="46.15547293" lon="5.99281576"><ele></ele><time>2016-6-18T19:53:41Z</time></trkpt>
<trkpt lat="46.15555683" lon="5.99269657"><ele></ele><time>2016-6-18T19:53:44Z</time></trkpt>
<trkpt lat="46.15564166" lon="5.99257797"><ele></ele><time>2016-6-18T19:53:47Z</time></trkpt>
<trkpt lat="46.15572489" lon="5.99245652"><ele></ele><time>2016-6-18T19:53:50Z</time></trkpt>
<trkpt lat="46.15580846" lon="5.99233624"><ele></ele><time>2016-6-18T19:53:53Z</time></trkpt>
<trkpt lat="46.15589085" lon="5.99221554"><ele></ele><time>2016-6-18T19:53:56Z</time></trkpt>
<trkpt lat="46.15597375" lon="5.99209576"><ele></ele><time>2016-6-18T19:53:59Z</time></trkpt>
<trkpt lat="46.15605706" lon="5.99197682"><ele></ele><time>2016-6-18T19:54:2Z</time></trkpt>
<trkpt lat="46.15613912" lon="5.99185587"><ele></ele><time>2016-6-18T19:54:5Z</time></trkpt>
<trkpt lat="46.15621707" lon="5.99172905"><ele></ele><time>2016-6-18T19:54:8Z</time></trkpt>
<trkpt lat="46.15629075" lon="5.99159628"><ele></ele><time>2016-6-18T19:54:11Z</time></trkpt>
<trkpt lat="46.15635856" lon="5.99145798"><ele></ele><time>2016-6-18T19:54:14Z</time></trkpt>
<trkpt lat="46.15642000" lon="5.99131289"><ele></ele><time>2016-6-18T19:54:17Z</time></trkpt>
<trkpt lat="46.15647473" lon="5.99116143"><ele></ele><time>2016-6-18T19:54:20Z</time></trkpt>
<trkpt lat="46.15652427" lon="5.99100444"><ele></ele><time>2016-6-18T19:54:23Z</time></trkpt>
<trkpt lat="46.15656668" lon="5.99084359"><ele></ele><time>2016-6-18T19:54:26Z</time></trkpt>
<trkpt lat="46.15660097" lon="5.99067813"><ele></ele><time>2016-6-18T19:54:29Z</time></trkpt>
<trkpt lat="46.15662712" lon="5.99051074"><ele></ele><time>2016-6-18T19:54:32Z</time></trkpt>
<trkpt lat="46.15664690" lon="5.99034277"><ele></ele><time>2016-6-18T19:54:35Z</time></trkpt>
<trkpt lat="46.15666014" lon="5.99017094"><ele></ele><time>2016-6-18T19:54:38Z</time></trkpt>
<trkpt lat="46.15666676" lon="5.98999819"><ele></ele><time>2016-6-18T19:54:41Z</time></trkpt>
<trkpt lat="46.15666743" lon="5.98982502"><ele></ele><time>2016-6-18T19:54:44Z</time></trkpt>
<trkpt lat="46.15666442" lon="5.98965277"><ele></ele><time>2016-6-18T19:54:47Z</time></trkpt>
<trkpt lat="46.15666048" lon="5.98948094"><ele></ele><time>2016-6-18T19:54:50Z</time></trkpt>
<trkpt lat="46.15665654" lon="5.98930777"><ele></ele><time>2016-6-18T19:54:53Z</time></trkpt>
<trkpt lat="46.15665184" lon="5.98913527"><ele></ele><time>2016-6-18T19:54:56Z</time></trkpt>
<trkpt lat="46.15664765" lon="5.98896319"><ele></ele><time>2016-6-18T19:54:59Z</time></trkpt>
<trkpt lat="46.15664413" lon="5.98879178"><ele></ele><time>2016-6-18T19:55:2Z</time></trkpt>
<trkpt lat="46.15663826" lon="5.98862004"><ele></ele><time>2016-6-18T19:55:5Z</time></trkpt>
<trkpt lat="46.15663273" lon="5.98844712"><ele></ele><time>2016-6-18T19:55:8Z</time></trkpt>
<trkpt lat="46.15662913" lon="5.98827302"><ele></ele><time>2016-6-18T19:55:11Z</time></trkpt>
<trkpt lat="46.15662544" lon="5.98810002"><ele></ele><time>2016-6-18T19:55:14Z</time></trkpt>
<trkpt lat="46.15662234" lon="5.98792794"><ele></ele><time>2016-6-18T19:55:17Z</time></trkpt>
<trkpt lat="46.15661982" lon="5.98775536"><ele></ele><time>2016-6-18T19:55:20Z</time></trkpt>
<trkpt lat="46.15661588" lon="5.98758294"><ele></ele><time>2016-6-18T19:55:23Z</time></trkpt>
<trkpt lat="46.15661136" lon="5.98741036"><ele></ele><time>2016-6-18T19:55:26Z</time></trkpt>
<trkpt lat="46.15660784" lon="5.98723744"><ele></ele><time>2016-6-18T19:55:29Z</time></trkpt>
<trkpt lat="46.15660465" lon="5.98706427"><ele></ele><time>2016-6-18T19:55:32Z</time></trkpt>
<trkpt lat="46.15660105" lon="5.98689169"><ele></ele><time>2016-6-18T19:55:35Z</time></trkpt>
<trkpt lat="46.15659736" lon="5.98671969"><ele></ele><time>2016-6-18T19:55:38Z</time></trkpt>
<trkpt lat="46.15659359" lon="5.98654753"><ele></ele><time>2016-6-18T19:55:41Z</time></trkpt>
<trkpt lat="46.15658982" lon="5.98637528"><ele></ele><time>2016-6-18T19:55:44Z</time></trkpt>
<trkpt lat="46.15658747" lon="5.98620295"><ele></ele><time>2016-6-18T19:55:47Z</time></trkpt>
<trkpt lat="46.15658546" lon="5.98603053"><ele></ele><time>2016-6-18T19:55:50Z</time></trkpt>
<trkpt lat="46.15658294" lon="5.98585837"><ele></ele><time>2016-6-18T19:55:53Z</time></trkpt>
<trkpt lat="46.15657993" lon="5.98568654"><ele></ele><time>2016-6-18T19:55:56Z</time></trkpt>
<trkpt lat="46.15657683" lon="5.98551538"><ele></ele><time>2016-6-18T19:55:59Z</time></trkpt>
<trkpt lat="46.15657364" lon="5.98534489"><ele></ele><time>2016-6-18T19:56:2Z</time></trkpt>
<trkpt lat="46.15657054" lon="5.98517457"><ele></ele><time>2016-6-18T19:56:5Z</time></trkpt>
<trkpt lat="46.15656844" lon="5.98500459"><ele></ele><time>2016-6-18T19:56:8Z</time></trkpt>
<trkpt lat="46.15656593" lon="5.98483519"><ele></ele><time>2016-6-18T19:56:11Z</time></trkpt>
<trkpt lat="46.15656224" lon="5.98466679"><ele></ele><time>2016-6-18T19:56:14Z</time></trkpt>
<trkpt lat="46.15655889" lon="5.98449924"><ele></ele><time>2016-6-18T19:56:17Z</time></trkpt>
<trkpt lat="46.15655562" lon="5.98433236"><ele></ele><time>2016-6-18T19:56:20Z</time></trkpt>
<trkpt lat="46.15655285" lon="5.98416606"><ele></ele><time>2016-6-18T19:56:23Z</time></trkpt>
<trkpt lat="46.15654933" lon="5.98399934"><ele></ele><time>2016-6-18T19:56:26Z</time></trkpt>
<trkpt lat="46.15654556" lon="5.98383204"><ele></ele><time>2016-6-18T19:56:29Z</time></trkpt>
<trkpt lat="46.15654212" lon="5.98366465"><ele></ele><time>2016-6-18T19:56:32Z</time></trkpt>
<trkpt lat="46.15653777" lon="5.98349802"><ele></ele><time>2016-6-18T19:56:35Z</time></trkpt>
<trkpt lat="46.15653274" lon="5.98333248"><ele></ele><time>2016-6-18T19:56:38Z</time></trkpt>
<trkpt lat="46.15652394" lon="5.98316769"><ele></ele><time>2016-6-18T19:56:41Z</time></trkpt>
<trkpt lat="46.15650885" lon="5.98300324"><ele></ele><time>2016-6-18T19:56:44Z</time></trkpt>
<trkpt lat="46.15648245" lon="5.98284314"><ele></ele><time>2016-6-18T19:56:47Z</time></trkpt>
<trkpt lat="46.15644674" lon="5.98268632"><ele></ele><time>2016-6-18T19:56:50Z</time></trkpt>
<trkpt lat="46.15640424" lon="5.98253142"><ele></ele><time>2016-6-18T19:56:53Z</time></trkpt>
<trkpt lat="46.15635873" lon="5.98237912"><ele></ele><time>2016-6-18T19:56:56Z</time></trkpt>
<trkpt lat="46.15630466" lon="5.98223294"><ele></ele><time>2016-6-18T19:56:59Z</time></trkpt>
<trkpt lat="46.15624482" lon="5.98209439"><ele></ele><time>2016-6-18T19:57:2Z</time></trkpt>
<trkpt lat="46.15617718" lon="5.98195709"><ele></ele><time>2016-6-18T19:57:5Z</time></trkpt>
<trkpt lat="46.15610870" lon="5.98181837"><ele></ele><time>2016-6-18T19:57:8Z</time></trkpt>
<trkpt lat="46.15604013" lon="5.98167772"><ele></ele><time>2016-6-18T19:57:11Z</time></trkpt>
<trkpt lat="46.15597316" lon="5.98153875"><ele></ele><time>2016-6-18T19:57:14Z</time></trkpt>
<trkpt lat="46.15590543" lon="5.98139877"><ele></ele><time>2016-6-18T19:57:17Z</time></trkpt>
<trkpt lat="46.15583704" lon="5.98125829"><ele></ele><time>2016-6-18T19:57:20Z</time></trkpt>
<trkpt lat="46.15576755" lon="5.98111756"><ele></ele><time>2016-6-18T19:57:23Z</time></trkpt>
<trkpt lat="46.15569773" lon="5.98097683"><ele></ele><time>2016-6-18T19:57:26Z</time></trkpt>
<trkpt lat="46.15562833" lon="5.98083568"><ele></ele><time>2016-6-18T19:57:29Z</time></trkpt>
<trkpt lat="46.15555826" lon="5.98069277"><ele></ele><time>2016-6-18T19:57:32Z</time></trkpt>
<trkpt lat="46.15548810" lon="5.98054994"><ele></ele><time>2016-6-18T19:57:35Z</time></trkpt>
<trkpt lat="46.15541677" lon="5.98040854"><ele></ele><time>2016-6-18T19:57:38Z</time></trkpt>
<trkpt lat="46.15534418" lon="5.98026772"><ele></ele><time>2016-6-18T19:57:41Z</time></trkpt>
<trkpt lat="46.15527084" lon="5.98012699"><ele></ele><time>2016-6-18T19:57:44Z</time></trkpt>
<trkpt lat="46.15519817" lon="5.97998500"><ele></ele><time>2016-6-18T19:57:47Z</time></trkpt>
<trkpt lat="46.15512592" lon="5.97984360"><ele></ele><time>2016-6-18T19:57:50Z</time></trkpt>
<trkpt lat="46.15505124" lon="5.97970513"><ele></ele><time>2016-6-18T19:57:53Z</time></trkpt>
<trkpt lat="46.15497194" lon="5.97957127"><ele></ele><time>2016-6-18T19:57:56Z</time></trkpt>
<trkpt lat="46.15488854" lon="5.97944143"><ele></ele><time>2016-6-18T19:57:59Z</time></trkpt>
<trkpt lat="46.15480296" lon="5.97931445"><ele></ele><time>2016-6-18T19:58:2Z</time></trkpt>
<trkpt lat="46.15471629" lon="5.97919039"><ele></ele><time>2016-6-18T19:58:5Z</time></trkpt>
<trkpt lat="46.15462703" lon="5.97907020"><ele></ele><time>2016-6-18T19:58:8Z</time></trkpt>
<trkpt lat="46.15453516" lon="5.97895503"><ele></ele><time>2016-6-18T19:58:11Z</time></trkpt>
<trkpt lat="46.15444112" lon="5.97884556"><ele></ele><time>2016-6-18T19:58:14Z</time></trkpt>
<trkpt lat="46.15434556" lon="5.97874154"><ele></ele><time>2016-6-18T19:58:17Z</time></trkpt>
<trkpt lat="46.15424892" lon="5.97864314"><ele></ele><time>2016-6-18T19:58:20Z</time></trkpt>
<trkpt lat="46.15415437" lon="5.97854608"><ele></ele><time>2016-6-18T19:58:23Z</time></trkpt>
<trkpt lat="46.15406066" lon="5.97845103"><ele></ele><time>2016-6-18T19:58:26Z</time></trkpt>
<trkpt lat="46.15396787" lon="5.97835782"><ele></ele><time>2016-6-18T19:58:29Z</time></trkpt>
<trkpt lat="46.15387676" lon="5.97826503"><ele></ele><time>2016-6-18T19:58:32Z</time></trkpt>
<trkpt lat="46.15378758" lon="5.97817342"><ele></ele><time>2016-6-18T19:58:35Z</time></trkpt>
<trkpt lat="46.15370049" lon="5.97808306"><ele></ele><time>2016-6-18T19:58:38Z</time></trkpt>
<trkpt lat="46.15361508" lon="5.97799405"><ele></ele><time>2016-6-18T19:58:41Z</time></trkpt>
<trkpt lat="46.15353034" lon="5.97790796"><ele></ele><time>2016-6-18T19:58:44Z</time></trkpt>
<trkpt lat="46.15344568" lon="5.97782549"><ele></ele><time>2016-6-18T19:58:47Z</time></trkpt>
<trkpt lat="46.15336228" lon="5.97774376"><ele></ele><time>2016-6-18T19:58:50Z</time></trkpt>
<trkpt lat="46.15328106" lon="5.97766195"><ele></ele><time>2016-6-18T19:58:53Z</time></trkpt>
<trkpt lat="46.15320185" lon="5.97758099"><ele></ele><time>2016-6-18T19:58:56Z</time></trkpt>
<trkpt lat="46.15312373" lon="5.97750178"><ele></ele><time>2016-6-18T19:58:59Z</time></trkpt>
<trkpt lat="46.15304679" lon="5.97742399"><ele></ele><time>2016-6-18T19:59:2Z</time></trkpt>
<trkpt lat="46.15297152" lon="5.97734403"><ele></ele><time>2016-6-18T19:59:5Z</time></trkpt>
<trkpt lat="46.15289918" lon="5.97726205"><ele></ele><time>2016-6-18T19:59:8Z</time></trkpt>
<trkpt lat="46.15282919" lon="5.97717748"><ele></ele><time>2016-6-18T19:59:11Z</time></trkpt>
<trkpt lat="46.15276046" lon="5.97709224"><ele></ele><time>2016-6-18T19:59:14Z</time></trkpt>
<trkpt lat="46.15269165" lon="5.97700817"><ele></ele><time>2016-6-18T19:59:17Z</time></trkpt>
<trkpt lat="46.15262534" lon="5.97692208"><ele></ele><time>2016-6-18T19:59:20Z</time></trkpt>
<trkpt lat="46.15255913" lon="5.97683726"><ele></ele><time>2016-6-18T19:59:23Z</time></trkpt>
<trkpt lat="46.15249492" lon="5.97675185"><ele></ele><time>2016-6-18T19:59:26Z</time></trkpt>
<trkpt lat="46.15243273" lon="5.97666543"><ele></ele><time>2016-6-18T19:59:29Z</time></trkpt>
<trkpt lat="46.15237179" lon="5.97658052"><ele></ele><time>2016-6-18T19:59:32Z</time></trkpt>
<trkpt lat="46.15231178" lon="5.97649553"><ele></ele><time>2016-6-18T19:59:35Z</time></trkpt>
<trkpt lat="46.15225235" lon="5.97641137"><ele></ele><time>2016-6-18T19:59:38Z</time></trkpt>
<trkpt lat="46.15219309" lon="5.97632797"><ele></ele><time>2016-6-18T19:59:41Z</time></trkpt>
<trkpt lat="46.15213324" lon="5.97624508"><ele></ele><time>2016-6-18T19:59:44Z</time></trkpt>
<trkpt lat="46.15207289" lon="5.97616185"><ele></ele><time>2016-6-18T19:59:47Z</time></trkpt>
<trkpt lat="46.15201280" lon="5.97607769"><ele></ele><time>2016-6-18T19:59:50Z</time></trkpt>
<trkpt lat="46.15195404" lon="5.97599186"><ele></ele><time>2016-6-18T19:59:53Z</time></trkpt>
<trkpt lat="46.15189679" lon="5.97590368"><ele></ele><time>2016-6-18T19:59:56Z</time></trkpt>
<trkpt lat="46.15183854" lon="5.97581542"><ele></ele><time>2016-6-18T19:59:59Z</time></trkpt>
<trkpt lat="46.15178020" lon="5.97572724"><ele></ele><time>2016-6-18T20:0:2Z</time></trkpt>
<trkpt lat="46.15172169" lon="5.97563932"><ele></ele><time>2016-6-18T20:0:5Z</time></trkpt>
<trkpt lat="46.15166319" lon="5.97555022"><ele></ele><time>2016-6-18T20:0:8Z</time></trkpt>
<trkpt lat="46.15160393" lon="5.97546070"><ele></ele><time>2016-6-18T20:0:11Z</time></trkpt>
<trkpt lat="46.15154458" lon="5.97537076"><ele></ele><time>2016-6-18T20:0:14Z</time></trkpt>
<trkpt lat="46.15148423" lon="5.97528116"><ele></ele><time>2016-6-18T20:0:17Z</time></trkpt>
<trkpt lat="46.15142447" lon="5.97519030"><ele></ele><time>2016-6-18T20:0:20Z</time></trkpt>
<trkpt lat="46.15136513" lon="5.97509843"><ele></ele><time>2016-6-18T20:0:23Z</time></trkpt>
<trkpt lat="46.15130528" lon="5.97500707"><ele></ele><time>2016-6-18T20:0:26Z</time></trkpt>
<trkpt lat="46.15124535" lon="5.97491537"><ele></ele><time>2016-6-18T20:0:29Z</time></trkpt>
<trkpt lat="46.15118500" lon="5.97482485"><ele></ele><time>2016-6-18T20:0:32Z</time></trkpt>
<trkpt lat="46.15112423" lon="5.97473516"><ele></ele><time>2016-6-18T20:0:35Z</time></trkpt>
<trkpt lat="46.15106028" lon="5.97464849"><ele></ele><time>2016-6-18T20:0:38Z</time></trkpt>
<trkpt lat="46.15100076" lon="5.97455336"><ele></ele><time>2016-6-18T20:0:41Z</time></trkpt>
<trkpt lat="46.15094025" lon="5.97446074"><ele></ele><time>2016-6-18T20:0:44Z</time></trkpt>
<trkpt lat="46.15087939" lon="5.97436854"><ele></ele><time>2016-6-18T20:0:47Z</time></trkpt>
<trkpt lat="46.15081544" lon="5.97427365"><ele></ele><time>2016-6-18T20:0:50Z</time></trkpt>
<trkpt lat="46.15076004" lon="5.97418129"><ele></ele><time>2016-6-18T20:0:53Z</time></trkpt>
<trkpt lat="46.15069927" lon="5.97409428"><ele></ele><time>2016-6-18T20:0:56Z</time></trkpt>
<trkpt lat="46.15063313" lon="5.97401205"><ele></ele><time>2016-6-18T20:0:59Z</time></trkpt>
<trkpt lat="46.15056667" lon="5.97392505"><ele></ele><time>2016-6-18T20:1:2Z</time></trkpt>
<trkpt lat="46.15049483" lon="5.97384785"><ele></ele><time>2016-6-18T20:1:5Z</time></trkpt>
<trkpt lat="46.15042543" lon="5.97376982"><ele></ele><time>2016-6-18T20:1:8Z</time></trkpt>
<trkpt lat="46.15036516" lon="5.97368105"><ele></ele><time>2016-6-18T20:1:11Z</time></trkpt>
<trkpt lat="46.15030155" lon="5.97359765"><ele></ele><time>2016-6-18T20:1:14Z</time></trkpt>
<trkpt lat="46.15023877" lon="5.97351417"><ele></ele><time>2016-6-18T20:1:17Z</time></trkpt>
<trkpt lat="46.15018722" lon="5.97342515"><ele></ele><time>2016-6-18T20:1:20Z</time></trkpt>
<trkpt lat="46.15013265" lon="5.97334033"><ele></ele><time>2016-6-18T20:1:23Z</time></trkpt>
<trkpt lat="46.15006258" lon="5.97326724"><ele></ele><time>2016-6-18T20:1:26Z</time></trkpt>
<trkpt lat="46.15000323" lon="5.97319415"><ele></ele><time>2016-6-18T20:1:29Z</time></trkpt>
<trkpt lat="46.14992679" lon="5.97315257"><ele></ele><time>2016-6-18T20:1:32Z</time></trkpt>
<trkpt lat="46.14986745" lon="5.97309549"><ele></ele><time>2016-6-18T20:1:35Z</time></trkpt>
<trkpt lat="46.14980534" lon="5.97303196"><ele></ele><time>2016-6-18T20:1:38Z</time></trkpt>
<trkpt lat="46.14975697" lon="5.97295485"><ele></ele><time>2016-6-18T20:1:41Z</time></trkpt>
<trkpt lat="46.14970693" lon="5.97288360"><ele></ele><time>2016-6-18T20:1:44Z</time></trkpt>
<trkpt lat="46.14966016" lon="5.97282610"><ele></ele><time>2016-6-18T20:1:47Z</time></trkpt>
<trkpt lat="46.14962169" lon="5.97276667"><ele></ele><time>2016-6-18T20:1:50Z</time></trkpt>
<trkpt lat="46.14958917" lon="5.97270305"><ele></ele><time>2016-6-18T20:1:53Z</time></trkpt>
<trkpt lat="46.14955137" lon="5.97264798"><ele></ele><time>2016-6-18T20:1:56Z</time></trkpt>
<trkpt lat="46.14950845" lon="5.97259903"><ele></ele><time>2016-6-18T20:1:59Z</time></trkpt>
<trkpt lat="46.14945489" lon="5.97255955"><ele></ele><time>2016-6-18T20:2:2Z</time></trkpt>
<trkpt lat="46.14940980" lon="5.97250549"><ele></ele><time>2016-6-18T20:2:5Z</time></trkpt>
<trkpt lat="46.14935732" lon="5.97245403"><ele></ele><time>2016-6-18T20:2:8Z</time></trkpt>
<trkpt lat="46.14930100" lon="5.97240206"><ele></ele><time>2016-6-18T20:2:11Z</time></trkpt>
<trkpt lat="46.14924752" lon="5.97234347"><ele></ele><time>2016-6-18T20:2:14Z</time></trkpt>
<trkpt lat="46.14920167" lon="5.97227532"><ele></ele><time>2016-6-18T20:2:17Z</time></trkpt>
<trkpt lat="46.14915633" lon="5.97220575"><ele></ele><time>2016-6-18T20:2:20Z</time></trkpt>
<trkpt lat="46.14910964" lon="5.97213577"><ele></ele><time>2016-6-18T20:2:23Z</time></trkpt>
<trkpt lat="46.14905683" lon="5.97206745"><ele></ele><time>2016-6-18T20:2:26Z</time></trkpt>
<trkpt lat="46.14900026" lon="5.97200300"><ele></ele><time>2016-6-18T20:2:29Z</time></trkpt>
<trkpt lat="46.14894435" lon="5.97193695"><ele></ele><time>2016-6-18T20:2:32Z</time></trkpt>
<trkpt lat="46.14888743" lon="5.97186679"><ele></ele><time>2016-6-18T20:2:35Z</time></trkpt>
<trkpt lat="46.14883278" lon="5.97179722"><ele></ele><time>2016-6-18T20:2:38Z</time></trkpt>
<trkpt lat="46.14877872" lon="5.97172807"><ele></ele><time>2016-6-18T20:2:41Z</time></trkpt>
<trkpt lat="46.14871745" lon="5.97166277"><ele></ele><time>2016-6-18T20:2:44Z</time></trkpt>
<trkpt lat="46.14866448" lon="5.97159103"><ele></ele><time>2016-6-18T20:2:47Z</time></trkpt>
<trkpt lat="46.14861284" lon="5.97151685"><ele></ele><time>2016-6-18T20:2:50Z</time></trkpt>
<trkpt lat="46.14855694" lon="5.97144535"><ele></ele><time>2016-6-18T20:2:53Z</time></trkpt>
<trkpt lat="46.14849776" lon="5.97140319"><ele></ele><time>2016-6-18T20:2:56Z</time></trkpt>
<trkpt lat="46.14847278" lon="5.97130017"><ele></ele><time>2016-6-18T20:2:59Z</time></trkpt>
<trkpt lat="46.14843666" lon="5.97122046"><ele></ele><time>2016-6-18T20:3:2Z</time></trkpt>
<trkpt lat="46.14839533" lon="5.97115098"><ele></ele><time>2016-6-18T20:3:5Z</time></trkpt>
<trkpt lat="46.14834848" lon="5.97108509"><ele></ele><time>2016-6-18T20:3:8Z</time></trkpt>
<trkpt lat="46.14829450" lon="5.97102583"><ele></ele><time>2016-6-18T20:3:11Z</time></trkpt>
<trkpt lat="46.14823993" lon="5.97096758"><ele></ele><time>2016-6-18T20:3:14Z</time></trkpt>
<trkpt lat="46.14819073" lon="5.97090404"><ele></ele><time>2016-6-18T20:3:17Z</time></trkpt>
<trkpt lat="46.14814354" lon="5.97084085"><ele></ele><time>2016-6-18T20:3:20Z</time></trkpt>
<trkpt lat="46.14810348" lon="5.97077379"><ele></ele><time>2016-6-18T20:3:23Z</time></trkpt>
<trkpt lat="46.14807297" lon="5.97069718"><ele></ele><time>2016-6-18T20:3:26Z</time></trkpt>
<trkpt lat="46.14803466" lon="5.97062769"><ele></ele><time>2016-6-18T20:3:29Z</time></trkpt>
<trkpt lat="46.14799376" lon="5.97056106"><ele></ele><time>2016-6-18T20:3:32Z</time></trkpt>
<trkpt lat="46.14794757" lon="5.97049777"><ele></ele><time>2016-6-18T20:3:35Z</time></trkpt>
<trkpt lat="46.14790156" lon="5.97043508"><ele></ele><time>2016-6-18T20:3:38Z</time></trkpt>
<trkpt lat="46.14785789" lon="5.97037003"><ele></ele><time>2016-6-18T20:3:41Z</time></trkpt>
<trkpt lat="46.14781547" lon="5.97030457"><ele></ele><time>2016-6-18T20:3:44Z</time></trkpt>
<trkpt lat="46.14777516" lon="5.97023970"><ele></ele><time>2016-6-18T20:3:47Z</time></trkpt>
<trkpt lat="46.14773576" lon="5.97017499"><ele></ele><time>2016-6-18T20:3:50Z</time></trkpt>
<trkpt lat="46.14769620" lon="5.97011296"><ele></ele><time>2016-6-18T20:3:53Z</time></trkpt>
<trkpt lat="46.14765613" lon="5.97005714"><ele></ele><time>2016-6-18T20:3:56Z</time></trkpt>
<trkpt lat="46.14762126" lon="5.97000919"><ele></ele><time>2016-6-18T20:3:59Z</time></trkpt>
<trkpt lat="46.14758413" lon="5.96997994"><ele></ele><time>2016-6-18T20:4:2Z</time></trkpt>
<trkpt lat="46.14754532" lon="5.96997977"><ele></ele><time>2016-6-18T20:4:5Z</time></trkpt>
<trkpt lat="46.14750492" lon="5.96999628"><ele></ele><time>2016-6-18T20:4:8Z</time></trkpt>
<trkpt lat="46.14747894" lon="5.97001280"><ele></ele><time>2016-6-18T20:4:11Z</time></trkpt>
<trkpt lat="46.14746603" lon="5.97002026"><ele></ele><time>2016-6-18T20:4:14Z</time></trkpt>
<trkpt lat="46.14745882" lon="5.97002160"><ele></ele><time>2016-6-18T20:4:17Z</time></trkpt>
<trkpt lat="46.14745262" lon="5.97001992"><ele></ele><time>2016-6-18T20:4:20Z</time></trkpt>
<trkpt lat="46.14744432" lon="5.97001866"><ele></ele><time>2016-6-18T20:4:23Z</time></trkpt>
<trkpt lat="46.14744416" lon="5.97001146"><ele></ele><time>2016-6-18T20:4:26Z</time></trkpt>
<trkpt lat="46.14744365" lon="5.97000416"><ele></ele><time>2016-6-18T20:4:29Z</time></trkpt>
<trkpt lat="46.14744994" lon="5.97000106"><ele></ele><time>2016-6-18T20:4:32Z</time></trkpt>
</trkseg></trk></gpx>